<?xml version='1.0' encoding='UTF-8'?><gpx version="1.1" creator="JPX - https://github.com/jenetics/jpx" xmlns="http://www.topografix.com/GPX/1/1"><trk><trkseg><trkpt lat="38.91806" lon="16.5787"><ele>377.16666666666663</ele><time>2026-04-18T09:01:19.531Z</time></trkpt><trkpt lat="38.91812" lon="16.5786667"><ele>375.3333333333333</ele><time>2026-04-18T09:01:20.53Z</time></trkpt><trkpt lat="38.9182067" lon="16.57864"><ele>373.5</ele><time>2026-04-18T09:01:21.532Z</time></trkpt><trkpt lat="38.9182917" lon="16.578625"><ele>371.6666666666667</ele><time>2026-04-18T09:01:22.532Z</time></trkpt><trkpt lat="38.9183917" lon="16.5786133"><ele>369.83333333333337</ele><time>2026-04-18T09:01:23.533Z</time></trkpt><trkpt lat="38.9184983" lon="16.5785967"><ele>368.0</ele><time>2026-04-18T09:01:24.532Z</time></trkpt><trkpt lat="38.91861" lon="16.578575"><ele>368.0</ele><time>2026-04-18T09:01:25.535Z</time></trkpt><trkpt lat="38.91873" lon="16.5785533"><ele>368.0</ele><time>2026-04-18T09:01:26.532Z</time></trkpt><trkpt lat="38.9188483" lon="16.57853"><ele>368.0</ele><time>2026-04-18T09:01:27.533Z</time></trkpt><trkpt lat="38.9189733" lon="16.57851"><ele>368.0</ele><time>2026-04-18T09:01:28.534Z</time></trkpt><trkpt lat="38.9190983" lon="16.5784917"><ele>368.0</ele><time>2026-04-18T09:01:29.534Z</time></trkpt><trkpt lat="38.91923" lon="16.5784783"><ele>368.0</ele><time>2026-04-18T09:01:30.535Z</time></trkpt><trkpt lat="38.919375" lon="16.57848"><ele>368.0</ele><time>2026-04-18T09:01:31.534Z</time></trkpt><trkpt lat="38.9195217" lon="16.5784917"><ele>368.0</ele><time>2026-04-18T09:01:32.533Z</time></trkpt><trkpt lat="38.9196717" lon="16.5785183"><ele>368.33333333333337</ele><time>2026-04-18T09:01:33.533Z</time></trkpt><trkpt lat="38.9198217" lon="16.57858"><ele>368.6666666666667</ele><time>2026-04-18T09:01:34.534Z</time></trkpt><trkpt lat="38.9199683" lon="16.5786733"><ele>369.0</ele><time>2026-04-18T09:01:35.531Z</time></trkpt><trkpt lat="38.9201083" lon="16.5788"><ele>369.0</ele><time>2026-04-18T09:01:36.531Z</time></trkpt><trkpt lat="38.920235" lon="16.5789583"><ele>369.0</ele><time>2026-04-18T09:01:37.533Z</time></trkpt><trkpt lat="38.92034" lon="16.5791417"><ele>369.0</ele><time>2026-04-18T09:01:38.532Z</time></trkpt><trkpt lat="38.92043" lon="16.5793333"><ele>376.33333333333337</ele><time>2026-04-18T09:01:39.533Z</time></trkpt><trkpt lat="38.920505" lon="16.579535"><ele>383.6666666666667</ele><time>2026-04-18T09:01:40.533Z</time></trkpt><trkpt lat="38.9205783" lon="16.579745"><ele>391.0</ele><time>2026-04-18T09:01:41.532Z</time></trkpt><trkpt lat="38.9206583" lon="16.5799583"><ele>391.0</ele><time>2026-04-18T09:01:42.532Z</time></trkpt><trkpt lat="38.9207583" lon="16.5801617"><ele>391.0</ele><time>2026-04-18T09:01:43.532Z</time></trkpt><trkpt lat="38.920875" lon="16.5803467"><ele>391.0</ele><time>2026-04-18T09:01:44.533Z</time></trkpt><trkpt lat="38.9210183" lon="16.5805033"><ele>393.6666666666667</ele><time>2026-04-18T09:01:45.533Z</time></trkpt><trkpt lat="38.9211783" lon="16.5806267"><ele>396.33333333333337</ele><time>2026-04-18T09:01:46.534Z</time></trkpt><trkpt lat="38.92136" lon="16.5807167"><ele>399.0</ele><time>2026-04-18T09:01:47.532Z</time></trkpt><trkpt lat="38.92156" lon="16.58077"><ele>402.0</ele><time>2026-04-18T09:01:48.534Z</time></trkpt><trkpt lat="38.9217717" lon="16.5807933"><ele>405.0</ele><time>2026-04-18T09:01:49.535Z</time></trkpt><trkpt lat="38.921985" lon="16.5808033"><ele>408.0</ele><time>2026-04-18T09:01:50.533Z</time></trkpt><trkpt lat="38.9221967" lon="16.580815"><ele>408.0</ele><time>2026-04-18T09:01:51.533Z</time></trkpt><trkpt lat="38.9224033" lon="16.5808233"><ele>408.0</ele><time>2026-04-18T09:01:52.531Z</time></trkpt><trkpt lat="38.9226083" lon="16.5808317"><ele>408.0</ele><time>2026-04-18T09:01:53.532Z</time></trkpt><trkpt lat="38.9228067" lon="16.5808417"><ele>409.66666666666663</ele><time>2026-04-18T09:01:54.534Z</time></trkpt><trkpt lat="38.9230017" lon="16.5808283"><ele>411.3333333333333</ele><time>2026-04-18T09:01:55.535Z</time></trkpt><trkpt lat="38.9231983" lon="16.58078"><ele>413.0</ele><time>2026-04-18T09:01:56.533Z</time></trkpt><trkpt lat="38.9233933" lon="16.5806983"><ele>413.66666666666663</ele><time>2026-04-18T09:01:57.533Z</time></trkpt><trkpt lat="38.9235833" lon="16.580575"><ele>414.33333333333337</ele><time>2026-04-18T09:01:58.531Z</time></trkpt><trkpt lat="38.92376" lon="16.5804367"><ele>415.0</ele><time>2026-04-18T09:01:59.532Z</time></trkpt><trkpt lat="38.92393" lon="16.5802983"><ele>417.0</ele><time>2026-04-18T09:02:00.534Z</time></trkpt><trkpt lat="38.9240967" lon="16.5801533"><ele>419.0</ele><time>2026-04-18T09:02:01.533Z</time></trkpt><trkpt lat="38.9242633" lon="16.5800117"><ele>421.0</ele><time>2026-04-18T09:02:02.531Z</time></trkpt><trkpt lat="38.9244333" lon="16.5798717"><ele>424.0</ele><time>2026-04-18T09:02:03.53Z</time></trkpt><trkpt lat="38.9246033" lon="16.57973"><ele>427.0</ele><time>2026-04-18T09:02:04.53Z</time></trkpt><trkpt lat="38.9247717" lon="16.57959"><ele>430.0</ele><time>2026-04-18T09:02:05.531Z</time></trkpt><trkpt lat="38.9249433" lon="16.57945"><ele>433.33333333333337</ele><time>2026-04-18T09:02:06.535Z</time></trkpt><trkpt lat="38.9251133" lon="16.5793117"><ele>436.66666666666663</ele><time>2026-04-18T09:02:07.53Z</time></trkpt><trkpt lat="38.9252783" lon="16.579185"><ele>440.0</ele><time>2026-04-18T09:02:08.531Z</time></trkpt><trkpt lat="38.9254483" lon="16.5790483"><ele>440.0</ele><time>2026-04-18T09:02:09.532Z</time></trkpt><trkpt lat="38.9256233" lon="16.5789017"><ele>440.0</ele><time>2026-04-18T09:02:10.532Z</time></trkpt><trkpt lat="38.92581" lon="16.578515"><ele>437.5</ele><time>2026-04-18T09:02:11.534Z</time></trkpt><trkpt lat="38.9258467" lon="16.5779917"><ele>435.0</ele><time>2026-04-18T09:02:12.531Z</time></trkpt><trkpt lat="38.92598" lon="16.5776233"><ele>435.0</ele><time>2026-04-18T09:02:13.535Z</time></trkpt><trkpt lat="38.9261483" lon="16.57735"><ele>435.0</ele><time>2026-04-18T09:02:14.532Z</time></trkpt><trkpt lat="38.9263117" lon="16.5771167"><ele>430.33333333333337</ele><time>2026-04-18T09:02:15.532Z</time></trkpt><trkpt lat="38.926465" lon="16.5769433"><ele>425.6666666666667</ele><time>2026-04-18T09:02:16.531Z</time></trkpt><trkpt lat="38.926625" lon="16.5768067"><ele>421.0</ele><time>2026-04-18T09:02:17.532Z</time></trkpt><trkpt lat="38.926795" lon="16.5767"><ele>421.0</ele><time>2026-04-18T09:02:18.532Z</time></trkpt><trkpt lat="38.9269683" lon="16.576615"><ele>421.0</ele><time>2026-04-18T09:02:19.532Z</time></trkpt><trkpt lat="38.9271417" lon="16.57653"><ele>421.0</ele><time>2026-04-18T09:02:20.531Z</time></trkpt><trkpt lat="38.927315" lon="16.5764467"><ele>421.0</ele><time>2026-04-18T09:02:21.532Z</time></trkpt><trkpt lat="38.9274867" lon="16.5763633"><ele>421.0</ele><time>2026-04-18T09:02:22.533Z</time></trkpt><trkpt lat="38.92766" lon="16.57628"><ele>421.0</ele><time>2026-04-18T09:02:23.532Z</time></trkpt><trkpt lat="38.9278283" lon="16.576205"><ele>416.0</ele><time>2026-04-18T09:02:24.532Z</time></trkpt><trkpt lat="38.9280067" lon="16.5761783"><ele>411.0</ele><time>2026-04-18T09:02:25.532Z</time></trkpt><trkpt lat="38.9282167" lon="16.5765767"><ele>411.0</ele><time>2026-04-18T09:02:26.532Z</time></trkpt><trkpt lat="38.9283583" lon="16.57701"><ele>411.0</ele><time>2026-04-18T09:02:27.533Z</time></trkpt><trkpt lat="38.9285417" lon="16.57718"><ele>412.66666666666663</ele><time>2026-04-18T09:02:28.533Z</time></trkpt><trkpt lat="38.9287033" lon="16.5773633"><ele>414.3333333333333</ele><time>2026-04-18T09:02:29.53Z</time></trkpt><trkpt lat="38.928865" lon="16.57754"><ele>416.0</ele><time>2026-04-18T09:02:30.532Z</time></trkpt><trkpt lat="38.9290233" lon="16.5777317"><ele>417.3333333333333</ele><time>2026-04-18T09:02:31.532Z</time></trkpt><trkpt lat="38.9291917" lon="16.577915"><ele>418.66666666666663</ele><time>2026-04-18T09:02:32.534Z</time></trkpt><trkpt lat="38.92937" lon="16.5780817"><ele>420.0</ele><time>2026-04-18T09:02:33.533Z</time></trkpt><trkpt lat="38.9295633" lon="16.5782233"><ele>420.0</ele><time>2026-04-18T09:02:34.531Z</time></trkpt><trkpt lat="38.9297717" lon="16.578335"><ele>420.0</ele><time>2026-04-18T09:02:35.534Z</time></trkpt><trkpt lat="38.9299867" lon="16.57842"><ele>414.5</ele><time>2026-04-18T09:02:36.531Z</time></trkpt><trkpt lat="38.9302133" lon="16.57846"><ele>409.0</ele><time>2026-04-18T09:02:37.534Z</time></trkpt><trkpt lat="38.930445" lon="16.5784667"><ele>409.0</ele><time>2026-04-18T09:02:38.531Z</time></trkpt><trkpt lat="38.9306767" lon="16.57844"><ele>409.0</ele><time>2026-04-18T09:02:39.535Z</time></trkpt><trkpt lat="38.930915" lon="16.5783867"><ele>412.5</ele><time>2026-04-18T09:02:40.533Z</time></trkpt><trkpt lat="38.9311533" lon="16.5783217"><ele>416.0</ele><time>2026-04-18T09:02:41.531Z</time></trkpt><trkpt lat="38.9313867" lon="16.578255"><ele>416.0</ele><time>2026-04-18T09:02:42.534Z</time></trkpt><trkpt lat="38.9316283" lon="16.5781883"><ele>416.0</ele><time>2026-04-18T09:02:43.534Z</time></trkpt><trkpt lat="38.9318683" lon="16.5781283"><ele>430.0</ele><time>2026-04-18T09:02:44.533Z</time></trkpt><trkpt lat="38.9321067" lon="16.578085"><ele>444.0</ele><time>2026-04-18T09:02:45.532Z</time></trkpt><trkpt lat="38.9323433" lon="16.5780583"><ele>444.0</ele><time>2026-04-18T09:02:46.532Z</time></trkpt><trkpt lat="38.9325767" lon="16.57806"><ele>444.0</ele><time>2026-04-18T09:02:47.531Z</time></trkpt><trkpt lat="38.93281" lon="16.5780833"><ele>444.0</ele><time>2026-04-18T09:02:48.533Z</time></trkpt><trkpt lat="38.9330383" lon="16.5781283"><ele>444.0</ele><time>2026-04-18T09:02:49.531Z</time></trkpt><trkpt lat="38.9332633" lon="16.5781867"><ele>444.5</ele><time>2026-04-18T09:02:50.532Z</time></trkpt><trkpt lat="38.9334967" lon="16.5782583"><ele>445.0</ele><time>2026-04-18T09:02:51.534Z</time></trkpt><trkpt lat="38.93373" lon="16.57833"><ele>445.0</ele><time>2026-04-18T09:02:52.531Z</time></trkpt><trkpt lat="38.93396" lon="16.5784083"><ele>445.0</ele><time>2026-04-18T09:02:53.534Z</time></trkpt><trkpt lat="38.93419" lon="16.57849"><ele>451.5</ele><time>2026-04-18T09:02:54.533Z</time></trkpt><trkpt lat="38.9344133" lon="16.5785717"><ele>458.0</ele><time>2026-04-18T09:02:55.531Z</time></trkpt><trkpt lat="38.934625" lon="16.5786583"><ele>459.0</ele><time>2026-04-18T09:02:56.531Z</time></trkpt><trkpt lat="38.9348233" lon="16.5787633"><ele>460.0</ele><time>2026-04-18T09:02:57.531Z</time></trkpt><trkpt lat="38.9350117" lon="16.5788783"><ele>461.0</ele><time>2026-04-18T09:02:58.533Z</time></trkpt><trkpt lat="38.9351833" lon="16.5790083"><ele>461.0</ele><time>2026-04-18T09:02:59.53Z</time></trkpt><trkpt lat="38.935345" lon="16.57914"><ele>461.0</ele><time>2026-04-18T09:03:00.53Z</time></trkpt><trkpt lat="38.9355" lon="16.57927"><ele>461.0</ele><time>2026-04-18T09:03:01.532Z</time></trkpt><trkpt lat="38.9356517" lon="16.5794017"><ele>461.0</ele><time>2026-04-18T09:03:02.532Z</time></trkpt><trkpt lat="38.9357917" lon="16.5795667"><ele>461.0</ele><time>2026-04-18T09:03:03.532Z</time></trkpt><trkpt lat="38.9359117" lon="16.579755"><ele>461.0</ele><time>2026-04-18T09:03:04.53Z</time></trkpt><trkpt lat="38.9360183" lon="16.579905"><ele>460.0</ele><time>2026-04-18T09:03:05.531Z</time></trkpt><trkpt lat="38.93611" lon="16.5800433"><ele>459.0</ele><time>2026-04-18T09:03:06.53Z</time></trkpt><trkpt lat="38.9361917" lon="16.5801817"><ele>458.0</ele><time>2026-04-18T09:03:07.531Z</time></trkpt><trkpt lat="38.93625" lon="16.58031"><ele>457.0</ele><time>2026-04-18T09:03:08.531Z</time></trkpt><trkpt lat="38.93626" lon="16.580435"><ele>457.00000000000006</ele><time>2026-04-18T09:03:09.531Z</time></trkpt><trkpt lat="38.9362517" lon="16.5805467"><ele>457.0</ele><time>2026-04-18T09:03:10.532Z</time></trkpt><trkpt lat="38.936255" lon="16.58065"><ele>457.0</ele><time>2026-04-18T09:03:11.53Z</time></trkpt><trkpt lat="38.9362783" lon="16.580745"><ele>457.0</ele><time>2026-04-18T09:03:12.53Z</time></trkpt><trkpt lat="38.9363167" lon="16.5808183"><ele>457.00000000000006</ele><time>2026-04-18T09:03:13.531Z</time></trkpt><trkpt lat="38.9363983" lon="16.5808367"><ele>457.0</ele><time>2026-04-18T09:03:14.53Z</time></trkpt><trkpt lat="38.9364817" lon="16.5808183"><ele>457.0</ele><time>2026-04-18T09:03:15.534Z</time></trkpt><trkpt lat="38.9365583" lon="16.5807733"><ele>457.00000000000006</ele><time>2026-04-18T09:03:16.531Z</time></trkpt><trkpt lat="38.93663" lon="16.5807117"><ele>457.00000000000006</ele><time>2026-04-18T09:03:17.534Z</time></trkpt><trkpt lat="38.9367067" lon="16.5806617"><ele>457.0</ele><time>2026-04-18T09:03:18.53Z</time></trkpt><trkpt lat="38.9367867" lon="16.580605"><ele>457.0</ele><time>2026-04-18T09:03:19.533Z</time></trkpt><trkpt lat="38.93689" lon="16.58058"><ele>459.6666666666667</ele><time>2026-04-18T09:03:20.533Z</time></trkpt><trkpt lat="38.9370183" lon="16.5805567"><ele>462.33333333333337</ele><time>2026-04-18T09:03:21.533Z</time></trkpt><trkpt lat="38.9371683" lon="16.5806117"><ele>465.0</ele><time>2026-04-18T09:03:22.532Z</time></trkpt><trkpt lat="38.937355" lon="16.5806217"><ele>465.0</ele><time>2026-04-18T09:03:23.533Z</time></trkpt><trkpt lat="38.9375" lon="16.5807333"><ele>465.0</ele><time>2026-04-18T09:03:24.532Z</time></trkpt><trkpt lat="38.9376633" lon="16.5807067"><ele>465.0</ele><time>2026-04-18T09:03:25.534Z</time></trkpt><trkpt lat="38.9378217" lon="16.58074"><ele>469.25</ele><time>2026-04-18T09:03:26.532Z</time></trkpt><trkpt lat="38.9379733" lon="16.5807567"><ele>473.5</ele><time>2026-04-18T09:03:27.534Z</time></trkpt><trkpt lat="38.9381083" lon="16.5807333"><ele>477.75</ele><time>2026-04-18T09:03:28.533Z</time></trkpt><trkpt lat="38.9382" lon="16.580615"><ele>482.0</ele><time>2026-04-18T09:03:29.531Z</time></trkpt><trkpt lat="38.9382933" lon="16.5805233"><ele>482.0</ele><time>2026-04-18T09:03:30.533Z</time></trkpt><trkpt lat="38.9383433" lon="16.5803883"><ele>482.0</ele><time>2026-04-18T09:03:31.535Z</time></trkpt><trkpt lat="38.9383583" lon="16.5802533"><ele>482.0</ele><time>2026-04-18T09:03:32.532Z</time></trkpt><trkpt lat="38.93833" lon="16.5801217"><ele>482.0</ele><time>2026-04-18T09:03:33.531Z</time></trkpt><trkpt lat="38.9383667" lon="16.579965"><ele>480.5</ele><time>2026-04-18T09:03:34.531Z</time></trkpt><trkpt lat="38.9383783" lon="16.579805"><ele>479.0</ele><time>2026-04-18T09:03:35.532Z</time></trkpt><trkpt lat="38.93844" lon="16.57964"><ele>477.5</ele><time>2026-04-18T09:03:36.531Z</time></trkpt><trkpt lat="38.9385" lon="16.5794883"><ele>476.0</ele><time>2026-04-18T09:03:37.531Z</time></trkpt><trkpt lat="38.9385567" lon="16.579355"><ele>476.0</ele><time>2026-04-18T09:03:38.533Z</time></trkpt><trkpt lat="38.9386233" lon="16.57923"><ele>476.0</ele><time>2026-04-18T09:03:39.531Z</time></trkpt><trkpt lat="38.93872" lon="16.5791517"><ele>476.0</ele><time>2026-04-18T09:03:40.531Z</time></trkpt><trkpt lat="38.93884" lon="16.579105"><ele>476.0</ele><time>2026-04-18T09:03:41.535Z</time></trkpt><trkpt lat="38.93897" lon="16.5790683"><ele>476.0</ele><time>2026-04-18T09:03:42.531Z</time></trkpt><trkpt lat="38.93909" lon="16.5789883"><ele>476.0</ele><time>2026-04-18T09:03:43.532Z</time></trkpt><trkpt lat="38.9392233" lon="16.578935"><ele>476.0</ele><time>2026-04-18T09:03:44.53Z</time></trkpt><trkpt lat="38.9393683" lon="16.5789"><ele>476.0</ele><time>2026-04-18T09:03:45.534Z</time></trkpt><trkpt lat="38.939505" lon="16.5788417"><ele>476.5</ele><time>2026-04-18T09:03:46.531Z</time></trkpt><trkpt lat="38.9396367" lon="16.578795"><ele>477.0</ele><time>2026-04-18T09:03:47.53Z</time></trkpt><trkpt lat="38.93976" lon="16.57875"><ele>477.5</ele><time>2026-04-18T09:03:48.532Z</time></trkpt><trkpt lat="38.939875" lon="16.5787033"><ele>478.0</ele><time>2026-04-18T09:03:49.534Z</time></trkpt><trkpt lat="38.9399783" lon="16.5786417"><ele>477.4</ele><time>2026-04-18T09:03:50.531Z</time></trkpt><trkpt lat="38.9400617" lon="16.5786433"><ele>476.79999999999995</ele><time>2026-04-18T09:03:51.531Z</time></trkpt><trkpt lat="38.9401417" lon="16.5786883"><ele>476.2</ele><time>2026-04-18T09:03:52.535Z</time></trkpt><trkpt lat="38.9402167" lon="16.57877"><ele>475.6</ele><time>2026-04-18T09:03:53.533Z</time></trkpt><trkpt lat="38.9402983" lon="16.5788633"><ele>475.0</ele><time>2026-04-18T09:03:54.534Z</time></trkpt><trkpt lat="38.94039" lon="16.5789667"><ele>475.0</ele><time>2026-04-18T09:03:55.533Z</time></trkpt><trkpt lat="38.9404517" lon="16.5791"><ele>475.0</ele><time>2026-04-18T09:03:56.532Z</time></trkpt><trkpt lat="38.9405483" lon="16.579205"><ele>475.0</ele><time>2026-04-18T09:03:57.533Z</time></trkpt><trkpt lat="38.9406667" lon="16.57929"><ele>475.0</ele><time>2026-04-18T09:03:58.532Z</time></trkpt><trkpt lat="38.94075" lon="16.5793833"><ele>475.0</ele><time>2026-04-18T09:03:59.535Z</time></trkpt><trkpt lat="38.9408317" lon="16.57946"><ele>475.0</ele><time>2026-04-18T09:04:00.532Z</time></trkpt><trkpt lat="38.9409217" lon="16.5794967"><ele>475.0</ele><time>2026-04-18T09:04:01.532Z</time></trkpt><trkpt lat="38.94101" lon="16.5794833"><ele>475.0</ele><time>2026-04-18T09:04:02.531Z</time></trkpt><trkpt lat="38.9410917" lon="16.5794267"><ele>475.0</ele><time>2026-04-18T09:04:03.532Z</time></trkpt><trkpt lat="38.9411383" lon="16.5793233"><ele>477.2</ele><time>2026-04-18T09:04:04.531Z</time></trkpt><trkpt lat="38.94114" lon="16.5791867"><ele>479.4</ele><time>2026-04-18T09:04:05.533Z</time></trkpt><trkpt lat="38.9411317" lon="16.57904"><ele>481.6</ele><time>2026-04-18T09:04:06.534Z</time></trkpt><trkpt lat="38.9411767" lon="16.5789267"><ele>483.8</ele><time>2026-04-18T09:04:07.534Z</time></trkpt><trkpt lat="38.941235" lon="16.5788133"><ele>486.0</ele><time>2026-04-18T09:04:08.533Z</time></trkpt><trkpt lat="38.9413067" lon="16.5787117"><ele>484.20000000000005</ele><time>2026-04-18T09:04:09.532Z</time></trkpt><trkpt lat="38.9413933" lon="16.578635"><ele>482.40000000000003</ele><time>2026-04-18T09:04:10.532Z</time></trkpt><trkpt lat="38.94149" lon="16.5785717"><ele>480.6</ele><time>2026-04-18T09:04:11.53Z</time></trkpt><trkpt lat="38.941595" lon="16.578525"><ele>478.8</ele><time>2026-04-18T09:04:12.53Z</time></trkpt><trkpt lat="38.9417083" lon="16.5784933"><ele>477.0</ele><time>2026-04-18T09:04:13.53Z</time></trkpt><trkpt lat="38.941825" lon="16.57847"><ele>477.0</ele><time>2026-04-18T09:04:14.53Z</time></trkpt><trkpt lat="38.941925" lon="16.5784267"><ele>477.00000000000006</ele><time>2026-04-18T09:04:15.53Z</time></trkpt><trkpt lat="38.9420267" lon="16.57838"><ele>477.00000000000006</ele><time>2026-04-18T09:04:16.611Z</time></trkpt><trkpt lat="38.9421117" lon="16.5783083"><ele>477.0</ele><time>2026-04-18T09:04:17.53Z</time></trkpt><trkpt lat="38.9421783" lon="16.5782117"><ele>477.0</ele><time>2026-04-18T09:04:18.53Z</time></trkpt><trkpt lat="38.942245" lon="16.5781383"><ele>477.0</ele><time>2026-04-18T09:04:19.53Z</time></trkpt><trkpt lat="38.94232" lon="16.5780883"><ele>477.0</ele><time>2026-04-18T09:04:20.53Z</time></trkpt><trkpt lat="38.9424" lon="16.578085"><ele>477.0</ele><time>2026-04-18T09:04:21.534Z</time></trkpt><trkpt lat="38.9424783" lon="16.57813"><ele>477.0</ele><time>2026-04-18T09:04:22.532Z</time></trkpt><trkpt lat="38.94254" lon="16.5782183"><ele>477.0</ele><time>2026-04-18T09:04:23.529Z</time></trkpt><trkpt lat="38.942585" lon="16.5783233"><ele>477.0</ele><time>2026-04-18T09:04:24.535Z</time></trkpt><trkpt lat="38.9426333" lon="16.5784283"><ele>475.20000000000005</ele><time>2026-04-18T09:04:25.531Z</time></trkpt><trkpt lat="38.942675" lon="16.5785283"><ele>473.40000000000003</ele><time>2026-04-18T09:04:26.531Z</time></trkpt><trkpt lat="38.9427217" lon="16.5786117"><ele>471.59999999999997</ele><time>2026-04-18T09:04:27.532Z</time></trkpt><trkpt lat="38.942775" lon="16.57873"><ele>469.79999999999995</ele><time>2026-04-18T09:04:29.53Z</time></trkpt><trkpt lat="38.9428667" lon="16.5787433"><ele>468.0</ele><time>2026-04-18T09:04:41.532Z</time></trkpt><trkpt lat="38.9429867" lon="16.57871"><ele>471.79999999999995</ele><time>2026-04-18T09:04:43.532Z</time></trkpt><trkpt lat="38.9430833" lon="16.57872"><ele>475.59999999999997</ele><time>2026-04-18T09:04:45.536Z</time></trkpt><trkpt lat="38.9431033" lon="16.57881"><ele>479.40000000000003</ele><time>2026-04-18T09:04:47.531Z</time></trkpt><trkpt lat="38.9430717" lon="16.578935"><ele>483.20000000000005</ele><time>2026-04-18T09:04:49.532Z</time></trkpt><trkpt lat="38.9430217" lon="16.5790367"><ele>487.0</ele><time>2026-04-18T09:04:50.533Z</time></trkpt><trkpt lat="38.94298" lon="16.5791367"><ele>487.0</ele><time>2026-04-18T09:04:51.532Z</time></trkpt><trkpt lat="38.9429033" lon="16.579245"><ele>487.00000000000006</ele><time>2026-04-18T09:04:52.532Z</time></trkpt><trkpt lat="38.9428767" lon="16.5793333"><ele>487.00000000000006</ele><time>2026-04-18T09:04:53.533Z</time></trkpt><trkpt lat="38.9428583" lon="16.57942"><ele>487.0</ele><time>2026-04-18T09:04:54.532Z</time></trkpt><trkpt lat="38.942885" lon="16.5795583"><ele>487.0</ele><time>2026-04-18T09:04:56.532Z</time></trkpt><trkpt lat="38.94301" lon="16.5796183"><ele>487.8</ele><time>2026-04-18T09:04:58.531Z</time></trkpt><trkpt lat="38.9431" lon="16.57965"><ele>488.6</ele><time>2026-04-18T09:04:59.531Z</time></trkpt><trkpt lat="38.9431967" lon="16.5796683"><ele>489.40000000000003</ele><time>2026-04-18T09:05:00.534Z</time></trkpt><trkpt lat="38.9432867" lon="16.579665"><ele>490.20000000000005</ele><time>2026-04-18T09:05:01.532Z</time></trkpt><trkpt lat="38.94339" lon="16.5796667"><ele>491.0</ele><time>2026-04-18T09:05:02.531Z</time></trkpt><trkpt lat="38.9434733" lon="16.5796217"><ele>490.99999999999994</ele><time>2026-04-18T09:05:03.532Z</time></trkpt><trkpt lat="38.94355" lon="16.57955"><ele>491.0</ele><time>2026-04-18T09:05:04.532Z</time></trkpt><trkpt lat="38.943625" lon="16.57948"><ele>491.0</ele><time>2026-04-18T09:05:05.533Z</time></trkpt><trkpt lat="38.9436967" lon="16.5794417"><ele>491.0</ele><time>2026-04-18T09:05:06.53Z</time></trkpt><trkpt lat="38.9437667" lon="16.57943"><ele>490.99999999999994</ele><time>2026-04-18T09:05:07.532Z</time></trkpt><trkpt lat="38.9438683" lon="16.5794733"><ele>491.0</ele><time>2026-04-18T09:05:09.534Z</time></trkpt><trkpt lat="38.9439217" lon="16.57956"><ele>491.0</ele><time>2026-04-18T09:05:11.533Z</time></trkpt><trkpt lat="38.9439617" lon="16.579715"><ele>491.0</ele><time>2026-04-18T09:05:13.532Z</time></trkpt><trkpt lat="38.943995" lon="16.5798167"><ele>491.0</ele><time>2026-04-18T09:05:14.53Z</time></trkpt><trkpt lat="38.94405" lon="16.57992"><ele>491.0</ele><time>2026-04-18T09:05:15.532Z</time></trkpt><trkpt lat="38.9440933" lon="16.5800233"><ele>491.0</ele><time>2026-04-18T09:05:16.532Z</time></trkpt><trkpt lat="38.94409" lon="16.5801283"><ele>490.99999999999994</ele><time>2026-04-18T09:05:17.531Z</time></trkpt><trkpt lat="38.94409" lon="16.5802317"><ele>491.0</ele><time>2026-04-18T09:05:18.533Z</time></trkpt><trkpt lat="38.9440917" lon="16.5803333"><ele>491.0</ele><time>2026-04-18T09:05:19.532Z</time></trkpt><trkpt lat="38.9441233" lon="16.5804217"><ele>491.0</ele><time>2026-04-18T09:05:20.532Z</time></trkpt><trkpt lat="38.944165" lon="16.5805033"><ele>490.99999999999994</ele><time>2026-04-18T09:05:21.532Z</time></trkpt><trkpt lat="38.94423" lon="16.5805733"><ele>491.0</ele><time>2026-04-18T09:05:22.534Z</time></trkpt><trkpt lat="38.944325" lon="16.580625"><ele>491.4</ele><time>2026-04-18T09:05:23.531Z</time></trkpt><trkpt lat="38.9444283" lon="16.5806783"><ele>491.8</ele><time>2026-04-18T09:05:24.534Z</time></trkpt><trkpt lat="38.9445367" lon="16.58074"><ele>492.19999999999993</ele><time>2026-04-18T09:05:25.532Z</time></trkpt><trkpt lat="38.9446367" lon="16.5808067"><ele>492.59999999999997</ele><time>2026-04-18T09:05:26.53Z</time></trkpt><trkpt lat="38.9447317" lon="16.5808617"><ele>493.0</ele><time>2026-04-18T09:05:27.531Z</time></trkpt><trkpt lat="38.9448333" lon="16.5808967"><ele>493.00000000000006</ele><time>2026-04-18T09:05:28.529Z</time></trkpt><trkpt lat="38.9449217" lon="16.5809383"><ele>493.0</ele><time>2026-04-18T09:05:29.529Z</time></trkpt><trkpt lat="38.944995" lon="16.5809717"><ele>493.0</ele><time>2026-04-18T09:05:30.529Z</time></trkpt><trkpt lat="38.9450667" lon="16.5809683"><ele>493.0</ele><time>2026-04-18T09:05:31.534Z</time></trkpt><trkpt lat="38.9451267" lon="16.5809333"><ele>493.00000000000006</ele><time>2026-04-18T09:05:32.53Z</time></trkpt><trkpt lat="38.945185" lon="16.5808467"><ele>493.0</ele><time>2026-04-18T09:05:33.53Z</time></trkpt><trkpt lat="38.9452467" lon="16.5807533"><ele>493.6666666666667</ele><time>2026-04-18T09:05:34.53Z</time></trkpt><trkpt lat="38.9453033" lon="16.58067"><ele>494.33333333333337</ele><time>2026-04-18T09:05:35.53Z</time></trkpt><trkpt lat="38.9453383" lon="16.5805967"><ele>495.0</ele><time>2026-04-18T09:05:36.533Z</time></trkpt><trkpt lat="38.9453983" lon="16.5805233"><ele>495.66666666666663</ele><time>2026-04-18T09:05:38.535Z</time></trkpt><trkpt lat="38.945475" lon="16.5805133"><ele>496.3333333333333</ele><time>2026-04-18T09:05:40.53Z</time></trkpt><trkpt lat="38.9455817" lon="16.58057"><ele>497.0</ele><time>2026-04-18T09:05:42.53Z</time></trkpt><trkpt lat="38.9456667" lon="16.5806267"><ele>496.99999999999994</ele><time>2026-04-18T09:05:44.53Z</time></trkpt><trkpt lat="38.94573" lon="16.5806717"><ele>497.0</ele><time>2026-04-18T09:05:46.53Z</time></trkpt><trkpt lat="38.9457983" lon="16.58073"><ele>497.0</ele><time>2026-04-18T09:05:49.532Z</time></trkpt><trkpt lat="38.945735" lon="16.5806917"><ele>497.0</ele><time>2026-04-18T09:06:00.532Z</time></trkpt><trkpt lat="38.9456683" lon="16.58064"><ele>496.99999999999994</ele><time>2026-04-18T09:06:03.534Z</time></trkpt><trkpt lat="38.9455967" lon="16.5806033"><ele>497.0</ele><time>2026-04-18T09:06:05.532Z</time></trkpt><trkpt lat="38.9455167" lon="16.5805583"><ele>496.99999999999994</ele><time>2026-04-18T09:06:07.534Z</time></trkpt><trkpt lat="38.94544" lon="16.5805267"><ele>497.0</ele><time>2026-04-18T09:06:09.532Z</time></trkpt><trkpt lat="38.94542" lon="16.5804283"><ele>497.0</ele><time>2026-04-18T09:06:12.532Z</time></trkpt><trkpt lat="38.94547" lon="16.5803317"><ele>497.0</ele><time>2026-04-18T09:06:14.531Z</time></trkpt><trkpt lat="38.94552" lon="16.58021"><ele>496.99999999999994</ele><time>2026-04-18T09:06:16.532Z</time></trkpt><trkpt lat="38.94558" lon="16.580135"><ele>497.0</ele><time>2026-04-18T09:06:18.535Z</time></trkpt><trkpt lat="38.9456617" lon="16.580115"><ele>494.20000000000005</ele><time>2026-04-18T09:06:20.533Z</time></trkpt><trkpt lat="38.9457933" lon="16.5800983"><ele>491.40000000000003</ele><time>2026-04-18T09:06:22.531Z</time></trkpt><trkpt lat="38.9458717" lon="16.5800833"><ele>488.59999999999997</ele><time>2026-04-18T09:06:23.532Z</time></trkpt><trkpt lat="38.9459467" lon="16.58008"><ele>485.79999999999995</ele><time>2026-04-18T09:06:24.532Z</time></trkpt><trkpt lat="38.9460683" lon="16.5800683"><ele>483.0</ele><time>2026-04-18T09:06:26.533Z</time></trkpt><trkpt lat="38.94615" lon="16.5801"><ele>482.1666666666667</ele><time>2026-04-18T09:06:28.532Z</time></trkpt><trkpt lat="38.94622" lon="16.5801133"><ele>481.33333333333337</ele><time>2026-04-18T09:06:31.532Z</time></trkpt><trkpt lat="38.94631" lon="16.5801717"><ele>480.5</ele><time>2026-04-18T09:06:40.531Z</time></trkpt><trkpt lat="38.946355" lon="16.5802383"><ele>479.6666666666667</ele><time>2026-04-18T09:06:41.53Z</time></trkpt><trkpt lat="38.9463917" lon="16.5803183"><ele>478.83333333333337</ele><time>2026-04-18T09:06:42.531Z</time></trkpt><trkpt lat="38.946435" lon="16.580385"><ele>478.0</ele><time>2026-04-18T09:06:43.53Z</time></trkpt><trkpt lat="38.9465133" lon="16.5804133"><ele>478.0</ele><time>2026-04-18T09:06:44.532Z</time></trkpt><trkpt lat="38.9465617" lon="16.5804733"><ele>477.99999999999994</ele><time>2026-04-18T09:06:45.532Z</time></trkpt><trkpt lat="38.94659" lon="16.5805683"><ele>477.99999999999994</ele><time>2026-04-18T09:06:46.531Z</time></trkpt><trkpt lat="38.9466317" lon="16.5806867"><ele>478.0</ele><time>2026-04-18T09:06:47.529Z</time></trkpt><trkpt lat="38.9466817" lon="16.5808233"><ele>478.0</ele><time>2026-04-18T09:06:48.531Z</time></trkpt><trkpt lat="38.9467483" lon="16.5809517"><ele>477.4</ele><time>2026-04-18T09:06:49.53Z</time></trkpt><trkpt lat="38.9467817" lon="16.5810933"><ele>476.79999999999995</ele><time>2026-04-18T09:06:50.532Z</time></trkpt><trkpt lat="38.94685" lon="16.5811967"><ele>476.2</ele><time>2026-04-18T09:06:51.531Z</time></trkpt><trkpt lat="38.9469467" lon="16.581255"><ele>475.6</ele><time>2026-04-18T09:06:52.533Z</time></trkpt><trkpt lat="38.9470567" lon="16.581295"><ele>475.0</ele><time>2026-04-18T09:06:53.53Z</time></trkpt><trkpt lat="38.9471333" lon="16.5813717"><ele>475.0</ele><time>2026-04-18T09:06:54.533Z</time></trkpt><trkpt lat="38.9472" lon="16.5814767"><ele>475.0</ele><time>2026-04-18T09:06:55.53Z</time></trkpt><trkpt lat="38.9472583" lon="16.5815983"><ele>475.0</ele><time>2026-04-18T09:06:56.531Z</time></trkpt><trkpt lat="38.947325" lon="16.5817033"><ele>475.0</ele><time>2026-04-18T09:06:57.531Z</time></trkpt><trkpt lat="38.947395" lon="16.5817933"><ele>475.0</ele><time>2026-04-18T09:06:58.534Z</time></trkpt><trkpt lat="38.9474583" lon="16.5818733"><ele>475.0</ele><time>2026-04-18T09:06:59.531Z</time></trkpt><trkpt lat="38.9475367" lon="16.58192"><ele>475.0</ele><time>2026-04-18T09:07:00.53Z</time></trkpt><trkpt lat="38.9475983" lon="16.5819617"><ele>475.0</ele><time>2026-04-18T09:07:01.53Z</time></trkpt><trkpt lat="38.9476583" lon="16.5819333"><ele>475.0</ele><time>2026-04-18T09:07:02.534Z</time></trkpt><trkpt lat="38.947735" lon="16.581825"><ele>475.0</ele><time>2026-04-18T09:07:04.531Z</time></trkpt><trkpt lat="38.9477333" lon="16.5816317"><ele>475.2</ele><time>2026-04-18T09:07:06.531Z</time></trkpt><trkpt lat="38.947745" lon="16.5815383"><ele>475.4</ele><time>2026-04-18T09:07:07.532Z</time></trkpt><trkpt lat="38.9477583" lon="16.5814317"><ele>475.6</ele><time>2026-04-18T09:07:08.532Z</time></trkpt><trkpt lat="38.9477417" lon="16.5812833"><ele>475.8</ele><time>2026-04-18T09:07:09.532Z</time></trkpt><trkpt lat="38.94773" lon="16.5811533"><ele>476.0</ele><time>2026-04-18T09:07:10.534Z</time></trkpt><trkpt lat="38.94773" lon="16.581025"><ele>476.0</ele><time>2026-04-18T09:07:11.531Z</time></trkpt><trkpt lat="38.94769" lon="16.5809017"><ele>476.0</ele><time>2026-04-18T09:07:12.532Z</time></trkpt><trkpt lat="38.9476283" lon="16.5807717"><ele>476.0</ele><time>2026-04-18T09:07:13.532Z</time></trkpt><trkpt lat="38.947605" lon="16.5806517"><ele>476.0</ele><time>2026-04-18T09:07:14.532Z</time></trkpt><trkpt lat="38.9475767" lon="16.5805367"><ele>476.0</ele><time>2026-04-18T09:07:15.534Z</time></trkpt><trkpt lat="38.9475817" lon="16.580425"><ele>473.20000000000005</ele><time>2026-04-18T09:07:16.532Z</time></trkpt><trkpt lat="38.9476217" lon="16.5803033"><ele>470.40000000000003</ele><time>2026-04-18T09:07:17.534Z</time></trkpt><trkpt lat="38.9476667" lon="16.5801767"><ele>467.6</ele><time>2026-04-18T09:07:18.531Z</time></trkpt><trkpt lat="38.9477083" lon="16.580055"><ele>464.8</ele><time>2026-04-18T09:07:19.531Z</time></trkpt><trkpt lat="38.9477667" lon="16.5799383"><ele>462.0</ele><time>2026-04-18T09:07:20.53Z</time></trkpt><trkpt lat="38.947855" lon="16.5798317"><ele>462.0</ele><time>2026-04-18T09:07:21.531Z</time></trkpt><trkpt lat="38.9479283" lon="16.579715"><ele>462.00000000000006</ele><time>2026-04-18T09:07:22.53Z</time></trkpt><trkpt lat="38.9479783" lon="16.5795867"><ele>462.00000000000006</ele><time>2026-04-18T09:07:23.53Z</time></trkpt><trkpt lat="38.9480217" lon="16.5794583"><ele>462.0</ele><time>2026-04-18T09:07:24.532Z</time></trkpt><trkpt lat="38.948065" lon="16.5793317"><ele>462.0</ele><time>2026-04-18T09:07:25.532Z</time></trkpt><trkpt lat="38.9481133" lon="16.57922"><ele>457.20000000000005</ele><time>2026-04-18T09:07:26.532Z</time></trkpt><trkpt lat="38.94817" lon="16.5791367"><ele>452.40000000000003</ele><time>2026-04-18T09:07:27.532Z</time></trkpt><trkpt lat="38.94824" lon="16.5790917"><ele>447.59999999999997</ele><time>2026-04-18T09:07:28.609Z</time></trkpt><trkpt lat="38.9483267" lon="16.5790967"><ele>442.79999999999995</ele><time>2026-04-18T09:07:29.531Z</time></trkpt><trkpt lat="38.9484367" lon="16.5791483"><ele>438.0</ele><time>2026-04-18T09:07:30.53Z</time></trkpt><trkpt lat="38.9485467" lon="16.5791967"><ele>436.59999999999997</ele><time>2026-04-18T09:07:31.53Z</time></trkpt><trkpt lat="38.9486583" lon="16.5792233"><ele>435.19999999999993</ele><time>2026-04-18T09:07:32.531Z</time></trkpt><trkpt lat="38.9487617" lon="16.5792617"><ele>433.8</ele><time>2026-04-18T09:07:33.531Z</time></trkpt><trkpt lat="38.948845" lon="16.5793083"><ele>432.4</ele><time>2026-04-18T09:07:34.531Z</time></trkpt><trkpt lat="38.9489217" lon="16.579355"><ele>431.0</ele><time>2026-04-18T09:07:35.533Z</time></trkpt><trkpt lat="38.9489883" lon="16.5793767"><ele>431.0</ele><time>2026-04-18T09:07:36.531Z</time></trkpt><trkpt lat="38.9490817" lon="16.5793383"><ele>431.0</ele><time>2026-04-18T09:07:38.532Z</time></trkpt><trkpt lat="38.9490733" lon="16.5792133"><ele>431.0</ele><time>2026-04-18T09:07:40.533Z</time></trkpt><trkpt lat="38.94901" lon="16.5791583"><ele>431.0</ele><time>2026-04-18T09:07:41.534Z</time></trkpt><trkpt lat="38.948915" lon="16.57912"><ele>431.0</ele><time>2026-04-18T09:07:42.532Z</time></trkpt><trkpt lat="38.9488233" lon="16.5790717"><ele>431.0</ele><time>2026-04-18T09:07:43.531Z</time></trkpt><trkpt lat="38.9487117" lon="16.5790267"><ele>431.0</ele><time>2026-04-18T09:07:44.532Z</time></trkpt><trkpt lat="38.9486" lon="16.5789567"><ele>431.0</ele><time>2026-04-18T09:07:45.534Z</time></trkpt><trkpt lat="38.9484717" lon="16.578875"><ele>431.0</ele><time>2026-04-18T09:07:46.532Z</time></trkpt><trkpt lat="38.9483317" lon="16.5787817"><ele>427.66666666666663</ele><time>2026-04-18T09:07:47.533Z</time></trkpt><trkpt lat="38.9481867" lon="16.5786733"><ele>424.33333333333337</ele><time>2026-04-18T09:07:48.533Z</time></trkpt><trkpt lat="38.9480333" lon="16.5786"><ele>421.0</ele><time>2026-04-18T09:07:49.533Z</time></trkpt><trkpt lat="38.9478767" lon="16.5785833"><ele>421.0</ele><time>2026-04-18T09:07:50.531Z</time></trkpt><trkpt lat="38.9477367" lon="16.5785317"><ele>421.0</ele><time>2026-04-18T09:07:51.533Z</time></trkpt><trkpt lat="38.9476" lon="16.5784617"><ele>421.0</ele><time>2026-04-18T09:07:52.532Z</time></trkpt><trkpt lat="38.947465" lon="16.5783983"><ele>421.0</ele><time>2026-04-18T09:07:53.531Z</time></trkpt><trkpt lat="38.94734" lon="16.5783"><ele>419.75</ele><time>2026-04-18T09:07:54.534Z</time></trkpt><trkpt lat="38.94721" lon="16.5782217"><ele>418.5</ele><time>2026-04-18T09:07:55.532Z</time></trkpt><trkpt lat="38.9470817" lon="16.578135"><ele>417.25</ele><time>2026-04-18T09:07:56.533Z</time></trkpt><trkpt lat="38.94696" lon="16.5780567"><ele>416.0</ele><time>2026-04-18T09:07:57.531Z</time></trkpt><trkpt lat="38.9468483" lon="16.5779867"><ele>415.99999999999994</ele><time>2026-04-18T09:07:58.529Z</time></trkpt><trkpt lat="38.9467533" lon="16.5779467"><ele>416.0</ele><time>2026-04-18T09:07:59.532Z</time></trkpt><trkpt lat="38.9466833" lon="16.5779"><ele>416.0</ele><time>2026-04-18T09:08:00.533Z</time></trkpt><trkpt lat="38.9466367" lon="16.5778283"><ele>416.0</ele><time>2026-04-18T09:08:01.533Z</time></trkpt><trkpt lat="38.9466117" lon="16.577745"><ele>415.99999999999994</ele><time>2026-04-18T09:08:02.532Z</time></trkpt><trkpt lat="38.9466117" lon="16.577655"><ele>416.0</ele><time>2026-04-18T09:08:03.53Z</time></trkpt><trkpt lat="38.9466267" lon="16.5775667"><ele>414.16666666666663</ele><time>2026-04-18T09:08:04.531Z</time></trkpt><trkpt lat="38.9466667" lon="16.5774717"><ele>412.3333333333333</ele><time>2026-04-18T09:08:05.531Z</time></trkpt><trkpt lat="38.9466733" lon="16.577375"><ele>410.5</ele><time>2026-04-18T09:08:06.53Z</time></trkpt><trkpt lat="38.946655" lon="16.5772833"><ele>408.66666666666663</ele><time>2026-04-18T09:08:07.53Z</time></trkpt><trkpt lat="38.9466083" lon="16.57721"><ele>406.8333333333333</ele><time>2026-04-18T09:08:08.53Z</time></trkpt><trkpt lat="38.9465533" lon="16.57716"><ele>405.0</ele><time>2026-04-18T09:08:09.532Z</time></trkpt><trkpt lat="38.9464667" lon="16.57708"><ele>409.4</ele><time>2026-04-18T09:08:11.534Z</time></trkpt><trkpt lat="38.9463567" lon="16.5770033"><ele>413.8</ele><time>2026-04-18T09:08:33.531Z</time></trkpt><trkpt lat="38.9462917" lon="16.5769367"><ele>418.20000000000005</ele><time>2026-04-18T09:08:36.532Z</time></trkpt><trkpt lat="38.9462183" lon="16.5769033"><ele>422.6</ele><time>2026-04-18T09:08:43.531Z</time></trkpt><trkpt lat="38.9461367" lon="16.5768517"><ele>427.0</ele><time>2026-04-18T09:08:44.53Z</time></trkpt><trkpt lat="38.9460583" lon="16.576795"><ele>427.0</ele><time>2026-04-18T09:08:45.533Z</time></trkpt><trkpt lat="38.9459733" lon="16.5767467"><ele>427.00000000000006</ele><time>2026-04-18T09:08:46.531Z</time></trkpt><trkpt lat="38.9458883" lon="16.5766833"><ele>427.00000000000006</ele><time>2026-04-18T09:08:47.53Z</time></trkpt><trkpt lat="38.9458317" lon="16.5765783"><ele>427.0</ele><time>2026-04-18T09:08:48.529Z</time></trkpt><trkpt lat="38.9457567" lon="16.57647"><ele>427.0</ele><time>2026-04-18T09:08:49.531Z</time></trkpt><trkpt lat="38.9456833" lon="16.5763467"><ele>427.75</ele><time>2026-04-18T09:08:50.532Z</time></trkpt><trkpt lat="38.9456333" lon="16.57619"><ele>428.5</ele><time>2026-04-18T09:08:51.532Z</time></trkpt><trkpt lat="38.9455" lon="16.5760733"><ele>429.25</ele><time>2026-04-18T09:08:52.532Z</time></trkpt><trkpt lat="38.9453983" lon="16.57593"><ele>430.0</ele><time>2026-04-18T09:08:53.531Z</time></trkpt><trkpt lat="38.9453283" lon="16.5758067"><ele>430.0</ele><time>2026-04-18T09:08:54.535Z</time></trkpt><trkpt lat="38.945255" lon="16.575685"><ele>430.0</ele><time>2026-04-18T09:08:55.532Z</time></trkpt><trkpt lat="38.9451833" lon="16.5755817"><ele>430.0</ele><time>2026-04-18T09:08:56.532Z</time></trkpt><trkpt lat="38.9451383" lon="16.5754817"><ele>430.0</ele><time>2026-04-18T09:08:57.532Z</time></trkpt><trkpt lat="38.9451317" lon="16.5753783"><ele>430.0</ele><time>2026-04-18T09:08:58.534Z</time></trkpt><trkpt lat="38.9451583" lon="16.5752883"><ele>429.0</ele><time>2026-04-18T09:08:59.532Z</time></trkpt><trkpt lat="38.9452" lon="16.5752117"><ele>428.0</ele><time>2026-04-18T09:09:00.532Z</time></trkpt><trkpt lat="38.9452667" lon="16.5751433"><ele>427.0</ele><time>2026-04-18T09:09:01.534Z</time></trkpt><trkpt lat="38.945315" lon="16.57504"><ele>426.0</ele><time>2026-04-18T09:09:02.531Z</time></trkpt><trkpt lat="38.9454017" lon="16.5749783"><ele>425.0</ele><time>2026-04-18T09:09:03.532Z</time></trkpt><trkpt lat="38.9454983" lon="16.5749267"><ele>425.0</ele><time>2026-04-18T09:09:04.532Z</time></trkpt><trkpt lat="38.9456" lon="16.5748933"><ele>425.0</ele><time>2026-04-18T09:09:05.532Z</time></trkpt><trkpt lat="38.9457083" lon="16.5748867"><ele>425.0</ele><time>2026-04-18T09:09:06.531Z</time></trkpt><trkpt lat="38.9458217" lon="16.5749017"><ele>425.0</ele><time>2026-04-18T09:09:07.532Z</time></trkpt><trkpt lat="38.9459383" lon="16.57492"><ele>425.0</ele><time>2026-04-18T09:09:08.533Z</time></trkpt><trkpt lat="38.9460517" lon="16.5749633"><ele>429.0</ele><time>2026-04-18T09:09:09.534Z</time></trkpt><trkpt lat="38.9461633" lon="16.5750367"><ele>433.0</ele><time>2026-04-18T09:09:10.534Z</time></trkpt><trkpt lat="38.9462733" lon="16.5751"><ele>437.0</ele><time>2026-04-18T09:09:11.533Z</time></trkpt><trkpt lat="38.9463833" lon="16.5751317"><ele>441.0</ele><time>2026-04-18T09:09:12.535Z</time></trkpt><trkpt lat="38.9465" lon="16.5751533"><ele>441.0</ele><time>2026-04-18T09:09:13.532Z</time></trkpt><trkpt lat="38.9466167" lon="16.5751317"><ele>441.0</ele><time>2026-04-18T09:09:14.532Z</time></trkpt><trkpt lat="38.9467317" lon="16.575075"><ele>441.0</ele><time>2026-04-18T09:09:15.534Z</time></trkpt><trkpt lat="38.9468533" lon="16.5750233"><ele>441.0</ele><time>2026-04-18T09:09:16.53Z</time></trkpt><trkpt lat="38.9469783" lon="16.5749633"><ele>445.5</ele><time>2026-04-18T09:09:17.532Z</time></trkpt><trkpt lat="38.9470767" lon="16.57486"><ele>450.0</ele><time>2026-04-18T09:09:18.533Z</time></trkpt><trkpt lat="38.9471467" lon="16.57473"><ele>454.5</ele><time>2026-04-18T09:09:19.534Z</time></trkpt><trkpt lat="38.9471983" lon="16.5745783"><ele>459.0</ele><time>2026-04-18T09:09:20.531Z</time></trkpt><trkpt lat="38.947245" lon="16.574415"><ele>459.0</ele><time>2026-04-18T09:09:21.536Z</time></trkpt><trkpt lat="38.9472917" lon="16.574245"><ele>459.0</ele><time>2026-04-18T09:09:22.53Z</time></trkpt><trkpt lat="38.94733" lon="16.5740667"><ele>459.0</ele><time>2026-04-18T09:09:23.531Z</time></trkpt><trkpt lat="38.9473717" lon="16.5738983"><ele>459.0</ele><time>2026-04-18T09:09:24.529Z</time></trkpt><trkpt lat="38.9474267" lon="16.57375"><ele>457.0</ele><time>2026-04-18T09:09:25.531Z</time></trkpt><trkpt lat="38.9474983" lon="16.5736217"><ele>455.0</ele><time>2026-04-18T09:09:26.533Z</time></trkpt><trkpt lat="38.9475783" lon="16.5735017"><ele>453.0</ele><time>2026-04-18T09:09:27.53Z</time></trkpt><trkpt lat="38.947675" lon="16.5734017"><ele>451.0</ele><time>2026-04-18T09:09:28.534Z</time></trkpt><trkpt lat="38.94779" lon="16.573315"><ele>458.33333333333337</ele><time>2026-04-18T09:09:29.53Z</time></trkpt><trkpt lat="38.9479333" lon="16.5732533"><ele>465.66666666666663</ele><time>2026-04-18T09:09:30.531Z</time></trkpt><trkpt lat="38.948075" lon="16.5731683"><ele>473.0</ele><time>2026-04-18T09:09:31.535Z</time></trkpt><trkpt lat="38.9482267" lon="16.5730833"><ele>473.0</ele><time>2026-04-18T09:09:32.53Z</time></trkpt><trkpt lat="38.9483733" lon="16.5729817"><ele>473.0</ele><time>2026-04-18T09:09:33.531Z</time></trkpt><trkpt lat="38.9485167" lon="16.572865"><ele>473.0</ele><time>2026-04-18T09:09:34.532Z</time></trkpt><trkpt lat="38.94866" lon="16.572755"><ele>473.75</ele><time>2026-04-18T09:09:35.532Z</time></trkpt><trkpt lat="38.9487867" lon="16.572645"><ele>474.5</ele><time>2026-04-18T09:09:36.532Z</time></trkpt><trkpt lat="38.94889" lon="16.5725333"><ele>475.25</ele><time>2026-04-18T09:09:37.532Z</time></trkpt><trkpt lat="38.9489933" lon="16.5724333"><ele>476.0</ele><time>2026-04-18T09:09:38.534Z</time></trkpt><trkpt lat="38.9490667" lon="16.572315"><ele>476.0</ele><time>2026-04-18T09:09:39.537Z</time></trkpt><trkpt lat="38.9491217" lon="16.5721767"><ele>476.0</ele><time>2026-04-18T09:09:40.53Z</time></trkpt><trkpt lat="38.9491267" lon="16.572015"><ele>476.0</ele><time>2026-04-18T09:09:41.53Z</time></trkpt><trkpt lat="38.94914" lon="16.5718483"><ele>476.0</ele><time>2026-04-18T09:09:42.531Z</time></trkpt><trkpt lat="38.9491133" lon="16.5716933"><ele>476.75</ele><time>2026-04-18T09:09:43.532Z</time></trkpt><trkpt lat="38.9490583" lon="16.571565"><ele>477.5</ele><time>2026-04-18T09:09:44.53Z</time></trkpt><trkpt lat="38.9489833" lon="16.5714583"><ele>478.25</ele><time>2026-04-18T09:09:45.532Z</time></trkpt><trkpt lat="38.9488883" lon="16.5713817"><ele>479.0</ele><time>2026-04-18T09:09:46.532Z</time></trkpt><trkpt lat="38.948775" lon="16.571335"><ele>479.0</ele><time>2026-04-18T09:09:47.532Z</time></trkpt><trkpt lat="38.9486467" lon="16.5713067"><ele>479.0</ele><time>2026-04-18T09:09:48.533Z</time></trkpt><trkpt lat="38.9485117" lon="16.57129"><ele>479.0</ele><time>2026-04-18T09:09:49.53Z</time></trkpt><trkpt lat="38.94839" lon="16.5712717"><ele>479.0</ele><time>2026-04-18T09:09:50.532Z</time></trkpt><trkpt lat="38.9482883" lon="16.5712483"><ele>477.8333333333333</ele><time>2026-04-18T09:09:51.534Z</time></trkpt><trkpt lat="38.9482083" lon="16.5712367"><ele>476.66666666666663</ele><time>2026-04-18T09:09:52.531Z</time></trkpt><trkpt lat="38.9481433" lon="16.57124"><ele>475.5</ele><time>2026-04-18T09:09:53.531Z</time></trkpt><trkpt lat="38.9480683" lon="16.5712533"><ele>474.33333333333337</ele><time>2026-04-18T09:09:55.533Z</time></trkpt><trkpt lat="38.948005" lon="16.5712433"><ele>473.1666666666667</ele><time>2026-04-18T09:09:58.533Z</time></trkpt><trkpt lat="38.9478967" lon="16.571175"><ele>472.0</ele><time>2026-04-18T09:10:00.53Z</time></trkpt><trkpt lat="38.947825" lon="16.57113"><ele>473.33333333333337</ele><time>2026-04-18T09:10:01.529Z</time></trkpt><trkpt lat="38.9477533" lon="16.5710867"><ele>474.6666666666667</ele><time>2026-04-18T09:10:02.529Z</time></trkpt><trkpt lat="38.9476867" lon="16.5710533"><ele>476.0</ele><time>2026-04-18T09:10:03.531Z</time></trkpt><trkpt lat="38.9475833" lon="16.5709917"><ele>477.33333333333337</ele><time>2026-04-18T09:10:05.531Z</time></trkpt><trkpt lat="38.947535" lon="16.5709067"><ele>478.6666666666667</ele><time>2026-04-18T09:10:07.531Z</time></trkpt><trkpt lat="38.94756" lon="16.5707883"><ele>480.0</ele><time>2026-04-18T09:10:09.533Z</time></trkpt><trkpt lat="38.9476233" lon="16.5706633"><ele>482.5</ele><time>2026-04-18T09:10:11.532Z</time></trkpt><trkpt lat="38.9476917" lon="16.57064"><ele>485.0</ele><time>2026-04-18T09:10:12.531Z</time></trkpt><trkpt lat="38.947765" lon="16.57062"><ele>487.5</ele><time>2026-04-18T09:10:13.533Z</time></trkpt><trkpt lat="38.947835" lon="16.5706333"><ele>490.0</ele><time>2026-04-18T09:10:14.535Z</time></trkpt><trkpt lat="38.9478883" lon="16.57071"><ele>492.5</ele><time>2026-04-18T09:10:15.533Z</time></trkpt><trkpt lat="38.9479483" lon="16.5707783"><ele>495.0</ele><time>2026-04-18T09:10:16.534Z</time></trkpt><trkpt lat="38.9480217" lon="16.570835"><ele>495.0</ele><time>2026-04-18T09:10:17.531Z</time></trkpt><trkpt lat="38.9481267" lon="16.570855"><ele>495.0</ele><time>2026-04-18T09:10:18.532Z</time></trkpt><trkpt lat="38.9482017" lon="16.5709233"><ele>495.0</ele><time>2026-04-18T09:10:19.532Z</time></trkpt><trkpt lat="38.9482983" lon="16.5709533"><ele>495.0</ele><time>2026-04-18T09:10:20.532Z</time></trkpt><trkpt lat="38.9484017" lon="16.5709483"><ele>495.0</ele><time>2026-04-18T09:10:21.533Z</time></trkpt><trkpt lat="38.9484983" lon="16.57097"><ele>495.1666666666667</ele><time>2026-04-18T09:10:22.531Z</time></trkpt><trkpt lat="38.9485817" lon="16.57097"><ele>495.33333333333337</ele><time>2026-04-18T09:10:23.532Z</time></trkpt><trkpt lat="38.9486417" lon="16.5709267"><ele>495.5</ele><time>2026-04-18T09:10:24.531Z</time></trkpt><trkpt lat="38.9486783" lon="16.57086"><ele>495.6666666666667</ele><time>2026-04-18T09:10:25.531Z</time></trkpt><trkpt lat="38.9486483" lon="16.5707017"><ele>495.83333333333337</ele><time>2026-04-18T09:10:27.534Z</time></trkpt><trkpt lat="38.9485833" lon="16.57062"><ele>496.0</ele><time>2026-04-18T09:10:28.533Z</time></trkpt><trkpt lat="38.9484883" lon="16.570545"><ele>495.83333333333337</ele><time>2026-04-18T09:10:29.532Z</time></trkpt><trkpt lat="38.94837" lon="16.57053"><ele>495.6666666666667</ele><time>2026-04-18T09:10:30.534Z</time></trkpt><trkpt lat="38.9483" lon="16.570485"><ele>495.5</ele><time>2026-04-18T09:10:31.533Z</time></trkpt><trkpt lat="38.9482517" lon="16.5704133"><ele>495.33333333333337</ele><time>2026-04-18T09:10:32.533Z</time></trkpt><trkpt lat="38.9482133" lon="16.5703367"><ele>495.1666666666667</ele><time>2026-04-18T09:10:33.535Z</time></trkpt><trkpt lat="38.9481933" lon="16.5702367"><ele>495.0</ele><time>2026-04-18T09:10:34.532Z</time></trkpt><trkpt lat="38.9481817" lon="16.5701083"><ele>497.8</ele><time>2026-04-18T09:10:35.532Z</time></trkpt><trkpt lat="38.9481267" lon="16.5700083"><ele>500.6</ele><time>2026-04-18T09:10:36.535Z</time></trkpt><trkpt lat="38.9481717" lon="16.569835"><ele>503.4</ele><time>2026-04-18T09:10:38.536Z</time></trkpt><trkpt lat="38.9481983" lon="16.5696783"><ele>506.2</ele><time>2026-04-18T09:10:39.532Z</time></trkpt><trkpt lat="38.9482517" lon="16.56959"><ele>509.0</ele><time>2026-04-18T09:10:40.531Z</time></trkpt><trkpt lat="38.9482867" lon="16.5694733"><ele>510.2</ele><time>2026-04-18T09:10:41.531Z</time></trkpt><trkpt lat="38.948335" lon="16.56939"><ele>511.4</ele><time>2026-04-18T09:10:42.532Z</time></trkpt><trkpt lat="38.948405" lon="16.5693033"><ele>512.6</ele><time>2026-04-18T09:10:43.535Z</time></trkpt><trkpt lat="38.94845" lon="16.569155"><ele>513.8</ele><time>2026-04-18T09:10:44.53Z</time></trkpt><trkpt lat="38.9485433" lon="16.5690767"><ele>515.0</ele><time>2026-04-18T09:10:45.532Z</time></trkpt><trkpt lat="38.9486333" lon="16.5689733"><ele>520.0</ele><time>2026-04-18T09:10:46.531Z</time></trkpt><trkpt lat="38.9487467" lon="16.5689183"><ele>525.0</ele><time>2026-04-18T09:10:47.531Z</time></trkpt><trkpt lat="38.9487583" lon="16.568775"><ele>530.0</ele><time>2026-04-18T09:10:48.533Z</time></trkpt><trkpt lat="38.9488017" lon="16.56867"><ele>535.0</ele><time>2026-04-18T09:10:49.531Z</time></trkpt><trkpt lat="38.9488367" lon="16.5685483"><ele>540.0</ele><time>2026-04-18T09:10:50.533Z</time></trkpt><trkpt lat="38.9488383" lon="16.5684217"><ele>541.6</ele><time>2026-04-18T09:10:51.535Z</time></trkpt><trkpt lat="38.9488" lon="16.5683067"><ele>543.2</ele><time>2026-04-18T09:10:52.53Z</time></trkpt><trkpt lat="38.948755" lon="16.5681667"><ele>544.8</ele><time>2026-04-18T09:10:53.529Z</time></trkpt><trkpt lat="38.9488067" lon="16.5681"><ele>546.4</ele><time>2026-04-18T09:10:54.531Z</time></trkpt><trkpt lat="38.9488183" lon="16.5679217"><ele>548.0</ele><time>2026-04-18T09:10:55.531Z</time></trkpt><trkpt lat="38.9487783" lon="16.5677167"><ele>549.5</ele><time>2026-04-18T09:10:56.532Z</time></trkpt><trkpt lat="38.948835" lon="16.5675967"><ele>551.0</ele><time>2026-04-18T09:10:57.532Z</time></trkpt><trkpt lat="38.948885" lon="16.567465"><ele>552.5</ele><time>2026-04-18T09:10:58.533Z</time></trkpt><trkpt lat="38.9489267" lon="16.5673133"><ele>554.0</ele><time>2026-04-18T09:10:59.534Z</time></trkpt><trkpt lat="38.9489917" lon="16.56716"><ele>554.0</ele><time>2026-04-18T09:11:00.53Z</time></trkpt><trkpt lat="38.94907" lon="16.5670433"><ele>554.0</ele><time>2026-04-18T09:11:01.535Z</time></trkpt><trkpt lat="38.9491233" lon="16.5669367"><ele>554.0</ele><time>2026-04-18T09:11:02.532Z</time></trkpt><trkpt lat="38.9492217" lon="16.5667267"><ele>554.0</ele><time>2026-04-18T09:11:04.535Z</time></trkpt><trkpt lat="38.9492817" lon="16.56661"><ele>563.5</ele><time>2026-04-18T09:11:05.529Z</time></trkpt><trkpt lat="38.9492733" lon="16.5665033"><ele>573.0</ele><time>2026-04-18T09:11:06.532Z</time></trkpt><trkpt lat="38.9493083" lon="16.56631"><ele>582.5</ele><time>2026-04-18T09:11:07.531Z</time></trkpt><trkpt lat="38.9492933" lon="16.566115"><ele>592.0</ele><time>2026-04-18T09:11:08.53Z</time></trkpt><trkpt lat="38.949265" lon="16.565975"><ele>586.8000000000001</ele><time>2026-04-18T09:11:09.533Z</time></trkpt><trkpt lat="38.9492017" lon="16.565895"><ele>581.6</ele><time>2026-04-18T09:11:10.53Z</time></trkpt><trkpt lat="38.9491583" lon="16.5657417"><ele>576.4000000000001</ele><time>2026-04-18T09:11:11.531Z</time></trkpt><trkpt lat="38.949085" lon="16.56563"><ele>571.2</ele><time>2026-04-18T09:11:12.532Z</time></trkpt><trkpt lat="38.9489867" lon="16.5655667"><ele>566.0</ele><time>2026-04-18T09:11:13.533Z</time></trkpt><trkpt lat="38.9488767" lon="16.5655217"><ele>566.0</ele><time>2026-04-18T09:11:14.531Z</time></trkpt><trkpt lat="38.94878" lon="16.5654617"><ele>566.0</ele><time>2026-04-18T09:11:15.533Z</time></trkpt><trkpt lat="38.9486967" lon="16.5654217"><ele>566.0</ele><time>2026-04-18T09:11:16.534Z</time></trkpt><trkpt lat="38.9486367" lon="16.5653683"><ele>566.0</ele><time>2026-04-18T09:11:17.534Z</time></trkpt><trkpt lat="38.948585" lon="16.56525"><ele>566.0</ele><time>2026-04-18T09:11:19.533Z</time></trkpt><trkpt lat="38.9485767" lon="16.5651633"><ele>566.0</ele><time>2026-04-18T09:11:20.533Z</time></trkpt><trkpt lat="38.94858" lon="16.5650633"><ele>570.4</ele><time>2026-04-18T09:11:21.532Z</time></trkpt><trkpt lat="38.9485967" lon="16.5649433"><ele>574.8</ele><time>2026-04-18T09:11:22.531Z</time></trkpt><trkpt lat="38.948585" lon="16.5648233"><ele>579.1999999999999</ele><time>2026-04-18T09:11:23.532Z</time></trkpt><trkpt lat="38.948565" lon="16.5646983"><ele>583.6</ele><time>2026-04-18T09:11:24.533Z</time></trkpt><trkpt lat="38.94855" lon="16.5645683"><ele>588.0</ele><time>2026-04-18T09:11:25.533Z</time></trkpt><trkpt lat="38.9484983" lon="16.56447"><ele>586.3333333333334</ele><time>2026-04-18T09:11:26.533Z</time></trkpt><trkpt lat="38.9484633" lon="16.564375"><ele>584.6666666666666</ele><time>2026-04-18T09:11:27.539Z</time></trkpt><trkpt lat="38.9484317" lon="16.564285"><ele>583.0</ele><time>2026-04-18T09:11:28.533Z</time></trkpt><trkpt lat="38.9484017" lon="16.56421"><ele>581.3333333333333</ele><time>2026-04-18T09:11:29.532Z</time></trkpt><trkpt lat="38.94835" lon="16.5641183"><ele>579.6666666666666</ele><time>2026-04-18T09:11:31.533Z</time></trkpt><trkpt lat="38.9483467" lon="16.56403"><ele>578.0</ele><time>2026-04-18T09:11:33.533Z</time></trkpt><trkpt lat="38.9483683" lon="16.5639083"><ele>578.0</ele><time>2026-04-18T09:11:35.532Z</time></trkpt><trkpt lat="38.9483633" lon="16.5638217"><ele>578.0</ele><time>2026-04-18T09:11:36.533Z</time></trkpt><trkpt lat="38.94837" lon="16.5637117"><ele>578.0</ele><time>2026-04-18T09:11:37.532Z</time></trkpt><trkpt lat="38.94838" lon="16.5635983"><ele>578.0</ele><time>2026-04-18T09:11:38.533Z</time></trkpt><trkpt lat="38.9483983" lon="16.5634833"><ele>578.0</ele><time>2026-04-18T09:11:39.535Z</time></trkpt><trkpt lat="38.9483967" lon="16.5633467"><ele>578.0</ele><time>2026-04-18T09:11:40.532Z</time></trkpt><trkpt lat="38.94841" lon="16.5632133"><ele>581.8</ele><time>2026-04-18T09:11:41.535Z</time></trkpt><trkpt lat="38.9484517" lon="16.563095"><ele>585.5999999999999</ele><time>2026-04-18T09:11:42.531Z</time></trkpt><trkpt lat="38.94853" lon="16.5630067"><ele>589.4000000000001</ele><time>2026-04-18T09:11:43.537Z</time></trkpt><trkpt lat="38.9486183" lon="16.56295"><ele>593.2</ele><time>2026-04-18T09:11:44.531Z</time></trkpt><trkpt lat="38.94871" lon="16.5629233"><ele>597.0</ele><time>2026-04-18T09:11:45.533Z</time></trkpt><trkpt lat="38.9488033" lon="16.5628883"><ele>597.0</ele><time>2026-04-18T09:11:46.533Z</time></trkpt><trkpt lat="38.9488817" lon="16.562905"><ele>597.0</ele><time>2026-04-18T09:11:47.531Z</time></trkpt><trkpt lat="38.9489367" lon="16.5629617"><ele>597.0</ele><time>2026-04-18T09:11:48.531Z</time></trkpt><trkpt lat="38.94894" lon="16.5630717"><ele>597.0</ele><time>2026-04-18T09:11:50.533Z</time></trkpt><trkpt lat="38.9488067" lon="16.5630933"><ele>597.0</ele><time>2026-04-18T09:11:52.53Z</time></trkpt><trkpt lat="38.9487417" lon="16.5631317"><ele>597.0</ele><time>2026-04-18T09:11:53.533Z</time></trkpt><trkpt lat="38.9486867" lon="16.563175"><ele>597.0</ele><time>2026-04-18T09:11:54.533Z</time></trkpt><trkpt lat="38.94867" lon="16.5632617"><ele>597.0</ele><time>2026-04-18T09:11:55.532Z</time></trkpt><trkpt lat="38.9487117" lon="16.56337"><ele>597.0</ele><time>2026-04-18T09:11:56.534Z</time></trkpt><trkpt lat="38.9487833" lon="16.5634667"><ele>597.0</ele><time>2026-04-18T09:11:57.532Z</time></trkpt><trkpt lat="38.9488583" lon="16.56358"><ele>597.0</ele><time>2026-04-18T09:11:58.531Z</time></trkpt><trkpt lat="38.9489383" lon="16.5637133"><ele>598.25</ele><time>2026-04-18T09:11:59.529Z</time></trkpt><trkpt lat="38.948995" lon="16.5638583"><ele>599.5</ele><time>2026-04-18T09:12:00.532Z</time></trkpt><trkpt lat="38.9490317" lon="16.5640133"><ele>600.75</ele><time>2026-04-18T09:12:01.533Z</time></trkpt><trkpt lat="38.9490933" lon="16.56417"><ele>602.0</ele><time>2026-04-18T09:12:02.53Z</time></trkpt><trkpt lat="38.9491417" lon="16.56433"><ele>603.8000000000001</ele><time>2026-04-18T09:12:03.533Z</time></trkpt><trkpt lat="38.9492217" lon="16.5644733"><ele>605.6</ele><time>2026-04-18T09:12:04.531Z</time></trkpt><trkpt lat="38.9492717" lon="16.5645917"><ele>607.4000000000001</ele><time>2026-04-18T09:12:05.532Z</time></trkpt><trkpt lat="38.9493367" lon="16.564655"><ele>609.2</ele><time>2026-04-18T09:12:06.531Z</time></trkpt><trkpt lat="38.949445" lon="16.5646417"><ele>611.0</ele><time>2026-04-18T09:12:08.533Z</time></trkpt><trkpt lat="38.94945" lon="16.564465"><ele>614.0</ele><time>2026-04-18T09:12:10.53Z</time></trkpt><trkpt lat="38.9494183" lon="16.5643033"><ele>617.0</ele><time>2026-04-18T09:12:11.53Z</time></trkpt><trkpt lat="38.9494017" lon="16.5641867"><ele>620.0</ele><time>2026-04-18T09:12:12.532Z</time></trkpt><trkpt lat="38.9493667" lon="16.5640783"><ele>623.0</ele><time>2026-04-18T09:12:13.531Z</time></trkpt><trkpt lat="38.94939" lon="16.5639617"><ele>626.0</ele><time>2026-04-18T09:12:14.533Z</time></trkpt><trkpt lat="38.9494417" lon="16.5638383"><ele>626.0</ele><time>2026-04-18T09:12:15.534Z</time></trkpt><trkpt lat="38.9495283" lon="16.56371"><ele>626.0</ele><time>2026-04-18T09:12:16.531Z</time></trkpt><trkpt lat="38.94964" lon="16.5635933"><ele>626.0</ele><time>2026-04-18T09:12:17.534Z</time></trkpt><trkpt lat="38.9497467" lon="16.5634633"><ele>626.0</ele><time>2026-04-18T09:12:18.532Z</time></trkpt><trkpt lat="38.94986" lon="16.5633783"><ele>625.8</ele><time>2026-04-18T09:12:19.533Z</time></trkpt><trkpt lat="38.9499567" lon="16.563345"><ele>625.6</ele><time>2026-04-18T09:12:20.533Z</time></trkpt><trkpt lat="38.9500267" lon="16.5633317"><ele>625.4</ele><time>2026-04-18T09:12:21.531Z</time></trkpt><trkpt lat="38.9500933" lon="16.563455"><ele>625.2</ele><time>2026-04-18T09:12:23.53Z</time></trkpt><trkpt lat="38.9500817" lon="16.5635583"><ele>625.0</ele><time>2026-04-18T09:12:24.532Z</time></trkpt><trkpt lat="38.9500883" lon="16.5636717"><ele>628.4</ele><time>2026-04-18T09:12:25.531Z</time></trkpt><trkpt lat="38.9501117" lon="16.56379"><ele>631.8</ele><time>2026-04-18T09:12:26.532Z</time></trkpt><trkpt lat="38.950145" lon="16.5639317"><ele>635.2</ele><time>2026-04-18T09:12:27.534Z</time></trkpt><trkpt lat="38.95018" lon="16.56406"><ele>638.6</ele><time>2026-04-18T09:12:28.531Z</time></trkpt><trkpt lat="38.9502483" lon="16.56413"><ele>642.0</ele><time>2026-04-18T09:12:29.53Z</time></trkpt><trkpt lat="38.9503517" lon="16.564155"><ele>642.0</ele><time>2026-04-18T09:12:30.531Z</time></trkpt><trkpt lat="38.9504417" lon="16.5641933"><ele>642.0</ele><time>2026-04-18T09:12:31.53Z</time></trkpt><trkpt lat="38.9505283" lon="16.5642583"><ele>642.0</ele><time>2026-04-18T09:12:32.533Z</time></trkpt><trkpt lat="38.9506433" lon="16.56429"><ele>642.0</ele><time>2026-04-18T09:12:33.544Z</time></trkpt><trkpt lat="38.9507533" lon="16.564325"><ele>642.0</ele><time>2026-04-18T09:12:34.529Z</time></trkpt><trkpt lat="38.950845" lon="16.5643683"><ele>645.1666666666666</ele><time>2026-04-18T09:12:35.531Z</time></trkpt><trkpt lat="38.9509017" lon="16.5644433"><ele>648.3333333333334</ele><time>2026-04-18T09:12:36.531Z</time></trkpt><trkpt lat="38.950945" lon="16.564545"><ele>651.5</ele><time>2026-04-18T09:12:37.531Z</time></trkpt><trkpt lat="38.9509767" lon="16.56467"><ele>654.6666666666667</ele><time>2026-04-18T09:12:38.53Z</time></trkpt><trkpt lat="38.9510083" lon="16.5647833"><ele>657.8333333333334</ele><time>2026-04-18T09:12:39.534Z</time></trkpt><trkpt lat="38.9510483" lon="16.5648567"><ele>661.0</ele><time>2026-04-18T09:12:40.533Z</time></trkpt><trkpt lat="38.95118" lon="16.5648317"><ele>661.0</ele><time>2026-04-18T09:12:42.532Z</time></trkpt><trkpt lat="38.9512433" lon="16.5647767"><ele>661.0</ele><time>2026-04-18T09:12:43.532Z</time></trkpt><trkpt lat="38.9512983" lon="16.5646833"><ele>661.0</ele><time>2026-04-18T09:12:44.532Z</time></trkpt><trkpt lat="38.95133" lon="16.564555"><ele>661.0</ele><time>2026-04-18T09:12:45.531Z</time></trkpt><trkpt lat="38.9513633" lon="16.5644217"><ele>661.0</ele><time>2026-04-18T09:12:46.532Z</time></trkpt><trkpt lat="38.9514433" lon="16.5643367"><ele>661.0</ele><time>2026-04-18T09:12:47.53Z</time></trkpt><trkpt lat="38.9515333" lon="16.5642717"><ele>661.0</ele><time>2026-04-18T09:12:48.531Z</time></trkpt><trkpt lat="38.9516383" lon="16.56422"><ele>661.0</ele><time>2026-04-18T09:12:49.534Z</time></trkpt><trkpt lat="38.9517583" lon="16.56419"><ele>661.0</ele><time>2026-04-18T09:12:50.533Z</time></trkpt><trkpt lat="38.9518833" lon="16.5641717"><ele>664.75</ele><time>2026-04-18T09:12:51.532Z</time></trkpt><trkpt lat="38.952015" lon="16.564185"><ele>668.5</ele><time>2026-04-18T09:12:52.53Z</time></trkpt><trkpt lat="38.9521483" lon="16.56421"><ele>672.25</ele><time>2026-04-18T09:12:53.532Z</time></trkpt><trkpt lat="38.952275" lon="16.5642567"><ele>676.0</ele><time>2026-04-18T09:12:54.532Z</time></trkpt><trkpt lat="38.9524" lon="16.5642783"><ele>676.0</ele><time>2026-04-18T09:12:55.533Z</time></trkpt><trkpt lat="38.95252" lon="16.5643033"><ele>676.0</ele><time>2026-04-18T09:12:56.533Z</time></trkpt><trkpt lat="38.95264" lon="16.564335"><ele>676.0</ele><time>2026-04-18T09:12:57.533Z</time></trkpt><trkpt lat="38.9527617" lon="16.5643683"><ele>676.0</ele><time>2026-04-18T09:12:58.532Z</time></trkpt><trkpt lat="38.9528817" lon="16.5643917"><ele>679.0</ele><time>2026-04-18T09:12:59.531Z</time></trkpt><trkpt lat="38.9529983" lon="16.564455"><ele>682.0</ele><time>2026-04-18T09:13:00.533Z</time></trkpt><trkpt lat="38.953115" lon="16.5645217"><ele>685.0</ele><time>2026-04-18T09:13:01.534Z</time></trkpt><trkpt lat="38.9532333" lon="16.56457"><ele>688.0</ele><time>2026-04-18T09:13:02.534Z</time></trkpt><trkpt lat="38.9533417" lon="16.5646233"><ele>694.75</ele><time>2026-04-18T09:13:03.532Z</time></trkpt><trkpt lat="38.9534533" lon="16.5646767"><ele>701.5</ele><time>2026-04-18T09:13:04.532Z</time></trkpt><trkpt lat="38.9535683" lon="16.564725"><ele>708.25</ele><time>2026-04-18T09:13:05.533Z</time></trkpt><trkpt lat="38.95367" lon="16.5647917"><ele>715.0</ele><time>2026-04-18T09:13:06.534Z</time></trkpt><trkpt lat="38.9537617" lon="16.5648867"><ele>715.0</ele><time>2026-04-18T09:13:07.532Z</time></trkpt><trkpt lat="38.9538283" lon="16.5650167"><ele>715.0</ele><time>2026-04-18T09:13:08.535Z</time></trkpt><trkpt lat="38.9538917" lon="16.5651667"><ele>715.0</ele><time>2026-04-18T09:13:09.534Z</time></trkpt><trkpt lat="38.95392" lon="16.5653433"><ele>715.0</ele><time>2026-04-18T09:13:10.53Z</time></trkpt><trkpt lat="38.9539383" lon="16.56552"><ele>712.75</ele><time>2026-04-18T09:13:11.53Z</time></trkpt><trkpt lat="38.953975" lon="16.565675"><ele>710.5</ele><time>2026-04-18T09:13:12.532Z</time></trkpt><trkpt lat="38.954045" lon="16.5658033"><ele>708.25</ele><time>2026-04-18T09:13:13.533Z</time></trkpt><trkpt lat="38.954155" lon="16.5659233"><ele>706.0</ele><time>2026-04-18T09:13:14.533Z</time></trkpt><trkpt lat="38.9541633" lon="16.5660917"><ele>703.5</ele><time>2026-04-18T09:13:15.532Z</time></trkpt><trkpt lat="38.9542" lon="16.56627"><ele>701.0</ele><time>2026-04-18T09:13:16.532Z</time></trkpt><trkpt lat="38.9542567" lon="16.56643"><ele>698.5</ele><time>2026-04-18T09:13:17.531Z</time></trkpt><trkpt lat="38.954295" lon="16.5665967"><ele>696.0</ele><time>2026-04-18T09:13:18.53Z</time></trkpt><trkpt lat="38.954345" lon="16.5667467"><ele>701.5</ele><time>2026-04-18T09:13:19.532Z</time></trkpt><trkpt lat="38.954405" lon="16.566885"><ele>707.0</ele><time>2026-04-18T09:13:20.531Z</time></trkpt><trkpt lat="38.9544483" lon="16.5670467"><ele>712.5</ele><time>2026-04-18T09:13:21.532Z</time></trkpt><trkpt lat="38.95451" lon="16.56719"><ele>718.0</ele><time>2026-04-18T09:13:22.531Z</time></trkpt><trkpt lat="38.95456" lon="16.5673467"><ele>718.0</ele><time>2026-04-18T09:13:23.536Z</time></trkpt><trkpt lat="38.954635" lon="16.5674733"><ele>718.0</ele><time>2026-04-18T09:13:24.532Z</time></trkpt><trkpt lat="38.954735" lon="16.567595"><ele>718.0</ele><time>2026-04-18T09:13:25.532Z</time></trkpt><trkpt lat="38.9548617" lon="16.5676967"><ele>718.0</ele><time>2026-04-18T09:13:26.53Z</time></trkpt><trkpt lat="38.954985" lon="16.5677933"><ele>722.0</ele><time>2026-04-18T09:13:27.533Z</time></trkpt><trkpt lat="38.9551" lon="16.56788"><ele>726.0</ele><time>2026-04-18T09:13:28.532Z</time></trkpt><trkpt lat="38.9552067" lon="16.56795"><ele>730.0</ele><time>2026-04-18T09:13:29.532Z</time></trkpt><trkpt lat="38.9552717" lon="16.5680617"><ele>734.0</ele><time>2026-04-18T09:13:30.53Z</time></trkpt><trkpt lat="38.955275" lon="16.5682233"><ele>734.0</ele><time>2026-04-18T09:13:31.53Z</time></trkpt><trkpt lat="38.95531" lon="16.5683383"><ele>734.0</ele><time>2026-04-18T09:13:32.531Z</time></trkpt><trkpt lat="38.9553667" lon="16.5684167"><ele>734.0</ele><time>2026-04-18T09:13:33.533Z</time></trkpt><trkpt lat="38.9554583" lon="16.5684633"><ele>734.0</ele><time>2026-04-18T09:13:34.53Z</time></trkpt><trkpt lat="38.955505" lon="16.568545"><ele>734.0</ele><time>2026-04-18T09:13:35.533Z</time></trkpt><trkpt lat="38.9555267" lon="16.5686433"><ele>734.0</ele><time>2026-04-18T09:13:36.532Z</time></trkpt><trkpt lat="38.9555117" lon="16.5687767"><ele>730.25</ele><time>2026-04-18T09:13:37.609Z</time></trkpt><trkpt lat="38.9554833" lon="16.56894"><ele>726.5</ele><time>2026-04-18T09:13:38.531Z</time></trkpt><trkpt lat="38.9554467" lon="16.5691133"><ele>722.75</ele><time>2026-04-18T09:13:39.532Z</time></trkpt><trkpt lat="38.9554167" lon="16.5692667"><ele>719.0</ele><time>2026-04-18T09:13:40.531Z</time></trkpt><trkpt lat="38.955415" lon="16.5693983"><ele>719.0</ele><time>2026-04-18T09:13:41.533Z</time></trkpt><trkpt lat="38.955475" lon="16.5695067"><ele>719.0</ele><time>2026-04-18T09:13:42.607Z</time></trkpt><trkpt lat="38.9555317" lon="16.5696267"><ele>719.0</ele><time>2026-04-18T09:13:43.532Z</time></trkpt><trkpt lat="38.955515" lon="16.5697617"><ele>719.0</ele><time>2026-04-18T09:13:44.53Z</time></trkpt><trkpt lat="38.9554883" lon="16.5699133"><ele>719.0</ele><time>2026-04-18T09:13:45.531Z</time></trkpt><trkpt lat="38.955525" lon="16.5700733"><ele>718.5</ele><time>2026-04-18T09:13:46.532Z</time></trkpt><trkpt lat="38.9555183" lon="16.57025"><ele>718.0</ele><time>2026-04-18T09:13:47.532Z</time></trkpt><trkpt lat="38.9554683" lon="16.5704183"><ele>717.5</ele><time>2026-04-18T09:13:48.531Z</time></trkpt><trkpt lat="38.9554333" lon="16.570595"><ele>717.0</ele><time>2026-04-18T09:13:49.53Z</time></trkpt><trkpt lat="38.9554017" lon="16.5707767"><ele>716.5</ele><time>2026-04-18T09:13:50.531Z</time></trkpt><trkpt lat="38.9553833" lon="16.5709617"><ele>716.0</ele><time>2026-04-18T09:13:51.53Z</time></trkpt><trkpt lat="38.9553667" lon="16.57115"><ele>715.5</ele><time>2026-04-18T09:13:52.608Z</time></trkpt><trkpt lat="38.9553017" lon="16.571325"><ele>715.0</ele><time>2026-04-18T09:13:53.529Z</time></trkpt><trkpt lat="38.9552283" lon="16.5714933"><ele>713.0</ele><time>2026-04-18T09:13:54.532Z</time></trkpt><trkpt lat="38.9551667" lon="16.5716567"><ele>711.0</ele><time>2026-04-18T09:13:55.531Z</time></trkpt><trkpt lat="38.955085" lon="16.5717983"><ele>709.0</ele><time>2026-04-18T09:13:56.53Z</time></trkpt><trkpt lat="38.9549983" lon="16.5719117"><ele>707.0</ele><time>2026-04-18T09:13:57.611Z</time></trkpt><trkpt lat="38.9549567" lon="16.5720283"><ele>704.3333333333333</ele><time>2026-04-18T09:13:58.53Z</time></trkpt><trkpt lat="38.9549317" lon="16.5721383"><ele>701.6666666666666</ele><time>2026-04-18T09:13:59.531Z</time></trkpt><trkpt lat="38.9549367" lon="16.5722383"><ele>699.0</ele><time>2026-04-18T09:14:00.532Z</time></trkpt><trkpt lat="38.95498" lon="16.57233"><ele>696.3333333333334</ele><time>2026-04-18T09:14:01.532Z</time></trkpt><trkpt lat="38.9550367" lon="16.5724183"><ele>693.6666666666667</ele><time>2026-04-18T09:14:02.53Z</time></trkpt><trkpt lat="38.9551133" lon="16.5725017"><ele>691.0</ele><time>2026-04-18T09:14:03.532Z</time></trkpt><trkpt lat="38.9552033" lon="16.57257"><ele>691.0</ele><time>2026-04-18T09:14:04.531Z</time></trkpt><trkpt lat="38.955305" lon="16.5725967"><ele>691.0</ele><time>2026-04-18T09:14:05.531Z</time></trkpt><trkpt lat="38.9554" lon="16.5726117"><ele>691.0</ele><time>2026-04-18T09:14:06.531Z</time></trkpt><trkpt lat="38.9554883" lon="16.5726333"><ele>691.0</ele><time>2026-04-18T09:14:07.532Z</time></trkpt><trkpt lat="38.9555733" lon="16.572635"><ele>691.0</ele><time>2026-04-18T09:14:08.532Z</time></trkpt><trkpt lat="38.955665" lon="16.5726233"><ele>691.0</ele><time>2026-04-18T09:14:09.534Z</time></trkpt><trkpt lat="38.9557517" lon="16.57257"><ele>691.0</ele><time>2026-04-18T09:14:10.533Z</time></trkpt><trkpt lat="38.9558367" lon="16.572495"><ele>691.0</ele><time>2026-04-18T09:14:11.534Z</time></trkpt><trkpt lat="38.9559267" lon="16.5724233"><ele>691.0</ele><time>2026-04-18T09:14:12.531Z</time></trkpt><trkpt lat="38.9560133" lon="16.5723417"><ele>691.0</ele><time>2026-04-18T09:14:13.532Z</time></trkpt><trkpt lat="38.9561033" lon="16.5722717"><ele>689.0</ele><time>2026-04-18T09:14:14.532Z</time></trkpt><trkpt lat="38.9562033" lon="16.5722217"><ele>687.0</ele><time>2026-04-18T09:14:15.532Z</time></trkpt><trkpt lat="38.9563167" lon="16.572145"><ele>685.0</ele><time>2026-04-18T09:14:16.53Z</time></trkpt><trkpt lat="38.9564483" lon="16.572135"><ele>683.0</ele><time>2026-04-18T09:14:17.531Z</time></trkpt><trkpt lat="38.9565617" lon="16.5720767"><ele>687.75</ele><time>2026-04-18T09:14:18.534Z</time></trkpt><trkpt lat="38.956685" lon="16.5720017"><ele>692.5</ele><time>2026-04-18T09:14:19.532Z</time></trkpt><trkpt lat="38.9568083" lon="16.5719583"><ele>697.25</ele><time>2026-04-18T09:14:20.532Z</time></trkpt><trkpt lat="38.9569417" lon="16.571925"><ele>702.0</ele><time>2026-04-18T09:14:21.533Z</time></trkpt><trkpt lat="38.9569567" lon="16.571765"><ele>702.0</ele><time>2026-04-18T09:14:22.53Z</time></trkpt><trkpt lat="38.9571167" lon="16.5716883"><ele>702.0</ele><time>2026-04-18T09:14:23.538Z</time></trkpt><trkpt lat="38.95727" lon="16.5716683"><ele>702.0</ele><time>2026-04-18T09:14:24.53Z</time></trkpt><trkpt lat="38.95734" lon="16.57154"><ele>702.0</ele><time>2026-04-18T09:14:25.536Z</time></trkpt><trkpt lat="38.9574683" lon="16.5714383"><ele>700.25</ele><time>2026-04-18T09:14:26.529Z</time></trkpt><trkpt lat="38.9576083" lon="16.5713433"><ele>698.5</ele><time>2026-04-18T09:14:27.532Z</time></trkpt><trkpt lat="38.9577233" lon="16.57122"><ele>696.75</ele><time>2026-04-18T09:14:28.533Z</time></trkpt><trkpt lat="38.957835" lon="16.5711083"><ele>695.0</ele><time>2026-04-18T09:14:29.533Z</time></trkpt><trkpt lat="38.9579833" lon="16.5710333"><ele>698.0</ele><time>2026-04-18T09:14:30.53Z</time></trkpt><trkpt lat="38.9580517" lon="16.57095"><ele>701.0</ele><time>2026-04-18T09:14:31.53Z</time></trkpt><trkpt lat="38.9581233" lon="16.5708617"><ele>704.0</ele><time>2026-04-18T09:14:32.533Z</time></trkpt><trkpt lat="38.95817" lon="16.5707317"><ele>707.0</ele><time>2026-04-18T09:14:33.531Z</time></trkpt><trkpt lat="38.95824" lon="16.5706283"><ele>710.0</ele><time>2026-04-18T09:14:34.537Z</time></trkpt><trkpt lat="38.9583083" lon="16.57053"><ele>710.6</ele><time>2026-04-18T09:14:35.531Z</time></trkpt><trkpt lat="38.9583967" lon="16.5704667"><ele>711.2</ele><time>2026-04-18T09:14:36.531Z</time></trkpt><trkpt lat="38.958485" lon="16.57042"><ele>711.8</ele><time>2026-04-18T09:14:37.532Z</time></trkpt><trkpt lat="38.95857" lon="16.570355"><ele>712.4</ele><time>2026-04-18T09:14:38.53Z</time></trkpt><trkpt lat="38.9586517" lon="16.5703317"><ele>713.0</ele><time>2026-04-18T09:14:39.533Z</time></trkpt><trkpt lat="38.9587467" lon="16.5703517"><ele>713.0</ele><time>2026-04-18T09:14:41.532Z</time></trkpt><trkpt lat="38.9588067" lon="16.5703917"><ele>713.0</ele><time>2026-04-18T09:14:44.534Z</time></trkpt><trkpt lat="38.9588817" lon="16.57038"><ele>713.0</ele><time>2026-04-18T09:14:46.535Z</time></trkpt><trkpt lat="38.9589517" lon="16.5702783"><ele>713.0</ele><time>2026-04-18T09:14:48.53Z</time></trkpt><trkpt lat="38.9589733" lon="16.57012"><ele>713.0</ele><time>2026-04-18T09:14:50.532Z</time></trkpt><trkpt lat="38.959" lon="16.5700283"><ele>713.0</ele><time>2026-04-18T09:14:51.534Z</time></trkpt><trkpt lat="38.9590317" lon="16.5699183"><ele>713.0</ele><time>2026-04-18T09:14:52.531Z</time></trkpt><trkpt lat="38.9590717" lon="16.5697933"><ele>713.0</ele><time>2026-04-18T09:14:53.532Z</time></trkpt><trkpt lat="38.959115" lon="16.5696617"><ele>713.0</ele><time>2026-04-18T09:14:54.53Z</time></trkpt><trkpt lat="38.9591567" lon="16.5695183"><ele>713.0</ele><time>2026-04-18T09:14:55.532Z</time></trkpt><trkpt lat="38.9592033" lon="16.5693783"><ele>710.25</ele><time>2026-04-18T09:14:56.53Z</time></trkpt><trkpt lat="38.959245" lon="16.5692417"><ele>707.5</ele><time>2026-04-18T09:14:57.532Z</time></trkpt><trkpt lat="38.95928" lon="16.5691083"><ele>704.75</ele><time>2026-04-18T09:14:58.535Z</time></trkpt><trkpt lat="38.959285" lon="16.568955"><ele>702.0</ele><time>2026-04-18T09:14:59.53Z</time></trkpt><trkpt lat="38.9593117" lon="16.5688133"><ele>703.0</ele><time>2026-04-18T09:15:00.535Z</time></trkpt><trkpt lat="38.959325" lon="16.5686733"><ele>704.0</ele><time>2026-04-18T09:15:01.529Z</time></trkpt><trkpt lat="38.9593333" lon="16.56855"><ele>705.0</ele><time>2026-04-18T09:15:02.53Z</time></trkpt><trkpt lat="38.95934" lon="16.5684383"><ele>706.0</ele><time>2026-04-18T09:15:03.53Z</time></trkpt><trkpt lat="38.9593433" lon="16.56833"><ele>707.0</ele><time>2026-04-18T09:15:04.531Z</time></trkpt><trkpt lat="38.9593733" lon="16.568235"><ele>707.0</ele><time>2026-04-18T09:15:05.53Z</time></trkpt><trkpt lat="38.959345" lon="16.56816"><ele>707.0</ele><time>2026-04-18T09:15:06.533Z</time></trkpt><trkpt lat="38.9592883" lon="16.5681133"><ele>707.0</ele><time>2026-04-18T09:15:07.532Z</time></trkpt><trkpt lat="38.9592067" lon="16.568125"><ele>707.0</ele><time>2026-04-18T09:15:08.531Z</time></trkpt><trkpt lat="38.9591267" lon="16.5681917"><ele>707.0</ele><time>2026-04-18T09:15:09.535Z</time></trkpt><trkpt lat="38.95903" lon="16.5682883"><ele>707.0</ele><time>2026-04-18T09:15:10.53Z</time></trkpt><trkpt lat="38.9589117" lon="16.5683467"><ele>712.2</ele><time>2026-04-18T09:15:12.531Z</time></trkpt><trkpt lat="38.958815" lon="16.5683133"><ele>717.4000000000001</ele><time>2026-04-18T09:15:14.53Z</time></trkpt><trkpt lat="38.9587717" lon="16.5681733"><ele>722.5999999999999</ele><time>2026-04-18T09:15:16.53Z</time></trkpt><trkpt lat="38.9587417" lon="16.5680983"><ele>727.8</ele><time>2026-04-18T09:15:17.531Z</time></trkpt><trkpt lat="38.9587067" lon="16.5680283"><ele>733.0</ele><time>2026-04-18T09:15:18.535Z</time></trkpt><trkpt lat="38.9586067" lon="16.56792"><ele>733.0</ele><time>2026-04-18T09:15:20.534Z</time></trkpt><trkpt lat="38.9585367" lon="16.5678617"><ele>733.0</ele><time>2026-04-18T09:15:21.532Z</time></trkpt><trkpt lat="38.95848" lon="16.5677683"><ele>733.0</ele><time>2026-04-18T09:15:22.532Z</time></trkpt><trkpt lat="38.9583767" lon="16.567695"><ele>733.0</ele><time>2026-04-18T09:15:23.532Z</time></trkpt><trkpt lat="38.9582967" lon="16.567595"><ele>733.0</ele><time>2026-04-18T09:15:24.532Z</time></trkpt><trkpt lat="38.95822" lon="16.56748"><ele>739.0</ele><time>2026-04-18T09:15:25.535Z</time></trkpt><trkpt lat="38.9581667" lon="16.5673383"><ele>745.0</ele><time>2026-04-18T09:15:26.531Z</time></trkpt><trkpt lat="38.9581433" lon="16.5671783"><ele>751.0</ele><time>2026-04-18T09:15:27.532Z</time></trkpt><trkpt lat="38.9581183" lon="16.5670117"><ele>757.0</ele><time>2026-04-18T09:15:28.532Z</time></trkpt><trkpt lat="38.9581183" lon="16.5668417"><ele>757.5</ele><time>2026-04-18T09:15:29.534Z</time></trkpt><trkpt lat="38.958105" lon="16.566665"><ele>758.0</ele><time>2026-04-18T09:15:30.531Z</time></trkpt><trkpt lat="38.9580867" lon="16.56647"><ele>758.5</ele><time>2026-04-18T09:15:31.533Z</time></trkpt><trkpt lat="38.958135" lon="16.5663417"><ele>759.0</ele><time>2026-04-18T09:15:32.534Z</time></trkpt><trkpt lat="38.9581467" lon="16.566185"><ele>756.0</ele><time>2026-04-18T09:15:33.532Z</time></trkpt><trkpt lat="38.9581417" lon="16.5660317"><ele>753.0</ele><time>2026-04-18T09:15:34.531Z</time></trkpt><trkpt lat="38.958175" lon="16.56591"><ele>750.0</ele><time>2026-04-18T09:15:35.534Z</time></trkpt><trkpt lat="38.9582233" lon="16.5657967"><ele>747.0</ele><time>2026-04-18T09:15:36.531Z</time></trkpt><trkpt lat="38.958305" lon="16.565705"><ele>744.0</ele><time>2026-04-18T09:15:37.533Z</time></trkpt><trkpt lat="38.95838" lon="16.5655933"><ele>744.0</ele><time>2026-04-18T09:15:38.533Z</time></trkpt><trkpt lat="38.9584867" lon="16.5654867"><ele>744.0</ele><time>2026-04-18T09:15:39.532Z</time></trkpt><trkpt lat="38.958605" lon="16.5653633"><ele>744.0</ele><time>2026-04-18T09:15:40.531Z</time></trkpt><trkpt lat="38.95874" lon="16.5652817"><ele>744.0</ele><time>2026-04-18T09:15:41.531Z</time></trkpt><trkpt lat="38.9588733" lon="16.5652083"><ele>744.75</ele><time>2026-04-18T09:15:42.532Z</time></trkpt><trkpt lat="38.9589883" lon="16.5651017"><ele>745.5</ele><time>2026-04-18T09:15:43.536Z</time></trkpt><trkpt lat="38.959125" lon="16.56503"><ele>746.25</ele><time>2026-04-18T09:15:44.529Z</time></trkpt><trkpt lat="38.9592233" lon="16.5649067"><ele>747.0</ele><time>2026-04-18T09:15:45.53Z</time></trkpt><trkpt lat="38.959345" lon="16.5647883"><ele>747.0</ele><time>2026-04-18T09:15:46.53Z</time></trkpt><trkpt lat="38.95949" lon="16.56477"><ele>747.0</ele><time>2026-04-18T09:15:47.53Z</time></trkpt><trkpt lat="38.9596133" lon="16.5647"><ele>747.0</ele><time>2026-04-18T09:15:48.53Z</time></trkpt><trkpt lat="38.9597217" lon="16.564625"><ele>747.0</ele><time>2026-04-18T09:15:49.53Z</time></trkpt><trkpt lat="38.959825" lon="16.56457"><ele>748.3333333333334</ele><time>2026-04-18T09:15:50.53Z</time></trkpt><trkpt lat="38.9599083" lon="16.5645283"><ele>749.6666666666666</ele><time>2026-04-18T09:15:51.53Z</time></trkpt><trkpt lat="38.9599683" lon="16.5644717"><ele>751.0</ele><time>2026-04-18T09:15:52.53Z</time></trkpt><trkpt lat="38.9600017" lon="16.5643867"><ele>752.3333333333333</ele><time>2026-04-18T09:15:53.532Z</time></trkpt><trkpt lat="38.96003" lon="16.5642883"><ele>753.6666666666666</ele><time>2026-04-18T09:15:54.532Z</time></trkpt><trkpt lat="38.9600433" lon="16.56419"><ele>755.0</ele><time>2026-04-18T09:15:55.531Z</time></trkpt><trkpt lat="38.9600483" lon="16.5641017"><ele>751.8333333333333</ele><time>2026-04-18T09:15:56.532Z</time></trkpt><trkpt lat="38.9600483" lon="16.5639917"><ele>748.6666666666666</ele><time>2026-04-18T09:15:58.534Z</time></trkpt><trkpt lat="38.960115" lon="16.56398"><ele>745.5</ele><time>2026-04-18T09:16:00.533Z</time></trkpt><trkpt lat="38.9601467" lon="16.5641117"><ele>742.3333333333334</ele><time>2026-04-18T09:16:02.531Z</time></trkpt><trkpt lat="38.9602" lon="16.5642383"><ele>739.1666666666667</ele><time>2026-04-18T09:16:04.532Z</time></trkpt><trkpt lat="38.96023" lon="16.5643133"><ele>736.0</ele><time>2026-04-18T09:16:05.533Z</time></trkpt><trkpt lat="38.9602667" lon="16.5643833"><ele>736.0</ele><time>2026-04-18T09:16:06.533Z</time></trkpt><trkpt lat="38.9603083" lon="16.5644567"><ele>736.0</ele><time>2026-04-18T09:16:07.533Z</time></trkpt><trkpt lat="38.9603433" lon="16.5645333"><ele>736.0</ele><time>2026-04-18T09:16:08.533Z</time></trkpt><trkpt lat="38.9603817" lon="16.5646117"><ele>736.0</ele><time>2026-04-18T09:16:09.534Z</time></trkpt><trkpt lat="38.9604317" lon="16.5646867"><ele>736.0</ele><time>2026-04-18T09:16:10.533Z</time></trkpt><trkpt lat="38.9604833" lon="16.5647683"><ele>736.0</ele><time>2026-04-18T09:16:11.532Z</time></trkpt><trkpt lat="38.9605367" lon="16.564845"><ele>736.6666666666667</ele><time>2026-04-18T09:16:12.533Z</time></trkpt><trkpt lat="38.9606" lon="16.5649167"><ele>737.3333333333334</ele><time>2026-04-18T09:16:13.534Z</time></trkpt><trkpt lat="38.9606633" lon="16.5649967"><ele>738.0</ele><time>2026-04-18T09:16:14.531Z</time></trkpt><trkpt lat="38.960725" lon="16.5650767"><ele>738.6666666666666</ele><time>2026-04-18T09:16:15.531Z</time></trkpt><trkpt lat="38.9607883" lon="16.56515"><ele>739.3333333333333</ele><time>2026-04-18T09:16:16.532Z</time></trkpt><trkpt lat="38.96085" lon="16.5652167"><ele>740.0</ele><time>2026-04-18T09:16:17.531Z</time></trkpt><trkpt lat="38.9609033" lon="16.5652867"><ele>739.0</ele><time>2026-04-18T09:16:18.532Z</time></trkpt><trkpt lat="38.9609467" lon="16.5653533"><ele>738.0</ele><time>2026-04-18T09:16:19.531Z</time></trkpt><trkpt lat="38.96104" lon="16.565405"><ele>737.0</ele><time>2026-04-18T09:16:21.532Z</time></trkpt><trkpt lat="38.9611567" lon="16.5654583"><ele>736.0</ele><time>2026-04-18T09:16:23.533Z</time></trkpt><trkpt lat="38.9612333" lon="16.5655033"><ele>735.0</ele><time>2026-04-18T09:16:24.535Z</time></trkpt><trkpt lat="38.9613083" lon="16.56556"><ele>735.0</ele><time>2026-04-18T09:16:25.532Z</time></trkpt><trkpt lat="38.9613883" lon="16.5655967"><ele>735.0</ele><time>2026-04-18T09:16:26.533Z</time></trkpt><trkpt lat="38.961475" lon="16.56561"><ele>735.0</ele><time>2026-04-18T09:16:27.531Z</time></trkpt><trkpt lat="38.9615633" lon="16.5655867"><ele>735.0</ele><time>2026-04-18T09:16:28.531Z</time></trkpt><trkpt lat="38.9616533" lon="16.565545"><ele>735.0</ele><time>2026-04-18T09:16:29.533Z</time></trkpt><trkpt lat="38.9617333" lon="16.5654733"><ele>743.0</ele><time>2026-04-18T09:16:30.533Z</time></trkpt><trkpt lat="38.9618" lon="16.56536"><ele>751.0</ele><time>2026-04-18T09:16:31.532Z</time></trkpt><trkpt lat="38.9618733" lon="16.5652433"><ele>759.0</ele><time>2026-04-18T09:16:32.531Z</time></trkpt><trkpt lat="38.961955" lon="16.5651167"><ele>767.0</ele><time>2026-04-18T09:16:33.535Z</time></trkpt><trkpt lat="38.9620483" lon="16.56504"><ele>767.0</ele><time>2026-04-18T09:16:34.534Z</time></trkpt><trkpt lat="38.9621133" lon="16.56496"><ele>767.0</ele><time>2026-04-18T09:16:35.53Z</time></trkpt><trkpt lat="38.9621767" lon="16.5648067"><ele>767.0</ele><time>2026-04-18T09:16:36.533Z</time></trkpt><trkpt lat="38.96226" lon="16.5646533"><ele>767.0</ele><time>2026-04-18T09:16:37.532Z</time></trkpt><trkpt lat="38.9623233" lon="16.56454"><ele>768.2</ele><time>2026-04-18T09:16:38.531Z</time></trkpt><trkpt lat="38.9624" lon="16.5644417"><ele>769.4000000000001</ele><time>2026-04-18T09:16:39.532Z</time></trkpt><trkpt lat="38.962485" lon="16.5643667"><ele>770.5999999999999</ele><time>2026-04-18T09:16:40.532Z</time></trkpt><trkpt lat="38.9625033" lon="16.5642817"><ele>771.8</ele><time>2026-04-18T09:16:41.531Z</time></trkpt><trkpt lat="38.9624933" lon="16.5641883"><ele>773.0</ele><time>2026-04-18T09:16:42.531Z</time></trkpt><trkpt lat="38.9625033" lon="16.56406"><ele>773.0</ele><time>2026-04-18T09:16:43.535Z</time></trkpt><trkpt lat="38.962505" lon="16.5639367"><ele>773.0</ele><time>2026-04-18T09:16:44.533Z</time></trkpt><trkpt lat="38.962535" lon="16.5637883"><ele>773.0</ele><time>2026-04-18T09:16:45.532Z</time></trkpt><trkpt lat="38.9625883" lon="16.5635733"><ele>773.0</ele><time>2026-04-18T09:16:47.532Z</time></trkpt><trkpt lat="38.9626133" lon="16.5634517"><ele>776.3333333333334</ele><time>2026-04-18T09:16:48.535Z</time></trkpt><trkpt lat="38.9626483" lon="16.5633633"><ele>779.6666666666667</ele><time>2026-04-18T09:16:49.533Z</time></trkpt><trkpt lat="38.9627267" lon="16.5633867"><ele>783.0</ele><time>2026-04-18T09:16:51.536Z</time></trkpt><trkpt lat="38.962795" lon="16.5635167"><ele>786.3333333333333</ele><time>2026-04-18T09:16:53.533Z</time></trkpt><trkpt lat="38.9628317" lon="16.5636067"><ele>789.6666666666666</ele><time>2026-04-18T09:16:54.535Z</time></trkpt><trkpt lat="38.9628867" lon="16.563695"><ele>793.0</ele><time>2026-04-18T09:16:55.534Z</time></trkpt><trkpt lat="38.9629467" lon="16.5637767"><ele>792.9999999999999</ele><time>2026-04-18T09:16:56.535Z</time></trkpt><trkpt lat="38.963025" lon="16.5638483"><ele>793.0</ele><time>2026-04-18T09:16:57.533Z</time></trkpt><trkpt lat="38.96309" lon="16.5639233"><ele>793.0</ele><time>2026-04-18T09:16:58.535Z</time></trkpt><trkpt lat="38.9631317" lon="16.5639933"><ele>793.0</ele><time>2026-04-18T09:16:59.533Z</time></trkpt><trkpt lat="38.9631433" lon="16.5640733"><ele>792.9999999999999</ele><time>2026-04-18T09:17:00.534Z</time></trkpt><trkpt lat="38.9631517" lon="16.5641783"><ele>793.0</ele><time>2026-04-18T09:17:01.53Z</time></trkpt><trkpt lat="38.9631533" lon="16.5642933"><ele>792.9999999999999</ele><time>2026-04-18T09:17:02.531Z</time></trkpt><trkpt lat="38.963135" lon="16.56442"><ele>793.0</ele><time>2026-04-18T09:17:03.53Z</time></trkpt><trkpt lat="38.96314" lon="16.56454"><ele>793.0</ele><time>2026-04-18T09:17:04.531Z</time></trkpt><trkpt lat="38.9631767" lon="16.5646383"><ele>793.0</ele><time>2026-04-18T09:17:05.532Z</time></trkpt><trkpt lat="38.9632183" lon="16.5647017"><ele>792.9999999999999</ele><time>2026-04-18T09:17:06.533Z</time></trkpt><trkpt lat="38.9632917" lon="16.5647333"><ele>793.0</ele><time>2026-04-18T09:17:08.533Z</time></trkpt><trkpt lat="38.9634" lon="16.564715"><ele>794.3333333333333</ele><time>2026-04-18T09:17:10.529Z</time></trkpt><trkpt lat="38.9634683" lon="16.564715"><ele>795.6666666666666</ele><time>2026-04-18T09:17:11.531Z</time></trkpt><trkpt lat="38.9635383" lon="16.5647267"><ele>797.0</ele><time>2026-04-18T09:17:12.531Z</time></trkpt><trkpt lat="38.9636117" lon="16.56475"><ele>798.3333333333333</ele><time>2026-04-18T09:17:13.535Z</time></trkpt><trkpt lat="38.96369" lon="16.5647667"><ele>799.6666666666666</ele><time>2026-04-18T09:17:14.53Z</time></trkpt><trkpt lat="38.9637617" lon="16.5648167"><ele>801.0</ele><time>2026-04-18T09:17:15.534Z</time></trkpt><trkpt lat="38.9638267" lon="16.5648933"><ele>801.0</ele><time>2026-04-18T09:17:16.533Z</time></trkpt><trkpt lat="38.9638767" lon="16.5649967"><ele>801.0</ele><time>2026-04-18T09:17:17.532Z</time></trkpt><trkpt lat="38.9639217" lon="16.5651017"><ele>801.0</ele><time>2026-04-18T09:17:18.531Z</time></trkpt><trkpt lat="38.9639767" lon="16.5652117"><ele>801.0</ele><time>2026-04-18T09:17:19.532Z</time></trkpt><trkpt lat="38.964045" lon="16.565315"><ele>801.0</ele><time>2026-04-18T09:17:20.533Z</time></trkpt><trkpt lat="38.96412" lon="16.5653783"><ele>797.3333333333334</ele><time>2026-04-18T09:17:21.53Z</time></trkpt><trkpt lat="38.9642" lon="16.565435"><ele>793.6666666666667</ele><time>2026-04-18T09:17:22.533Z</time></trkpt><trkpt lat="38.964285" lon="16.5654667"><ele>790.0</ele><time>2026-04-18T09:17:23.533Z</time></trkpt><trkpt lat="38.96437" lon="16.565465"><ele>786.3333333333334</ele><time>2026-04-18T09:17:24.533Z</time></trkpt><trkpt lat="38.96446" lon="16.565435"><ele>782.6666666666667</ele><time>2026-04-18T09:17:25.535Z</time></trkpt><trkpt lat="38.964545" lon="16.56542"><ele>779.0</ele><time>2026-04-18T09:17:26.533Z</time></trkpt><trkpt lat="38.9646233" lon="16.565425"><ele>779.0</ele><time>2026-04-18T09:17:27.533Z</time></trkpt><trkpt lat="38.9647" lon="16.5654017"><ele>779.0</ele><time>2026-04-18T09:17:28.532Z</time></trkpt><trkpt lat="38.964785" lon="16.5653933"><ele>779.0</ele><time>2026-04-18T09:17:29.531Z</time></trkpt><trkpt lat="38.9648817" lon="16.5653567"><ele>779.0</ele><time>2026-04-18T09:17:30.532Z</time></trkpt><trkpt lat="38.9649917" lon="16.5653517"><ele>779.0</ele><time>2026-04-18T09:17:31.531Z</time></trkpt><trkpt lat="38.9651033" lon="16.5653283"><ele>782.75</ele><time>2026-04-18T09:17:32.531Z</time></trkpt><trkpt lat="38.9652067" lon="16.5652567"><ele>786.5</ele><time>2026-04-18T09:17:33.532Z</time></trkpt><trkpt lat="38.965315" lon="16.5652"><ele>790.25</ele><time>2026-04-18T09:17:34.532Z</time></trkpt><trkpt lat="38.9654267" lon="16.5651683"><ele>794.0</ele><time>2026-04-18T09:17:35.532Z</time></trkpt><trkpt lat="38.965535" lon="16.5651317"><ele>794.0</ele><time>2026-04-18T09:17:36.532Z</time></trkpt><trkpt lat="38.9656383" lon="16.565095"><ele>794.0</ele><time>2026-04-18T09:17:37.531Z</time></trkpt><trkpt lat="38.965725" lon="16.5650333"><ele>794.0</ele><time>2026-04-18T09:17:38.532Z</time></trkpt><trkpt lat="38.9658" lon="16.564965"><ele>794.0</ele><time>2026-04-18T09:17:39.531Z</time></trkpt><trkpt lat="38.9658383" lon="16.564865"><ele>794.0</ele><time>2026-04-18T09:17:40.529Z</time></trkpt><trkpt lat="38.96589" lon="16.5647933"><ele>792.3333333333334</ele><time>2026-04-18T09:17:41.532Z</time></trkpt><trkpt lat="38.9660017" lon="16.5647467"><ele>790.6666666666667</ele><time>2026-04-18T09:17:43.53Z</time></trkpt><trkpt lat="38.9660533" lon="16.564795"><ele>789.0</ele><time>2026-04-18T09:17:44.529Z</time></trkpt><trkpt lat="38.9661067" lon="16.5648483"><ele>787.3333333333333</ele><time>2026-04-18T09:17:45.533Z</time></trkpt><trkpt lat="38.966175" lon="16.564855"><ele>785.6666666666666</ele><time>2026-04-18T09:17:46.532Z</time></trkpt><trkpt lat="38.966265" lon="16.564865"><ele>784.0</ele><time>2026-04-18T09:17:47.531Z</time></trkpt><trkpt lat="38.9663717" lon="16.564865"><ele>784.0</ele><time>2026-04-18T09:17:48.533Z</time></trkpt><trkpt lat="38.9664867" lon="16.5648867"><ele>784.0</ele><time>2026-04-18T09:17:49.532Z</time></trkpt><trkpt lat="38.9665933" lon="16.5648933"><ele>784.0</ele><time>2026-04-18T09:17:50.534Z</time></trkpt><trkpt lat="38.9666817" lon="16.5649"><ele>784.0</ele><time>2026-04-18T09:17:51.535Z</time></trkpt><trkpt lat="38.9667717" lon="16.5649083"><ele>784.0</ele><time>2026-04-18T09:17:52.532Z</time></trkpt><trkpt lat="38.9668317" lon="16.564955"><ele>782.9999999999999</ele><time>2026-04-18T09:17:53.533Z</time></trkpt><trkpt lat="38.96687" lon="16.56503"><ele>782.0</ele><time>2026-04-18T09:17:54.535Z</time></trkpt><trkpt lat="38.9669117" lon="16.56512"><ele>781.0</ele><time>2026-04-18T09:17:55.533Z</time></trkpt><trkpt lat="38.9669633" lon="16.56519"><ele>780.0</ele><time>2026-04-18T09:17:56.532Z</time></trkpt><trkpt lat="38.967025" lon="16.5652483"><ele>778.9999999999999</ele><time>2026-04-18T09:17:57.533Z</time></trkpt><trkpt lat="38.9670933" lon="16.5652717"><ele>778.0</ele><time>2026-04-18T09:17:58.534Z</time></trkpt><trkpt lat="38.96717" lon="16.5652433"><ele>778.0</ele><time>2026-04-18T09:17:59.534Z</time></trkpt><trkpt lat="38.9672417" lon="16.5651817"><ele>778.0</ele><time>2026-04-18T09:18:00.533Z</time></trkpt><trkpt lat="38.9673367" lon="16.5651117"><ele>778.0</ele><time>2026-04-18T09:18:01.538Z</time></trkpt><trkpt lat="38.9674483" lon="16.5650283"><ele>778.0</ele><time>2026-04-18T09:18:02.532Z</time></trkpt><trkpt lat="38.967545" lon="16.5649367"><ele>778.0</ele><time>2026-04-18T09:18:03.534Z</time></trkpt><trkpt lat="38.9676317" lon="16.5648983"><ele>778.1666666666666</ele><time>2026-04-18T09:18:04.535Z</time></trkpt><trkpt lat="38.9677083" lon="16.5648733"><ele>778.3333333333333</ele><time>2026-04-18T09:18:05.534Z</time></trkpt><trkpt lat="38.9678133" lon="16.5648417"><ele>778.5</ele><time>2026-04-18T09:18:07.534Z</time></trkpt><trkpt lat="38.9678767" lon="16.5647783"><ele>778.6666666666667</ele><time>2026-04-18T09:18:09.533Z</time></trkpt><trkpt lat="38.96792" lon="16.5647"><ele>778.8333333333334</ele><time>2026-04-18T09:18:10.535Z</time></trkpt><trkpt lat="38.967935" lon="16.5646"><ele>779.0</ele><time>2026-04-18T09:18:11.533Z</time></trkpt><trkpt lat="38.9679633" lon="16.5644533"><ele>779.0</ele><time>2026-04-18T09:18:12.53Z</time></trkpt><trkpt lat="38.9679917" lon="16.564345"><ele>779.0</ele><time>2026-04-18T09:18:13.531Z</time></trkpt><trkpt lat="38.9680267" lon="16.5642167"><ele>779.0</ele><time>2026-04-18T09:18:14.53Z</time></trkpt><trkpt lat="38.9680817" lon="16.5640617"><ele>779.0</ele><time>2026-04-18T09:18:15.534Z</time></trkpt><trkpt lat="38.9681117" lon="16.5639767"><ele>779.0</ele><time>2026-04-18T09:18:16.529Z</time></trkpt><trkpt lat="38.9681033" lon="16.5638417"><ele>782.0</ele><time>2026-04-18T09:18:17.53Z</time></trkpt><trkpt lat="38.9681083" lon="16.56363"><ele>785.0</ele><time>2026-04-18T09:18:19.532Z</time></trkpt><trkpt lat="38.9681167" lon="16.5635167"><ele>788.0</ele><time>2026-04-18T09:18:20.532Z</time></trkpt><trkpt lat="38.968115" lon="16.5634033"><ele>791.0</ele><time>2026-04-18T09:18:21.53Z</time></trkpt><trkpt lat="38.96812" lon="16.5632667"><ele>794.0</ele><time>2026-04-18T09:18:22.532Z</time></trkpt><trkpt lat="38.96815" lon="16.5631267"><ele>794.0</ele><time>2026-04-18T09:18:23.532Z</time></trkpt><trkpt lat="38.9681867" lon="16.56297"><ele>794.0</ele><time>2026-04-18T09:18:24.53Z</time></trkpt><trkpt lat="38.9681183" lon="16.5628667"><ele>794.0</ele><time>2026-04-18T09:18:25.532Z</time></trkpt><trkpt lat="38.968195" lon="16.5627517"><ele>794.0</ele><time>2026-04-18T09:18:26.529Z</time></trkpt><trkpt lat="38.96813" lon="16.562715"><ele>794.0</ele><time>2026-04-18T09:18:27.53Z</time></trkpt><trkpt lat="38.96821" lon="16.5625033"><ele>794.25</ele><time>2026-04-18T09:18:28.532Z</time></trkpt><trkpt lat="38.9683" lon="16.5623767"><ele>794.5</ele><time>2026-04-18T09:18:29.529Z</time></trkpt><trkpt lat="38.9683883" lon="16.562255"><ele>794.75</ele><time>2026-04-18T09:18:30.532Z</time></trkpt><trkpt lat="38.968455" lon="16.5621133"><ele>795.0</ele><time>2026-04-18T09:18:31.532Z</time></trkpt><trkpt lat="38.96852" lon="16.561965"><ele>797.0</ele><time>2026-04-18T09:18:32.532Z</time></trkpt><trkpt lat="38.9686" lon="16.5618517"><ele>799.0</ele><time>2026-04-18T09:18:33.532Z</time></trkpt><trkpt lat="38.9686817" lon="16.5617517"><ele>801.0</ele><time>2026-04-18T09:18:34.532Z</time></trkpt><trkpt lat="38.9687433" lon="16.56166"><ele>803.0</ele><time>2026-04-18T09:18:35.532Z</time></trkpt><trkpt lat="38.9687967" lon="16.561575"><ele>805.0</ele><time>2026-04-18T09:18:36.531Z</time></trkpt><trkpt lat="38.968845" lon="16.5615017"><ele>804.9999999999999</ele><time>2026-04-18T09:18:37.532Z</time></trkpt><trkpt lat="38.9688783" lon="16.5614267"><ele>805.0</ele><time>2026-04-18T09:18:38.532Z</time></trkpt><trkpt lat="38.9688867" lon="16.5613367"><ele>805.0</ele><time>2026-04-18T09:18:39.532Z</time></trkpt><trkpt lat="38.9688767" lon="16.5612283"><ele>805.0</ele><time>2026-04-18T09:18:40.529Z</time></trkpt><trkpt lat="38.9688883" lon="16.5611117"><ele>804.9999999999999</ele><time>2026-04-18T09:18:41.529Z</time></trkpt><trkpt lat="38.9689017" lon="16.5609967"><ele>805.0</ele><time>2026-04-18T09:18:42.532Z</time></trkpt><trkpt lat="38.968935" lon="16.560895"><ele>805.8333333333333</ele><time>2026-04-18T09:18:43.533Z</time></trkpt><trkpt lat="38.969" lon="16.560815"><ele>806.6666666666666</ele><time>2026-04-18T09:18:44.53Z</time></trkpt><trkpt lat="38.96907" lon="16.5607517"><ele>807.5</ele><time>2026-04-18T09:18:45.531Z</time></trkpt><trkpt lat="38.9691333" lon="16.5606817"><ele>808.3333333333333</ele><time>2026-04-18T09:18:46.531Z</time></trkpt><trkpt lat="38.9691833" lon="16.5606017"><ele>809.1666666666666</ele><time>2026-04-18T09:18:47.532Z</time></trkpt><trkpt lat="38.9692217" lon="16.5605017"><ele>810.0</ele><time>2026-04-18T09:18:48.532Z</time></trkpt><trkpt lat="38.96927" lon="16.5603967"><ele>807.6</ele><time>2026-04-18T09:18:49.536Z</time></trkpt><trkpt lat="38.969325" lon="16.56028"><ele>805.2</ele><time>2026-04-18T09:18:50.533Z</time></trkpt><trkpt lat="38.9693817" lon="16.56016"><ele>802.8</ele><time>2026-04-18T09:18:51.53Z</time></trkpt><trkpt lat="38.96944" lon="16.5600367"><ele>800.4</ele><time>2026-04-18T09:18:52.53Z</time></trkpt><trkpt lat="38.9694883" lon="16.559905"><ele>798.0</ele><time>2026-04-18T09:18:53.53Z</time></trkpt><trkpt lat="38.969525" lon="16.5597917"><ele>798.0</ele><time>2026-04-18T09:18:54.531Z</time></trkpt><trkpt lat="38.9695533" lon="16.559695"><ele>798.0</ele><time>2026-04-18T09:18:55.532Z</time></trkpt><trkpt lat="38.9695583" lon="16.5595983"><ele>798.0</ele><time>2026-04-18T09:18:56.534Z</time></trkpt><trkpt lat="38.9695633" lon="16.5594983"><ele>798.0</ele><time>2026-04-18T09:18:57.532Z</time></trkpt><trkpt lat="38.9695667" lon="16.5593917"><ele>798.0</ele><time>2026-04-18T09:18:58.532Z</time></trkpt><trkpt lat="38.96958" lon="16.5592867"><ele>798.0</ele><time>2026-04-18T09:18:59.53Z</time></trkpt><trkpt lat="38.9696067" lon="16.55919"><ele>798.5</ele><time>2026-04-18T09:19:00.53Z</time></trkpt><trkpt lat="38.9696583" lon="16.5590967"><ele>799.0</ele><time>2026-04-18T09:19:01.53Z</time></trkpt><trkpt lat="38.9697217" lon="16.55902"><ele>799.5</ele><time>2026-04-18T09:19:02.531Z</time></trkpt><trkpt lat="38.9697883" lon="16.5589683"><ele>800.0</ele><time>2026-04-18T09:19:03.534Z</time></trkpt><trkpt lat="38.9698367" lon="16.5589"><ele>800.5</ele><time>2026-04-18T09:19:04.53Z</time></trkpt><trkpt lat="38.96988" lon="16.5588117"><ele>801.0</ele><time>2026-04-18T09:19:05.531Z</time></trkpt><trkpt lat="38.9699" lon="16.5586917"><ele>801.8</ele><time>2026-04-18T09:19:06.531Z</time></trkpt><trkpt lat="38.96992" lon="16.5585583"><ele>802.5999999999999</ele><time>2026-04-18T09:19:07.532Z</time></trkpt><trkpt lat="38.9699567" lon="16.558425"><ele>803.4</ele><time>2026-04-18T09:19:08.531Z</time></trkpt><trkpt lat="38.9699917" lon="16.558295"><ele>804.2</ele><time>2026-04-18T09:19:09.535Z</time></trkpt><trkpt lat="38.9699967" lon="16.558165"><ele>805.0</ele><time>2026-04-18T09:19:10.534Z</time></trkpt><trkpt lat="38.9699967" lon="16.5580367"><ele>804.9999999999999</ele><time>2026-04-18T09:19:11.531Z</time></trkpt><trkpt lat="38.970015" lon="16.5579233"><ele>805.0</ele><time>2026-04-18T09:19:12.534Z</time></trkpt><trkpt lat="38.9700633" lon="16.5578317"><ele>805.0</ele><time>2026-04-18T09:19:13.535Z</time></trkpt><trkpt lat="38.9700933" lon="16.557735"><ele>805.0</ele><time>2026-04-18T09:19:14.533Z</time></trkpt><trkpt lat="38.9700933" lon="16.55765"><ele>804.9999999999999</ele><time>2026-04-18T09:19:15.532Z</time></trkpt><trkpt lat="38.9700917" lon="16.557565"><ele>805.0</ele><time>2026-04-18T09:19:16.534Z</time></trkpt><trkpt lat="38.970085" lon="16.55748"><ele>802.3333333333333</ele><time>2026-04-18T09:19:17.531Z</time></trkpt><trkpt lat="38.9700817" lon="16.557315"><ele>799.6666666666666</ele><time>2026-04-18T09:19:19.532Z</time></trkpt><trkpt lat="38.9700967" lon="16.5572317"><ele>797.0</ele><time>2026-04-18T09:19:20.531Z</time></trkpt><trkpt lat="38.9701083" lon="16.557145"><ele>794.3333333333333</ele><time>2026-04-18T09:19:21.531Z</time></trkpt><trkpt lat="38.97014" lon="16.5570683"><ele>791.6666666666666</ele><time>2026-04-18T09:19:22.532Z</time></trkpt><trkpt lat="38.970175" lon="16.556985"><ele>789.0</ele><time>2026-04-18T09:19:23.531Z</time></trkpt><trkpt lat="38.97024" lon="16.556925"><ele>789.0</ele><time>2026-04-18T09:19:24.531Z</time></trkpt><trkpt lat="38.9702983" lon="16.5568567"><ele>789.0</ele><time>2026-04-18T09:19:25.533Z</time></trkpt><trkpt lat="38.9703683" lon="16.5568067"><ele>789.0</ele><time>2026-04-18T09:19:26.534Z</time></trkpt><trkpt lat="38.9704383" lon="16.5567683"><ele>789.0</ele><time>2026-04-18T09:19:27.531Z</time></trkpt><trkpt lat="38.970525" lon="16.55672"><ele>789.0</ele><time>2026-04-18T09:19:28.532Z</time></trkpt><trkpt lat="38.97061" lon="16.55666"><ele>789.0</ele><time>2026-04-18T09:19:29.531Z</time></trkpt><trkpt lat="38.9707" lon="16.5566033"><ele>789.0</ele><time>2026-04-18T09:19:30.537Z</time></trkpt><trkpt lat="38.9707867" lon="16.55655"><ele>789.0</ele><time>2026-04-18T09:19:31.532Z</time></trkpt><trkpt lat="38.9708667" lon="16.5565083"><ele>789.0</ele><time>2026-04-18T09:19:32.532Z</time></trkpt><trkpt lat="38.97094" lon="16.5564583"><ele>789.0</ele><time>2026-04-18T09:19:33.532Z</time></trkpt><trkpt lat="38.9710017" lon="16.5564033"><ele>789.0</ele><time>2026-04-18T09:19:34.532Z</time></trkpt><trkpt lat="38.971065" lon="16.5563467"><ele>789.0</ele><time>2026-04-18T09:19:35.53Z</time></trkpt><trkpt lat="38.971135" lon="16.5563"><ele>788.0</ele><time>2026-04-18T09:19:36.53Z</time></trkpt><trkpt lat="38.9712083" lon="16.5562383"><ele>787.0</ele><time>2026-04-18T09:19:37.536Z</time></trkpt><trkpt lat="38.9712917" lon="16.556185"><ele>786.0</ele><time>2026-04-18T09:19:38.531Z</time></trkpt><trkpt lat="38.9713717" lon="16.5561183"><ele>785.0</ele><time>2026-04-18T09:19:39.53Z</time></trkpt><trkpt lat="38.97146" lon="16.55608"><ele>784.0</ele><time>2026-04-18T09:19:40.53Z</time></trkpt><trkpt lat="38.971535" lon="16.5560117"><ele>783.9999999999999</ele><time>2026-04-18T09:19:41.529Z</time></trkpt><trkpt lat="38.9716067" lon="16.5559433"><ele>784.0</ele><time>2026-04-18T09:19:42.532Z</time></trkpt><trkpt lat="38.9716983" lon="16.5559183"><ele>784.0</ele><time>2026-04-18T09:19:43.532Z</time></trkpt><trkpt lat="38.97176" lon="16.555845"><ele>784.0</ele><time>2026-04-18T09:19:44.532Z</time></trkpt><trkpt lat="38.9718367" lon="16.5558"><ele>783.9999999999999</ele><time>2026-04-18T09:19:45.53Z</time></trkpt><trkpt lat="38.971905" lon="16.5557433"><ele>784.0</ele><time>2026-04-18T09:19:46.531Z</time></trkpt><trkpt lat="38.9719717" lon="16.5556983"><ele>781.4999999999999</ele><time>2026-04-18T09:19:47.53Z</time></trkpt><trkpt lat="38.9720117" lon="16.55563"><ele>779.0</ele><time>2026-04-18T09:19:48.532Z</time></trkpt><trkpt lat="38.9720617" lon="16.555565"><ele>776.5</ele><time>2026-04-18T09:19:49.53Z</time></trkpt><trkpt lat="38.9721233" lon="16.5555"><ele>774.0</ele><time>2026-04-18T09:19:50.531Z</time></trkpt><trkpt lat="38.9721867" lon="16.5554383"><ele>771.4999999999999</ele><time>2026-04-18T09:19:51.53Z</time></trkpt><trkpt lat="38.97225" lon="16.5553617"><ele>769.0</ele><time>2026-04-18T09:19:52.529Z</time></trkpt><trkpt lat="38.9723067" lon="16.555255"><ele>768.9999999999999</ele><time>2026-04-18T09:19:53.531Z</time></trkpt><trkpt lat="38.97237" lon="16.5551517"><ele>769.0</ele><time>2026-04-18T09:19:54.532Z</time></trkpt><trkpt lat="38.97242" lon="16.5550567"><ele>769.0</ele><time>2026-04-18T09:19:55.531Z</time></trkpt><trkpt lat="38.97245" lon="16.5549583"><ele>769.0</ele><time>2026-04-18T09:19:56.53Z</time></trkpt><trkpt lat="38.9724617" lon="16.5548533"><ele>768.9999999999999</ele><time>2026-04-18T09:19:57.533Z</time></trkpt><trkpt lat="38.972465" lon="16.5547367"><ele>769.0</ele><time>2026-04-18T09:19:58.531Z</time></trkpt><trkpt lat="38.9724583" lon="16.5546117"><ele>768.1666666666666</ele><time>2026-04-18T09:19:59.533Z</time></trkpt><trkpt lat="38.9724533" lon="16.5544817"><ele>767.3333333333333</ele><time>2026-04-18T09:20:00.53Z</time></trkpt><trkpt lat="38.972455" lon="16.55437"><ele>766.5</ele><time>2026-04-18T09:20:01.531Z</time></trkpt><trkpt lat="38.9724483" lon="16.554275"><ele>765.6666666666666</ele><time>2026-04-18T09:20:02.531Z</time></trkpt><trkpt lat="38.9724317" lon="16.55419"><ele>764.8333333333333</ele><time>2026-04-18T09:20:03.531Z</time></trkpt><trkpt lat="38.972395" lon="16.5541133"><ele>764.0</ele><time>2026-04-18T09:20:04.53Z</time></trkpt><trkpt lat="38.9723517" lon="16.5540233"><ele>764.0</ele><time>2026-04-18T09:20:05.532Z</time></trkpt><trkpt lat="38.9722883" lon="16.5539367"><ele>764.0</ele><time>2026-04-18T09:20:06.531Z</time></trkpt><trkpt lat="38.9722283" lon="16.5538467"><ele>764.0</ele><time>2026-04-18T09:20:07.534Z</time></trkpt><trkpt lat="38.9721783" lon="16.553745"><ele>764.0</ele><time>2026-04-18T09:20:08.531Z</time></trkpt><trkpt lat="38.9721333" lon="16.5536383"><ele>764.0</ele><time>2026-04-18T09:20:09.534Z</time></trkpt><trkpt lat="38.97206" lon="16.553545"><ele>760.6</ele><time>2026-04-18T09:20:10.534Z</time></trkpt><trkpt lat="38.97202" lon="16.553435"><ele>757.2</ele><time>2026-04-18T09:20:11.531Z</time></trkpt><trkpt lat="38.97198" lon="16.5533433"><ele>753.8000000000001</ele><time>2026-04-18T09:20:12.529Z</time></trkpt><trkpt lat="38.9719417" lon="16.55327"><ele>750.4000000000001</ele><time>2026-04-18T09:20:13.53Z</time></trkpt><trkpt lat="38.97184" lon="16.55321"><ele>747.0</ele><time>2026-04-18T09:20:15.531Z</time></trkpt><trkpt lat="38.9717017" lon="16.5532517"><ele>749.8</ele><time>2026-04-18T09:20:17.533Z</time></trkpt><trkpt lat="38.9715967" lon="16.5532717"><ele>752.6</ele><time>2026-04-18T09:20:18.534Z</time></trkpt><trkpt lat="38.9714933" lon="16.5533"><ele>755.4</ele><time>2026-04-18T09:20:19.532Z</time></trkpt><trkpt lat="38.97141" lon="16.55331"><ele>758.1999999999999</ele><time>2026-04-18T09:20:20.532Z</time></trkpt><trkpt lat="38.9713317" lon="16.5533067"><ele>761.0</ele><time>2026-04-18T09:20:21.531Z</time></trkpt><trkpt lat="38.971255" lon="16.5532517"><ele>761.0</ele><time>2026-04-18T09:20:22.531Z</time></trkpt><trkpt lat="38.97118" lon="16.553175"><ele>761.0</ele><time>2026-04-18T09:20:23.53Z</time></trkpt><trkpt lat="38.9711233" lon="16.5530783"><ele>761.0</ele><time>2026-04-18T09:20:24.53Z</time></trkpt><trkpt lat="38.9710617" lon="16.553"><ele>761.0</ele><time>2026-04-18T09:20:25.53Z</time></trkpt><trkpt lat="38.97099" lon="16.5529167"><ele>761.0</ele><time>2026-04-18T09:20:26.532Z</time></trkpt><trkpt lat="38.9709067" lon="16.552845"><ele>757.4</ele><time>2026-04-18T09:20:27.532Z</time></trkpt><trkpt lat="38.9708417" lon="16.5527667"><ele>753.8</ele><time>2026-04-18T09:20:28.533Z</time></trkpt><trkpt lat="38.970785" lon="16.55271"><ele>750.1999999999999</ele><time>2026-04-18T09:20:29.531Z</time></trkpt><trkpt lat="38.970715" lon="16.55263"><ele>746.5999999999999</ele><time>2026-04-18T09:20:31.531Z</time></trkpt><trkpt lat="38.9707633" lon="16.55254"><ele>743.0</ele><time>2026-04-18T09:20:33.532Z</time></trkpt><trkpt lat="38.9708717" lon="16.552515"><ele>741.0</ele><time>2026-04-18T09:20:35.532Z</time></trkpt><trkpt lat="38.970945" lon="16.5525133"><ele>739.0</ele><time>2026-04-18T09:20:36.532Z</time></trkpt><trkpt lat="38.97102" lon="16.5525233"><ele>737.0</ele><time>2026-04-18T09:20:37.532Z</time></trkpt><trkpt lat="38.9710833" lon="16.5525183"><ele>735.0</ele><time>2026-04-18T09:20:38.533Z</time></trkpt><trkpt lat="38.9711733" lon="16.55248"><ele>733.0</ele><time>2026-04-18T09:20:40.531Z</time></trkpt><trkpt lat="38.9711483" lon="16.5523833"><ele>731.0</ele><time>2026-04-18T09:20:42.53Z</time></trkpt><trkpt lat="38.9710717" lon="16.5523483"><ele>731.0</ele><time>2026-04-18T09:20:43.532Z</time></trkpt><trkpt lat="38.971015" lon="16.5523117"><ele>731.0</ele><time>2026-04-18T09:20:44.533Z</time></trkpt><trkpt lat="38.9709683" lon="16.552255"><ele>731.0</ele><time>2026-04-18T09:20:45.532Z</time></trkpt><trkpt lat="38.9709083" lon="16.5521817"><ele>731.0</ele><time>2026-04-18T09:20:46.532Z</time></trkpt><trkpt lat="38.9708333" lon="16.5521167"><ele>731.0</ele><time>2026-04-18T09:20:47.532Z</time></trkpt><trkpt lat="38.9707467" lon="16.5520467"><ele>731.0</ele><time>2026-04-18T09:20:48.531Z</time></trkpt><trkpt lat="38.9706583" lon="16.5519683"><ele>727.0</ele><time>2026-04-18T09:20:49.531Z</time></trkpt><trkpt lat="38.970565" lon="16.55188"><ele>723.0</ele><time>2026-04-18T09:20:50.529Z</time></trkpt><trkpt lat="38.9704683" lon="16.5518067"><ele>719.0</ele><time>2026-04-18T09:20:51.531Z</time></trkpt><trkpt lat="38.9703717" lon="16.5517517"><ele>715.0</ele><time>2026-04-18T09:20:52.531Z</time></trkpt><trkpt lat="38.9702917" lon="16.5517"><ele>711.0</ele><time>2026-04-18T09:20:53.53Z</time></trkpt><trkpt lat="38.97022" lon="16.5516667"><ele>711.0</ele><time>2026-04-18T09:20:54.529Z</time></trkpt><trkpt lat="38.9701133" lon="16.5516283"><ele>711.0</ele><time>2026-04-18T09:20:56.533Z</time></trkpt><trkpt lat="38.9701033" lon="16.551545"><ele>711.0</ele><time>2026-04-18T09:20:58.531Z</time></trkpt><trkpt lat="38.970215" lon="16.5515933"><ele>711.0</ele><time>2026-04-18T09:21:01.53Z</time></trkpt><trkpt lat="38.9702867" lon="16.5516217"><ele>711.0</ele><time>2026-04-18T09:21:02.53Z</time></trkpt><trkpt lat="38.9703783" lon="16.5516433"><ele>711.0</ele><time>2026-04-18T09:21:03.531Z</time></trkpt><trkpt lat="38.9704883" lon="16.551645"><ele>711.0</ele><time>2026-04-18T09:21:04.531Z</time></trkpt><trkpt lat="38.970595" lon="16.5516283"><ele>711.0</ele><time>2026-04-18T09:21:05.53Z</time></trkpt><trkpt lat="38.97069" lon="16.5515933"><ele>711.0</ele><time>2026-04-18T09:21:06.531Z</time></trkpt><trkpt lat="38.97079" lon="16.5515683"><ele>711.0</ele><time>2026-04-18T09:21:07.531Z</time></trkpt><trkpt lat="38.97088" lon="16.5516133"><ele>709.4</ele><time>2026-04-18T09:21:08.532Z</time></trkpt><trkpt lat="38.9709633" lon="16.5516333"><ele>707.8</ele><time>2026-04-18T09:21:09.531Z</time></trkpt><trkpt lat="38.97105" lon="16.5516117"><ele>706.1999999999999</ele><time>2026-04-18T09:21:10.53Z</time></trkpt><trkpt lat="38.9711483" lon="16.5516183"><ele>704.5999999999999</ele><time>2026-04-18T09:21:11.532Z</time></trkpt><trkpt lat="38.97125" lon="16.5516133"><ele>703.0</ele><time>2026-04-18T09:21:12.532Z</time></trkpt><trkpt lat="38.971355" lon="16.551595"><ele>703.0</ele><time>2026-04-18T09:21:13.532Z</time></trkpt><trkpt lat="38.9714533" lon="16.55158"><ele>703.0</ele><time>2026-04-18T09:21:14.532Z</time></trkpt><trkpt lat="38.971545" lon="16.5515667"><ele>703.0</ele><time>2026-04-18T09:21:15.532Z</time></trkpt><trkpt lat="38.9716233" lon="16.5515717"><ele>703.0</ele><time>2026-04-18T09:21:16.53Z</time></trkpt><trkpt lat="38.97169" lon="16.5515567"><ele>703.0</ele><time>2026-04-18T09:21:17.53Z</time></trkpt><trkpt lat="38.9717533" lon="16.551535"><ele>703.0</ele><time>2026-04-18T09:21:18.532Z</time></trkpt><trkpt lat="38.9718067" lon="16.5514567"><ele>703.0</ele><time>2026-04-18T09:21:20.534Z</time></trkpt><trkpt lat="38.9717633" lon="16.5513683"><ele>703.0</ele><time>2026-04-18T09:21:22.53Z</time></trkpt><trkpt lat="38.9716767" lon="16.551305"><ele>703.0</ele><time>2026-04-18T09:21:24.531Z</time></trkpt><trkpt lat="38.9716033" lon="16.5512117"><ele>703.0</ele><time>2026-04-18T09:21:26.531Z</time></trkpt><trkpt lat="38.97163" lon="16.551105"><ele>703.0</ele><time>2026-04-18T09:21:28.532Z</time></trkpt><trkpt lat="38.97173" lon="16.5510833"><ele>701.0</ele><time>2026-04-18T09:21:30.53Z</time></trkpt><trkpt lat="38.9717983" lon="16.5511033"><ele>699.0</ele><time>2026-04-18T09:21:31.531Z</time></trkpt><trkpt lat="38.971865" lon="16.5511417"><ele>697.0</ele><time>2026-04-18T09:21:32.528Z</time></trkpt><trkpt lat="38.97193" lon="16.5511833"><ele>695.0</ele><time>2026-04-18T09:21:33.53Z</time></trkpt><trkpt lat="38.971995" lon="16.55124"><ele>693.0</ele><time>2026-04-18T09:21:34.53Z</time></trkpt><trkpt lat="38.9720733" lon="16.5512817"><ele>691.0</ele><time>2026-04-18T09:21:35.53Z</time></trkpt><trkpt lat="38.9721567" lon="16.5512983"><ele>690.9999999999999</ele><time>2026-04-18T09:21:36.531Z</time></trkpt><trkpt lat="38.9722317" lon="16.5513183"><ele>691.0</ele><time>2026-04-18T09:21:37.531Z</time></trkpt><trkpt lat="38.9722983" lon="16.5513467"><ele>691.0</ele><time>2026-04-18T09:21:38.531Z</time></trkpt><trkpt lat="38.9723517" lon="16.55139"><ele>691.0</ele><time>2026-04-18T09:21:39.529Z</time></trkpt><trkpt lat="38.9724183" lon="16.5514133"><ele>691.0</ele><time>2026-04-18T09:21:40.533Z</time></trkpt><trkpt lat="38.97248" lon="16.551445"><ele>690.9999999999999</ele><time>2026-04-18T09:21:41.531Z</time></trkpt><trkpt lat="38.972535" lon="16.5514867"><ele>691.0</ele><time>2026-04-18T09:21:42.531Z</time></trkpt><trkpt lat="38.972645" lon="16.5514867"><ele>690.2857142857142</ele><time>2026-04-18T09:21:44.532Z</time></trkpt><trkpt lat="38.9727" lon="16.5514383"><ele>689.5714285714286</ele><time>2026-04-18T09:21:45.536Z</time></trkpt><trkpt lat="38.97276" lon="16.5513933"><ele>688.8571428571429</ele><time>2026-04-18T09:21:46.531Z</time></trkpt><trkpt lat="38.97282" lon="16.5513517"><ele>688.1428571428571</ele><time>2026-04-18T09:21:47.532Z</time></trkpt><trkpt lat="38.9728883" lon="16.551335"><ele>687.4285714285714</ele><time>2026-04-18T09:21:48.532Z</time></trkpt><trkpt lat="38.9729617" lon="16.5513367"><ele>686.7142857142857</ele><time>2026-04-18T09:21:49.532Z</time></trkpt><trkpt lat="38.9730333" lon="16.5513183"><ele>686.0</ele><time>2026-04-18T09:21:50.532Z</time></trkpt><trkpt lat="38.9731233" lon="16.5513117"><ele>686.0</ele><time>2026-04-18T09:21:51.533Z</time></trkpt><trkpt lat="38.9732117" lon="16.5513267"><ele>686.0</ele><time>2026-04-18T09:21:52.531Z</time></trkpt><trkpt lat="38.973305" lon="16.551335"><ele>686.0</ele><time>2026-04-18T09:21:53.535Z</time></trkpt><trkpt lat="38.9734017" lon="16.5513333"><ele>686.0</ele><time>2026-04-18T09:21:54.532Z</time></trkpt><trkpt lat="38.9735033" lon="16.55132"><ele>686.0</ele><time>2026-04-18T09:21:55.533Z</time></trkpt><trkpt lat="38.973605" lon="16.5513033"><ele>684.5</ele><time>2026-04-18T09:21:56.532Z</time></trkpt><trkpt lat="38.9737083" lon="16.5512767"><ele>683.0</ele><time>2026-04-18T09:21:57.531Z</time></trkpt><trkpt lat="38.973795" lon="16.5512367"><ele>681.5</ele><time>2026-04-18T09:21:58.532Z</time></trkpt><trkpt lat="38.9738783" lon="16.5512133"><ele>680.0</ele><time>2026-04-18T09:21:59.532Z</time></trkpt><trkpt lat="38.9739517" lon="16.551215"><ele>678.5</ele><time>2026-04-18T09:22:00.532Z</time></trkpt><trkpt lat="38.97403" lon="16.5512233"><ele>677.0</ele><time>2026-04-18T09:22:01.53Z</time></trkpt><trkpt lat="38.97411" lon="16.5512283"><ele>673.0</ele><time>2026-04-18T09:22:02.532Z</time></trkpt><trkpt lat="38.9741967" lon="16.551245"><ele>669.0</ele><time>2026-04-18T09:22:03.536Z</time></trkpt><trkpt lat="38.9742917" lon="16.5512317"><ele>665.0</ele><time>2026-04-18T09:22:04.535Z</time></trkpt><trkpt lat="38.9743933" lon="16.551235"><ele>661.0</ele><time>2026-04-18T09:22:05.528Z</time></trkpt><trkpt lat="38.9744983" lon="16.5512533"><ele>657.0</ele><time>2026-04-18T09:22:06.53Z</time></trkpt><trkpt lat="38.9745917" lon="16.5512783"><ele>657.0</ele><time>2026-04-18T09:22:07.533Z</time></trkpt><trkpt lat="38.9746717" lon="16.551285"><ele>657.0</ele><time>2026-04-18T09:22:08.53Z</time></trkpt><trkpt lat="38.974755" lon="16.5512567"><ele>657.0</ele><time>2026-04-18T09:22:09.535Z</time></trkpt><trkpt lat="38.9748283" lon="16.55129"><ele>657.0</ele><time>2026-04-18T09:22:10.531Z</time></trkpt><trkpt lat="38.974915" lon="16.5512883"><ele>657.0</ele><time>2026-04-18T09:22:11.531Z</time></trkpt><trkpt lat="38.975005" lon="16.5513083"><ele>657.0</ele><time>2026-04-18T09:22:12.535Z</time></trkpt><trkpt lat="38.9750933" lon="16.5513417"><ele>651.6</ele><time>2026-04-18T09:22:13.532Z</time></trkpt><trkpt lat="38.9751833" lon="16.551355"><ele>646.2</ele><time>2026-04-18T09:22:14.531Z</time></trkpt><trkpt lat="38.9752767" lon="16.55136"><ele>640.8</ele><time>2026-04-18T09:22:15.531Z</time></trkpt><trkpt lat="38.9753683" lon="16.5513867"><ele>635.4</ele><time>2026-04-18T09:22:16.533Z</time></trkpt><trkpt lat="38.975445" lon="16.5514317"><ele>630.0</ele><time>2026-04-18T09:22:17.53Z</time></trkpt><trkpt lat="38.9755183" lon="16.5514967"><ele>630.0</ele><time>2026-04-18T09:22:18.532Z</time></trkpt><trkpt lat="38.9755867" lon="16.55156"><ele>630.0</ele><time>2026-04-18T09:22:19.532Z</time></trkpt><trkpt lat="38.9756567" lon="16.5516133"><ele>630.0</ele><time>2026-04-18T09:22:20.532Z</time></trkpt><trkpt lat="38.9757167" lon="16.5516717"><ele>630.0</ele><time>2026-04-18T09:22:21.531Z</time></trkpt><trkpt lat="38.97578" lon="16.5517217"><ele>630.0</ele><time>2026-04-18T09:22:22.531Z</time></trkpt><trkpt lat="38.9758367" lon="16.5517833"><ele>630.0</ele><time>2026-04-18T09:22:23.531Z</time></trkpt><trkpt lat="38.9759" lon="16.5518233"><ele>622.8333333333334</ele><time>2026-04-18T09:22:24.531Z</time></trkpt><trkpt lat="38.9759567" lon="16.5518633"><ele>615.6666666666666</ele><time>2026-04-18T09:22:25.532Z</time></trkpt><trkpt lat="38.97605" lon="16.55195"><ele>608.5</ele><time>2026-04-18T09:22:27.532Z</time></trkpt><trkpt lat="38.976115" lon="16.55194"><ele>601.3333333333333</ele><time>2026-04-18T09:22:29.533Z</time></trkpt><trkpt lat="38.97614" lon="16.55186"><ele>594.1666666666666</ele><time>2026-04-18T09:22:31.53Z</time></trkpt><trkpt lat="38.9761133" lon="16.5517683"><ele>587.0</ele><time>2026-04-18T09:23:26.531Z</time></trkpt><trkpt lat="38.9761167" lon="16.55167"><ele>587.0</ele><time>2026-04-18T09:23:29.53Z</time></trkpt><trkpt lat="38.9761167" lon="16.551565"><ele>587.0</ele><time>2026-04-18T09:23:32.531Z</time></trkpt><trkpt lat="38.9761083" lon="16.5514683"><ele>587.0</ele><time>2026-04-18T09:23:36.53Z</time></trkpt><trkpt lat="38.9761133" lon="16.55136"><ele>587.0</ele><time>2026-04-18T09:23:39.533Z</time></trkpt><trkpt lat="38.976085" lon="16.5512333"><ele>587.0</ele><time>2026-04-18T09:23:41.533Z</time></trkpt><trkpt lat="38.9760417" lon="16.55116"><ele>587.0</ele><time>2026-04-18T09:23:42.532Z</time></trkpt><trkpt lat="38.9759983" lon="16.5510867"><ele>585.1428571428571</ele><time>2026-04-18T09:23:43.53Z</time></trkpt><trkpt lat="38.9759633" lon="16.5510183"><ele>583.2857142857143</ele><time>2026-04-18T09:23:44.533Z</time></trkpt><trkpt lat="38.9759133" lon="16.5509533"><ele>581.4285714285714</ele><time>2026-04-18T09:23:45.532Z</time></trkpt><trkpt lat="38.975855" lon="16.55089"><ele>579.5714285714286</ele><time>2026-04-18T09:23:46.533Z</time></trkpt><trkpt lat="38.9758017" lon="16.5508233"><ele>577.7142857142858</ele><time>2026-04-18T09:23:47.533Z</time></trkpt><trkpt lat="38.975755" lon="16.5507583"><ele>575.8571428571429</ele><time>2026-04-18T09:23:48.532Z</time></trkpt><trkpt lat="38.9757217" lon="16.5506733"><ele>574.0</ele><time>2026-04-18T09:23:49.531Z</time></trkpt><trkpt lat="38.97569" lon="16.5505867"><ele>575.6666666666667</ele><time>2026-04-18T09:23:50.532Z</time></trkpt><trkpt lat="38.97565" lon="16.550495"><ele>577.3333333333334</ele><time>2026-04-18T09:23:51.532Z</time></trkpt><trkpt lat="38.9756117" lon="16.550395"><ele>579.0</ele><time>2026-04-18T09:23:52.531Z</time></trkpt><trkpt lat="38.97557" lon="16.5503"><ele>580.6666666666666</ele><time>2026-04-18T09:23:53.531Z</time></trkpt><trkpt lat="38.9755383" lon="16.5502067"><ele>582.3333333333333</ele><time>2026-04-18T09:23:54.533Z</time></trkpt><trkpt lat="38.97549" lon="16.550125"><ele>584.0</ele><time>2026-04-18T09:23:55.531Z</time></trkpt><trkpt lat="38.975425" lon="16.5500583"><ele>584.0</ele><time>2026-04-18T09:23:56.531Z</time></trkpt><trkpt lat="38.9753683" lon="16.5499833"><ele>584.0</ele><time>2026-04-18T09:23:57.531Z</time></trkpt><trkpt lat="38.9752983" lon="16.5499417"><ele>584.0</ele><time>2026-04-18T09:23:58.531Z</time></trkpt><trkpt lat="38.9752333" lon="16.5499017"><ele>584.0</ele><time>2026-04-18T09:23:59.531Z</time></trkpt><trkpt lat="38.9751683" lon="16.549865"><ele>584.0</ele><time>2026-04-18T09:24:00.532Z</time></trkpt><trkpt lat="38.97511" lon="16.5498117"><ele>584.0</ele><time>2026-04-18T09:24:01.532Z</time></trkpt><trkpt lat="38.9750417" lon="16.5497717"><ele>584.0</ele><time>2026-04-18T09:24:02.531Z</time></trkpt><trkpt lat="38.97498" lon="16.5497017"><ele>582.0</ele><time>2026-04-18T09:24:03.532Z</time></trkpt><trkpt lat="38.9749167" lon="16.54962"><ele>580.0</ele><time>2026-04-18T09:24:04.532Z</time></trkpt><trkpt lat="38.9748567" lon="16.54954"><ele>578.0</ele><time>2026-04-18T09:24:05.531Z</time></trkpt><trkpt lat="38.974795" lon="16.5494533"><ele>576.0</ele><time>2026-04-18T09:24:06.532Z</time></trkpt><trkpt lat="38.9747717" lon="16.5493217"><ele>574.0</ele><time>2026-04-18T09:24:07.531Z</time></trkpt><trkpt lat="38.974725" lon="16.549205"><ele>574.0</ele><time>2026-04-18T09:24:08.531Z</time></trkpt><trkpt lat="38.9746733" lon="16.549115"><ele>574.0</ele><time>2026-04-18T09:24:09.537Z</time></trkpt><trkpt lat="38.974615" lon="16.549025"><ele>574.0</ele><time>2026-04-18T09:24:10.531Z</time></trkpt><trkpt lat="38.9745567" lon="16.5489533"><ele>574.0</ele><time>2026-04-18T09:24:11.532Z</time></trkpt><trkpt lat="38.9745083" lon="16.54887"><ele>574.0</ele><time>2026-04-18T09:24:12.532Z</time></trkpt><trkpt lat="38.974475" lon="16.5487783"><ele>574.0</ele><time>2026-04-18T09:24:13.533Z</time></trkpt><trkpt lat="38.9744367" lon="16.5486833"><ele>572.5</ele><time>2026-04-18T09:24:14.533Z</time></trkpt><trkpt lat="38.974395" lon="16.5486"><ele>571.0</ele><time>2026-04-18T09:24:15.533Z</time></trkpt><trkpt lat="38.9743583" lon="16.548515"><ele>569.5</ele><time>2026-04-18T09:24:16.531Z</time></trkpt><trkpt lat="38.9743017" lon="16.5484483"><ele>568.0</ele><time>2026-04-18T09:24:17.53Z</time></trkpt><trkpt lat="38.9742533" lon="16.548385"><ele>566.5</ele><time>2026-04-18T09:24:18.535Z</time></trkpt><trkpt lat="38.9741833" lon="16.548345"><ele>565.0</ele><time>2026-04-18T09:24:19.532Z</time></trkpt><trkpt lat="38.9740967" lon="16.5483283"><ele>565.0</ele><time>2026-04-18T09:24:20.533Z</time></trkpt><trkpt lat="38.9739983" lon="16.5483333"><ele>565.0</ele><time>2026-04-18T09:24:21.532Z</time></trkpt><trkpt lat="38.9738833" lon="16.5483417"><ele>565.0</ele><time>2026-04-18T09:24:22.532Z</time></trkpt><trkpt lat="38.9737617" lon="16.5483467"><ele>565.0</ele><time>2026-04-18T09:24:23.532Z</time></trkpt><trkpt lat="38.9736433" lon="16.5483617"><ele>565.0</ele><time>2026-04-18T09:24:24.533Z</time></trkpt><trkpt lat="38.9735267" lon="16.548405"><ele>565.0</ele><time>2026-04-18T09:24:25.536Z</time></trkpt><trkpt lat="38.9734233" lon="16.548435"><ele>565.0</ele><time>2026-04-18T09:24:26.532Z</time></trkpt><trkpt lat="38.9733283" lon="16.5484483"><ele>565.0</ele><time>2026-04-18T09:24:27.533Z</time></trkpt><trkpt lat="38.9732467" lon="16.5484217"><ele>565.0</ele><time>2026-04-18T09:24:28.533Z</time></trkpt><trkpt lat="38.9731583" lon="16.54838"><ele>564.6</ele><time>2026-04-18T09:24:29.535Z</time></trkpt><trkpt lat="38.9730683" lon="16.5483033"><ele>564.2</ele><time>2026-04-18T09:24:30.531Z</time></trkpt><trkpt lat="38.9729767" lon="16.5482667"><ele>563.8</ele><time>2026-04-18T09:24:31.532Z</time></trkpt><trkpt lat="38.9728683" lon="16.5482383"><ele>563.4</ele><time>2026-04-18T09:24:32.533Z</time></trkpt><trkpt lat="38.9727717" lon="16.5482033"><ele>563.0</ele><time>2026-04-18T09:24:33.532Z</time></trkpt><trkpt lat="38.97269" lon="16.548145"><ele>563.0</ele><time>2026-04-18T09:24:34.531Z</time></trkpt><trkpt lat="38.9726167" lon="16.548115"><ele>563.0</ele><time>2026-04-18T09:24:35.533Z</time></trkpt><trkpt lat="38.9725433" lon="16.5481217"><ele>563.0</ele><time>2026-04-18T09:24:36.533Z</time></trkpt><trkpt lat="38.9724783" lon="16.5481233"><ele>563.0</ele><time>2026-04-18T09:24:37.535Z</time></trkpt><trkpt lat="38.9723617" lon="16.5480883"><ele>563.0</ele><time>2026-04-18T09:24:39.531Z</time></trkpt><trkpt lat="38.97231" lon="16.5480283"><ele>563.0</ele><time>2026-04-18T09:24:40.532Z</time></trkpt><trkpt lat="38.9722517" lon="16.5479417"><ele>558.6666666666666</ele><time>2026-04-18T09:24:41.534Z</time></trkpt><trkpt lat="38.9722017" lon="16.5478533"><ele>554.3333333333333</ele><time>2026-04-18T09:24:42.532Z</time></trkpt><trkpt lat="38.9721483" lon="16.5477933"><ele>550.0</ele><time>2026-04-18T09:24:43.534Z</time></trkpt><trkpt lat="38.9720883" lon="16.5477533"><ele>545.6666666666666</ele><time>2026-04-18T09:24:44.53Z</time></trkpt><trkpt lat="38.971995" lon="16.547675"><ele>541.3333333333334</ele><time>2026-04-18T09:24:46.529Z</time></trkpt><trkpt lat="38.9719533" lon="16.5475917"><ele>537.0</ele><time>2026-04-18T09:24:48.531Z</time></trkpt><trkpt lat="38.9720083" lon="16.5475233"><ele>537.0</ele><time>2026-04-18T09:25:00.532Z</time></trkpt><trkpt lat="38.9721267" lon="16.547505"><ele>537.0</ele><time>2026-04-18T09:25:02.531Z</time></trkpt><trkpt lat="38.9721917" lon="16.5475167"><ele>537.0</ele><time>2026-04-18T09:25:03.536Z</time></trkpt><trkpt lat="38.9722567" lon="16.5475383"><ele>537.0</ele><time>2026-04-18T09:25:04.53Z</time></trkpt><trkpt lat="38.9723267" lon="16.547535"><ele>537.0</ele><time>2026-04-18T09:25:05.532Z</time></trkpt><trkpt lat="38.9723933" lon="16.5475483"><ele>537.0</ele><time>2026-04-18T09:25:06.531Z</time></trkpt><trkpt lat="38.972465" lon="16.5475167"><ele>537.3333333333334</ele><time>2026-04-18T09:25:07.53Z</time></trkpt><trkpt lat="38.9725383" lon="16.5475283"><ele>537.6666666666666</ele><time>2026-04-18T09:25:08.531Z</time></trkpt><trkpt lat="38.9726167" lon="16.5475233"><ele>538.0</ele><time>2026-04-18T09:25:09.532Z</time></trkpt><trkpt lat="38.9726917" lon="16.54753"><ele>538.3333333333333</ele><time>2026-04-18T09:25:10.532Z</time></trkpt><trkpt lat="38.9727567" lon="16.547545"><ele>538.6666666666666</ele><time>2026-04-18T09:25:11.53Z</time></trkpt><trkpt lat="38.9728617" lon="16.5474933"><ele>539.0</ele><time>2026-04-18T09:25:13.531Z</time></trkpt><trkpt lat="38.9729683" lon="16.5474567"><ele>539.0</ele><time>2026-04-18T09:25:15.534Z</time></trkpt><trkpt lat="38.97308" lon="16.5474167"><ele>539.0</ele><time>2026-04-18T09:25:17.532Z</time></trkpt><trkpt lat="38.9731667" lon="16.547365"><ele>539.0</ele><time>2026-04-18T09:25:19.536Z</time></trkpt><trkpt lat="38.9732533" lon="16.5472833"><ele>539.0</ele><time>2026-04-18T09:25:21.536Z</time></trkpt><trkpt lat="38.9733433" lon="16.5472583"><ele>539.0</ele><time>2026-04-18T09:25:23.531Z</time></trkpt><trkpt lat="38.973425" lon="16.5472917"><ele>539.0</ele><time>2026-04-18T09:25:25.532Z</time></trkpt><trkpt lat="38.9735083" lon="16.5473433"><ele>539.0</ele><time>2026-04-18T09:25:27.53Z</time></trkpt><trkpt lat="38.9735667" lon="16.54742"><ele>539.0</ele><time>2026-04-18T09:25:29.531Z</time></trkpt><trkpt lat="38.9736317" lon="16.5474717"><ele>539.0</ele><time>2026-04-18T09:25:31.532Z</time></trkpt><trkpt lat="38.9736533" lon="16.5473883"><ele>539.0</ele><time>2026-04-18T09:25:34.533Z</time></trkpt><trkpt lat="38.97363" lon="16.5473067"><ele>539.0</ele><time>2026-04-18T09:25:36.53Z</time></trkpt><trkpt lat="38.9736183" lon="16.5472183"><ele>539.0</ele><time>2026-04-18T09:25:39.532Z</time></trkpt><trkpt lat="38.973635" lon="16.54712"><ele>539.0</ele><time>2026-04-18T09:25:41.531Z</time></trkpt><trkpt lat="38.9736417" lon="16.5470367"><ele>539.0</ele><time>2026-04-18T09:25:43.532Z</time></trkpt><trkpt lat="38.9735933" lon="16.5469467"><ele>539.0</ele><time>2026-04-18T09:25:46.531Z</time></trkpt><trkpt lat="38.9735183" lon="16.54692"><ele>539.0</ele><time>2026-04-18T09:25:48.533Z</time></trkpt><trkpt lat="38.9734817" lon="16.5468367"><ele>539.0</ele><time>2026-04-18T09:25:50.532Z</time></trkpt><trkpt lat="38.9735233" lon="16.5467617"><ele>533.8333333333333</ele><time>2026-04-18T09:25:52.532Z</time></trkpt><trkpt lat="38.9735883" lon="16.5467133"><ele>528.6666666666666</ele><time>2026-04-18T09:25:54.531Z</time></trkpt><trkpt lat="38.973655" lon="16.5467"><ele>523.5</ele><time>2026-04-18T09:25:56.531Z</time></trkpt><trkpt lat="38.9737417" lon="16.5466917"><ele>518.3333333333334</ele><time>2026-04-18T09:25:58.531Z</time></trkpt><trkpt lat="38.9738283" lon="16.5466883"><ele>513.1666666666667</ele><time>2026-04-18T09:26:00.53Z</time></trkpt><trkpt lat="38.973905" lon="16.54671"><ele>508.0</ele><time>2026-04-18T09:26:02.531Z</time></trkpt><trkpt lat="38.9739667" lon="16.5467367"><ele>508.0</ele><time>2026-04-18T09:26:04.53Z</time></trkpt><trkpt lat="38.9740417" lon="16.5467167"><ele>507.99999999999994</ele><time>2026-04-18T09:26:07.534Z</time></trkpt><trkpt lat="38.9741033" lon="16.546665"><ele>507.99999999999994</ele><time>2026-04-18T09:26:28.531Z</time></trkpt><trkpt lat="38.974215" lon="16.5466317"><ele>508.0</ele><time>2026-04-18T09:26:30.531Z</time></trkpt><trkpt lat="38.974335" lon="16.5466183"><ele>508.0</ele><time>2026-04-18T09:26:32.532Z</time></trkpt><trkpt lat="38.9744567" lon="16.5466267"><ele>505.2</ele><time>2026-04-18T09:26:34.531Z</time></trkpt><trkpt lat="38.9745817" lon="16.5466583"><ele>502.4</ele><time>2026-04-18T09:26:36.531Z</time></trkpt><trkpt lat="38.9746717" lon="16.54662"><ele>499.59999999999997</ele><time>2026-04-18T09:26:38.53Z</time></trkpt><trkpt lat="38.97473" lon="16.5466933"><ele>496.79999999999995</ele><time>2026-04-18T09:26:40.536Z</time></trkpt><trkpt lat="38.974815" lon="16.54674"><ele>494.0</ele><time>2026-04-18T09:26:42.531Z</time></trkpt><trkpt lat="38.9748917" lon="16.5467733"><ele>493.99999999999994</ele><time>2026-04-18T09:26:44.53Z</time></trkpt><trkpt lat="38.974955" lon="16.5468"><ele>494.0</ele><time>2026-04-18T09:26:45.53Z</time></trkpt><trkpt lat="38.975025" lon="16.5467967"><ele>494.0</ele><time>2026-04-18T09:26:46.531Z</time></trkpt><trkpt lat="38.9751317" lon="16.5468083"><ele>494.0</ele><time>2026-04-18T09:26:48.533Z</time></trkpt><trkpt lat="38.9752217" lon="16.5468517"><ele>493.99999999999994</ele><time>2026-04-18T09:26:50.53Z</time></trkpt><trkpt lat="38.9753067" lon="16.5469333"><ele>494.0</ele><time>2026-04-18T09:26:52.537Z</time></trkpt><trkpt lat="38.975385" lon="16.5470267"><ele>491.99999999999994</ele><time>2026-04-18T09:26:54.532Z</time></trkpt><trkpt lat="38.97543" lon="16.5471033"><ele>490.0</ele><time>2026-04-18T09:26:56.532Z</time></trkpt><trkpt lat="38.9754583" lon="16.54718"><ele>488.0</ele><time>2026-04-18T09:26:58.533Z</time></trkpt><trkpt lat="38.9755233" lon="16.54714"><ele>486.0</ele><time>2026-04-18T09:27:04.531Z</time></trkpt><trkpt lat="38.9755083" lon="16.547035"><ele>483.99999999999994</ele><time>2026-04-18T09:27:07.531Z</time></trkpt><trkpt lat="38.9755267" lon="16.5469183"><ele>482.0</ele><time>2026-04-18T09:27:10.534Z</time></trkpt><trkpt lat="38.9755783" lon="16.54698"><ele>481.99999999999994</ele><time>2026-04-18T09:27:15.533Z</time></trkpt><trkpt lat="38.9755917" lon="16.54708"><ele>482.0</ele><time>2026-04-18T09:27:17.534Z</time></trkpt><trkpt lat="38.9756333" lon="16.547165"><ele>482.0</ele><time>2026-04-18T09:27:19.535Z</time></trkpt><trkpt lat="38.9756717" lon="16.5472517"><ele>482.0</ele><time>2026-04-18T09:27:21.534Z</time></trkpt><trkpt lat="38.9757233" lon="16.5473317"><ele>481.99999999999994</ele><time>2026-04-18T09:27:23.532Z</time></trkpt><trkpt lat="38.9757683" lon="16.547405"><ele>482.0</ele><time>2026-04-18T09:27:25.536Z</time></trkpt><trkpt lat="38.975815" lon="16.5474917"><ele>479.8571428571429</ele><time>2026-04-18T09:27:27.53Z</time></trkpt><trkpt lat="38.975875" lon="16.54755"><ele>477.7142857142858</ele><time>2026-04-18T09:27:29.532Z</time></trkpt><trkpt lat="38.9759383" lon="16.5475717"><ele>475.57142857142856</ele><time>2026-04-18T09:27:31.531Z</time></trkpt><trkpt lat="38.9760067" lon="16.54756"><ele>473.42857142857144</ele><time>2026-04-18T09:27:34.532Z</time></trkpt><trkpt lat="38.9760717" lon="16.5475667"><ele>471.2857142857143</ele><time>2026-04-18T09:27:36.531Z</time></trkpt><trkpt lat="38.976135" lon="16.54758"><ele>469.1428571428571</ele><time>2026-04-18T09:27:38.531Z</time></trkpt><trkpt lat="38.97622" lon="16.5475967"><ele>466.99999999999994</ele><time>2026-04-18T09:27:40.532Z</time></trkpt><trkpt lat="38.97634" lon="16.5476333"><ele>467.0</ele><time>2026-04-18T09:27:42.533Z</time></trkpt><trkpt lat="38.9764367" lon="16.5476417"><ele>467.00000000000006</ele><time>2026-04-18T09:27:44.531Z</time></trkpt><trkpt lat="38.9765" lon="16.547585"><ele>467.00000000000006</ele><time>2026-04-18T09:27:46.531Z</time></trkpt><trkpt lat="38.97654" lon="16.5474817"><ele>467.0</ele><time>2026-04-18T09:27:48.532Z</time></trkpt><trkpt lat="38.9765883" lon="16.5473617"><ele>467.0</ele><time>2026-04-18T09:27:50.532Z</time></trkpt><trkpt lat="38.976625" lon="16.5472483"><ele>466.99999999999994</ele><time>2026-04-18T09:27:52.532Z</time></trkpt><trkpt lat="38.976635" lon="16.5471667"><ele>467.0</ele><time>2026-04-18T09:27:55.531Z</time></trkpt><trkpt lat="38.9766567" lon="16.5470533"><ele>467.0</ele><time>2026-04-18T09:27:58.531Z</time></trkpt><trkpt lat="38.9767283" lon="16.546955"><ele>467.0</ele><time>2026-04-18T09:28:00.532Z</time></trkpt><trkpt lat="38.976825" lon="16.5468767"><ele>466.99999999999994</ele><time>2026-04-18T09:28:02.532Z</time></trkpt><trkpt lat="38.9768767" lon="16.5468267"><ele>467.0</ele><time>2026-04-18T09:28:03.531Z</time></trkpt><trkpt lat="38.9769517" lon="16.5467417"><ele>465.8</ele><time>2026-04-18T09:28:05.532Z</time></trkpt><trkpt lat="38.976985" lon="16.54663"><ele>464.6</ele><time>2026-04-18T09:28:07.533Z</time></trkpt><trkpt lat="38.97697" lon="16.54652"><ele>463.40000000000003</ele><time>2026-04-18T09:28:09.532Z</time></trkpt><trkpt lat="38.97696" lon="16.5464133"><ele>462.20000000000005</ele><time>2026-04-18T09:28:11.532Z</time></trkpt><trkpt lat="38.9769333" lon="16.5463"><ele>461.0</ele><time>2026-04-18T09:28:13.532Z</time></trkpt><trkpt lat="38.977615" lon="16.5460683"><ele>461.0</ele><time>2026-04-18T09:36:57.735Z</time></trkpt><trkpt lat="38.9770433" lon="16.546225"><ele>461.0</ele><time>2026-04-18T09:37:28.533Z</time></trkpt><trkpt lat="38.9769533" lon="16.5462783"><ele>461.0</ele><time>2026-04-18T09:39:12.532Z</time></trkpt><trkpt lat="38.9770383" lon="16.546225"><ele>461.0</ele><time>2026-04-18T09:41:13.533Z</time></trkpt><trkpt lat="38.9771317" lon="16.5461767"><ele>461.0</ele><time>2026-04-18T09:41:15.532Z</time></trkpt><trkpt lat="38.9772217" lon="16.5461517"><ele>461.0</ele><time>2026-04-18T09:41:17.531Z</time></trkpt><trkpt lat="38.9772817" lon="16.5461117"><ele>464.4</ele><time>2026-04-18T09:41:20.535Z</time></trkpt><trkpt lat="38.9772383" lon="16.5460367"><ele>467.8</ele><time>2026-04-18T09:41:23.53Z</time></trkpt><trkpt lat="38.9771717" lon="16.5459867"><ele>471.19999999999993</ele><time>2026-04-18T09:41:25.532Z</time></trkpt><trkpt lat="38.9771067" lon="16.5459317"><ele>474.59999999999997</ele><time>2026-04-18T09:41:27.531Z</time></trkpt><trkpt lat="38.977005" lon="16.5458767"><ele>478.0</ele><time>2026-04-18T09:41:29.529Z</time></trkpt><trkpt lat="38.9769017" lon="16.5458217"><ele>478.00000000000006</ele><time>2026-04-18T09:41:31.531Z</time></trkpt><trkpt lat="38.97679" lon="16.5457817"><ele>478.0</ele><time>2026-04-18T09:41:33.53Z</time></trkpt><trkpt lat="38.976725" lon="16.5457683"><ele>478.00000000000006</ele><time>2026-04-18T09:41:34.531Z</time></trkpt><trkpt lat="38.97666" lon="16.5457617"><ele>478.00000000000006</ele><time>2026-04-18T09:41:35.53Z</time></trkpt><trkpt lat="38.976595" lon="16.54576"><ele>478.0</ele><time>2026-04-18T09:41:36.531Z</time></trkpt><trkpt lat="38.9765267" lon="16.5457583"><ele>478.00000000000006</ele><time>2026-04-18T09:41:37.53Z</time></trkpt><trkpt lat="38.97646" lon="16.5457533"><ele>478.00000000000006</ele><time>2026-04-18T09:41:38.532Z</time></trkpt><trkpt lat="38.9763933" lon="16.5457433"><ele>476.83333333333337</ele><time>2026-04-18T09:41:39.53Z</time></trkpt><trkpt lat="38.9762817" lon="16.54571"><ele>475.6666666666667</ele><time>2026-04-18T09:41:41.529Z</time></trkpt><trkpt lat="38.9762033" lon="16.545635"><ele>474.5</ele><time>2026-04-18T09:41:43.531Z</time></trkpt><trkpt lat="38.9761583" lon="16.5455783"><ele>473.33333333333337</ele><time>2026-04-18T09:41:44.533Z</time></trkpt><trkpt lat="38.9761067" lon="16.5455183"><ele>472.1666666666667</ele><time>2026-04-18T09:41:45.609Z</time></trkpt><trkpt lat="38.97605" lon="16.545465"><ele>471.0</ele><time>2026-04-18T09:41:46.53Z</time></trkpt><trkpt lat="38.9759983" lon="16.5454067"><ele>473.8</ele><time>2026-04-18T09:41:47.531Z</time></trkpt><trkpt lat="38.9759467" lon="16.5453467"><ele>476.6</ele><time>2026-04-18T09:41:48.531Z</time></trkpt><trkpt lat="38.9758717" lon="16.5452383"><ele>479.4</ele><time>2026-04-18T09:41:50.534Z</time></trkpt><trkpt lat="38.9758233" lon="16.5451017"><ele>482.2</ele><time>2026-04-18T09:41:52.536Z</time></trkpt><trkpt lat="38.9758083" lon="16.5450117"><ele>485.0</ele><time>2026-04-18T09:41:53.531Z</time></trkpt><trkpt lat="38.975785" lon="16.54491"><ele>485.0</ele><time>2026-04-18T09:41:54.53Z</time></trkpt><trkpt lat="38.9757667" lon="16.5448"><ele>485.0</ele><time>2026-04-18T09:41:55.53Z</time></trkpt><trkpt lat="38.9757433" lon="16.5447083"><ele>485.0</ele><time>2026-04-18T09:41:56.531Z</time></trkpt><trkpt lat="38.9757183" lon="16.5445617"><ele>485.0</ele><time>2026-04-18T09:41:58.531Z</time></trkpt><trkpt lat="38.9757167" lon="16.54443"><ele>485.0</ele><time>2026-04-18T09:42:00.533Z</time></trkpt><trkpt lat="38.9757033" lon="16.5442817"><ele>491.8</ele><time>2026-04-18T09:42:02.531Z</time></trkpt><trkpt lat="38.9756567" lon="16.5441533"><ele>498.6</ele><time>2026-04-18T09:42:04.531Z</time></trkpt><trkpt lat="38.9756017" lon="16.54406"><ele>505.4</ele><time>2026-04-18T09:42:06.534Z</time></trkpt><trkpt lat="38.975535" lon="16.5440317"><ele>512.2</ele><time>2026-04-18T09:42:08.532Z</time></trkpt><trkpt lat="38.975435" lon="16.5440417"><ele>519.0</ele><time>2026-04-18T09:42:10.534Z</time></trkpt><trkpt lat="38.9753367" lon="16.5440717"><ele>519.0</ele><time>2026-04-18T09:42:12.53Z</time></trkpt><trkpt lat="38.97523" lon="16.5441083"><ele>519.0</ele><time>2026-04-18T09:42:14.531Z</time></trkpt><trkpt lat="38.9751133" lon="16.5441067"><ele>519.0</ele><time>2026-04-18T09:42:16.53Z</time></trkpt><trkpt lat="38.9750017" lon="16.5440983"><ele>519.0</ele><time>2026-04-18T09:42:18.532Z</time></trkpt><trkpt lat="38.9748883" lon="16.544035"><ele>516.0</ele><time>2026-04-18T09:42:20.531Z</time></trkpt><trkpt lat="38.9748283" lon="16.544"><ele>513.0</ele><time>2026-04-18T09:42:21.532Z</time></trkpt><trkpt lat="38.9747667" lon="16.5439667"><ele>510.0</ele><time>2026-04-18T09:42:22.531Z</time></trkpt><trkpt lat="38.974655" lon="16.54394"><ele>507.0</ele><time>2026-04-18T09:42:24.531Z</time></trkpt><trkpt lat="38.9745633" lon="16.5439283"><ele>504.0</ele><time>2026-04-18T09:42:26.532Z</time></trkpt><trkpt lat="38.9746" lon="16.54384"><ele>501.0</ele><time>2026-04-18T09:42:32.53Z</time></trkpt><trkpt lat="38.9746717" lon="16.543835"><ele>501.0</ele><time>2026-04-18T09:42:34.529Z</time></trkpt><trkpt lat="38.9747733" lon="16.54382"><ele>501.0</ele><time>2026-04-18T09:42:56.531Z</time></trkpt><trkpt lat="38.974875" lon="16.543805"><ele>501.0</ele><time>2026-04-18T09:42:58.53Z</time></trkpt><trkpt lat="38.9749933" lon="16.5437583"><ele>501.0</ele><time>2026-04-18T09:43:00.53Z</time></trkpt><trkpt lat="38.9750567" lon="16.54372"><ele>501.0</ele><time>2026-04-18T09:43:01.531Z</time></trkpt><trkpt lat="38.9751133" lon="16.5436817"><ele>508.0</ele><time>2026-04-18T09:43:02.53Z</time></trkpt><trkpt lat="38.9752067" lon="16.5435817"><ele>515.0</ele><time>2026-04-18T09:43:04.532Z</time></trkpt><trkpt lat="38.9752483" lon="16.5435117"><ele>522.0</ele><time>2026-04-18T09:43:05.532Z</time></trkpt><trkpt lat="38.9752867" lon="16.5434317"><ele>529.0</ele><time>2026-04-18T09:43:06.533Z</time></trkpt><trkpt lat="38.97532" lon="16.543345"><ele>536.0</ele><time>2026-04-18T09:43:07.531Z</time></trkpt><trkpt lat="38.97535" lon="16.5432667"><ele>543.0</ele><time>2026-04-18T09:43:08.532Z</time></trkpt><trkpt lat="38.9754217" lon="16.54319"><ele>543.0</ele><time>2026-04-18T09:43:10.53Z</time></trkpt><trkpt lat="38.975505" lon="16.5431767"><ele>543.0</ele><time>2026-04-18T09:43:12.532Z</time></trkpt><trkpt lat="38.9755583" lon="16.5432533"><ele>543.0</ele><time>2026-04-18T09:45:05.53Z</time></trkpt><trkpt lat="38.97565" lon="16.54326"><ele>543.0</ele><time>2026-04-18T09:45:08.534Z</time></trkpt><trkpt lat="38.97575" lon="16.54327"><ele>543.0</ele><time>2026-04-18T09:45:10.536Z</time></trkpt><trkpt lat="38.97586" lon="16.5433033"><ele>544.8333333333334</ele><time>2026-04-18T09:45:12.532Z</time></trkpt><trkpt lat="38.975925" lon="16.54332"><ele>546.6666666666666</ele><time>2026-04-18T09:45:13.531Z</time></trkpt><trkpt lat="38.975985" lon="16.543355"><ele>548.5</ele><time>2026-04-18T09:45:14.533Z</time></trkpt><trkpt lat="38.9760383" lon="16.5434133"><ele>550.3333333333333</ele><time>2026-04-18T09:45:15.53Z</time></trkpt><trkpt lat="38.9760983" lon="16.5434433"><ele>552.1666666666666</ele><time>2026-04-18T09:45:16.53Z</time></trkpt><trkpt lat="38.97622" lon="16.543435"><ele>554.0</ele><time>2026-04-18T09:45:18.531Z</time></trkpt><trkpt lat="38.9762833" lon="16.5434167"><ele>554.0</ele><time>2026-04-18T09:45:19.534Z</time></trkpt><trkpt lat="38.97635" lon="16.5433933"><ele>554.0</ele><time>2026-04-18T09:45:20.535Z</time></trkpt><trkpt lat="38.9764117" lon="16.54336"><ele>554.0</ele><time>2026-04-18T09:45:21.533Z</time></trkpt><trkpt lat="38.97648" lon="16.54336"><ele>554.0</ele><time>2026-04-18T09:45:22.532Z</time></trkpt><trkpt lat="38.9765567" lon="16.5433267"><ele>554.0</ele><time>2026-04-18T09:45:23.531Z</time></trkpt><trkpt lat="38.976635" lon="16.5432933"><ele>554.0</ele><time>2026-04-18T09:45:24.532Z</time></trkpt><trkpt lat="38.9767117" lon="16.5432467"><ele>554.5</ele><time>2026-04-18T09:45:25.532Z</time></trkpt><trkpt lat="38.9767967" lon="16.543225"><ele>555.0</ele><time>2026-04-18T09:45:26.531Z</time></trkpt><trkpt lat="38.9768733" lon="16.5431983"><ele>555.5</ele><time>2026-04-18T09:45:27.534Z</time></trkpt><trkpt lat="38.9769117" lon="16.5431333"><ele>556.0</ele><time>2026-04-18T09:45:28.53Z</time></trkpt><trkpt lat="38.976945" lon="16.5430333"><ele>556.5</ele><time>2026-04-18T09:45:30.53Z</time></trkpt><trkpt lat="38.97683" lon="16.5430183"><ele>557.0</ele><time>2026-04-18T09:45:32.53Z</time></trkpt><trkpt lat="38.976765" lon="16.5430217"><ele>557.0</ele><time>2026-04-18T09:45:33.532Z</time></trkpt><trkpt lat="38.9766867" lon="16.5430133"><ele>557.0</ele><time>2026-04-18T09:45:34.532Z</time></trkpt><trkpt lat="38.976595" lon="16.543005"><ele>557.0</ele><time>2026-04-18T09:45:35.533Z</time></trkpt><trkpt lat="38.9764967" lon="16.5430133"><ele>557.0</ele><time>2026-04-18T09:45:36.534Z</time></trkpt><trkpt lat="38.97641" lon="16.5429783"><ele>557.0</ele><time>2026-04-18T09:45:37.534Z</time></trkpt><trkpt lat="38.9763317" lon="16.5430067"><ele>557.0</ele><time>2026-04-18T09:45:38.533Z</time></trkpt><trkpt lat="38.9762567" lon="16.5430117"><ele>556.5</ele><time>2026-04-18T09:45:39.532Z</time></trkpt><trkpt lat="38.9761683" lon="16.5429467"><ele>556.0</ele><time>2026-04-18T09:45:41.533Z</time></trkpt><trkpt lat="38.97621" lon="16.5428583"><ele>555.5</ele><time>2026-04-18T09:45:43.533Z</time></trkpt><trkpt lat="38.9763017" lon="16.5427667"><ele>555.0</ele><time>2026-04-18T09:45:45.533Z</time></trkpt><trkpt lat="38.9763517" lon="16.5427167"><ele>554.5</ele><time>2026-04-18T09:45:46.532Z</time></trkpt><trkpt lat="38.9764067" lon="16.542675"><ele>554.0</ele><time>2026-04-18T09:45:47.532Z</time></trkpt><trkpt lat="38.97647" lon="16.5426383"><ele>558.3333333333333</ele><time>2026-04-18T09:45:48.532Z</time></trkpt><trkpt lat="38.9765383" lon="16.5426033"><ele>562.6666666666666</ele><time>2026-04-18T09:45:49.534Z</time></trkpt><trkpt lat="38.97661" lon="16.5425817"><ele>567.0</ele><time>2026-04-18T09:45:50.531Z</time></trkpt><trkpt lat="38.976675" lon="16.54256"><ele>571.3333333333334</ele><time>2026-04-18T09:45:51.531Z</time></trkpt><trkpt lat="38.9767617" lon="16.5425133"><ele>575.6666666666667</ele><time>2026-04-18T09:45:53.529Z</time></trkpt><trkpt lat="38.9767533" lon="16.5424217"><ele>580.0</ele><time>2026-04-18T09:45:57.534Z</time></trkpt><trkpt lat="38.9766717" lon="16.5424133"><ele>580.6</ele><time>2026-04-18T09:46:07.531Z</time></trkpt><trkpt lat="38.9765833" lon="16.542405"><ele>581.2</ele><time>2026-04-18T09:46:18.532Z</time></trkpt><trkpt lat="38.9764767" lon="16.5423883"><ele>581.8</ele><time>2026-04-18T09:46:20.53Z</time></trkpt><trkpt lat="38.9763583" lon="16.5424017"><ele>582.4</ele><time>2026-04-18T09:46:22.536Z</time></trkpt><trkpt lat="38.976255" lon="16.54243"><ele>583.0</ele><time>2026-04-18T09:46:24.531Z</time></trkpt><trkpt lat="38.9761683" lon="16.542475"><ele>583.0</ele><time>2026-04-18T09:46:26.531Z</time></trkpt><trkpt lat="38.976105" lon="16.5424717"><ele>583.0</ele><time>2026-04-18T09:46:28.531Z</time></trkpt><trkpt lat="38.9761" lon="16.5423617"><ele>583.0</ele><time>2026-04-18T09:46:31.532Z</time></trkpt><trkpt lat="38.9762" lon="16.5423017"><ele>583.0</ele><time>2026-04-18T09:46:33.531Z</time></trkpt><trkpt lat="38.9763017" lon="16.5422167"><ele>583.0</ele><time>2026-04-18T09:46:35.531Z</time></trkpt><trkpt lat="38.9763467" lon="16.54216"><ele>583.0</ele><time>2026-04-18T09:46:36.53Z</time></trkpt><trkpt lat="38.9763867" lon="16.5420967"><ele>585.8</ele><time>2026-04-18T09:46:37.53Z</time></trkpt><trkpt lat="38.97646" lon="16.5420167"><ele>588.5999999999999</ele><time>2026-04-18T09:46:38.531Z</time></trkpt><trkpt lat="38.976505" lon="16.54195"><ele>591.4000000000001</ele><time>2026-04-18T09:46:39.531Z</time></trkpt><trkpt lat="38.9765767" lon="16.5418617"><ele>594.2</ele><time>2026-04-18T09:46:41.532Z</time></trkpt><trkpt lat="38.9766633" lon="16.5417667"><ele>597.0</ele><time>2026-04-18T09:46:43.533Z</time></trkpt><trkpt lat="38.97673" lon="16.5417167"><ele>597.0000000000001</ele><time>2026-04-18T09:46:44.531Z</time></trkpt><trkpt lat="38.9767883" lon="16.5416567"><ele>597.0</ele><time>2026-04-18T09:46:45.531Z</time></trkpt><trkpt lat="38.9768383" lon="16.541595"><ele>597.0</ele><time>2026-04-18T09:46:46.532Z</time></trkpt><trkpt lat="38.97689" lon="16.5415333"><ele>597.0</ele><time>2026-04-18T09:46:47.532Z</time></trkpt><trkpt lat="38.9769367" lon="16.5414733"><ele>597.0</ele><time>2026-04-18T09:46:48.534Z</time></trkpt><trkpt lat="38.9769917" lon="16.541425"><ele>597.0000000000001</ele><time>2026-04-18T09:46:49.532Z</time></trkpt><trkpt lat="38.97704" lon="16.5413583"><ele>597.0</ele><time>2026-04-18T09:46:50.532Z</time></trkpt><trkpt lat="38.977095" lon="16.54129"><ele>600.0</ele><time>2026-04-18T09:46:51.533Z</time></trkpt><trkpt lat="38.9771533" lon="16.5412033"><ele>603.0</ele><time>2026-04-18T09:46:52.533Z</time></trkpt><trkpt lat="38.9772083" lon="16.5411133"><ele>606.0</ele><time>2026-04-18T09:46:53.532Z</time></trkpt><trkpt lat="38.977275" lon="16.5410417"><ele>609.0</ele><time>2026-04-18T09:46:54.533Z</time></trkpt><trkpt lat="38.9773367" lon="16.5409583"><ele>612.0</ele><time>2026-04-18T09:46:55.531Z</time></trkpt><trkpt lat="38.9773883" lon="16.54087"><ele>615.0</ele><time>2026-04-18T09:46:56.535Z</time></trkpt><trkpt lat="38.9774267" lon="16.5407533"><ele>615.0</ele><time>2026-04-18T09:46:57.532Z</time></trkpt><trkpt lat="38.9774983" lon="16.5406783"><ele>615.0</ele><time>2026-04-18T09:46:58.532Z</time></trkpt><trkpt lat="38.9775683" lon="16.5405967"><ele>615.0</ele><time>2026-04-18T09:46:59.531Z</time></trkpt><trkpt lat="38.9776417" lon="16.5405133"><ele>615.0</ele><time>2026-04-18T09:47:00.531Z</time></trkpt><trkpt lat="38.9777183" lon="16.5404233"><ele>615.0</ele><time>2026-04-18T09:47:01.534Z</time></trkpt><trkpt lat="38.9777967" lon="16.54035"><ele>617.5</ele><time>2026-04-18T09:47:02.531Z</time></trkpt><trkpt lat="38.977845" lon="16.5402617"><ele>620.0</ele><time>2026-04-18T09:47:03.532Z</time></trkpt><trkpt lat="38.97792" lon="16.5401967"><ele>622.5</ele><time>2026-04-18T09:47:05.532Z</time></trkpt><trkpt lat="38.97799" lon="16.5401983"><ele>625.0</ele><time>2026-04-18T09:47:07.534Z</time></trkpt><trkpt lat="38.9780917" lon="16.5402333"><ele>627.5</ele><time>2026-04-18T09:47:09.537Z</time></trkpt><trkpt lat="38.9781533" lon="16.5402533"><ele>630.0</ele><time>2026-04-18T09:47:10.531Z</time></trkpt><trkpt lat="38.9782167" lon="16.540265"><ele>630.0</ele><time>2026-04-18T09:47:11.531Z</time></trkpt><trkpt lat="38.9782833" lon="16.5402717"><ele>630.0</ele><time>2026-04-18T09:47:12.531Z</time></trkpt><trkpt lat="38.97835" lon="16.5402817"><ele>630.0</ele><time>2026-04-18T09:47:13.531Z</time></trkpt><trkpt lat="38.9784617" lon="16.540285"><ele>630.0</ele><time>2026-04-18T09:47:15.535Z</time></trkpt><trkpt lat="38.978525" lon="16.540265"><ele>630.0</ele><time>2026-04-18T09:47:17.535Z</time></trkpt><trkpt lat="38.9786083" lon="16.5402367"><ele>630.0</ele><time>2026-04-18T09:47:21.532Z</time></trkpt><trkpt lat="38.9787033" lon="16.54023"><ele>629.5</ele><time>2026-04-18T09:47:24.532Z</time></trkpt><trkpt lat="38.9787833" lon="16.540235"><ele>629.0</ele><time>2026-04-18T09:47:26.531Z</time></trkpt><trkpt lat="38.9788683" lon="16.54024"><ele>628.5</ele><time>2026-04-18T09:47:28.53Z</time></trkpt><trkpt lat="38.97894" lon="16.5402533"><ele>628.0</ele><time>2026-04-18T09:47:30.535Z</time></trkpt><trkpt lat="38.97902" lon="16.540315"><ele>627.5</ele><time>2026-04-18T09:47:32.533Z</time></trkpt><trkpt lat="38.9791133" lon="16.5403917"><ele>627.0</ele><time>2026-04-18T09:47:34.53Z</time></trkpt><trkpt lat="38.97921" lon="16.5404867"><ele>625.0</ele><time>2026-04-18T09:47:36.531Z</time></trkpt><trkpt lat="38.9793117" lon="16.540585"><ele>623.0</ele><time>2026-04-18T09:47:38.537Z</time></trkpt><trkpt lat="38.9793583" lon="16.54064"><ele>621.0</ele><time>2026-04-18T09:47:39.531Z</time></trkpt><trkpt lat="38.97945" lon="16.5407267"><ele>619.0</ele><time>2026-04-18T09:47:41.53Z</time></trkpt><trkpt lat="38.9794733" lon="16.5408383"><ele>617.0</ele><time>2026-04-18T09:47:43.533Z</time></trkpt><trkpt lat="38.9795967" lon="16.540935"><ele>617.0</ele><time>2026-04-18T09:47:45.532Z</time></trkpt><trkpt lat="38.9796433" lon="16.5410133"><ele>617.0</ele><time>2026-04-18T09:47:47.53Z</time></trkpt><trkpt lat="38.9797217" lon="16.5410767"><ele>617.0</ele><time>2026-04-18T09:47:49.531Z</time></trkpt><trkpt lat="38.9798183" lon="16.5411467"><ele>617.0</ele><time>2026-04-18T09:47:51.532Z</time></trkpt><trkpt lat="38.979905" lon="16.5412233"><ele>617.0</ele><time>2026-04-18T09:47:53.534Z</time></trkpt><trkpt lat="38.9799933" lon="16.5412883"><ele>613.4</ele><time>2026-04-18T09:47:55.532Z</time></trkpt><trkpt lat="38.9800633" lon="16.541385"><ele>609.8000000000001</ele><time>2026-04-18T09:47:57.533Z</time></trkpt><trkpt lat="38.9801383" lon="16.5414483"><ele>606.2</ele><time>2026-04-18T09:47:58.534Z</time></trkpt><trkpt lat="38.9802183" lon="16.54151"><ele>602.6</ele><time>2026-04-18T09:48:02.531Z</time></trkpt><trkpt lat="38.98032" lon="16.5416067"><ele>599.0</ele><time>2026-04-18T09:48:04.535Z</time></trkpt><trkpt lat="38.9803933" lon="16.5416967"><ele>599.0</ele><time>2026-04-18T09:48:06.53Z</time></trkpt><trkpt lat="38.9804383" lon="16.541775"><ele>599.0</ele><time>2026-04-18T09:48:07.531Z</time></trkpt><trkpt lat="38.9804817" lon="16.5418417"><ele>599.0</ele><time>2026-04-18T09:48:08.533Z</time></trkpt><trkpt lat="38.9805383" lon="16.5419017"><ele>599.0</ele><time>2026-04-18T09:48:09.533Z</time></trkpt><trkpt lat="38.9806" lon="16.5419817"><ele>599.0</ele><time>2026-04-18T09:48:11.532Z</time></trkpt><trkpt lat="38.9806783" lon="16.542065"><ele>599.0</ele><time>2026-04-18T09:48:13.532Z</time></trkpt><trkpt lat="38.9807517" lon="16.5421017"><ele>595.8333333333333</ele><time>2026-04-18T09:48:14.533Z</time></trkpt><trkpt lat="38.9808133" lon="16.5421733"><ele>592.6666666666666</ele><time>2026-04-18T09:48:16.532Z</time></trkpt><trkpt lat="38.9808767" lon="16.5422283"><ele>589.5</ele><time>2026-04-18T09:48:18.53Z</time></trkpt><trkpt lat="38.9809283" lon="16.54228"><ele>586.3333333333334</ele><time>2026-04-18T09:48:20.537Z</time></trkpt><trkpt lat="38.9809983" lon="16.5423283"><ele>583.1666666666667</ele><time>2026-04-18T09:48:22.531Z</time></trkpt><trkpt lat="38.9810817" lon="16.5423933"><ele>580.0</ele><time>2026-04-18T09:48:24.533Z</time></trkpt><trkpt lat="38.981155" lon="16.5424517"><ele>578.8333333333334</ele><time>2026-04-18T09:48:26.533Z</time></trkpt><trkpt lat="38.9812367" lon="16.5424917"><ele>577.6666666666667</ele><time>2026-04-18T09:48:28.532Z</time></trkpt><trkpt lat="38.9813017" lon="16.5425317"><ele>576.5</ele><time>2026-04-18T09:48:30.53Z</time></trkpt><trkpt lat="38.9813583" lon="16.5425867"><ele>575.3333333333334</ele><time>2026-04-18T09:48:32.531Z</time></trkpt><trkpt lat="38.9814067" lon="16.5426717"><ele>574.1666666666666</ele><time>2026-04-18T09:48:34.531Z</time></trkpt><trkpt lat="38.9814783" lon="16.542735"><ele>573.0</ele><time>2026-04-18T09:48:36.532Z</time></trkpt><trkpt lat="38.9815617" lon="16.5427317"><ele>573.0</ele><time>2026-04-18T09:48:38.533Z</time></trkpt><trkpt lat="38.9816433" lon="16.542725"><ele>573.0</ele><time>2026-04-18T09:48:40.532Z</time></trkpt><trkpt lat="38.9817283" lon="16.5427567"><ele>573.0</ele><time>2026-04-18T09:48:42.532Z</time></trkpt><trkpt lat="38.9818267" lon="16.542765"><ele>573.0</ele><time>2026-04-18T09:48:45.532Z</time></trkpt><trkpt lat="38.9819117" lon="16.5427483"><ele>573.0</ele><time>2026-04-18T09:48:47.532Z</time></trkpt><trkpt lat="38.982015" lon="16.5427517"><ele>573.3333333333334</ele><time>2026-04-18T09:48:49.533Z</time></trkpt><trkpt lat="38.98211" lon="16.5427817"><ele>573.6666666666666</ele><time>2026-04-18T09:48:51.532Z</time></trkpt><trkpt lat="38.98219" lon="16.5427633"><ele>574.0</ele><time>2026-04-18T09:48:53.532Z</time></trkpt><trkpt lat="38.9822633" lon="16.5427367"><ele>574.3333333333333</ele><time>2026-04-18T09:48:55.532Z</time></trkpt><trkpt lat="38.98236" lon="16.54271"><ele>574.6666666666666</ele><time>2026-04-18T09:48:57.535Z</time></trkpt><trkpt lat="38.9824433" lon="16.5427567"><ele>575.0</ele><time>2026-04-18T09:48:59.532Z</time></trkpt><trkpt lat="38.9824867" lon="16.5428317"><ele>572.2</ele><time>2026-04-18T09:49:01.532Z</time></trkpt><trkpt lat="38.9825233" lon="16.5429483"><ele>569.4</ele><time>2026-04-18T09:49:35.529Z</time></trkpt><trkpt lat="38.9825683" lon="16.5430533"><ele>566.6</ele><time>2026-04-18T09:49:37.53Z</time></trkpt><trkpt lat="38.9826533" lon="16.543155"><ele>563.8</ele><time>2026-04-18T09:49:39.531Z</time></trkpt><trkpt lat="38.9827467" lon="16.543235"><ele>561.0</ele><time>2026-04-18T09:49:41.531Z</time></trkpt><trkpt lat="38.9828533" lon="16.543275"><ele>561.0</ele><time>2026-04-18T09:49:43.53Z</time></trkpt><trkpt lat="38.9829367" lon="16.5433633"><ele>561.0</ele><time>2026-04-18T09:49:45.532Z</time></trkpt><trkpt lat="38.9830217" lon="16.5434467"><ele>561.0</ele><time>2026-04-18T09:49:47.53Z</time></trkpt><trkpt lat="38.9830567" lon="16.5435167"><ele>561.0</ele><time>2026-04-18T09:49:48.531Z</time></trkpt><trkpt lat="38.9830933" lon="16.5435917"><ele>561.0</ele><time>2026-04-18T09:49:49.531Z</time></trkpt><trkpt lat="38.9831067" lon="16.5436767"><ele>561.0</ele><time>2026-04-18T09:49:50.53Z</time></trkpt><trkpt lat="38.9830983" lon="16.5438133"><ele>555.4</ele><time>2026-04-18T09:49:52.53Z</time></trkpt><trkpt lat="38.98313" lon="16.5439067"><ele>549.8</ele><time>2026-04-18T09:49:54.53Z</time></trkpt><trkpt lat="38.9831683" lon="16.544005"><ele>544.1999999999999</ele><time>2026-04-18T09:49:56.53Z</time></trkpt><trkpt lat="38.9832567" lon="16.54405"><ele>538.6</ele><time>2026-04-18T09:49:58.531Z</time></trkpt><trkpt lat="38.983365" lon="16.5440033"><ele>533.0</ele><time>2026-04-18T09:50:00.531Z</time></trkpt><trkpt lat="38.9834767" lon="16.5439233"><ele>531.0</ele><time>2026-04-18T09:50:02.531Z</time></trkpt><trkpt lat="38.983535" lon="16.5438817"><ele>529.0</ele><time>2026-04-18T09:50:03.531Z</time></trkpt><trkpt lat="38.98363" lon="16.5438117"><ele>527.0</ele><time>2026-04-18T09:50:05.532Z</time></trkpt><trkpt lat="38.9837133" lon="16.543745"><ele>525.0</ele><time>2026-04-18T09:50:07.532Z</time></trkpt><trkpt lat="38.9837783" lon="16.5437067"><ele>523.0</ele><time>2026-04-18T09:50:09.531Z</time></trkpt><trkpt lat="38.9838617" lon="16.5436517"><ele>521.0</ele><time>2026-04-18T09:50:12.531Z</time></trkpt><trkpt lat="38.9839367" lon="16.5436317"><ele>525.2</ele><time>2026-04-18T09:50:14.53Z</time></trkpt><trkpt lat="38.9840333" lon="16.54362"><ele>529.4000000000001</ele><time>2026-04-18T09:50:16.532Z</time></trkpt><trkpt lat="38.98414" lon="16.5436167"><ele>533.6</ele><time>2026-04-18T09:50:18.615Z</time></trkpt><trkpt lat="38.984225" lon="16.5435967"><ele>537.8000000000001</ele><time>2026-04-18T09:50:20.53Z</time></trkpt><trkpt lat="38.9843017" lon="16.54354"><ele>542.0</ele><time>2026-04-18T09:50:22.534Z</time></trkpt><trkpt lat="38.984395" lon="16.543525"><ele>542.0</ele><time>2026-04-18T09:50:24.533Z</time></trkpt><trkpt lat="38.9844983" lon="16.5435533"><ele>542.0</ele><time>2026-04-18T09:50:26.533Z</time></trkpt><trkpt lat="38.984605" lon="16.5435833"><ele>542.0</ele><time>2026-04-18T09:50:28.533Z</time></trkpt><trkpt lat="38.9847067" lon="16.5435983"><ele>542.0</ele><time>2026-04-18T09:50:30.531Z</time></trkpt><trkpt lat="38.984815" lon="16.54364"><ele>542.0</ele><time>2026-04-18T09:50:32.532Z</time></trkpt><trkpt lat="38.9848767" lon="16.5436567"><ele>542.0</ele><time>2026-04-18T09:50:33.532Z</time></trkpt><trkpt lat="38.9849417" lon="16.543665"><ele>542.0</ele><time>2026-04-18T09:50:34.531Z</time></trkpt><trkpt lat="38.9850633" lon="16.5436417"><ele>542.0</ele><time>2026-04-18T09:50:36.534Z</time></trkpt><trkpt lat="38.9851683" lon="16.5436217"><ele>542.0</ele><time>2026-04-18T09:50:38.533Z</time></trkpt><trkpt lat="38.98524" lon="16.5436583"><ele>542.0</ele><time>2026-04-18T09:50:40.531Z</time></trkpt><trkpt lat="38.9852933" lon="16.5437267"><ele>542.0</ele><time>2026-04-18T09:50:42.53Z</time></trkpt><trkpt lat="38.98539" lon="16.5437867"><ele>535.0</ele><time>2026-04-18T09:50:44.53Z</time></trkpt><trkpt lat="38.9854917" lon="16.54382"><ele>528.0</ele><time>2026-04-18T09:50:46.533Z</time></trkpt><trkpt lat="38.9855917" lon="16.5438517"><ele>521.0</ele><time>2026-04-18T09:50:48.533Z</time></trkpt><trkpt lat="38.9856983" lon="16.54388"><ele>514.0</ele><time>2026-04-18T09:50:50.529Z</time></trkpt><trkpt lat="38.9858183" lon="16.5439133"><ele>507.0</ele><time>2026-04-18T09:50:52.53Z</time></trkpt><trkpt lat="38.9858817" lon="16.5439283"><ele>506.6</ele><time>2026-04-18T09:50:53.535Z</time></trkpt><trkpt lat="38.9859817" lon="16.5439383"><ele>506.20000000000005</ele><time>2026-04-18T09:50:55.53Z</time></trkpt><trkpt lat="38.9860533" lon="16.5439167"><ele>505.8</ele><time>2026-04-18T09:51:12.529Z</time></trkpt><trkpt lat="38.9861833" lon="16.5439117"><ele>505.4</ele><time>2026-04-18T09:52:08.534Z</time></trkpt><trkpt lat="38.9863033" lon="16.543925"><ele>505.0</ele><time>2026-04-18T09:52:49.531Z</time></trkpt><trkpt lat="38.98637" lon="16.5439083"><ele>505.0</ele><time>2026-04-18T09:52:52.531Z</time></trkpt><trkpt lat="38.9864367" lon="16.543855"><ele>505.0</ele><time>2026-04-18T09:52:54.531Z</time></trkpt><trkpt lat="38.9865183" lon="16.5437683"><ele>505.0</ele><time>2026-04-18T09:52:56.531Z</time></trkpt><trkpt lat="38.9865867" lon="16.54367"><ele>505.0</ele><time>2026-04-18T09:52:58.532Z</time></trkpt><trkpt lat="38.9866817" lon="16.5436133"><ele>505.0</ele><time>2026-04-18T09:53:00.531Z</time></trkpt><trkpt lat="38.9867783" lon="16.5435583"><ele>506.6</ele><time>2026-04-18T09:53:02.532Z</time></trkpt><trkpt lat="38.9869" lon="16.5435383"><ele>508.2</ele><time>2026-04-18T09:53:04.528Z</time></trkpt><trkpt lat="38.98697" lon="16.5435133"><ele>509.79999999999995</ele><time>2026-04-18T09:53:05.532Z</time></trkpt><trkpt lat="38.98709" lon="16.5434717"><ele>511.4</ele><time>2026-04-18T09:53:07.531Z</time></trkpt><trkpt lat="38.987175" lon="16.5434267"><ele>513.0</ele><time>2026-04-18T09:53:09.533Z</time></trkpt><trkpt lat="38.9872367" lon="16.5433917"><ele>513.0</ele><time>2026-04-18T09:53:11.532Z</time></trkpt><trkpt lat="38.9873" lon="16.54338"><ele>513.0</ele><time>2026-04-18T09:53:13.53Z</time></trkpt><trkpt lat="38.9873883" lon="16.54335"><ele>513.0</ele><time>2026-04-18T09:53:16.53Z</time></trkpt><trkpt lat="38.9874633" lon="16.54332"><ele>513.0</ele><time>2026-04-18T09:53:21.535Z</time></trkpt><trkpt lat="38.987525" lon="16.5432883"><ele>513.0</ele><time>2026-04-18T09:53:23.531Z</time></trkpt><trkpt lat="38.9876167" lon="16.5432717"><ele>513.0</ele><time>2026-04-18T09:53:25.531Z</time></trkpt><trkpt lat="38.98769" lon="16.543255"><ele>513.6666666666666</ele><time>2026-04-18T09:53:27.532Z</time></trkpt><trkpt lat="38.9877467" lon="16.5432967"><ele>514.3333333333334</ele><time>2026-04-18T09:53:31.531Z</time></trkpt><trkpt lat="38.98778" lon="16.5434183"><ele>515.0</ele><time>2026-04-18T09:54:21.531Z</time></trkpt><trkpt lat="38.9877617" lon="16.5435217"><ele>515.6666666666667</ele><time>2026-04-18T09:55:29.532Z</time></trkpt><trkpt lat="38.9877483" lon="16.543615"><ele>516.3333333333334</ele><time>2026-04-18T09:55:31.532Z</time></trkpt><trkpt lat="38.9877083" lon="16.5437383"><ele>517.0</ele><time>2026-04-18T09:55:33.53Z</time></trkpt><trkpt lat="38.9876817" lon="16.54389"><ele>517.0</ele><time>2026-04-18T09:55:35.533Z</time></trkpt><trkpt lat="38.9876967" lon="16.5439733"><ele>517.0</ele><time>2026-04-18T09:55:36.531Z</time></trkpt><trkpt lat="38.9877167" lon="16.5440667"><ele>517.0</ele><time>2026-04-18T09:55:37.531Z</time></trkpt><trkpt lat="38.9877133" lon="16.5441533"><ele>517.0</ele><time>2026-04-18T09:55:38.532Z</time></trkpt><trkpt lat="38.9876683" lon="16.5442433"><ele>517.0</ele><time>2026-04-18T09:55:39.532Z</time></trkpt><trkpt lat="38.987645" lon="16.5443967"><ele>517.0</ele><time>2026-04-18T09:55:41.532Z</time></trkpt><trkpt lat="38.9876383" lon="16.54453"><ele>515.5</ele><time>2026-04-18T09:55:43.532Z</time></trkpt><trkpt lat="38.987635" lon="16.5446283"><ele>514.0</ele><time>2026-04-18T09:55:44.532Z</time></trkpt><trkpt lat="38.9876033" lon="16.54473"><ele>512.5</ele><time>2026-04-18T09:55:46.532Z</time></trkpt><trkpt lat="38.9875717" lon="16.5448233"><ele>511.0</ele><time>2026-04-18T09:55:48.531Z</time></trkpt><trkpt lat="38.9876067" lon="16.5449367"><ele>509.50000000000006</ele><time>2026-04-18T09:55:51.534Z</time></trkpt><trkpt lat="38.9876783" lon="16.5450183"><ele>508.0</ele><time>2026-04-18T09:55:53.535Z</time></trkpt><trkpt lat="38.987745" lon="16.5451083"><ele>508.0</ele><time>2026-04-18T09:55:55.534Z</time></trkpt><trkpt lat="38.9877417" lon="16.5452317"><ele>507.99999999999994</ele><time>2026-04-18T09:55:57.679Z</time></trkpt><trkpt lat="38.9878433" lon="16.5452267"><ele>507.99999999999994</ele><time>2026-04-18T09:55:58.87Z</time></trkpt><trkpt lat="38.9879167" lon="16.5453217"><ele>508.0</ele><time>2026-04-18T09:56:00.53Z</time></trkpt><trkpt lat="38.9879917" lon="16.5453833"><ele>508.0</ele><time>2026-04-18T09:56:02.531Z</time></trkpt><trkpt lat="38.9880767" lon="16.5453767"><ele>508.0</ele><time>2026-04-18T09:56:04.532Z</time></trkpt><trkpt lat="38.9881683" lon="16.5453267"><ele>507.99999999999994</ele><time>2026-04-18T09:56:06.531Z</time></trkpt><trkpt lat="38.9882617" lon="16.5452367"><ele>507.99999999999994</ele><time>2026-04-18T09:56:08.532Z</time></trkpt><trkpt lat="38.98835" lon="16.5451633"><ele>508.0</ele><time>2026-04-18T09:56:10.53Z</time></trkpt><trkpt lat="38.988435" lon="16.5450967"><ele>508.0</ele><time>2026-04-18T09:56:12.535Z</time></trkpt><trkpt lat="38.9885133" lon="16.5450167"><ele>507.59999999999997</ele><time>2026-04-18T09:56:14.534Z</time></trkpt><trkpt lat="38.988585" lon="16.544945"><ele>507.19999999999993</ele><time>2026-04-18T09:56:16.533Z</time></trkpt><trkpt lat="38.9886817" lon="16.5448367"><ele>506.8</ele><time>2026-04-18T09:56:18.536Z</time></trkpt><trkpt lat="38.9887367" lon="16.544775"><ele>506.4</ele><time>2026-04-18T09:56:19.534Z</time></trkpt><trkpt lat="38.9888067" lon="16.544705"><ele>506.0</ele><time>2026-04-18T09:56:20.531Z</time></trkpt><trkpt lat="38.9888583" lon="16.5445567"><ele>507.3333333333333</ele><time>2026-04-18T09:56:22.533Z</time></trkpt><trkpt lat="38.9888917" lon="16.5444767"><ele>508.66666666666663</ele><time>2026-04-18T09:56:23.532Z</time></trkpt><trkpt lat="38.9889333" lon="16.5443467"><ele>510.0</ele><time>2026-04-18T09:56:25.536Z</time></trkpt><trkpt lat="38.988955" lon="16.5442233"><ele>511.33333333333337</ele><time>2026-04-18T09:56:27.531Z</time></trkpt><trkpt lat="38.9889567" lon="16.54414"><ele>512.6666666666667</ele><time>2026-04-18T09:56:29.531Z</time></trkpt><trkpt lat="38.988995" lon="16.544045"><ele>514.0</ele><time>2026-04-18T09:56:30.532Z</time></trkpt><trkpt lat="38.989055" lon="16.5438867"><ele>514.0</ele><time>2026-04-18T09:56:47.534Z</time></trkpt><trkpt lat="38.9891217" lon="16.5437783"><ele>514.0</ele><time>2026-04-18T09:56:49.533Z</time></trkpt><trkpt lat="38.9891833" lon="16.5437033"><ele>514.0</ele><time>2026-04-18T09:56:50.531Z</time></trkpt><trkpt lat="38.989275" lon="16.5436233"><ele>514.0</ele><time>2026-04-18T09:56:51.533Z</time></trkpt><trkpt lat="38.989365" lon="16.5435383"><ele>514.0</ele><time>2026-04-18T09:56:52.535Z</time></trkpt><trkpt lat="38.9894483" lon="16.5434567"><ele>514.2</ele><time>2026-04-18T09:56:53.532Z</time></trkpt><trkpt lat="38.989535" lon="16.5433917"><ele>514.4</ele><time>2026-04-18T09:56:54.535Z</time></trkpt><trkpt lat="38.9896133" lon="16.543325"><ele>514.6</ele><time>2026-04-18T09:56:55.531Z</time></trkpt><trkpt lat="38.9897033" lon="16.5432817"><ele>514.8</ele><time>2026-04-18T09:56:56.532Z</time></trkpt><trkpt lat="38.9898017" lon="16.5432383"><ele>515.0</ele><time>2026-04-18T09:56:57.537Z</time></trkpt><trkpt lat="38.9898817" lon="16.5431633"><ele>515.0</ele><time>2026-04-18T09:56:58.533Z</time></trkpt><trkpt lat="38.9899833" lon="16.54311"><ele>515.0</ele><time>2026-04-18T09:56:59.531Z</time></trkpt><trkpt lat="38.990045" lon="16.5430167"><ele>515.0</ele><time>2026-04-18T09:57:00.539Z</time></trkpt><trkpt lat="38.9901867" lon="16.5429733"><ele>515.0</ele><time>2026-04-18T09:57:01.533Z</time></trkpt><trkpt lat="38.9902383" lon="16.5428683"><ele>515.0</ele><time>2026-04-18T09:57:02.535Z</time></trkpt><trkpt lat="38.990335" lon="16.5428233"><ele>515.8</ele><time>2026-04-18T09:57:03.534Z</time></trkpt><trkpt lat="38.9904567" lon="16.5427367"><ele>516.6</ele><time>2026-04-18T09:57:04.534Z</time></trkpt><trkpt lat="38.9905117" lon="16.542685"><ele>517.4</ele><time>2026-04-18T09:57:05.532Z</time></trkpt><trkpt lat="38.9906383" lon="16.5426333"><ele>518.2</ele><time>2026-04-18T09:57:07.081Z</time></trkpt><trkpt lat="38.990715" lon="16.5425583"><ele>519.0</ele><time>2026-04-18T09:57:08.532Z</time></trkpt><trkpt lat="38.9908167" lon="16.5424833"><ele>518.75</ele><time>2026-04-18T09:57:09.534Z</time></trkpt><trkpt lat="38.990915" lon="16.5424133"><ele>518.5</ele><time>2026-04-18T09:57:10.533Z</time></trkpt><trkpt lat="38.9910167" lon="16.5423517"><ele>518.25</ele><time>2026-04-18T09:57:11.53Z</time></trkpt><trkpt lat="38.9911233" lon="16.542305"><ele>518.0</ele><time>2026-04-18T09:57:12.532Z</time></trkpt><trkpt lat="38.9912383" lon="16.5422617"><ele>518.0</ele><time>2026-04-18T09:57:13.532Z</time></trkpt><trkpt lat="38.9913633" lon="16.54222"><ele>518.0</ele><time>2026-04-18T09:57:14.534Z</time></trkpt><trkpt lat="38.99149" lon="16.5421817"><ele>518.0</ele><time>2026-04-18T09:57:15.533Z</time></trkpt><trkpt lat="38.99161" lon="16.54214"><ele>518.0</ele><time>2026-04-18T09:57:16.533Z</time></trkpt><trkpt lat="38.9917267" lon="16.5420983"><ele>518.0</ele><time>2026-04-18T09:57:17.535Z</time></trkpt><trkpt lat="38.9918367" lon="16.54207"><ele>518.0</ele><time>2026-04-18T09:57:18.533Z</time></trkpt><trkpt lat="38.9920283" lon="16.5420983"><ele>518.0</ele><time>2026-04-18T09:57:19.534Z</time></trkpt><trkpt lat="38.9921217" lon="16.5420817"><ele>518.0</ele><time>2026-04-18T09:57:20.535Z</time></trkpt><trkpt lat="38.9921967" lon="16.5420667"><ele>518.3333333333333</ele><time>2026-04-18T09:57:21.533Z</time></trkpt><trkpt lat="38.9922683" lon="16.5420467"><ele>518.6666666666666</ele><time>2026-04-18T09:57:22.531Z</time></trkpt><trkpt lat="38.9923317" lon="16.5420217"><ele>519.0</ele><time>2026-04-18T09:57:23.534Z</time></trkpt><trkpt lat="38.992425" lon="16.5419917"><ele>519.3333333333334</ele><time>2026-04-18T09:57:25.533Z</time></trkpt><trkpt lat="38.9924617" lon="16.5419017"><ele>519.6666666666667</ele><time>2026-04-18T09:57:28.531Z</time></trkpt><trkpt lat="38.9923933" lon="16.541855"><ele>520.0</ele><time>2026-04-18T09:57:32.531Z</time></trkpt><trkpt lat="38.9923417" lon="16.5419033"><ele>520.0</ele><time>2026-04-18T09:57:34.534Z</time></trkpt><trkpt lat="38.9922667" lon="16.5419567"><ele>520.0</ele><time>2026-04-18T09:57:36.531Z</time></trkpt><trkpt lat="38.9922217" lon="16.542015"><ele>520.0</ele><time>2026-04-18T09:57:37.535Z</time></trkpt><trkpt lat="38.9920983" lon="16.542055"><ele>520.0</ele><time>2026-04-18T09:57:39.53Z</time></trkpt><trkpt lat="38.9919933" lon="16.54206"><ele>520.0</ele><time>2026-04-18T09:57:40.534Z</time></trkpt><trkpt lat="38.9918633" lon="16.54211"><ele>519.5</ele><time>2026-04-18T09:57:41.534Z</time></trkpt><trkpt lat="38.991725" lon="16.54215"><ele>519.0</ele><time>2026-04-18T09:57:42.531Z</time></trkpt><trkpt lat="38.9916" lon="16.5422083"><ele>518.5</ele><time>2026-04-18T09:57:43.533Z</time></trkpt><trkpt lat="38.9914767" lon="16.5422333"><ele>518.0</ele><time>2026-04-18T09:57:44.533Z</time></trkpt><trkpt lat="38.9913583" lon="16.542255"><ele>518.0</ele><time>2026-04-18T09:57:45.531Z</time></trkpt><trkpt lat="38.991245" lon="16.54228"><ele>518.0</ele><time>2026-04-18T09:57:46.533Z</time></trkpt><trkpt lat="38.9911417" lon="16.5422967"><ele>518.0</ele><time>2026-04-18T09:57:47.531Z</time></trkpt><trkpt lat="38.9910483" lon="16.542335"><ele>518.0</ele><time>2026-04-18T09:57:48.533Z</time></trkpt><trkpt lat="38.990955" lon="16.5423417"><ele>518.0</ele><time>2026-04-18T09:57:49.536Z</time></trkpt><trkpt lat="38.990865" lon="16.5423583"><ele>518.1666666666666</ele><time>2026-04-18T09:57:50.533Z</time></trkpt><trkpt lat="38.9907883" lon="16.54236"><ele>518.3333333333333</ele><time>2026-04-18T09:57:51.532Z</time></trkpt><trkpt lat="38.990705" lon="16.542345"><ele>518.5</ele><time>2026-04-18T09:57:52.534Z</time></trkpt><trkpt lat="38.9906217" lon="16.5423267"><ele>518.6666666666666</ele><time>2026-04-18T09:57:53.534Z</time></trkpt><trkpt lat="38.9905917" lon="16.5422517"><ele>518.8333333333334</ele><time>2026-04-18T09:57:54.531Z</time></trkpt><trkpt lat="38.9904917" lon="16.5422317"><ele>519.0</ele><time>2026-04-18T09:57:55.535Z</time></trkpt><trkpt lat="38.9903783" lon="16.5422167"><ele>519.0</ele><time>2026-04-18T09:57:56.531Z</time></trkpt><trkpt lat="38.99028" lon="16.5422067"><ele>519.0</ele><time>2026-04-18T09:57:57.534Z</time></trkpt><trkpt lat="38.9901883" lon="16.542205"><ele>519.0</ele><time>2026-04-18T09:57:58.531Z</time></trkpt><trkpt lat="38.9901067" lon="16.5422083"><ele>519.0</ele><time>2026-04-18T09:57:59.534Z</time></trkpt><trkpt lat="38.9900283" lon="16.5422233"><ele>519.0</ele><time>2026-04-18T09:58:00.533Z</time></trkpt><trkpt lat="38.9899567" lon="16.5422467"><ele>519.0</ele><time>2026-04-18T09:58:01.533Z</time></trkpt><trkpt lat="38.98989" lon="16.5422733"><ele>520.3333333333334</ele><time>2026-04-18T09:58:02.533Z</time></trkpt><trkpt lat="38.9898267" lon="16.542305"><ele>521.6666666666666</ele><time>2026-04-18T09:58:03.533Z</time></trkpt><trkpt lat="38.9897633" lon="16.5423333"><ele>523.0</ele><time>2026-04-18T09:58:04.531Z</time></trkpt><trkpt lat="38.9896317" lon="16.54238"><ele>524.3333333333333</ele><time>2026-04-18T09:58:05.534Z</time></trkpt><trkpt lat="38.98956" lon="16.5424"><ele>525.6666666666666</ele><time>2026-04-18T09:58:06.534Z</time></trkpt><trkpt lat="38.9894717" lon="16.542425"><ele>527.0</ele><time>2026-04-18T09:58:07.532Z</time></trkpt><trkpt lat="38.9894033" lon="16.5424333"><ele>527.0</ele><time>2026-04-18T09:58:08.535Z</time></trkpt><trkpt lat="38.98929" lon="16.5425133"><ele>527.0</ele><time>2026-04-18T09:58:10.533Z</time></trkpt><trkpt lat="38.9892183" lon="16.54246"><ele>527.0</ele><time>2026-04-18T09:58:12.534Z</time></trkpt><trkpt lat="38.9891867" lon="16.5423633"><ele>527.0</ele><time>2026-04-18T09:58:14.533Z</time></trkpt><trkpt lat="38.9892333" lon="16.5422933"><ele>527.0</ele><time>2026-04-18T09:58:17.531Z</time></trkpt><trkpt lat="38.9892833" lon="16.54224"><ele>527.0</ele><time>2026-04-18T09:58:20.532Z</time></trkpt><trkpt lat="38.9893483" lon="16.5421983"><ele>527.0000000000001</ele><time>2026-04-18T09:58:23.533Z</time></trkpt><trkpt lat="38.989415" lon="16.5421567"><ele>527.0</ele><time>2026-04-18T09:58:26.534Z</time></trkpt><trkpt lat="38.98947" lon="16.5420983"><ele>527.0</ele><time>2026-04-18T09:58:29.612Z</time></trkpt><trkpt lat="38.9895283" lon="16.5420433"><ele>527.0</ele><time>2026-04-18T09:58:32.532Z</time></trkpt><trkpt lat="38.989585" lon="16.5419883"><ele>527.0</ele><time>2026-04-18T09:58:35.535Z</time></trkpt><trkpt lat="38.9896433" lon="16.5419367"><ele>527.0000000000001</ele><time>2026-04-18T09:58:39.538Z</time></trkpt><trkpt lat="38.989685" lon="16.541875"><ele>527.0</ele><time>2026-04-18T09:58:42.531Z</time></trkpt><trkpt lat="38.9897233" lon="16.541775"><ele>528.4</ele><time>2026-04-18T09:59:57.534Z</time></trkpt><trkpt lat="38.9898167" lon="16.5416117"><ele>529.8000000000001</ele><time>2026-04-18T09:59:59.537Z</time></trkpt><trkpt lat="38.98989" lon="16.5415533"><ele>531.2</ele><time>2026-04-18T10:00:00.53Z</time></trkpt><trkpt lat="38.989945" lon="16.54147"><ele>532.6</ele><time>2026-04-18T10:00:01.53Z</time></trkpt><trkpt lat="38.990025" lon="16.541395"><ele>534.0</ele><time>2026-04-18T10:00:02.529Z</time></trkpt><trkpt lat="38.9901117" lon="16.5413017"><ele>537.25</ele><time>2026-04-18T10:00:03.533Z</time></trkpt><trkpt lat="38.9902083" lon="16.5412083"><ele>540.5</ele><time>2026-04-18T10:00:04.533Z</time></trkpt><trkpt lat="38.9903083" lon="16.5411183"><ele>543.75</ele><time>2026-04-18T10:00:05.53Z</time></trkpt><trkpt lat="38.99041" lon="16.5410183"><ele>547.0</ele><time>2026-04-18T10:00:06.531Z</time></trkpt><trkpt lat="38.9904867" lon="16.5409367"><ele>547.0</ele><time>2026-04-18T10:00:07.534Z</time></trkpt><trkpt lat="38.9905517" lon="16.54088"><ele>547.0</ele><time>2026-04-18T10:00:08.531Z</time></trkpt><trkpt lat="38.99063" lon="16.5408433"><ele>547.0</ele><time>2026-04-18T10:00:09.534Z</time></trkpt><trkpt lat="38.990725" lon="16.5408117"><ele>547.0</ele><time>2026-04-18T10:00:10.531Z</time></trkpt><trkpt lat="38.9908333" lon="16.540805"><ele>547.0</ele><time>2026-04-18T10:00:11.531Z</time></trkpt><trkpt lat="38.9909433" lon="16.5408"><ele>547.1666666666667</ele><time>2026-04-18T10:00:12.535Z</time></trkpt><trkpt lat="38.9910417" lon="16.5408"><ele>547.3333333333334</ele><time>2026-04-18T10:00:13.532Z</time></trkpt><trkpt lat="38.9911317" lon="16.54082"><ele>547.5</ele><time>2026-04-18T10:00:14.532Z</time></trkpt><trkpt lat="38.9912083" lon="16.540855"><ele>547.6666666666666</ele><time>2026-04-18T10:00:15.533Z</time></trkpt><trkpt lat="38.9912833" lon="16.5408933"><ele>547.8333333333333</ele><time>2026-04-18T10:00:16.533Z</time></trkpt><trkpt lat="38.991355" lon="16.54093"><ele>548.0</ele><time>2026-04-18T10:00:17.615Z</time></trkpt><trkpt lat="38.99147" lon="16.540895"><ele>548.0</ele><time>2026-04-18T10:00:19.532Z</time></trkpt><trkpt lat="38.9915433" lon="16.540795"><ele>548.0</ele><time>2026-04-18T10:00:21.534Z</time></trkpt><trkpt lat="38.9916333" lon="16.54068"><ele>548.0</ele><time>2026-04-18T10:00:23.532Z</time></trkpt><trkpt lat="38.9917233" lon="16.5406067"><ele>548.0</ele><time>2026-04-18T10:00:25.531Z</time></trkpt><trkpt lat="38.9918233" lon="16.5406017"><ele>548.0</ele><time>2026-04-18T10:00:27.533Z</time></trkpt><trkpt lat="38.991885" lon="16.5405467"><ele>549.75</ele><time>2026-04-18T10:00:29.537Z</time></trkpt><trkpt lat="38.99196" lon="16.540455"><ele>551.5</ele><time>2026-04-18T10:00:31.537Z</time></trkpt><trkpt lat="38.9919817" lon="16.5402867"><ele>553.25</ele><time>2026-04-18T10:00:33.533Z</time></trkpt><trkpt lat="38.9920567" lon="16.5401517"><ele>555.0</ele><time>2026-04-18T10:00:35.535Z</time></trkpt><trkpt lat="38.9921333" lon="16.5400517"><ele>555.0</ele><time>2026-04-18T10:00:37.533Z</time></trkpt><trkpt lat="38.9922083" lon="16.5400317"><ele>555.0</ele><time>2026-04-18T10:00:38.534Z</time></trkpt><trkpt lat="38.992285" lon="16.540005"><ele>555.0</ele><time>2026-04-18T10:00:39.534Z</time></trkpt><trkpt lat="38.9923767" lon="16.540025"><ele>555.0</ele><time>2026-04-18T10:00:40.536Z</time></trkpt><trkpt lat="38.9924917" lon="16.54001"><ele>555.0</ele><time>2026-04-18T10:00:41.537Z</time></trkpt><trkpt lat="38.9925967" lon="16.5399917"><ele>554.3333333333334</ele><time>2026-04-18T10:00:42.534Z</time></trkpt><trkpt lat="38.9926967" lon="16.5399883"><ele>553.6666666666666</ele><time>2026-04-18T10:00:43.532Z</time></trkpt><trkpt lat="38.9927767" lon="16.540015"><ele>553.0</ele><time>2026-04-18T10:00:44.534Z</time></trkpt><trkpt lat="38.9928417" lon="16.5400383"><ele>552.3333333333333</ele><time>2026-04-18T10:00:45.536Z</time></trkpt><trkpt lat="38.99296" lon="16.5399917"><ele>551.6666666666666</ele><time>2026-04-18T10:00:47.535Z</time></trkpt><trkpt lat="38.9930233" lon="16.53994"><ele>551.0</ele><time>2026-04-18T10:00:48.534Z</time></trkpt><trkpt lat="38.993075" lon="16.53986"><ele>551.0</ele><time>2026-04-18T10:00:49.533Z</time></trkpt><trkpt lat="38.9931517" lon="16.539755"><ele>551.0</ele><time>2026-04-18T10:00:50.536Z</time></trkpt><trkpt lat="38.9931967" lon="16.5396717"><ele>551.0</ele><time>2026-04-18T10:00:51.533Z</time></trkpt><trkpt lat="38.993275" lon="16.539555"><ele>551.0</ele><time>2026-04-18T10:00:52.531Z</time></trkpt><trkpt lat="38.993345" lon="16.53949"><ele>551.0</ele><time>2026-04-18T10:00:53.532Z</time></trkpt><trkpt lat="38.99344" lon="16.5394767"><ele>550.8571428571428</ele><time>2026-04-18T10:00:55.534Z</time></trkpt><trkpt lat="38.99352" lon="16.5394383"><ele>550.7142857142857</ele><time>2026-04-18T10:00:57.531Z</time></trkpt><trkpt lat="38.9935783" lon="16.539405"><ele>550.5714285714286</ele><time>2026-04-18T10:00:59.533Z</time></trkpt><trkpt lat="38.9935117" lon="16.5394617"><ele>550.4285714285713</ele><time>2026-04-18T10:02:13.504Z</time></trkpt><trkpt lat="38.9935767" lon="16.53941"><ele>550.2857142857142</ele><time>2026-04-18T10:02:23.529Z</time></trkpt><trkpt lat="38.993645" lon="16.5394233"><ele>550.1428571428571</ele><time>2026-04-18T10:02:29.531Z</time></trkpt><trkpt lat="38.99367" lon="16.5395033"><ele>550.0</ele><time>2026-04-18T10:02:39.536Z</time></trkpt><trkpt lat="38.9936867" lon="16.5395833"><ele>550.0</ele><time>2026-04-18T10:02:43.534Z</time></trkpt><trkpt lat="38.9936817" lon="16.5396733"><ele>550.0</ele><time>2026-04-18T10:02:47.535Z</time></trkpt><trkpt lat="38.99369" lon="16.5397633"><ele>550.0</ele><time>2026-04-18T10:03:43.531Z</time></trkpt><trkpt lat="38.9936733" lon="16.5398583"><ele>550.0</ele><time>2026-04-18T10:03:45.537Z</time></trkpt><trkpt lat="38.9936317" lon="16.5399517"><ele>550.0</ele><time>2026-04-18T10:03:48.531Z</time></trkpt><trkpt lat="38.99358" lon="16.5400467"><ele>550.0</ele><time>2026-04-18T10:03:51.533Z</time></trkpt><trkpt lat="38.9935317" lon="16.5401467"><ele>550.0</ele><time>2026-04-18T10:03:54.53Z</time></trkpt><trkpt lat="38.9934967" lon="16.54022"><ele>550.0</ele><time>2026-04-18T10:03:56.533Z</time></trkpt><trkpt lat="38.9934467" lon="16.5403083"><ele>550.0</ele><time>2026-04-18T10:03:59.534Z</time></trkpt><trkpt lat="38.9933983" lon="16.5403967"><ele>550.0</ele><time>2026-04-18T10:04:03.534Z</time></trkpt><trkpt lat="38.99334" lon="16.5404617"><ele>550.0</ele><time>2026-04-18T10:04:07.533Z</time></trkpt><trkpt lat="38.9932733" lon="16.5405367"><ele>550.0</ele><time>2026-04-18T10:04:10.53Z</time></trkpt><trkpt lat="38.9932217" lon="16.5406183"><ele>548.0</ele><time>2026-04-18T10:04:12.53Z</time></trkpt><trkpt lat="38.9931617" lon="16.5407083"><ele>546.0</ele><time>2026-04-18T10:04:14.533Z</time></trkpt><trkpt lat="38.9931117" lon="16.5408167"><ele>544.0</ele><time>2026-04-18T10:04:16.532Z</time></trkpt><trkpt lat="38.9930783" lon="16.5409283"><ele>542.0</ele><time>2026-04-18T10:04:18.533Z</time></trkpt><trkpt lat="38.9930633" lon="16.541015"><ele>540.0</ele><time>2026-04-18T10:04:20.535Z</time></trkpt><trkpt lat="38.9930617" lon="16.541125"><ele>538.0</ele><time>2026-04-18T10:04:23.535Z</time></trkpt><trkpt lat="38.9930917" lon="16.5412067"><ele>535.8333333333334</ele><time>2026-04-18T10:04:26.532Z</time></trkpt><trkpt lat="38.9931433" lon="16.5412633"><ele>533.6666666666667</ele><time>2026-04-18T10:04:29.535Z</time></trkpt><trkpt lat="38.993225" lon="16.5412967"><ele>531.5</ele><time>2026-04-18T10:08:46.531Z</time></trkpt><trkpt lat="38.9932967" lon="16.5413367"><ele>529.3333333333334</ele><time>2026-04-18T10:08:48.532Z</time></trkpt><trkpt lat="38.9933933" lon="16.5413667"><ele>527.1666666666666</ele><time>2026-04-18T10:08:50.532Z</time></trkpt><trkpt lat="38.9935" lon="16.5414217"><ele>525.0</ele><time>2026-04-18T10:08:52.532Z</time></trkpt><trkpt lat="38.9936033" lon="16.5414833"><ele>525.0</ele><time>2026-04-18T10:08:54.532Z</time></trkpt><trkpt lat="38.9936867" lon="16.5415517"><ele>525.0</ele><time>2026-04-18T10:08:56.531Z</time></trkpt><trkpt lat="38.9937383" lon="16.54165"><ele>525.0</ele><time>2026-04-18T10:08:58.531Z</time></trkpt><trkpt lat="38.9937933" lon="16.54176"><ele>525.0</ele><time>2026-04-18T10:09:00.533Z</time></trkpt><trkpt lat="38.9938683" lon="16.5418333"><ele>525.0</ele><time>2026-04-18T10:09:02.534Z</time></trkpt><trkpt lat="38.993975" lon="16.5418717"><ele>525.0</ele><time>2026-04-18T10:09:04.533Z</time></trkpt><trkpt lat="38.9940383" lon="16.5418817"><ele>525.0</ele><time>2026-04-18T10:09:05.533Z</time></trkpt><trkpt lat="38.9941133" lon="16.5419"><ele>525.0</ele><time>2026-04-18T10:09:06.532Z</time></trkpt><trkpt lat="38.9941883" lon="16.5419"><ele>525.0</ele><time>2026-04-18T10:09:07.533Z</time></trkpt><trkpt lat="38.9942733" lon="16.5419217"><ele>525.0</ele><time>2026-04-18T10:09:08.536Z</time></trkpt><trkpt lat="38.9943433" lon="16.541945"><ele>525.0</ele><time>2026-04-18T10:09:09.534Z</time></trkpt><trkpt lat="38.99442" lon="16.54196"><ele>524.2</ele><time>2026-04-18T10:09:10.534Z</time></trkpt><trkpt lat="38.9945067" lon="16.5419917"><ele>523.4</ele><time>2026-04-18T10:09:11.533Z</time></trkpt><trkpt lat="38.994595" lon="16.5420467"><ele>522.6</ele><time>2026-04-18T10:09:12.533Z</time></trkpt><trkpt lat="38.9946833" lon="16.542075"><ele>521.8</ele><time>2026-04-18T10:09:13.535Z</time></trkpt><trkpt lat="38.9947733" lon="16.5420917"><ele>521.0</ele><time>2026-04-18T10:09:14.532Z</time></trkpt><trkpt lat="38.99486" lon="16.5421417"><ele>521.0</ele><time>2026-04-18T10:09:15.533Z</time></trkpt><trkpt lat="38.9949433" lon="16.5421833"><ele>521.0</ele><time>2026-04-18T10:09:16.532Z</time></trkpt><trkpt lat="38.99508" lon="16.5422117"><ele>521.0</ele><time>2026-04-18T10:09:18.074Z</time></trkpt><trkpt lat="38.9951933" lon="16.5422733"><ele>521.0</ele><time>2026-04-18T10:09:19.534Z</time></trkpt><trkpt lat="38.995285" lon="16.54231"><ele>521.0</ele><time>2026-04-18T10:09:20.533Z</time></trkpt><trkpt lat="38.99539" lon="16.5423383"><ele>522.0</ele><time>2026-04-18T10:09:21.535Z</time></trkpt><trkpt lat="38.995495" lon="16.5423617"><ele>523.0</ele><time>2026-04-18T10:09:22.537Z</time></trkpt><trkpt lat="38.995595" lon="16.54239"><ele>524.0</ele><time>2026-04-18T10:09:23.533Z</time></trkpt><trkpt lat="38.9957067" lon="16.54241"><ele>525.0</ele><time>2026-04-18T10:09:24.533Z</time></trkpt><trkpt lat="38.9958083" lon="16.5424433"><ele>526.0</ele><time>2026-04-18T10:09:25.532Z</time></trkpt><trkpt lat="38.9959117" lon="16.5424733"><ele>526.75</ele><time>2026-04-18T10:09:26.536Z</time></trkpt><trkpt lat="38.99602" lon="16.5425067"><ele>527.5</ele><time>2026-04-18T10:09:27.536Z</time></trkpt><trkpt lat="38.9961417" lon="16.5425517"><ele>528.25</ele><time>2026-04-18T10:09:28.531Z</time></trkpt><trkpt lat="38.9962583" lon="16.5425817"><ele>529.0</ele><time>2026-04-18T10:09:29.534Z</time></trkpt><trkpt lat="38.996375" lon="16.5426083"><ele>529.0</ele><time>2026-04-18T10:09:30.534Z</time></trkpt><trkpt lat="38.99649" lon="16.5426567"><ele>529.0</ele><time>2026-04-18T10:09:31.532Z</time></trkpt><trkpt lat="38.9966033" lon="16.5426967"><ele>529.0</ele><time>2026-04-18T10:09:32.532Z</time></trkpt><trkpt lat="38.9967183" lon="16.5427233"><ele>529.0</ele><time>2026-04-18T10:09:33.536Z</time></trkpt><trkpt lat="38.9968267" lon="16.5427717"><ele>530.75</ele><time>2026-04-18T10:09:34.534Z</time></trkpt><trkpt lat="38.99694" lon="16.542825"><ele>532.5</ele><time>2026-04-18T10:09:35.533Z</time></trkpt><trkpt lat="38.9970517" lon="16.5428833"><ele>534.25</ele><time>2026-04-18T10:09:36.533Z</time></trkpt><trkpt lat="38.99717" lon="16.5429333"><ele>536.0</ele><time>2026-04-18T10:09:37.533Z</time></trkpt><trkpt lat="38.99728" lon="16.5430017"><ele>536.0</ele><time>2026-04-18T10:09:38.537Z</time></trkpt><trkpt lat="38.997395" lon="16.543055"><ele>536.0</ele><time>2026-04-18T10:09:39.534Z</time></trkpt><trkpt lat="38.9975083" lon="16.5431267"><ele>536.0</ele><time>2026-04-18T10:09:40.537Z</time></trkpt><trkpt lat="38.9976233" lon="16.54317"><ele>536.0</ele><time>2026-04-18T10:09:41.533Z</time></trkpt><trkpt lat="38.99773" lon="16.543215"><ele>538.6</ele><time>2026-04-18T10:09:42.533Z</time></trkpt><trkpt lat="38.9978333" lon="16.54324"><ele>541.2</ele><time>2026-04-18T10:09:43.535Z</time></trkpt><trkpt lat="38.99794" lon="16.5432333"><ele>543.8</ele><time>2026-04-18T10:09:44.533Z</time></trkpt><trkpt lat="38.9980417" lon="16.5432383"><ele>546.4</ele><time>2026-04-18T10:09:45.533Z</time></trkpt><trkpt lat="38.99814" lon="16.543255"><ele>549.0</ele><time>2026-04-18T10:09:46.534Z</time></trkpt><trkpt lat="38.9982367" lon="16.5432967"><ele>549.0</ele><time>2026-04-18T10:09:47.534Z</time></trkpt><trkpt lat="38.9983333" lon="16.5433433"><ele>549.0</ele><time>2026-04-18T10:09:48.538Z</time></trkpt><trkpt lat="38.998435" lon="16.543375"><ele>549.0</ele><time>2026-04-18T10:09:49.534Z</time></trkpt><trkpt lat="38.9985583" lon="16.5434017"><ele>549.0</ele><time>2026-04-18T10:09:50.534Z</time></trkpt><trkpt lat="38.998675" lon="16.5434233"><ele>553.0</ele><time>2026-04-18T10:09:51.533Z</time></trkpt><trkpt lat="38.9987867" lon="16.5434567"><ele>557.0</ele><time>2026-04-18T10:09:52.535Z</time></trkpt><trkpt lat="38.99889" lon="16.5435033"><ele>561.0</ele><time>2026-04-18T10:09:53.533Z</time></trkpt><trkpt lat="38.9989817" lon="16.54358"><ele>565.0</ele><time>2026-04-18T10:09:54.535Z</time></trkpt><trkpt lat="38.9990867" lon="16.54369"><ele>566.4</ele><time>2026-04-18T10:09:55.535Z</time></trkpt><trkpt lat="38.999195" lon="16.54369"><ele>567.8</ele><time>2026-04-18T10:09:56.535Z</time></trkpt><trkpt lat="38.999275" lon="16.5437833"><ele>569.2</ele><time>2026-04-18T10:09:57.535Z</time></trkpt><trkpt lat="38.99937" lon="16.543815"><ele>570.6</ele><time>2026-04-18T10:09:58.534Z</time></trkpt><trkpt lat="38.999465" lon="16.543855"><ele>572.0</ele><time>2026-04-18T10:09:59.535Z</time></trkpt><trkpt lat="38.9995433" lon="16.54384"><ele>572.0</ele><time>2026-04-18T10:10:00.534Z</time></trkpt><trkpt lat="38.9996533" lon="16.5439167"><ele>572.0</ele><time>2026-04-18T10:10:01.534Z</time></trkpt><trkpt lat="38.9997283" lon="16.5439167"><ele>572.0</ele><time>2026-04-18T10:10:02.532Z</time></trkpt><trkpt lat="38.9998317" lon="16.5439367"><ele>572.0</ele><time>2026-04-18T10:10:03.532Z</time></trkpt><trkpt lat="38.999895" lon="16.5439233"><ele>572.0</ele><time>2026-04-18T10:10:04.533Z</time></trkpt><trkpt lat="39.0000433" lon="16.5439317"><ele>572.0</ele><time>2026-04-18T10:10:06.531Z</time></trkpt><trkpt lat="39.0001267" lon="16.5439267"><ele>572.0</ele><time>2026-04-18T10:10:07.535Z</time></trkpt><trkpt lat="39.0002267" lon="16.54395"><ele>572.0</ele><time>2026-04-18T10:10:08.533Z</time></trkpt><trkpt lat="39.00034" lon="16.5439917"><ele>572.0</ele><time>2026-04-18T10:10:09.535Z</time></trkpt><trkpt lat="39.0004383" lon="16.5440067"><ele>572.0</ele><time>2026-04-18T10:10:10.533Z</time></trkpt><trkpt lat="39.0005233" lon="16.5440017"><ele>572.0</ele><time>2026-04-18T10:10:11.534Z</time></trkpt><trkpt lat="39.0005967" lon="16.544015"><ele>572.0</ele><time>2026-04-18T10:10:12.536Z</time></trkpt><trkpt lat="39.0006667" lon="16.54403"><ele>572.0</ele><time>2026-04-18T10:10:13.534Z</time></trkpt><trkpt lat="39.00073" lon="16.54404"><ele>572.0</ele><time>2026-04-18T10:10:14.533Z</time></trkpt><trkpt lat="39.0008317" lon="16.5440183"><ele>572.0</ele><time>2026-04-18T10:10:16.532Z</time></trkpt><trkpt lat="39.0009133" lon="16.543965"><ele>572.0</ele><time>2026-04-18T10:10:18.53Z</time></trkpt><trkpt lat="39.000995" lon="16.5438933"><ele>572.8000000000001</ele><time>2026-04-18T10:10:20.531Z</time></trkpt><trkpt lat="39.001075" lon="16.5437933"><ele>573.6</ele><time>2026-04-18T10:10:22.531Z</time></trkpt><trkpt lat="39.00113" lon="16.54367"><ele>574.4000000000001</ele><time>2026-04-18T10:10:24.532Z</time></trkpt><trkpt lat="39.0011633" lon="16.543545"><ele>575.2</ele><time>2026-04-18T10:10:26.534Z</time></trkpt><trkpt lat="39.0012083" lon="16.5434533"><ele>576.0</ele><time>2026-04-18T10:10:29.532Z</time></trkpt><trkpt lat="39.00125" lon="16.5433917"><ele>576.0</ele><time>2026-04-18T10:10:32.532Z</time></trkpt><trkpt lat="39.0013267" lon="16.5433833"><ele>576.0</ele><time>2026-04-18T10:11:03.531Z</time></trkpt><trkpt lat="39.001415" lon="16.54332"><ele>576.0</ele><time>2026-04-18T10:11:05.531Z</time></trkpt><trkpt lat="39.001485" lon="16.54327"><ele>576.0</ele><time>2026-04-18T10:11:06.533Z</time></trkpt><trkpt lat="39.00156" lon="16.5432417"><ele>576.0</ele><time>2026-04-18T10:11:07.533Z</time></trkpt><trkpt lat="39.0016367" lon="16.5431983"><ele>576.0</ele><time>2026-04-18T10:11:08.531Z</time></trkpt><trkpt lat="39.0017233" lon="16.5431567"><ele>576.0</ele><time>2026-04-18T10:11:09.533Z</time></trkpt><trkpt lat="39.0018117" lon="16.5431033"><ele>576.0</ele><time>2026-04-18T10:11:10.533Z</time></trkpt><trkpt lat="39.0019017" lon="16.5430517"><ele>576.0</ele><time>2026-04-18T10:11:11.533Z</time></trkpt><trkpt lat="39.0019983" lon="16.54299"><ele>576.0</ele><time>2026-04-18T10:11:12.531Z</time></trkpt><trkpt lat="39.0020917" lon="16.5429233"><ele>576.0</ele><time>2026-04-18T10:11:13.533Z</time></trkpt><trkpt lat="39.00218" lon="16.542855"><ele>575.8</ele><time>2026-04-18T10:11:14.53Z</time></trkpt><trkpt lat="39.002275" lon="16.5427983"><ele>575.6</ele><time>2026-04-18T10:11:15.531Z</time></trkpt><trkpt lat="39.002365" lon="16.5427433"><ele>575.4</ele><time>2026-04-18T10:11:16.532Z</time></trkpt><trkpt lat="39.0024483" lon="16.5426817"><ele>575.2</ele><time>2026-04-18T10:11:17.53Z</time></trkpt><trkpt lat="39.0025217" lon="16.5426033"><ele>575.0</ele><time>2026-04-18T10:11:18.531Z</time></trkpt><trkpt lat="39.0025817" lon="16.542515"><ele>575.0</ele><time>2026-04-18T10:11:19.53Z</time></trkpt><trkpt lat="39.0026417" lon="16.54245"><ele>575.0</ele><time>2026-04-18T10:11:20.532Z</time></trkpt><trkpt lat="39.0027167" lon="16.542415"><ele>575.0</ele><time>2026-04-18T10:11:21.535Z</time></trkpt><trkpt lat="39.0027767" lon="16.5423517"><ele>575.0</ele><time>2026-04-18T10:11:22.534Z</time></trkpt><trkpt lat="39.0028483" lon="16.542315"><ele>575.0</ele><time>2026-04-18T10:11:23.533Z</time></trkpt><trkpt lat="39.00292" lon="16.5422833"><ele>575.0</ele><time>2026-04-18T10:11:24.531Z</time></trkpt><trkpt lat="39.0029917" lon="16.5422317"><ele>575.0</ele><time>2026-04-18T10:11:25.532Z</time></trkpt><trkpt lat="39.003065" lon="16.5421717"><ele>575.0</ele><time>2026-04-18T10:11:26.532Z</time></trkpt><trkpt lat="39.0031417" lon="16.54211"><ele>575.0</ele><time>2026-04-18T10:11:27.533Z</time></trkpt><trkpt lat="39.003215" lon="16.5420517"><ele>575.0</ele><time>2026-04-18T10:11:28.536Z</time></trkpt><trkpt lat="39.003275" lon="16.5419867"><ele>575.0</ele><time>2026-04-18T10:11:29.534Z</time></trkpt><trkpt lat="39.0033317" lon="16.5419233"><ele>575.0</ele><time>2026-04-18T10:11:30.532Z</time></trkpt><trkpt lat="39.0033917" lon="16.5418633"><ele>573.8</ele><time>2026-04-18T10:11:31.538Z</time></trkpt><trkpt lat="39.0034667" lon="16.5418067"><ele>572.6</ele><time>2026-04-18T10:11:32.532Z</time></trkpt><trkpt lat="39.00354" lon="16.5417283"><ele>571.4</ele><time>2026-04-18T10:11:33.534Z</time></trkpt><trkpt lat="39.00361" lon="16.5416433"><ele>570.2</ele><time>2026-04-18T10:11:34.534Z</time></trkpt><trkpt lat="39.003685" lon="16.54156"><ele>569.0</ele><time>2026-04-18T10:11:35.534Z</time></trkpt><trkpt lat="39.003755" lon="16.5414883"><ele>569.0</ele><time>2026-04-18T10:11:36.533Z</time></trkpt><trkpt lat="39.003815" lon="16.5414283"><ele>569.0</ele><time>2026-04-18T10:11:37.532Z</time></trkpt><trkpt lat="39.00387" lon="16.54136"><ele>569.0</ele><time>2026-04-18T10:11:38.531Z</time></trkpt><trkpt lat="39.0039217" lon="16.541285"><ele>569.0</ele><time>2026-04-18T10:11:39.533Z</time></trkpt><trkpt lat="39.00396" lon="16.54121"><ele>569.0</ele><time>2026-04-18T10:11:40.533Z</time></trkpt><trkpt lat="39.0040083" lon="16.54108"><ele>569.0</ele><time>2026-04-18T10:11:42.535Z</time></trkpt><trkpt lat="39.0040667" lon="16.5409567"><ele>568.5</ele><time>2026-04-18T10:11:44.531Z</time></trkpt><trkpt lat="39.00412" lon="16.540855"><ele>568.0</ele><time>2026-04-18T10:11:46.532Z</time></trkpt><trkpt lat="39.004165" lon="16.5407983"><ele>567.5</ele><time>2026-04-18T10:11:48.533Z</time></trkpt><trkpt lat="39.0041983" lon="16.54072"><ele>567.0</ele><time>2026-04-18T10:12:29.531Z</time></trkpt><trkpt lat="39.0042433" lon="16.54066"><ele>566.5</ele><time>2026-04-18T10:12:34.535Z</time></trkpt><trkpt lat="39.0043167" lon="16.5407033"><ele>566.0</ele><time>2026-04-18T10:12:57.533Z</time></trkpt><trkpt lat="39.0044" lon="16.54082"><ele>567.5</ele><time>2026-04-18T10:12:59.53Z</time></trkpt><trkpt lat="39.0044483" lon="16.540895"><ele>569.0</ele><time>2026-04-18T10:13:00.535Z</time></trkpt><trkpt lat="39.0044933" lon="16.5409767"><ele>570.5</ele><time>2026-04-18T10:13:01.534Z</time></trkpt><trkpt lat="39.0045467" lon="16.5410533"><ele>572.0</ele><time>2026-04-18T10:13:02.53Z</time></trkpt><trkpt lat="39.00462" lon="16.541105"><ele>573.5</ele><time>2026-04-18T10:13:03.532Z</time></trkpt><trkpt lat="39.0046933" lon="16.54115"><ele>575.0</ele><time>2026-04-18T10:13:04.532Z</time></trkpt><trkpt lat="39.004775" lon="16.5411533"><ele>575.0</ele><time>2026-04-18T10:13:05.53Z</time></trkpt><trkpt lat="39.004855" lon="16.5411367"><ele>575.0</ele><time>2026-04-18T10:13:06.53Z</time></trkpt><trkpt lat="39.0049367" lon="16.54111"><ele>575.0</ele><time>2026-04-18T10:13:07.53Z</time></trkpt><trkpt lat="39.0050117" lon="16.54111"><ele>575.0</ele><time>2026-04-18T10:13:08.531Z</time></trkpt><trkpt lat="39.00508" lon="16.541135"><ele>575.0</ele><time>2026-04-18T10:13:09.534Z</time></trkpt><trkpt lat="39.005205" lon="16.54124"><ele>573.6</ele><time>2026-04-18T10:13:10.72Z</time></trkpt><trkpt lat="39.005235" lon="16.5413283"><ele>572.2</ele><time>2026-04-18T10:13:11.913Z</time></trkpt><trkpt lat="39.0053533" lon="16.5414433"><ele>570.8</ele><time>2026-04-18T10:13:13.531Z</time></trkpt><trkpt lat="39.005445" lon="16.5414967"><ele>569.4</ele><time>2026-04-18T10:13:14.533Z</time></trkpt><trkpt lat="39.0055383" lon="16.5415467"><ele>568.0</ele><time>2026-04-18T10:13:15.531Z</time></trkpt><trkpt lat="39.0056333" lon="16.5416083"><ele>568.0</ele><time>2026-04-18T10:13:16.536Z</time></trkpt><trkpt lat="39.0057167" lon="16.5416833"><ele>568.0</ele><time>2026-04-18T10:13:17.537Z</time></trkpt><trkpt lat="39.0057917" lon="16.5417733"><ele>568.0</ele><time>2026-04-18T10:13:18.536Z</time></trkpt><trkpt lat="39.00585" lon="16.5418833"><ele>568.0</ele><time>2026-04-18T10:13:19.536Z</time></trkpt><trkpt lat="39.0058917" lon="16.5420067"><ele>568.0</ele><time>2026-04-18T10:13:20.531Z</time></trkpt><trkpt lat="39.0059267" lon="16.5421333"><ele>568.1999999999999</ele><time>2026-04-18T10:13:21.536Z</time></trkpt><trkpt lat="39.005965" lon="16.54226"><ele>568.4</ele><time>2026-04-18T10:13:22.532Z</time></trkpt><trkpt lat="39.0060067" lon="16.54238"><ele>568.5999999999999</ele><time>2026-04-18T10:13:23.531Z</time></trkpt><trkpt lat="39.006045" lon="16.5424983"><ele>568.8</ele><time>2026-04-18T10:13:24.53Z</time></trkpt><trkpt lat="39.0060983" lon="16.5426033"><ele>569.0</ele><time>2026-04-18T10:13:25.531Z</time></trkpt><trkpt lat="39.0061633" lon="16.542685"><ele>569.0</ele><time>2026-04-18T10:13:26.534Z</time></trkpt><trkpt lat="39.0062317" lon="16.54275"><ele>569.0</ele><time>2026-04-18T10:13:27.534Z</time></trkpt><trkpt lat="39.0063067" lon="16.5428"><ele>569.0</ele><time>2026-04-18T10:13:28.53Z</time></trkpt><trkpt lat="39.0063767" lon="16.54285"><ele>569.0</ele><time>2026-04-18T10:13:29.532Z</time></trkpt><trkpt lat="39.0064567" lon="16.5428867"><ele>569.0</ele><time>2026-04-18T10:13:30.531Z</time></trkpt><trkpt lat="39.0065317" lon="16.5429367"><ele>569.0</ele><time>2026-04-18T10:13:31.534Z</time></trkpt><trkpt lat="39.00658" lon="16.5430217"><ele>568.4</ele><time>2026-04-18T10:13:32.534Z</time></trkpt><trkpt lat="39.0066067" lon="16.5431317"><ele>567.8</ele><time>2026-04-18T10:13:33.532Z</time></trkpt><trkpt lat="39.0066283" lon="16.54326"><ele>567.2</ele><time>2026-04-18T10:13:34.532Z</time></trkpt><trkpt lat="39.0066433" lon="16.5434117"><ele>566.6</ele><time>2026-04-18T10:13:35.532Z</time></trkpt><trkpt lat="39.0066783" lon="16.543555"><ele>566.0</ele><time>2026-04-18T10:13:36.532Z</time></trkpt><trkpt lat="39.0067" lon="16.5437"><ele>568.3333333333333</ele><time>2026-04-18T10:13:37.531Z</time></trkpt><trkpt lat="39.006705" lon="16.5438467"><ele>570.6666666666666</ele><time>2026-04-18T10:13:38.533Z</time></trkpt><trkpt lat="39.0067067" lon="16.543985"><ele>573.0</ele><time>2026-04-18T10:13:39.535Z</time></trkpt><trkpt lat="39.0067317" lon="16.5440867"><ele>575.3333333333334</ele><time>2026-04-18T10:13:40.533Z</time></trkpt><trkpt lat="39.0067617" lon="16.54417"><ele>577.6666666666667</ele><time>2026-04-18T10:13:41.533Z</time></trkpt><trkpt lat="39.0068067" lon="16.544245"><ele>580.0</ele><time>2026-04-18T10:13:42.536Z</time></trkpt><trkpt lat="39.00687" lon="16.5442683"><ele>580.0</ele><time>2026-04-18T10:13:43.534Z</time></trkpt><trkpt lat="39.006945" lon="16.5442667"><ele>580.0</ele><time>2026-04-18T10:13:44.533Z</time></trkpt><trkpt lat="39.0070333" lon="16.5442533"><ele>580.0</ele><time>2026-04-18T10:13:45.531Z</time></trkpt><trkpt lat="39.0071317" lon="16.5442317"><ele>580.0</ele><time>2026-04-18T10:13:46.531Z</time></trkpt><trkpt lat="39.0072383" lon="16.5441917"><ele>580.0</ele><time>2026-04-18T10:13:47.531Z</time></trkpt><trkpt lat="39.0073433" lon="16.5441217"><ele>580.0</ele><time>2026-04-18T10:13:48.532Z</time></trkpt><trkpt lat="39.00744" lon="16.544035"><ele>580.0</ele><time>2026-04-18T10:13:49.531Z</time></trkpt><trkpt lat="39.0075383" lon="16.5439633"><ele>580.0</ele><time>2026-04-18T10:13:50.531Z</time></trkpt><trkpt lat="39.0076283" lon="16.5438733"><ele>580.0</ele><time>2026-04-18T10:13:51.534Z</time></trkpt><trkpt lat="39.0077067" lon="16.5437567"><ele>577.8</ele><time>2026-04-18T10:13:52.531Z</time></trkpt><trkpt lat="39.0077767" lon="16.543635"><ele>575.6</ele><time>2026-04-18T10:13:53.532Z</time></trkpt><trkpt lat="39.007845" lon="16.54353"><ele>573.4</ele><time>2026-04-18T10:13:54.533Z</time></trkpt><trkpt lat="39.00792" lon="16.543455"><ele>571.2</ele><time>2026-04-18T10:13:55.531Z</time></trkpt><trkpt lat="39.00799" lon="16.5434183"><ele>569.0</ele><time>2026-04-18T10:13:56.53Z</time></trkpt><trkpt lat="39.0080967" lon="16.5435067"><ele>569.0</ele><time>2026-04-18T10:13:58.533Z</time></trkpt><trkpt lat="39.0081333" lon="16.54358"><ele>569.0</ele><time>2026-04-18T10:13:59.531Z</time></trkpt><trkpt lat="39.0081817" lon="16.5436733"><ele>569.0</ele><time>2026-04-18T10:14:00.533Z</time></trkpt><trkpt lat="39.0082417" lon="16.5437833"><ele>569.0</ele><time>2026-04-18T10:14:01.534Z</time></trkpt><trkpt lat="39.00831" lon="16.5438917"><ele>569.0</ele><time>2026-04-18T10:14:02.532Z</time></trkpt><trkpt lat="39.0083867" lon="16.544"><ele>576.0</ele><time>2026-04-18T10:14:03.534Z</time></trkpt><trkpt lat="39.0084667" lon="16.5440917"><ele>583.0</ele><time>2026-04-18T10:14:04.535Z</time></trkpt><trkpt lat="39.008545" lon="16.5441667"><ele>590.0</ele><time>2026-04-18T10:14:05.53Z</time></trkpt><trkpt lat="39.0086183" lon="16.544245"><ele>597.0</ele><time>2026-04-18T10:14:06.533Z</time></trkpt><trkpt lat="39.0086917" lon="16.5443017"><ele>604.0</ele><time>2026-04-18T10:14:07.533Z</time></trkpt><trkpt lat="39.0087617" lon="16.5443367"><ele>604.0</ele><time>2026-04-18T10:14:08.532Z</time></trkpt><trkpt lat="39.008825" lon="16.5443367"><ele>604.0</ele><time>2026-04-18T10:14:09.534Z</time></trkpt><trkpt lat="39.0088317" lon="16.544435"><ele>604.0</ele><time>2026-04-18T10:14:11.533Z</time></trkpt><trkpt lat="39.0087683" lon="16.544465"><ele>604.0</ele><time>2026-04-18T10:14:13.533Z</time></trkpt><trkpt lat="39.0087033" lon="16.544435"><ele>604.0</ele><time>2026-04-18T10:14:14.534Z</time></trkpt><trkpt lat="39.0085383" lon="16.5443583"><ele>604.0</ele><time>2026-04-18T10:14:16.531Z</time></trkpt><trkpt lat="39.0084533" lon="16.5443017"><ele>604.0</ele><time>2026-04-18T10:14:17.532Z</time></trkpt><trkpt lat="39.008305" lon="16.544245"><ele>604.0</ele><time>2026-04-18T10:14:18.532Z</time></trkpt><trkpt lat="39.0082" lon="16.5441167"><ele>604.0</ele><time>2026-04-18T10:14:20.334Z</time></trkpt><trkpt lat="39.00806" lon="16.54411"><ele>602.3333333333334</ele><time>2026-04-18T10:14:21.543Z</time></trkpt><trkpt lat="39.0079683" lon="16.5441333"><ele>600.6666666666667</ele><time>2026-04-18T10:14:23.534Z</time></trkpt><trkpt lat="39.0078983" lon="16.544195"><ele>599.0</ele><time>2026-04-18T10:14:24.533Z</time></trkpt><trkpt lat="39.0078333" lon="16.54429"><ele>597.3333333333334</ele><time>2026-04-18T10:14:25.53Z</time></trkpt><trkpt lat="39.0077683" lon="16.5443683"><ele>595.6666666666666</ele><time>2026-04-18T10:14:26.531Z</time></trkpt><trkpt lat="39.0077217" lon="16.5444483"><ele>594.0</ele><time>2026-04-18T10:14:27.531Z</time></trkpt><trkpt lat="39.0076767" lon="16.5445933"><ele>595.8333333333334</ele><time>2026-04-18T10:14:28.533Z</time></trkpt><trkpt lat="39.00764" lon="16.544705"><ele>597.6666666666666</ele><time>2026-04-18T10:14:29.53Z</time></trkpt><trkpt lat="39.0075933" lon="16.5447983"><ele>599.5</ele><time>2026-04-18T10:14:30.534Z</time></trkpt><trkpt lat="39.007535" lon="16.544865"><ele>601.3333333333333</ele><time>2026-04-18T10:14:31.531Z</time></trkpt><trkpt lat="39.00747" lon="16.5449283"><ele>603.1666666666666</ele><time>2026-04-18T10:14:32.536Z</time></trkpt><trkpt lat="39.0073817" lon="16.545"><ele>605.0</ele><time>2026-04-18T10:14:33.531Z</time></trkpt><trkpt lat="39.0073217" lon="16.5450817"><ele>605.0</ele><time>2026-04-18T10:14:34.531Z</time></trkpt><trkpt lat="39.0072983" lon="16.545165"><ele>605.0</ele><time>2026-04-18T10:14:35.532Z</time></trkpt><trkpt lat="39.0073217" lon="16.5452583"><ele>605.0</ele><time>2026-04-18T10:14:36.53Z</time></trkpt><trkpt lat="39.0073533" lon="16.5453467"><ele>605.0</ele><time>2026-04-18T10:14:37.532Z</time></trkpt><trkpt lat="39.007415" lon="16.5454233"><ele>605.0</ele><time>2026-04-18T10:14:38.532Z</time></trkpt><trkpt lat="39.00752" lon="16.54545"><ele>605.0</ele><time>2026-04-18T10:14:39.531Z</time></trkpt><trkpt lat="39.0076267" lon="16.5454683"><ele>608.0</ele><time>2026-04-18T10:14:40.535Z</time></trkpt><trkpt lat="39.00772" lon="16.545515"><ele>611.0</ele><time>2026-04-18T10:14:41.533Z</time></trkpt><trkpt lat="39.0078" lon="16.5455817"><ele>614.0</ele><time>2026-04-18T10:14:42.531Z</time></trkpt><trkpt lat="39.0078583" lon="16.54568"><ele>617.0</ele><time>2026-04-18T10:14:43.534Z</time></trkpt><trkpt lat="39.00787" lon="16.5457983"><ele>620.0</ele><time>2026-04-18T10:14:44.532Z</time></trkpt><trkpt lat="39.0079067" lon="16.5458883"><ele>620.0</ele><time>2026-04-18T10:14:45.534Z</time></trkpt><trkpt lat="39.00796" lon="16.545965"><ele>620.0</ele><time>2026-04-18T10:14:46.535Z</time></trkpt><trkpt lat="39.0080383" lon="16.546015"><ele>620.0</ele><time>2026-04-18T10:14:47.531Z</time></trkpt><trkpt lat="39.008125" lon="16.5460533"><ele>620.0</ele><time>2026-04-18T10:14:48.532Z</time></trkpt><trkpt lat="39.00822" lon="16.5461033"><ele>620.0</ele><time>2026-04-18T10:14:49.532Z</time></trkpt><trkpt lat="39.0083067" lon="16.546055"><ele>626.25</ele><time>2026-04-18T10:14:50.533Z</time></trkpt><trkpt lat="39.0084" lon="16.5459433"><ele>632.5</ele><time>2026-04-18T10:14:51.532Z</time></trkpt><trkpt lat="39.0085" lon="16.5458767"><ele>638.75</ele><time>2026-04-18T10:14:52.532Z</time></trkpt><trkpt lat="39.0086117" lon="16.5458283"><ele>645.0</ele><time>2026-04-18T10:14:53.534Z</time></trkpt><trkpt lat="39.0087267" lon="16.5458"><ele>645.0</ele><time>2026-04-18T10:14:54.533Z</time></trkpt><trkpt lat="39.0088383" lon="16.54584"><ele>645.0</ele><time>2026-04-18T10:14:55.532Z</time></trkpt><trkpt lat="39.0089467" lon="16.5459217"><ele>645.0</ele><time>2026-04-18T10:14:56.532Z</time></trkpt><trkpt lat="39.00906" lon="16.5459783"><ele>645.0</ele><time>2026-04-18T10:14:57.534Z</time></trkpt><trkpt lat="39.00918" lon="16.5460067"><ele>645.75</ele><time>2026-04-18T10:14:58.531Z</time></trkpt><trkpt lat="39.00932" lon="16.546005"><ele>646.5</ele><time>2026-04-18T10:14:59.531Z</time></trkpt><trkpt lat="39.0094717" lon="16.5460383"><ele>647.25</ele><time>2026-04-18T10:15:00.532Z</time></trkpt><trkpt lat="39.0096267" lon="16.5460517"><ele>648.0</ele><time>2026-04-18T10:15:01.536Z</time></trkpt><trkpt lat="39.009775" lon="16.546035"><ele>648.0</ele><time>2026-04-18T10:15:02.534Z</time></trkpt><trkpt lat="39.0099217" lon="16.545965"><ele>648.0</ele><time>2026-04-18T10:15:03.533Z</time></trkpt><trkpt lat="39.0100767" lon="16.54597"><ele>648.0</ele><time>2026-04-18T10:15:04.53Z</time></trkpt><trkpt lat="39.0102" lon="16.545895"><ele>648.0</ele><time>2026-04-18T10:15:05.531Z</time></trkpt><trkpt lat="39.0103117" lon="16.54583"><ele>651.0</ele><time>2026-04-18T10:15:06.533Z</time></trkpt><trkpt lat="39.0104167" lon="16.5458417"><ele>654.0</ele><time>2026-04-18T10:15:07.536Z</time></trkpt><trkpt lat="39.0105317" lon="16.5459033"><ele>657.0</ele><time>2026-04-18T10:15:08.53Z</time></trkpt><trkpt lat="39.010655" lon="16.54592"><ele>660.0</ele><time>2026-04-18T10:15:09.533Z</time></trkpt><trkpt lat="39.010785" lon="16.5459267"><ele>664.75</ele><time>2026-04-18T10:15:10.531Z</time></trkpt><trkpt lat="39.010915" lon="16.5459267"><ele>669.5</ele><time>2026-04-18T10:15:11.534Z</time></trkpt><trkpt lat="39.0110383" lon="16.5459467"><ele>674.25</ele><time>2026-04-18T10:15:12.531Z</time></trkpt><trkpt lat="39.0111467" lon="16.5459733"><ele>679.0</ele><time>2026-04-18T10:15:13.53Z</time></trkpt><trkpt lat="39.0112317" lon="16.5459583"><ele>679.0</ele><time>2026-04-18T10:15:14.533Z</time></trkpt><trkpt lat="39.011295" lon="16.5459217"><ele>679.0</ele><time>2026-04-18T10:15:15.531Z</time></trkpt><trkpt lat="39.011335" lon="16.5458517"><ele>679.0</ele><time>2026-04-18T10:15:16.531Z</time></trkpt><trkpt lat="39.0113333" lon="16.545755"><ele>679.0</ele><time>2026-04-18T10:15:17.53Z</time></trkpt><trkpt lat="39.0113017" lon="16.5456517"><ele>679.0</ele><time>2026-04-18T10:15:18.53Z</time></trkpt><trkpt lat="39.0112333" lon="16.5455583"><ele>679.0</ele><time>2026-04-18T10:15:19.535Z</time></trkpt><trkpt lat="39.0111533" lon="16.5454867"><ele>679.0</ele><time>2026-04-18T10:15:20.533Z</time></trkpt><trkpt lat="39.0110883" lon="16.5453917"><ele>679.0</ele><time>2026-04-18T10:15:21.532Z</time></trkpt><trkpt lat="39.0110317" lon="16.5452767"><ele>679.0</ele><time>2026-04-18T10:15:22.531Z</time></trkpt><trkpt lat="39.0110017" lon="16.5451333"><ele>679.0</ele><time>2026-04-18T10:15:23.532Z</time></trkpt><trkpt lat="39.0109717" lon="16.54498"><ele>679.0</ele><time>2026-04-18T10:15:24.535Z</time></trkpt><trkpt lat="39.0109633" lon="16.5448017"><ele>679.75</ele><time>2026-04-18T10:15:25.533Z</time></trkpt><trkpt lat="39.01097" lon="16.54462"><ele>680.5</ele><time>2026-04-18T10:15:26.533Z</time></trkpt><trkpt lat="39.0110183" lon="16.5444567"><ele>681.25</ele><time>2026-04-18T10:15:27.534Z</time></trkpt><trkpt lat="39.01108" lon="16.5442833"><ele>682.0</ele><time>2026-04-18T10:15:28.532Z</time></trkpt><trkpt lat="39.0110917" lon="16.5441"><ele>682.25</ele><time>2026-04-18T10:15:29.532Z</time></trkpt><trkpt lat="39.0111267" lon="16.5439433"><ele>682.5</ele><time>2026-04-18T10:15:30.532Z</time></trkpt><trkpt lat="39.0112" lon="16.5438233"><ele>682.75</ele><time>2026-04-18T10:15:31.532Z</time></trkpt><trkpt lat="39.0112683" lon="16.54371"><ele>683.0</ele><time>2026-04-18T10:15:32.532Z</time></trkpt><trkpt lat="39.0113333" lon="16.543615"><ele>683.0</ele><time>2026-04-18T10:15:33.533Z</time></trkpt><trkpt lat="39.0114017" lon="16.54355"><ele>683.0</ele><time>2026-04-18T10:15:34.535Z</time></trkpt><trkpt lat="39.0114717" lon="16.5435433"><ele>683.0</ele><time>2026-04-18T10:15:35.533Z</time></trkpt><trkpt lat="39.0115517" lon="16.54367"><ele>683.0</ele><time>2026-04-18T10:15:37.532Z</time></trkpt><trkpt lat="39.011585" lon="16.54375"><ele>683.0</ele><time>2026-04-18T10:15:38.533Z</time></trkpt><trkpt lat="39.0116233" lon="16.5438717"><ele>683.0</ele><time>2026-04-18T10:15:39.531Z</time></trkpt><trkpt lat="39.01162" lon="16.5440233"><ele>683.0</ele><time>2026-04-18T10:15:40.532Z</time></trkpt><trkpt lat="39.0116267" lon="16.5441633"><ele>683.0</ele><time>2026-04-18T10:15:41.53Z</time></trkpt><trkpt lat="39.011665" lon="16.5442717"><ele>683.0</ele><time>2026-04-18T10:15:42.53Z</time></trkpt><trkpt lat="39.011725" lon="16.54436"><ele>683.0</ele><time>2026-04-18T10:15:43.537Z</time></trkpt><trkpt lat="39.01181" lon="16.5444083"><ele>687.2</ele><time>2026-04-18T10:15:44.53Z</time></trkpt><trkpt lat="39.0119033" lon="16.5444383"><ele>691.4</ele><time>2026-04-18T10:15:45.531Z</time></trkpt><trkpt lat="39.0120083" lon="16.54447"><ele>695.6</ele><time>2026-04-18T10:15:46.53Z</time></trkpt><trkpt lat="39.01213" lon="16.5444733"><ele>699.8000000000001</ele><time>2026-04-18T10:15:47.53Z</time></trkpt><trkpt lat="39.0122517" lon="16.5444917"><ele>704.0</ele><time>2026-04-18T10:15:48.532Z</time></trkpt><trkpt lat="39.0123583" lon="16.54456"><ele>705.75</ele><time>2026-04-18T10:15:49.531Z</time></trkpt><trkpt lat="39.012465" lon="16.5446733"><ele>707.5</ele><time>2026-04-18T10:15:50.53Z</time></trkpt><trkpt lat="39.0125917" lon="16.544735"><ele>709.25</ele><time>2026-04-18T10:15:51.531Z</time></trkpt><trkpt lat="39.0127283" lon="16.5448233"><ele>711.0</ele><time>2026-04-18T10:15:52.53Z</time></trkpt><trkpt lat="39.012805" lon="16.5450083"><ele>712.5999999999999</ele><time>2026-04-18T10:15:53.531Z</time></trkpt><trkpt lat="39.012905" lon="16.5451"><ele>714.2</ele><time>2026-04-18T10:15:54.532Z</time></trkpt><trkpt lat="39.012995" lon="16.5451517"><ele>715.8</ele><time>2026-04-18T10:15:55.532Z</time></trkpt><trkpt lat="39.0131" lon="16.5451467"><ele>717.4000000000001</ele><time>2026-04-18T10:15:56.53Z</time></trkpt><trkpt lat="39.0132133" lon="16.5451467"><ele>719.0</ele><time>2026-04-18T10:15:57.532Z</time></trkpt><trkpt lat="39.013355" lon="16.54521"><ele>719.0</ele><time>2026-04-18T10:15:58.532Z</time></trkpt><trkpt lat="39.0135167" lon="16.54513"><ele>719.0</ele><time>2026-04-18T10:15:59.531Z</time></trkpt><trkpt lat="39.0136983" lon="16.545135"><ele>719.0</ele><time>2026-04-18T10:16:00.532Z</time></trkpt><trkpt lat="39.0138717" lon="16.5451917"><ele>719.0</ele><time>2026-04-18T10:16:01.535Z</time></trkpt><trkpt lat="39.0140167" lon="16.5450867"><ele>719.0</ele><time>2026-04-18T10:16:02.532Z</time></trkpt><trkpt lat="39.014155" lon="16.5451533"><ele>719.0</ele><time>2026-04-18T10:16:03.536Z</time></trkpt><trkpt lat="39.014255" lon="16.545275"><ele>724.3333333333333</ele><time>2026-04-18T10:16:04.532Z</time></trkpt><trkpt lat="39.0143883" lon="16.5454"><ele>729.6666666666666</ele><time>2026-04-18T10:16:05.533Z</time></trkpt><trkpt lat="39.0145483" lon="16.5455567"><ele>735.0</ele><time>2026-04-18T10:16:06.531Z</time></trkpt><trkpt lat="39.0147483" lon="16.5456117"><ele>735.0</ele><time>2026-04-18T10:16:07.531Z</time></trkpt><trkpt lat="39.014895" lon="16.545725"><ele>735.0</ele><time>2026-04-18T10:16:08.531Z</time></trkpt><trkpt lat="39.0150517" lon="16.5457083"><ele>735.0</ele><time>2026-04-18T10:16:09.531Z</time></trkpt><trkpt lat="39.0151583" lon="16.5457767"><ele>735.0</ele><time>2026-04-18T10:16:10.533Z</time></trkpt><trkpt lat="39.0152333" lon="16.5458983"><ele>734.8</ele><time>2026-04-18T10:16:11.531Z</time></trkpt><trkpt lat="39.0153133" lon="16.5460217"><ele>734.6</ele><time>2026-04-18T10:16:12.531Z</time></trkpt><trkpt lat="39.0154083" lon="16.5460433"><ele>734.4000000000001</ele><time>2026-04-18T10:16:13.531Z</time></trkpt><trkpt lat="39.0154883" lon="16.5460917"><ele>734.2</ele><time>2026-04-18T10:16:14.532Z</time></trkpt><trkpt lat="39.0155817" lon="16.5460867"><ele>734.0</ele><time>2026-04-18T10:16:15.533Z</time></trkpt><trkpt lat="39.0156933" lon="16.546055"><ele>734.0</ele><time>2026-04-18T10:16:16.533Z</time></trkpt><trkpt lat="39.015815" lon="16.5460367"><ele>734.0</ele><time>2026-04-18T10:16:17.53Z</time></trkpt><trkpt lat="39.0159433" lon="16.54597"><ele>734.0</ele><time>2026-04-18T10:16:18.532Z</time></trkpt><trkpt lat="39.0160783" lon="16.5460067"><ele>734.0</ele><time>2026-04-18T10:16:19.532Z</time></trkpt><trkpt lat="39.0162217" lon="16.5460283"><ele>735.75</ele><time>2026-04-18T10:16:20.532Z</time></trkpt><trkpt lat="39.01635" lon="16.545945"><ele>737.5</ele><time>2026-04-18T10:16:21.532Z</time></trkpt><trkpt lat="39.0164783" lon="16.5459583"><ele>739.25</ele><time>2026-04-18T10:16:22.53Z</time></trkpt><trkpt lat="39.0165883" lon="16.546035"><ele>741.0</ele><time>2026-04-18T10:16:23.534Z</time></trkpt><trkpt lat="39.0167017" lon="16.5460383"><ele>743.8333333333334</ele><time>2026-04-18T10:16:24.533Z</time></trkpt><trkpt lat="39.0167733" lon="16.5459867"><ele>746.6666666666666</ele><time>2026-04-18T10:16:25.531Z</time></trkpt><trkpt lat="39.01684" lon="16.5459383"><ele>749.5</ele><time>2026-04-18T10:16:26.532Z</time></trkpt><trkpt lat="39.0168883" lon="16.5458517"><ele>752.3333333333333</ele><time>2026-04-18T10:16:27.533Z</time></trkpt><trkpt lat="39.0169083" lon="16.5457267"><ele>755.1666666666666</ele><time>2026-04-18T10:16:28.531Z</time></trkpt><trkpt lat="39.0169483" lon="16.5456183"><ele>758.0</ele><time>2026-04-18T10:16:29.532Z</time></trkpt><trkpt lat="39.0170033" lon="16.5455217"><ele>758.0</ele><time>2026-04-18T10:16:30.531Z</time></trkpt><trkpt lat="39.0170817" lon="16.5454517"><ele>758.0</ele><time>2026-04-18T10:16:31.534Z</time></trkpt><trkpt lat="39.0171733" lon="16.5453967"><ele>758.0</ele><time>2026-04-18T10:16:32.532Z</time></trkpt><trkpt lat="39.01729" lon="16.545375"><ele>758.0</ele><time>2026-04-18T10:16:33.532Z</time></trkpt><trkpt lat="39.017415" lon="16.54539"><ele>758.0</ele><time>2026-04-18T10:16:34.531Z</time></trkpt><trkpt lat="39.017535" lon="16.54535"><ele>761.75</ele><time>2026-04-18T10:16:35.531Z</time></trkpt><trkpt lat="39.0176483" lon="16.54538"><ele>765.5</ele><time>2026-04-18T10:16:36.536Z</time></trkpt><trkpt lat="39.01777" lon="16.5454133"><ele>769.25</ele><time>2026-04-18T10:16:37.531Z</time></trkpt><trkpt lat="39.0178983" lon="16.545435"><ele>773.0</ele><time>2026-04-18T10:16:38.532Z</time></trkpt><trkpt lat="39.018025" lon="16.545435"><ele>773.0</ele><time>2026-04-18T10:16:39.534Z</time></trkpt><trkpt lat="39.0181517" lon="16.5454217"><ele>773.0</ele><time>2026-04-18T10:16:40.53Z</time></trkpt><trkpt lat="39.0182767" lon="16.5453883"><ele>773.0</ele><time>2026-04-18T10:16:41.534Z</time></trkpt><trkpt lat="39.0183917" lon="16.5453233"><ele>773.0</ele><time>2026-04-18T10:16:42.532Z</time></trkpt><trkpt lat="39.0184867" lon="16.5452133"><ele>773.75</ele><time>2026-04-18T10:16:43.531Z</time></trkpt><trkpt lat="39.0185667" lon="16.5450717"><ele>774.5</ele><time>2026-04-18T10:16:44.533Z</time></trkpt><trkpt lat="39.0186967" lon="16.544995"><ele>775.25</ele><time>2026-04-18T10:16:45.535Z</time></trkpt><trkpt lat="39.01882" lon="16.5448717"><ele>776.0</ele><time>2026-04-18T10:16:46.536Z</time></trkpt><trkpt lat="39.0188517" lon="16.5446917"><ele>776.0</ele><time>2026-04-18T10:16:47.612Z</time></trkpt><trkpt lat="39.018985" lon="16.5445733"><ele>776.0</ele><time>2026-04-18T10:16:48.531Z</time></trkpt><trkpt lat="39.0191433" lon="16.5445183"><ele>776.0</ele><time>2026-04-18T10:16:49.533Z</time></trkpt><trkpt lat="39.0192617" lon="16.5443733"><ele>777.75</ele><time>2026-04-18T10:16:50.531Z</time></trkpt><trkpt lat="39.0193917" lon="16.544275"><ele>779.5</ele><time>2026-04-18T10:16:51.533Z</time></trkpt><trkpt lat="39.01952" lon="16.5441883"><ele>781.25</ele><time>2026-04-18T10:16:52.53Z</time></trkpt><trkpt lat="39.0196383" lon="16.5440867"><ele>783.0</ele><time>2026-04-18T10:16:53.533Z</time></trkpt><trkpt lat="39.0197633" lon="16.5439983"><ele>783.0</ele><time>2026-04-18T10:16:54.531Z</time></trkpt><trkpt lat="39.01988" lon="16.54392"><ele>783.0</ele><time>2026-04-18T10:16:55.534Z</time></trkpt><trkpt lat="39.0200017" lon="16.5438567"><ele>783.0</ele><time>2026-04-18T10:16:56.534Z</time></trkpt><trkpt lat="39.0201183" lon="16.5438417"><ele>783.0</ele><time>2026-04-18T10:16:57.532Z</time></trkpt><trkpt lat="39.0202467" lon="16.5438783"><ele>782.0</ele><time>2026-04-18T10:16:58.533Z</time></trkpt><trkpt lat="39.0203583" lon="16.5438633"><ele>781.0</ele><time>2026-04-18T10:16:59.532Z</time></trkpt><trkpt lat="39.020465" lon="16.5438317"><ele>780.0</ele><time>2026-04-18T10:17:00.533Z</time></trkpt><trkpt lat="39.0205633" lon="16.5437383"><ele>779.0</ele><time>2026-04-18T10:17:01.533Z</time></trkpt><trkpt lat="39.0206633" lon="16.5436267"><ele>781.0</ele><time>2026-04-18T10:17:02.53Z</time></trkpt><trkpt lat="39.0207733" lon="16.5435017"><ele>783.0</ele><time>2026-04-18T10:17:03.531Z</time></trkpt><trkpt lat="39.020875" lon="16.5433733"><ele>785.0</ele><time>2026-04-18T10:17:04.531Z</time></trkpt><trkpt lat="39.0209683" lon="16.5432667"><ele>787.0</ele><time>2026-04-18T10:17:05.532Z</time></trkpt><trkpt lat="39.0210533" lon="16.54318"><ele>787.6</ele><time>2026-04-18T10:17:06.531Z</time></trkpt><trkpt lat="39.021135" lon="16.5431217"><ele>788.2</ele><time>2026-04-18T10:17:07.53Z</time></trkpt><trkpt lat="39.0212183" lon="16.5431"><ele>788.8</ele><time>2026-04-18T10:17:08.532Z</time></trkpt><trkpt lat="39.021315" lon="16.5431333"><ele>789.4</ele><time>2026-04-18T10:17:09.532Z</time></trkpt><trkpt lat="39.021425" lon="16.5431783"><ele>790.0</ele><time>2026-04-18T10:17:10.533Z</time></trkpt><trkpt lat="39.0215367" lon="16.5432633"><ele>790.0</ele><time>2026-04-18T10:17:11.533Z</time></trkpt><trkpt lat="39.02164" lon="16.5433717"><ele>790.0</ele><time>2026-04-18T10:17:12.531Z</time></trkpt><trkpt lat="39.0217517" lon="16.5434283"><ele>790.0</ele><time>2026-04-18T10:17:13.532Z</time></trkpt><trkpt lat="39.02187" lon="16.5434717"><ele>790.0</ele><time>2026-04-18T10:17:14.531Z</time></trkpt><trkpt lat="39.0219817" lon="16.54355"><ele>791.5</ele><time>2026-04-18T10:17:15.532Z</time></trkpt><trkpt lat="39.0220967" lon="16.5435733"><ele>793.0</ele><time>2026-04-18T10:17:16.533Z</time></trkpt><trkpt lat="39.0222117" lon="16.5435333"><ele>794.5</ele><time>2026-04-18T10:17:17.532Z</time></trkpt><trkpt lat="39.02233" lon="16.5434633"><ele>796.0</ele><time>2026-04-18T10:17:18.531Z</time></trkpt><trkpt lat="39.0224567" lon="16.5434567"><ele>794.0</ele><time>2026-04-18T10:17:19.533Z</time></trkpt><trkpt lat="39.02258" lon="16.5434217"><ele>792.0</ele><time>2026-04-18T10:17:20.534Z</time></trkpt><trkpt lat="39.022695" lon="16.543385"><ele>790.0</ele><time>2026-04-18T10:17:21.531Z</time></trkpt><trkpt lat="39.022805" lon="16.54339"><ele>788.0</ele><time>2026-04-18T10:17:22.531Z</time></trkpt><trkpt lat="39.022905" lon="16.5434583"><ele>788.0</ele><time>2026-04-18T10:17:23.532Z</time></trkpt><trkpt lat="39.0230017" lon="16.5435583"><ele>788.0</ele><time>2026-04-18T10:17:24.531Z</time></trkpt><trkpt lat="39.0230933" lon="16.5436767"><ele>788.0</ele><time>2026-04-18T10:17:25.533Z</time></trkpt><trkpt lat="39.0231867" lon="16.5438267"><ele>788.0</ele><time>2026-04-18T10:17:26.533Z</time></trkpt><trkpt lat="39.023285" lon="16.5439783"><ele>787.5</ele><time>2026-04-18T10:17:27.531Z</time></trkpt><trkpt lat="39.0233933" lon="16.5440917"><ele>787.0</ele><time>2026-04-18T10:17:28.532Z</time></trkpt><trkpt lat="39.0235033" lon="16.5442017"><ele>786.5</ele><time>2026-04-18T10:17:29.53Z</time></trkpt><trkpt lat="39.0236183" lon="16.5442917"><ele>786.0</ele><time>2026-04-18T10:17:30.532Z</time></trkpt><trkpt lat="39.0237433" lon="16.5443567"><ele>786.0</ele><time>2026-04-18T10:17:31.532Z</time></trkpt><trkpt lat="39.0238833" lon="16.54438"><ele>786.0</ele><time>2026-04-18T10:17:32.533Z</time></trkpt><trkpt lat="39.0240217" lon="16.544405"><ele>786.0</ele><time>2026-04-18T10:17:33.533Z</time></trkpt><trkpt lat="39.024165" lon="16.5444367"><ele>786.0</ele><time>2026-04-18T10:17:34.53Z</time></trkpt><trkpt lat="39.024315" lon="16.5444417"><ele>785.5</ele><time>2026-04-18T10:17:35.533Z</time></trkpt><trkpt lat="39.0244683" lon="16.5444417"><ele>785.0</ele><time>2026-04-18T10:17:36.535Z</time></trkpt><trkpt lat="39.0246117" lon="16.544455"><ele>784.5</ele><time>2026-04-18T10:17:37.535Z</time></trkpt><trkpt lat="39.0247467" lon="16.54448"><ele>784.0</ele><time>2026-04-18T10:17:38.534Z</time></trkpt><trkpt lat="39.0248767" lon="16.5445167"><ele>785.0</ele><time>2026-04-18T10:17:39.533Z</time></trkpt><trkpt lat="39.024995" lon="16.5445967"><ele>786.0</ele><time>2026-04-18T10:17:40.532Z</time></trkpt><trkpt lat="39.0251167" lon="16.5446417"><ele>787.0</ele><time>2026-04-18T10:17:41.533Z</time></trkpt><trkpt lat="39.02524" lon="16.5446933"><ele>788.0</ele><time>2026-04-18T10:17:42.536Z</time></trkpt><trkpt lat="39.0253617" lon="16.54474"><ele>788.0</ele><time>2026-04-18T10:17:43.532Z</time></trkpt><trkpt lat="39.0254783" lon="16.5447817"><ele>788.0</ele><time>2026-04-18T10:17:44.531Z</time></trkpt><trkpt lat="39.0255883" lon="16.5447983"><ele>788.0</ele><time>2026-04-18T10:17:45.532Z</time></trkpt><trkpt lat="39.0257017" lon="16.5447967"><ele>788.0</ele><time>2026-04-18T10:17:46.532Z</time></trkpt><trkpt lat="39.025815" lon="16.54478"><ele>787.25</ele><time>2026-04-18T10:17:47.61Z</time></trkpt><trkpt lat="39.02594" lon="16.54475"><ele>786.5</ele><time>2026-04-18T10:17:48.534Z</time></trkpt><trkpt lat="39.0260683" lon="16.544735"><ele>785.75</ele><time>2026-04-18T10:17:49.535Z</time></trkpt><trkpt lat="39.0262017" lon="16.5447433"><ele>785.0</ele><time>2026-04-18T10:17:50.534Z</time></trkpt><trkpt lat="39.0263317" lon="16.54475"><ele>785.0</ele><time>2026-04-18T10:17:51.535Z</time></trkpt><trkpt lat="39.0264467" lon="16.544795"><ele>785.0</ele><time>2026-04-18T10:17:52.532Z</time></trkpt><trkpt lat="39.0265383" lon="16.54489"><ele>785.0</ele><time>2026-04-18T10:17:53.535Z</time></trkpt><trkpt lat="39.0266233" lon="16.54499"><ele>785.0</ele><time>2026-04-18T10:17:54.535Z</time></trkpt><trkpt lat="39.0266867" lon="16.545065"><ele>785.0</ele><time>2026-04-18T10:17:55.534Z</time></trkpt><trkpt lat="39.0267717" lon="16.5451117"><ele>785.3333333333334</ele><time>2026-04-18T10:17:57.537Z</time></trkpt><trkpt lat="39.0268417" lon="16.5450583"><ele>785.6666666666667</ele><time>2026-04-18T10:17:59.532Z</time></trkpt><trkpt lat="39.0268967" lon="16.5450033"><ele>786.0</ele><time>2026-04-18T10:18:01.534Z</time></trkpt><trkpt lat="39.0269167" lon="16.5448917"><ele>786.3333333333333</ele><time>2026-04-18T10:18:03.534Z</time></trkpt><trkpt lat="39.0268933" lon="16.544785"><ele>786.6666666666666</ele><time>2026-04-18T10:18:04.535Z</time></trkpt><trkpt lat="39.0268767" lon="16.5446733"><ele>787.0</ele><time>2026-04-18T10:18:05.532Z</time></trkpt><trkpt lat="39.0268717" lon="16.5445667"><ele>788.6</ele><time>2026-04-18T10:18:06.531Z</time></trkpt><trkpt lat="39.0268683" lon="16.544445"><ele>790.2</ele><time>2026-04-18T10:18:07.533Z</time></trkpt><trkpt lat="39.0268817" lon="16.544315"><ele>791.8</ele><time>2026-04-18T10:18:08.533Z</time></trkpt><trkpt lat="39.0268417" lon="16.544155"><ele>793.4</ele><time>2026-04-18T10:18:09.533Z</time></trkpt><trkpt lat="39.0268233" lon="16.5440117"><ele>795.0</ele><time>2026-04-18T10:18:10.532Z</time></trkpt><trkpt lat="39.0268017" lon="16.5438683"><ele>795.0</ele><time>2026-04-18T10:18:11.534Z</time></trkpt><trkpt lat="39.0268133" lon="16.5437267"><ele>795.0</ele><time>2026-04-18T10:18:12.532Z</time></trkpt><trkpt lat="39.0268833" lon="16.54362"><ele>795.0</ele><time>2026-04-18T10:18:13.532Z</time></trkpt><trkpt lat="39.02695" lon="16.5435033"><ele>795.0</ele><time>2026-04-18T10:18:14.533Z</time></trkpt><trkpt lat="39.02705" lon="16.5434083"><ele>797.75</ele><time>2026-04-18T10:18:15.533Z</time></trkpt><trkpt lat="39.0271683" lon="16.543305"><ele>800.5</ele><time>2026-04-18T10:18:16.535Z</time></trkpt><trkpt lat="39.0272683" lon="16.5431817"><ele>803.25</ele><time>2026-04-18T10:18:17.531Z</time></trkpt><trkpt lat="39.0273617" lon="16.5430367"><ele>806.0</ele><time>2026-04-18T10:18:18.535Z</time></trkpt><trkpt lat="39.0274667" lon="16.5429083"><ele>806.0</ele><time>2026-04-18T10:18:19.536Z</time></trkpt><trkpt lat="39.0275783" lon="16.54279"><ele>806.0</ele><time>2026-04-18T10:18:20.533Z</time></trkpt><trkpt lat="39.02766" lon="16.54267"><ele>806.0</ele><time>2026-04-18T10:18:21.534Z</time></trkpt><trkpt lat="39.02773" lon="16.5425633"><ele>806.0</ele><time>2026-04-18T10:18:22.531Z</time></trkpt><trkpt lat="39.027775" lon="16.542445"><ele>806.0</ele><time>2026-04-18T10:18:23.533Z</time></trkpt><trkpt lat="39.0278333" lon="16.5423483"><ele>806.0</ele><time>2026-04-18T10:18:24.53Z</time></trkpt><trkpt lat="39.0279183" lon="16.5422783"><ele>806.0</ele><time>2026-04-18T10:18:25.532Z</time></trkpt><trkpt lat="39.0280117" lon="16.5422083"><ele>806.0</ele><time>2026-04-18T10:18:26.531Z</time></trkpt><trkpt lat="39.0281183" lon="16.542155"><ele>806.0</ele><time>2026-04-18T10:18:27.535Z</time></trkpt><trkpt lat="39.0282117" lon="16.542105"><ele>806.0000000000001</ele><time>2026-04-18T10:18:28.532Z</time></trkpt><trkpt lat="39.0282933" lon="16.542085"><ele>806.0</ele><time>2026-04-18T10:18:29.532Z</time></trkpt><trkpt lat="39.0283633" lon="16.5421"><ele>806.0</ele><time>2026-04-18T10:18:30.532Z</time></trkpt><trkpt lat="39.0284383" lon="16.542145"><ele>806.0</ele><time>2026-04-18T10:18:32.532Z</time></trkpt><trkpt lat="39.0285033" lon="16.5421667"><ele>806.0000000000001</ele><time>2026-04-18T10:18:34.53Z</time></trkpt><trkpt lat="39.0285833" lon="16.54227"><ele>806.0</ele><time>2026-04-18T10:18:36.534Z</time></trkpt><trkpt lat="39.0286333" lon="16.542335"><ele>809.0</ele><time>2026-04-18T10:18:37.531Z</time></trkpt><trkpt lat="39.0286967" lon="16.5424233"><ele>812.0</ele><time>2026-04-18T10:18:38.532Z</time></trkpt><trkpt lat="39.0287733" lon="16.5425083"><ele>815.0</ele><time>2026-04-18T10:18:39.532Z</time></trkpt><trkpt lat="39.02886" lon="16.542575"><ele>818.0</ele><time>2026-04-18T10:18:40.536Z</time></trkpt><trkpt lat="39.0289467" lon="16.542615"><ele>821.0</ele><time>2026-04-18T10:18:41.531Z</time></trkpt><trkpt lat="39.0290333" lon="16.5425917"><ele>821.0</ele><time>2026-04-18T10:18:42.532Z</time></trkpt><trkpt lat="39.02911" lon="16.5425067"><ele>821.0</ele><time>2026-04-18T10:18:43.532Z</time></trkpt><trkpt lat="39.0291833" lon="16.542375"><ele>821.0</ele><time>2026-04-18T10:18:44.534Z</time></trkpt><trkpt lat="39.0292917" lon="16.5422883"><ele>821.0</ele><time>2026-04-18T10:18:45.535Z</time></trkpt><trkpt lat="39.0293917" lon="16.5421733"><ele>820.0</ele><time>2026-04-18T10:18:46.531Z</time></trkpt><trkpt lat="39.0294667" lon="16.5420533"><ele>819.0</ele><time>2026-04-18T10:18:47.533Z</time></trkpt><trkpt lat="39.0295567" lon="16.5419617"><ele>818.0</ele><time>2026-04-18T10:18:48.531Z</time></trkpt><trkpt lat="39.029665" lon="16.5418967"><ele>817.0</ele><time>2026-04-18T10:18:49.533Z</time></trkpt><trkpt lat="39.0297633" lon="16.5418167"><ele>816.25</ele><time>2026-04-18T10:18:50.531Z</time></trkpt><trkpt lat="39.0298383" lon="16.541705"><ele>815.5</ele><time>2026-04-18T10:18:51.534Z</time></trkpt><trkpt lat="39.029935" lon="16.54161"><ele>814.75</ele><time>2026-04-18T10:18:52.533Z</time></trkpt><trkpt lat="39.0300367" lon="16.5415"><ele>814.0</ele><time>2026-04-18T10:18:53.531Z</time></trkpt><trkpt lat="39.03009" lon="16.54136"><ele>811.0</ele><time>2026-04-18T10:18:54.529Z</time></trkpt><trkpt lat="39.0301033" lon="16.541195"><ele>808.0</ele><time>2026-04-18T10:18:55.533Z</time></trkpt><trkpt lat="39.0301033" lon="16.5410117"><ele>805.0</ele><time>2026-04-18T10:18:56.533Z</time></trkpt><trkpt lat="39.03016" lon="16.5408417"><ele>802.0</ele><time>2026-04-18T10:18:57.531Z</time></trkpt><trkpt lat="39.0302233" lon="16.5406617"><ele>802.0</ele><time>2026-04-18T10:18:58.532Z</time></trkpt><trkpt lat="39.0302883" lon="16.540485"><ele>802.0</ele><time>2026-04-18T10:18:59.53Z</time></trkpt><trkpt lat="39.0302767" lon="16.54031"><ele>802.0</ele><time>2026-04-18T10:19:00.532Z</time></trkpt><trkpt lat="39.0302833" lon="16.5401367"><ele>802.0</ele><time>2026-04-18T10:19:01.531Z</time></trkpt><trkpt lat="39.03038" lon="16.5400367"><ele>798.75</ele><time>2026-04-18T10:19:02.532Z</time></trkpt><trkpt lat="39.0304067" lon="16.5398833"><ele>795.5</ele><time>2026-04-18T10:19:03.531Z</time></trkpt><trkpt lat="39.03049" lon="16.539735"><ele>792.25</ele><time>2026-04-18T10:19:04.531Z</time></trkpt><trkpt lat="39.0305017" lon="16.5395933"><ele>789.0</ele><time>2026-04-18T10:19:05.533Z</time></trkpt><trkpt lat="39.03051" lon="16.539445"><ele>789.0</ele><time>2026-04-18T10:19:06.53Z</time></trkpt><trkpt lat="39.03048" lon="16.5392867"><ele>789.0</ele><time>2026-04-18T10:19:07.531Z</time></trkpt><trkpt lat="39.030465" lon="16.5391367"><ele>789.0</ele><time>2026-04-18T10:19:08.532Z</time></trkpt><trkpt lat="39.030475" lon="16.5389783"><ele>789.0</ele><time>2026-04-18T10:19:09.533Z</time></trkpt><trkpt lat="39.0304883" lon="16.5388133"><ele>787.25</ele><time>2026-04-18T10:19:10.531Z</time></trkpt><trkpt lat="39.0305217" lon="16.5386567"><ele>785.5</ele><time>2026-04-18T10:19:11.534Z</time></trkpt><trkpt lat="39.0305767" lon="16.53852"><ele>783.75</ele><time>2026-04-18T10:19:12.53Z</time></trkpt><trkpt lat="39.0306367" lon="16.53839"><ele>782.0</ele><time>2026-04-18T10:19:13.532Z</time></trkpt><trkpt lat="39.0307067" lon="16.5382767"><ele>782.0</ele><time>2026-04-18T10:19:14.533Z</time></trkpt><trkpt lat="39.0307883" lon="16.5381933"><ele>782.0</ele><time>2026-04-18T10:19:15.532Z</time></trkpt><trkpt lat="39.0308767" lon="16.538145"><ele>782.0</ele><time>2026-04-18T10:19:16.53Z</time></trkpt><trkpt lat="39.030975" lon="16.53816"><ele>782.0</ele><time>2026-04-18T10:19:17.533Z</time></trkpt><trkpt lat="39.0310683" lon="16.5382067"><ele>782.0</ele><time>2026-04-18T10:19:18.533Z</time></trkpt><trkpt lat="39.0311517" lon="16.5382883"><ele>787.25</ele><time>2026-04-18T10:19:19.53Z</time></trkpt><trkpt lat="39.0312433" lon="16.5383917"><ele>792.5</ele><time>2026-04-18T10:19:20.533Z</time></trkpt><trkpt lat="39.0313483" lon="16.5384717"><ele>797.75</ele><time>2026-04-18T10:19:21.534Z</time></trkpt><trkpt lat="39.031445" lon="16.53856"><ele>803.0</ele><time>2026-04-18T10:19:22.533Z</time></trkpt><trkpt lat="39.0315383" lon="16.53865"><ele>803.0</ele><time>2026-04-18T10:19:23.532Z</time></trkpt><trkpt lat="39.0316367" lon="16.5386967"><ele>803.0</ele><time>2026-04-18T10:19:24.531Z</time></trkpt><trkpt lat="39.0317467" lon="16.5387033"><ele>803.0</ele><time>2026-04-18T10:19:25.534Z</time></trkpt><trkpt lat="39.0318667" lon="16.5386817"><ele>803.0</ele><time>2026-04-18T10:19:26.529Z</time></trkpt><trkpt lat="39.0319867" lon="16.5387133"><ele>802.5</ele><time>2026-04-18T10:19:27.532Z</time></trkpt><trkpt lat="39.0321117" lon="16.5387267"><ele>802.0</ele><time>2026-04-18T10:19:28.532Z</time></trkpt><trkpt lat="39.0322317" lon="16.5387467"><ele>801.5</ele><time>2026-04-18T10:19:29.531Z</time></trkpt><trkpt lat="39.032335" lon="16.53872"><ele>801.0</ele><time>2026-04-18T10:19:30.53Z</time></trkpt><trkpt lat="39.032435" lon="16.538665"><ele>803.1666666666666</ele><time>2026-04-18T10:19:31.531Z</time></trkpt><trkpt lat="39.03253" lon="16.5386017"><ele>805.3333333333333</ele><time>2026-04-18T10:19:32.53Z</time></trkpt><trkpt lat="39.0326217" lon="16.5385667"><ele>807.5</ele><time>2026-04-18T10:19:33.53Z</time></trkpt><trkpt lat="39.0327017" lon="16.5385383"><ele>809.6666666666666</ele><time>2026-04-18T10:19:34.533Z</time></trkpt><trkpt lat="39.032755" lon="16.538475"><ele>811.8333333333333</ele><time>2026-04-18T10:19:35.528Z</time></trkpt><trkpt lat="39.032775" lon="16.5383967"><ele>814.0</ele><time>2026-04-18T10:19:36.532Z</time></trkpt><trkpt lat="39.03272" lon="16.5382567"><ele>814.0</ele><time>2026-04-18T10:19:38.531Z</time></trkpt><trkpt lat="39.03265" lon="16.5381867"><ele>814.0</ele><time>2026-04-18T10:19:39.531Z</time></trkpt><trkpt lat="39.0325583" lon="16.5381433"><ele>814.0</ele><time>2026-04-18T10:19:40.531Z</time></trkpt><trkpt lat="39.03247" lon="16.5380917"><ele>814.0</ele><time>2026-04-18T10:19:41.53Z</time></trkpt><trkpt lat="39.0323883" lon="16.538"><ele>814.0</ele><time>2026-04-18T10:19:42.529Z</time></trkpt><trkpt lat="39.0323067" lon="16.5379183"><ele>809.2</ele><time>2026-04-18T10:19:43.53Z</time></trkpt><trkpt lat="39.0322383" lon="16.5378133"><ele>804.4000000000001</ele><time>2026-04-18T10:19:44.533Z</time></trkpt><trkpt lat="39.0321933" lon="16.5376833"><ele>799.6</ele><time>2026-04-18T10:19:45.53Z</time></trkpt><trkpt lat="39.03218" lon="16.5375383"><ele>794.8</ele><time>2026-04-18T10:19:46.532Z</time></trkpt><trkpt lat="39.032155" lon="16.5374017"><ele>790.0</ele><time>2026-04-18T10:19:47.533Z</time></trkpt><trkpt lat="39.032135" lon="16.537255"><ele>790.0</ele><time>2026-04-18T10:19:48.531Z</time></trkpt><trkpt lat="39.0321267" lon="16.5371033"><ele>790.0</ele><time>2026-04-18T10:19:49.533Z</time></trkpt><trkpt lat="39.0320933" lon="16.53697"><ele>790.0</ele><time>2026-04-18T10:19:50.532Z</time></trkpt><trkpt lat="39.0320533" lon="16.5368367"><ele>790.0</ele><time>2026-04-18T10:19:51.531Z</time></trkpt><trkpt lat="39.031975" lon="16.5367233"><ele>792.0</ele><time>2026-04-18T10:19:52.533Z</time></trkpt><trkpt lat="39.03194" lon="16.5365767"><ele>794.0</ele><time>2026-04-18T10:19:53.534Z</time></trkpt><trkpt lat="39.0319067" lon="16.5364183"><ele>796.0</ele><time>2026-04-18T10:19:54.53Z</time></trkpt><trkpt lat="39.03187" lon="16.5362617"><ele>798.0</ele><time>2026-04-18T10:19:55.535Z</time></trkpt><trkpt lat="39.0318233" lon="16.5361133"><ele>799.25</ele><time>2026-04-18T10:19:56.529Z</time></trkpt><trkpt lat="39.0317417" lon="16.53598"><ele>800.5</ele><time>2026-04-18T10:19:57.531Z</time></trkpt><trkpt lat="39.031685" lon="16.53584"><ele>801.75</ele><time>2026-04-18T10:19:58.531Z</time></trkpt><trkpt lat="39.0316517" lon="16.5356983"><ele>803.0</ele><time>2026-04-18T10:19:59.533Z</time></trkpt><trkpt lat="39.0316267" lon="16.5355633"><ele>802.2</ele><time>2026-04-18T10:20:00.532Z</time></trkpt><trkpt lat="39.03163" lon="16.5354283"><ele>801.4</ele><time>2026-04-18T10:20:01.533Z</time></trkpt><trkpt lat="39.0316583" lon="16.5353083"><ele>800.6</ele><time>2026-04-18T10:20:02.534Z</time></trkpt><trkpt lat="39.03169" lon="16.535195"><ele>799.8000000000001</ele><time>2026-04-18T10:20:03.532Z</time></trkpt><trkpt lat="39.031725" lon="16.53507"><ele>799.0</ele><time>2026-04-18T10:20:04.531Z</time></trkpt><trkpt lat="39.0317817" lon="16.5349467"><ele>799.0</ele><time>2026-04-18T10:20:05.531Z</time></trkpt><trkpt lat="39.0318283" lon="16.5348083"><ele>799.0</ele><time>2026-04-18T10:20:06.531Z</time></trkpt><trkpt lat="39.0318417" lon="16.53465"><ele>799.0</ele><time>2026-04-18T10:20:07.53Z</time></trkpt><trkpt lat="39.0318983" lon="16.5345267"><ele>799.0</ele><time>2026-04-18T10:20:08.531Z</time></trkpt><trkpt lat="39.03196" lon="16.5343983"><ele>794.0</ele><time>2026-04-18T10:20:09.534Z</time></trkpt><trkpt lat="39.0320267" lon="16.5342683"><ele>789.0</ele><time>2026-04-18T10:20:10.53Z</time></trkpt><trkpt lat="39.032095" lon="16.5341383"><ele>784.0</ele><time>2026-04-18T10:20:11.531Z</time></trkpt><trkpt lat="39.032165" lon="16.5339967"><ele>779.0</ele><time>2026-04-18T10:20:12.531Z</time></trkpt><trkpt lat="39.032235" lon="16.5338583"><ele>780.2</ele><time>2026-04-18T10:20:13.609Z</time></trkpt><trkpt lat="39.0322817" lon="16.533705"><ele>781.4000000000001</ele><time>2026-04-18T10:20:14.534Z</time></trkpt><trkpt lat="39.0323333" lon="16.5335833"><ele>782.6</ele><time>2026-04-18T10:20:15.531Z</time></trkpt><trkpt lat="39.0323917" lon="16.533475"><ele>783.8</ele><time>2026-04-18T10:20:16.531Z</time></trkpt><trkpt lat="39.0324717" lon="16.5334117"><ele>785.0</ele><time>2026-04-18T10:20:17.533Z</time></trkpt><trkpt lat="39.0325733" lon="16.5333917"><ele>785.0000000000001</ele><time>2026-04-18T10:20:18.531Z</time></trkpt><trkpt lat="39.03265" lon="16.5333633"><ele>785.0</ele><time>2026-04-18T10:20:19.531Z</time></trkpt><trkpt lat="39.0326983" lon="16.5332267"><ele>785.0</ele><time>2026-04-18T10:20:21.533Z</time></trkpt><trkpt lat="39.0326667" lon="16.53315"><ele>785.0</ele><time>2026-04-18T10:20:22.533Z</time></trkpt><trkpt lat="39.032595" lon="16.5331"><ele>785.0000000000001</ele><time>2026-04-18T10:20:23.531Z</time></trkpt><trkpt lat="39.0325117" lon="16.533075"><ele>785.0</ele><time>2026-04-18T10:20:24.531Z</time></trkpt><trkpt lat="39.0324283" lon="16.53306"><ele>779.4</ele><time>2026-04-18T10:20:25.613Z</time></trkpt><trkpt lat="39.0323383" lon="16.53308"><ele>773.8</ele><time>2026-04-18T10:20:26.532Z</time></trkpt><trkpt lat="39.0322483" lon="16.5331483"><ele>768.2</ele><time>2026-04-18T10:20:27.532Z</time></trkpt><trkpt lat="39.03217" lon="16.5332717"><ele>762.6</ele><time>2026-04-18T10:20:28.532Z</time></trkpt><trkpt lat="39.0320967" lon="16.5333833"><ele>757.0</ele><time>2026-04-18T10:20:29.533Z</time></trkpt><trkpt lat="39.0319933" lon="16.5334517"><ele>757.0</ele><time>2026-04-18T10:20:30.532Z</time></trkpt><trkpt lat="39.0318867" lon="16.533525"><ele>757.0</ele><time>2026-04-18T10:20:31.533Z</time></trkpt><trkpt lat="39.0317867" lon="16.5336067"><ele>757.0</ele><time>2026-04-18T10:20:32.533Z</time></trkpt><trkpt lat="39.0316783" lon="16.5336867"><ele>757.0</ele><time>2026-04-18T10:20:33.533Z</time></trkpt><trkpt lat="39.031575" lon="16.533785"><ele>756.25</ele><time>2026-04-18T10:20:34.533Z</time></trkpt><trkpt lat="39.0314683" lon="16.5338833"><ele>755.5</ele><time>2026-04-18T10:20:35.61Z</time></trkpt><trkpt lat="39.03135" lon="16.53396"><ele>754.75</ele><time>2026-04-18T10:20:36.533Z</time></trkpt><trkpt lat="39.03122" lon="16.5340117"><ele>754.0</ele><time>2026-04-18T10:20:37.532Z</time></trkpt><trkpt lat="39.0310917" lon="16.534065"><ele>754.0</ele><time>2026-04-18T10:20:38.533Z</time></trkpt><trkpt lat="39.0309617" lon="16.5340917"><ele>754.0</ele><time>2026-04-18T10:20:39.532Z</time></trkpt><trkpt lat="39.0308383" lon="16.5341183"><ele>754.0</ele><time>2026-04-18T10:20:40.532Z</time></trkpt><trkpt lat="39.0307417" lon="16.5341633"><ele>754.0</ele><time>2026-04-18T10:20:41.533Z</time></trkpt><trkpt lat="39.0306667" lon="16.5342433"><ele>749.5</ele><time>2026-04-18T10:20:42.533Z</time></trkpt><trkpt lat="39.0306067" lon="16.534315"><ele>745.0</ele><time>2026-04-18T10:20:43.533Z</time></trkpt><trkpt lat="39.0305533" lon="16.5343633"><ele>740.5</ele><time>2026-04-18T10:20:44.531Z</time></trkpt><trkpt lat="39.0304583" lon="16.53434"><ele>736.0</ele><time>2026-04-18T10:20:46.53Z</time></trkpt><trkpt lat="39.0304667" lon="16.5341967"><ele>731.5</ele><time>2026-04-18T10:20:48.531Z</time></trkpt><trkpt lat="39.0305033" lon="16.5341267"><ele>727.0</ele><time>2026-04-18T10:20:49.532Z</time></trkpt><trkpt lat="39.03057" lon="16.5340617"><ele>727.0</ele><time>2026-04-18T10:20:50.534Z</time></trkpt><trkpt lat="39.0306417" lon="16.5339983"><ele>727.0</ele><time>2026-04-18T10:20:51.53Z</time></trkpt><trkpt lat="39.0307217" lon="16.533945"><ele>727.0</ele><time>2026-04-18T10:20:52.531Z</time></trkpt><trkpt lat="39.0307833" lon="16.5338833"><ele>727.0</ele><time>2026-04-18T10:20:53.533Z</time></trkpt><trkpt lat="39.0308333" lon="16.5338267"><ele>727.0</ele><time>2026-04-18T10:20:54.531Z</time></trkpt><trkpt lat="39.030815" lon="16.53371"><ele>727.0</ele><time>2026-04-18T10:20:56.532Z</time></trkpt><trkpt lat="39.0306783" lon="16.5337567"><ele>727.0</ele><time>2026-04-18T10:20:58.529Z</time></trkpt><trkpt lat="39.0306017" lon="16.5338333"><ele>727.0</ele><time>2026-04-18T10:20:59.534Z</time></trkpt><trkpt lat="39.0305" lon="16.5338367"><ele>727.0</ele><time>2026-04-18T10:21:00.535Z</time></trkpt><trkpt lat="39.0303867" lon="16.5338833"><ele>727.0</ele><time>2026-04-18T10:21:01.53Z</time></trkpt><trkpt lat="39.0302817" lon="16.5339667"><ele>727.0</ele><time>2026-04-18T10:21:02.53Z</time></trkpt><trkpt lat="39.03019" lon="16.5340783"><ele>727.0</ele><time>2026-04-18T10:21:03.532Z</time></trkpt><trkpt lat="39.03008" lon="16.534155"><ele>727.0</ele><time>2026-04-18T10:21:04.534Z</time></trkpt><trkpt lat="39.0300233" lon="16.534265"><ele>727.0</ele><time>2026-04-18T10:21:05.532Z</time></trkpt><trkpt lat="39.029995" lon="16.5343833"><ele>727.0</ele><time>2026-04-18T10:21:06.531Z</time></trkpt><trkpt lat="39.0300067" lon="16.5345017"><ele>727.0</ele><time>2026-04-18T10:21:07.533Z</time></trkpt><trkpt lat="39.0300017" lon="16.534595"><ele>722.2</ele><time>2026-04-18T10:21:08.531Z</time></trkpt><trkpt lat="39.029935" lon="16.534675"><ele>717.4000000000001</ele><time>2026-04-18T10:21:10.532Z</time></trkpt><trkpt lat="39.0298533" lon="16.5345567"><ele>712.5999999999999</ele><time>2026-04-18T10:21:12.53Z</time></trkpt><trkpt lat="39.029835" lon="16.5344417"><ele>707.8</ele><time>2026-04-18T10:21:13.534Z</time></trkpt><trkpt lat="39.0297983" lon="16.5343283"><ele>703.0</ele><time>2026-04-18T10:21:14.531Z</time></trkpt><trkpt lat="39.0297567" lon="16.5342033"><ele>703.0</ele><time>2026-04-18T10:21:15.536Z</time></trkpt><trkpt lat="39.02974" lon="16.5340717"><ele>703.0</ele><time>2026-04-18T10:21:16.532Z</time></trkpt><trkpt lat="39.02974" lon="16.5339583"><ele>703.0</ele><time>2026-04-18T10:21:17.53Z</time></trkpt><trkpt lat="39.029775" lon="16.5338733"><ele>703.0</ele><time>2026-04-18T10:21:18.532Z</time></trkpt><trkpt lat="39.029845" lon="16.53382"><ele>703.0</ele><time>2026-04-18T10:21:19.532Z</time></trkpt><trkpt lat="39.029935" lon="16.5337833"><ele>703.0</ele><time>2026-04-18T10:21:20.532Z</time></trkpt><trkpt lat="39.0300183" lon="16.5337117"><ele>703.75</ele><time>2026-04-18T10:21:21.532Z</time></trkpt><trkpt lat="39.030135" lon="16.5336417"><ele>704.5</ele><time>2026-04-18T10:21:22.531Z</time></trkpt><trkpt lat="39.03025" lon="16.533545"><ele>705.25</ele><time>2026-04-18T10:21:23.533Z</time></trkpt><trkpt lat="39.0303733" lon="16.533445"><ele>706.0</ele><time>2026-04-18T10:21:24.531Z</time></trkpt><trkpt lat="39.030495" lon="16.5333367"><ele>706.0</ele><time>2026-04-18T10:21:25.53Z</time></trkpt><trkpt lat="39.0306033" lon="16.533225"><ele>706.0</ele><time>2026-04-18T10:21:26.531Z</time></trkpt><trkpt lat="39.030715" lon="16.5331433"><ele>706.0</ele><time>2026-04-18T10:21:27.533Z</time></trkpt><trkpt lat="39.0308017" lon="16.5330317"><ele>706.0</ele><time>2026-04-18T10:21:28.53Z</time></trkpt><trkpt lat="39.0308817" lon="16.5329083"><ele>706.5</ele><time>2026-04-18T10:21:29.533Z</time></trkpt><trkpt lat="39.0309317" lon="16.532745"><ele>707.0</ele><time>2026-04-18T10:21:30.531Z</time></trkpt><trkpt lat="39.030985" lon="16.532565"><ele>707.5</ele><time>2026-04-18T10:21:31.533Z</time></trkpt><trkpt lat="39.03109" lon="16.532415"><ele>708.0</ele><time>2026-04-18T10:21:32.53Z</time></trkpt><trkpt lat="39.0311667" lon="16.532265"><ele>708.0</ele><time>2026-04-18T10:21:33.533Z</time></trkpt><trkpt lat="39.0312217" lon="16.5321217"><ele>708.0</ele><time>2026-04-18T10:21:34.53Z</time></trkpt><trkpt lat="39.0312683" lon="16.53198"><ele>708.0</ele><time>2026-04-18T10:21:35.531Z</time></trkpt><trkpt lat="39.0313317" lon="16.531865"><ele>708.0</ele><time>2026-04-18T10:21:36.53Z</time></trkpt><trkpt lat="39.0314033" lon="16.5317633"><ele>709.2</ele><time>2026-04-18T10:21:37.531Z</time></trkpt><trkpt lat="39.031495" lon="16.531705"><ele>710.4</ele><time>2026-04-18T10:21:38.53Z</time></trkpt><trkpt lat="39.0316083" lon="16.5316817"><ele>711.6</ele><time>2026-04-18T10:21:39.532Z</time></trkpt><trkpt lat="39.031695" lon="16.531615"><ele>712.8000000000001</ele><time>2026-04-18T10:21:40.53Z</time></trkpt><trkpt lat="39.0317433" lon="16.5315"><ele>714.0</ele><time>2026-04-18T10:21:41.531Z</time></trkpt><trkpt lat="39.03177" lon="16.53137"><ele>714.0</ele><time>2026-04-18T10:21:42.531Z</time></trkpt><trkpt lat="39.0318217" lon="16.5312767"><ele>714.0</ele><time>2026-04-18T10:21:43.53Z</time></trkpt><trkpt lat="39.031885" lon="16.531205"><ele>714.0</ele><time>2026-04-18T10:21:44.533Z</time></trkpt><trkpt lat="39.031955" lon="16.5311683"><ele>714.0</ele><time>2026-04-18T10:21:45.532Z</time></trkpt><trkpt lat="39.0320317" lon="16.5311367"><ele>714.0</ele><time>2026-04-18T10:21:46.533Z</time></trkpt><trkpt lat="39.032105" lon="16.5310933"><ele>714.0</ele><time>2026-04-18T10:21:47.533Z</time></trkpt><trkpt lat="39.03218" lon="16.5310533"><ele>708.4000000000001</ele><time>2026-04-18T10:21:48.534Z</time></trkpt><trkpt lat="39.0322567" lon="16.531"><ele>702.8</ele><time>2026-04-18T10:21:49.531Z</time></trkpt><trkpt lat="39.032325" lon="16.53092"><ele>697.2</ele><time>2026-04-18T10:21:50.534Z</time></trkpt><trkpt lat="39.0323683" lon="16.53081"><ele>691.5999999999999</ele><time>2026-04-18T10:21:51.532Z</time></trkpt><trkpt lat="39.0323967" lon="16.5306933"><ele>686.0</ele><time>2026-04-18T10:21:52.532Z</time></trkpt><trkpt lat="39.0324017" lon="16.5305667"><ele>686.0</ele><time>2026-04-18T10:21:53.531Z</time></trkpt><trkpt lat="39.032385" lon="16.53043"><ele>686.0</ele><time>2026-04-18T10:21:54.534Z</time></trkpt><trkpt lat="39.032355" lon="16.530285"><ele>686.0</ele><time>2026-04-18T10:21:55.532Z</time></trkpt><trkpt lat="39.0323417" lon="16.53015"><ele>686.0</ele><time>2026-04-18T10:21:56.532Z</time></trkpt><trkpt lat="39.0323467" lon="16.5300267"><ele>686.0</ele><time>2026-04-18T10:21:57.534Z</time></trkpt><trkpt lat="39.0323783" lon="16.5299067"><ele>686.8</ele><time>2026-04-18T10:21:58.533Z</time></trkpt><trkpt lat="39.032435" lon="16.5297883"><ele>687.5999999999999</ele><time>2026-04-18T10:21:59.534Z</time></trkpt><trkpt lat="39.03247" lon="16.5296533"><ele>688.4</ele><time>2026-04-18T10:22:00.532Z</time></trkpt><trkpt lat="39.0324933" lon="16.529505"><ele>689.2</ele><time>2026-04-18T10:22:01.53Z</time></trkpt><trkpt lat="39.0325567" lon="16.529385"><ele>690.0</ele><time>2026-04-18T10:22:02.531Z</time></trkpt><trkpt lat="39.0326367" lon="16.5292833"><ele>690.0</ele><time>2026-04-18T10:22:03.533Z</time></trkpt><trkpt lat="39.0327183" lon="16.5291883"><ele>690.0</ele><time>2026-04-18T10:22:04.532Z</time></trkpt><trkpt lat="39.0327583" lon="16.529075"><ele>690.0</ele><time>2026-04-18T10:22:05.535Z</time></trkpt><trkpt lat="39.03279" lon="16.5289517"><ele>690.0</ele><time>2026-04-18T10:22:06.531Z</time></trkpt><trkpt lat="39.0328033" lon="16.5288267"><ele>690.0</ele><time>2026-04-18T10:22:07.533Z</time></trkpt><trkpt lat="39.032795" lon="16.52869"><ele>687.75</ele><time>2026-04-18T10:22:08.531Z</time></trkpt><trkpt lat="39.0327733" lon="16.528545"><ele>685.5</ele><time>2026-04-18T10:22:09.531Z</time></trkpt><trkpt lat="39.0327633" lon="16.52839"><ele>683.25</ele><time>2026-04-18T10:22:10.53Z</time></trkpt><trkpt lat="39.0327467" lon="16.52823"><ele>681.0</ele><time>2026-04-18T10:22:11.531Z</time></trkpt><trkpt lat="39.03275" lon="16.5280767"><ele>681.0</ele><time>2026-04-18T10:22:12.53Z</time></trkpt><trkpt lat="39.0327933" lon="16.5279133"><ele>681.0</ele><time>2026-04-18T10:22:13.534Z</time></trkpt><trkpt lat="39.03282" lon="16.5277433"><ele>681.0</ele><time>2026-04-18T10:22:14.533Z</time></trkpt><trkpt lat="39.0328417" lon="16.527555"><ele>681.0</ele><time>2026-04-18T10:22:15.532Z</time></trkpt><trkpt lat="39.0328533" lon="16.5273317"><ele>681.75</ele><time>2026-04-18T10:22:16.531Z</time></trkpt><trkpt lat="39.032935" lon="16.527175"><ele>682.5</ele><time>2026-04-18T10:22:17.534Z</time></trkpt><trkpt lat="39.0329533" lon="16.527"><ele>683.25</ele><time>2026-04-18T10:22:18.531Z</time></trkpt><trkpt lat="39.033005" lon="16.5268733"><ele>684.0</ele><time>2026-04-18T10:22:19.533Z</time></trkpt><trkpt lat="39.03305" lon="16.5267567"><ele>688.0</ele><time>2026-04-18T10:22:20.531Z</time></trkpt><trkpt lat="39.033045" lon="16.5266617"><ele>692.0</ele><time>2026-04-18T10:22:21.615Z</time></trkpt><trkpt lat="39.0329533" lon="16.5265883"><ele>696.0</ele><time>2026-04-18T10:22:23.53Z</time></trkpt><trkpt lat="39.0328667" lon="16.526605"><ele>700.0</ele><time>2026-04-18T10:22:24.531Z</time></trkpt><trkpt lat="39.0327683" lon="16.5266283"><ele>704.0</ele><time>2026-04-18T10:22:25.533Z</time></trkpt><trkpt lat="39.032675" lon="16.5266867"><ele>704.0</ele><time>2026-04-18T10:22:26.531Z</time></trkpt><trkpt lat="39.0325767" lon="16.5267467"><ele>704.0</ele><time>2026-04-18T10:22:27.532Z</time></trkpt><trkpt lat="39.0325067" lon="16.5268517"><ele>704.0</ele><time>2026-04-18T10:22:28.533Z</time></trkpt><trkpt lat="39.0324283" lon="16.5269283"><ele>704.0</ele><time>2026-04-18T10:22:29.53Z</time></trkpt><trkpt lat="39.0323467" lon="16.5269683"><ele>704.0</ele><time>2026-04-18T10:22:30.53Z</time></trkpt><trkpt lat="39.0322533" lon="16.52696"><ele>704.5</ele><time>2026-04-18T10:22:31.532Z</time></trkpt><trkpt lat="39.03216" lon="16.5269067"><ele>705.0</ele><time>2026-04-18T10:22:32.531Z</time></trkpt><trkpt lat="39.0320817" lon="16.5268483"><ele>705.5</ele><time>2026-04-18T10:22:33.532Z</time></trkpt><trkpt lat="39.032015" lon="16.5268517"><ele>706.0</ele><time>2026-04-18T10:22:34.533Z</time></trkpt><trkpt lat="39.0319467" lon="16.5269617"><ele>706.5</ele><time>2026-04-18T10:22:36.532Z</time></trkpt><trkpt lat="39.0319617" lon="16.5270617"><ele>707.0</ele><time>2026-04-18T10:22:37.531Z</time></trkpt><trkpt lat="39.0319683" lon="16.5271567"><ele>707.0</ele><time>2026-04-18T10:22:38.529Z</time></trkpt><trkpt lat="39.031965" lon="16.5272567"><ele>707.0</ele><time>2026-04-18T10:22:39.532Z</time></trkpt><trkpt lat="39.031945" lon="16.5273683"><ele>707.0</ele><time>2026-04-18T10:22:40.531Z</time></trkpt><trkpt lat="39.031885" lon="16.5274533"><ele>707.0</ele><time>2026-04-18T10:22:41.532Z</time></trkpt><trkpt lat="39.0318017" lon="16.5275017"><ele>707.0</ele><time>2026-04-18T10:22:42.531Z</time></trkpt><trkpt lat="39.0317117" lon="16.5275033"><ele>707.0</ele><time>2026-04-18T10:22:43.531Z</time></trkpt><trkpt lat="39.031615" lon="16.5274833"><ele>713.0</ele><time>2026-04-18T10:22:44.532Z</time></trkpt><trkpt lat="39.0315217" lon="16.5274917"><ele>719.0</ele><time>2026-04-18T10:22:45.531Z</time></trkpt><trkpt lat="39.0314367" lon="16.5275317"><ele>725.0</ele><time>2026-04-18T10:22:46.53Z</time></trkpt><trkpt lat="39.0313983" lon="16.5276517"><ele>731.0</ele><time>2026-04-18T10:22:47.531Z</time></trkpt><trkpt lat="39.031365" lon="16.5277783"><ele>737.0</ele><time>2026-04-18T10:22:48.532Z</time></trkpt><trkpt lat="39.0313217" lon="16.5279083"><ele>737.0</ele><time>2026-04-18T10:22:49.531Z</time></trkpt><trkpt lat="39.0312833" lon="16.5280483"><ele>737.0</ele><time>2026-04-18T10:22:50.532Z</time></trkpt><trkpt lat="39.0312617" lon="16.5281983"><ele>737.0</ele><time>2026-04-18T10:22:51.532Z</time></trkpt><trkpt lat="39.03123" lon="16.528345"><ele>737.0</ele><time>2026-04-18T10:22:52.53Z</time></trkpt><trkpt lat="39.0312117" lon="16.5284917"><ele>737.0</ele><time>2026-04-18T10:22:53.531Z</time></trkpt><trkpt lat="39.03121" lon="16.52862"><ele>737.0</ele><time>2026-04-18T10:22:54.538Z</time></trkpt><trkpt lat="39.0311783" lon="16.5287117"><ele>737.0</ele><time>2026-04-18T10:22:55.534Z</time></trkpt><trkpt lat="39.0311217" lon="16.528765"><ele>737.0</ele><time>2026-04-18T10:22:56.532Z</time></trkpt><trkpt lat="39.0310417" lon="16.5287767"><ele>737.0</ele><time>2026-04-18T10:22:57.534Z</time></trkpt><trkpt lat="39.03094" lon="16.528725"><ele>737.0</ele><time>2026-04-18T10:22:58.533Z</time></trkpt><trkpt lat="39.030845" lon="16.5286917"><ele>741.4000000000001</ele><time>2026-04-18T10:22:59.534Z</time></trkpt><trkpt lat="39.0307433" lon="16.5286767"><ele>745.8000000000001</ele><time>2026-04-18T10:23:00.535Z</time></trkpt><trkpt lat="39.0306267" lon="16.5286433"><ele>750.2</ele><time>2026-04-18T10:23:01.53Z</time></trkpt><trkpt lat="39.03051" lon="16.5286333"><ele>754.6</ele><time>2026-04-18T10:23:02.533Z</time></trkpt><trkpt lat="39.030405" lon="16.528635"><ele>759.0</ele><time>2026-04-18T10:23:03.615Z</time></trkpt><trkpt lat="39.03032" lon="16.5287033"><ele>752.6</ele><time>2026-04-18T10:23:04.532Z</time></trkpt><trkpt lat="39.0302533" lon="16.5288367"><ele>746.2</ele><time>2026-04-18T10:23:05.532Z</time></trkpt><trkpt lat="39.03019" lon="16.528935"><ele>739.8000000000001</ele><time>2026-04-18T10:23:06.53Z</time></trkpt><trkpt lat="39.030105" lon="16.5289967"><ele>733.4000000000001</ele><time>2026-04-18T10:23:07.533Z</time></trkpt><trkpt lat="39.0299917" lon="16.5290233"><ele>727.0</ele><time>2026-04-18T10:23:08.533Z</time></trkpt><trkpt lat="39.0298817" lon="16.5290767"><ele>727.0</ele><time>2026-04-18T10:23:09.534Z</time></trkpt><trkpt lat="39.0297533" lon="16.52911"><ele>727.0</ele><time>2026-04-18T10:23:10.532Z</time></trkpt><trkpt lat="39.0296333" lon="16.5291283"><ele>727.0</ele><time>2026-04-18T10:23:11.533Z</time></trkpt><trkpt lat="39.0295283" lon="16.5291233"><ele>727.0</ele><time>2026-04-18T10:23:12.532Z</time></trkpt><trkpt lat="39.029435" lon="16.52907"><ele>727.0</ele><time>2026-04-18T10:23:13.535Z</time></trkpt><trkpt lat="39.0293317" lon="16.5289717"><ele>727.0</ele><time>2026-04-18T10:23:14.535Z</time></trkpt><trkpt lat="39.0292333" lon="16.528945"><ele>727.0</ele><time>2026-04-18T10:23:15.532Z</time></trkpt><trkpt lat="39.02913" lon="16.52894"><ele>727.0</ele><time>2026-04-18T10:23:16.535Z</time></trkpt><trkpt lat="39.029025" lon="16.5289717"><ele>727.0</ele><time>2026-04-18T10:23:17.531Z</time></trkpt><trkpt lat="39.0289117" lon="16.5289517"><ele>727.0</ele><time>2026-04-18T10:23:18.535Z</time></trkpt><trkpt lat="39.0287883" lon="16.5289267"><ele>727.0</ele><time>2026-04-18T10:23:19.534Z</time></trkpt><trkpt lat="39.02867" lon="16.5289167"><ele>727.0</ele><time>2026-04-18T10:23:20.535Z</time></trkpt><trkpt lat="39.0285567" lon="16.5288717"><ele>727.0</ele><time>2026-04-18T10:23:21.537Z</time></trkpt><trkpt lat="39.0284683" lon="16.5287583"><ele>732.0</ele><time>2026-04-18T10:23:22.534Z</time></trkpt><trkpt lat="39.0283733" lon="16.5286533"><ele>737.0</ele><time>2026-04-18T10:23:23.531Z</time></trkpt><trkpt lat="39.028265" lon="16.528575"><ele>742.0</ele><time>2026-04-18T10:23:24.53Z</time></trkpt><trkpt lat="39.0281483" lon="16.528505"><ele>747.0</ele><time>2026-04-18T10:23:25.53Z</time></trkpt><trkpt lat="39.0280367" lon="16.5284467"><ele>747.25</ele><time>2026-04-18T10:23:26.532Z</time></trkpt><trkpt lat="39.0279617" lon="16.5283533"><ele>747.5</ele><time>2026-04-18T10:23:27.53Z</time></trkpt><trkpt lat="39.0279233" lon="16.5282333"><ele>747.75</ele><time>2026-04-18T10:23:28.535Z</time></trkpt><trkpt lat="39.02791" lon="16.5280817"><ele>748.0</ele><time>2026-04-18T10:23:29.536Z</time></trkpt><trkpt lat="39.0279183" lon="16.52792"><ele>750.25</ele><time>2026-04-18T10:23:30.537Z</time></trkpt><trkpt lat="39.0279117" lon="16.5277483"><ele>752.5</ele><time>2026-04-18T10:23:31.535Z</time></trkpt><trkpt lat="39.02793" lon="16.527585"><ele>754.75</ele><time>2026-04-18T10:23:32.529Z</time></trkpt><trkpt lat="39.0279467" lon="16.5274383"><ele>757.0</ele><time>2026-04-18T10:23:33.53Z</time></trkpt><trkpt lat="39.02797" lon="16.527315"><ele>757.0</ele><time>2026-04-18T10:23:34.531Z</time></trkpt><trkpt lat="39.0279617" lon="16.5272133"><ele>757.0</ele><time>2026-04-18T10:23:35.535Z</time></trkpt><trkpt lat="39.0279183" lon="16.5271333"><ele>757.0</ele><time>2026-04-18T10:23:36.609Z</time></trkpt><trkpt lat="39.02784" lon="16.5270967"><ele>757.0</ele><time>2026-04-18T10:23:37.531Z</time></trkpt><trkpt lat="39.0277533" lon="16.52711"><ele>757.0</ele><time>2026-04-18T10:23:38.531Z</time></trkpt><trkpt lat="39.0276783" lon="16.52716"><ele>757.0</ele><time>2026-04-18T10:23:39.531Z</time></trkpt><trkpt lat="39.027615" lon="16.5272617"><ele>757.0</ele><time>2026-04-18T10:23:40.531Z</time></trkpt><trkpt lat="39.0275667" lon="16.52738"><ele>757.0</ele><time>2026-04-18T10:23:41.53Z</time></trkpt><trkpt lat="39.0275117" lon="16.5275133"><ele>757.0</ele><time>2026-04-18T10:23:42.532Z</time></trkpt><trkpt lat="39.0274367" lon="16.52766"><ele>757.0</ele><time>2026-04-18T10:23:43.536Z</time></trkpt><trkpt lat="39.02735" lon="16.5278"><ele>762.25</ele><time>2026-04-18T10:23:44.533Z</time></trkpt><trkpt lat="39.0273167" lon="16.52796"><ele>767.5</ele><time>2026-04-18T10:23:45.533Z</time></trkpt><trkpt lat="39.0273017" lon="16.5281267"><ele>772.75</ele><time>2026-04-18T10:23:46.532Z</time></trkpt><trkpt lat="39.0272517" lon="16.528285"><ele>778.0</ele><time>2026-04-18T10:23:47.532Z</time></trkpt><trkpt lat="39.0272333" lon="16.5284467"><ele>778.0</ele><time>2026-04-18T10:23:48.535Z</time></trkpt><trkpt lat="39.0272333" lon="16.5286033"><ele>778.0</ele><time>2026-04-18T10:23:49.534Z</time></trkpt><trkpt lat="39.0271967" lon="16.5287133"><ele>778.0</ele><time>2026-04-18T10:23:50.534Z</time></trkpt><trkpt lat="39.0271333" lon="16.52877"><ele>778.0</ele><time>2026-04-18T10:23:51.531Z</time></trkpt><trkpt lat="39.0270483" lon="16.528785"><ele>778.0</ele><time>2026-04-18T10:23:52.532Z</time></trkpt><trkpt lat="39.0269583" lon="16.5288017"><ele>778.25</ele><time>2026-04-18T10:23:53.533Z</time></trkpt><trkpt lat="39.0268383" lon="16.5287867"><ele>778.5</ele><time>2026-04-18T10:23:54.532Z</time></trkpt><trkpt lat="39.0267267" lon="16.52877"><ele>778.75</ele><time>2026-04-18T10:23:55.534Z</time></trkpt><trkpt lat="39.0266133" lon="16.528735"><ele>779.0</ele><time>2026-04-18T10:23:56.531Z</time></trkpt><trkpt lat="39.0264367" lon="16.5286983"><ele>779.0</ele><time>2026-04-18T10:23:57.533Z</time></trkpt><trkpt lat="39.0263283" lon="16.528655"><ele>779.0</ele><time>2026-04-18T10:23:58.532Z</time></trkpt><trkpt lat="39.02623" lon="16.5286183"><ele>779.0</ele><time>2026-04-18T10:23:59.531Z</time></trkpt><trkpt lat="39.0261383" lon="16.5285433"><ele>779.0</ele><time>2026-04-18T10:24:00.53Z</time></trkpt><trkpt lat="39.0260517" lon="16.528445"><ele>779.0</ele><time>2026-04-18T10:24:01.53Z</time></trkpt><trkpt lat="39.025975" lon="16.5283517"><ele>779.0</ele><time>2026-04-18T10:24:02.531Z</time></trkpt><trkpt lat="39.0259533" lon="16.528215"><ele>779.0</ele><time>2026-04-18T10:24:03.532Z</time></trkpt><trkpt lat="39.0258317" lon="16.5282383"><ele>779.0</ele><time>2026-04-18T10:24:04.532Z</time></trkpt><trkpt lat="39.025765" lon="16.5282383"><ele>779.0</ele><time>2026-04-18T10:24:05.532Z</time></trkpt><trkpt lat="39.02572" lon="16.5282983"><ele>779.0</ele><time>2026-04-18T10:24:06.53Z</time></trkpt><trkpt lat="39.02561" lon="16.528375"><ele>781.2</ele><time>2026-04-18T10:24:07.533Z</time></trkpt><trkpt lat="39.02553" lon="16.528375"><ele>783.4000000000001</ele><time>2026-04-18T10:24:08.531Z</time></trkpt><trkpt lat="39.0254433" lon="16.528385"><ele>785.6</ele><time>2026-04-18T10:24:09.532Z</time></trkpt><trkpt lat="39.0253183" lon="16.52835"><ele>787.8</ele><time>2026-04-18T10:24:10.529Z</time></trkpt><trkpt lat="39.025195" lon="16.52837"><ele>790.0</ele><time>2026-04-18T10:24:11.533Z</time></trkpt><trkpt lat="39.0250917" lon="16.5283433"><ele>789.9999999999999</ele><time>2026-04-18T10:24:12.532Z</time></trkpt><trkpt lat="39.0249967" lon="16.5283333"><ele>790.0</ele><time>2026-04-18T10:24:13.531Z</time></trkpt><trkpt lat="39.0249183" lon="16.5283117"><ele>790.0</ele><time>2026-04-18T10:24:14.532Z</time></trkpt><trkpt lat="39.0248583" lon="16.5282617"><ele>790.0</ele><time>2026-04-18T10:24:15.533Z</time></trkpt><trkpt lat="39.024815" lon="16.528155"><ele>789.9999999999999</ele><time>2026-04-18T10:24:16.532Z</time></trkpt><trkpt lat="39.0247567" lon="16.5280667"><ele>790.0</ele><time>2026-04-18T10:24:17.531Z</time></trkpt><trkpt lat="39.0246917" lon="16.527965"><ele>788.0</ele><time>2026-04-18T10:24:18.532Z</time></trkpt><trkpt lat="39.0246233" lon="16.527825"><ele>786.0</ele><time>2026-04-18T10:24:19.534Z</time></trkpt><trkpt lat="39.0245567" lon="16.52769"><ele>784.0</ele><time>2026-04-18T10:24:20.535Z</time></trkpt><trkpt lat="39.0244883" lon="16.5275533"><ele>782.0</ele><time>2026-04-18T10:24:21.532Z</time></trkpt><trkpt lat="39.0244167" lon="16.5274183"><ele>782.0</ele><time>2026-04-18T10:24:22.532Z</time></trkpt><trkpt lat="39.0243417" lon="16.5273033"><ele>782.0</ele><time>2026-04-18T10:24:23.532Z</time></trkpt><trkpt lat="39.0242783" lon="16.5272"><ele>782.0</ele><time>2026-04-18T10:24:24.532Z</time></trkpt><trkpt lat="39.02424" lon="16.5271033"><ele>782.0</ele><time>2026-04-18T10:24:25.538Z</time></trkpt><trkpt lat="39.0242317" lon="16.5270033"><ele>782.0</ele><time>2026-04-18T10:24:26.533Z</time></trkpt><trkpt lat="39.0242433" lon="16.5268967"><ele>781.75</ele><time>2026-04-18T10:24:27.534Z</time></trkpt><trkpt lat="39.0242833" lon="16.52678"><ele>781.5</ele><time>2026-04-18T10:24:28.531Z</time></trkpt><trkpt lat="39.02434" lon="16.526655"><ele>781.25</ele><time>2026-04-18T10:24:29.532Z</time></trkpt><trkpt lat="39.0244117" lon="16.526535"><ele>781.0</ele><time>2026-04-18T10:24:30.535Z</time></trkpt><trkpt lat="39.0245133" lon="16.5264333"><ele>781.0</ele><time>2026-04-18T10:24:31.531Z</time></trkpt><trkpt lat="39.0246217" lon="16.5263417"><ele>781.0</ele><time>2026-04-18T10:24:32.536Z</time></trkpt><trkpt lat="39.0247183" lon="16.5262583"><ele>781.0</ele><time>2026-04-18T10:24:33.531Z</time></trkpt><trkpt lat="39.0247867" lon="16.5261783"><ele>781.0</ele><time>2026-04-18T10:24:34.531Z</time></trkpt><trkpt lat="39.024805" lon="16.5260767"><ele>781.0</ele><time>2026-04-18T10:24:35.532Z</time></trkpt><trkpt lat="39.0247867" lon="16.5259667"><ele>780.5</ele><time>2026-04-18T10:24:36.529Z</time></trkpt><trkpt lat="39.0247233" lon="16.5258267"><ele>780.0</ele><time>2026-04-18T10:24:37.53Z</time></trkpt><trkpt lat="39.0246833" lon="16.525675"><ele>779.5</ele><time>2026-04-18T10:24:38.532Z</time></trkpt><trkpt lat="39.0246583" lon="16.52549"><ele>779.0</ele><time>2026-04-18T10:24:39.531Z</time></trkpt><trkpt lat="39.0246167" lon="16.5253083"><ele>779.0</ele><time>2026-04-18T10:24:40.53Z</time></trkpt><trkpt lat="39.02456" lon="16.525135"><ele>779.0</ele><time>2026-04-18T10:24:41.529Z</time></trkpt><trkpt lat="39.0245233" lon="16.5249767"><ele>779.0</ele><time>2026-04-18T10:24:42.53Z</time></trkpt><trkpt lat="39.0245083" lon="16.5248317"><ele>779.0</ele><time>2026-04-18T10:24:43.531Z</time></trkpt><trkpt lat="39.0245217" lon="16.5246983"><ele>779.0</ele><time>2026-04-18T10:24:44.531Z</time></trkpt><trkpt lat="39.02459" lon="16.5245817"><ele>779.0</ele><time>2026-04-18T10:24:45.532Z</time></trkpt><trkpt lat="39.0246533" lon="16.5244633"><ele>779.0</ele><time>2026-04-18T10:24:46.531Z</time></trkpt><trkpt lat="39.0247067" lon="16.5243483"><ele>779.0</ele><time>2026-04-18T10:24:47.532Z</time></trkpt><trkpt lat="39.0247533" lon="16.5242367"><ele>779.0</ele><time>2026-04-18T10:24:48.53Z</time></trkpt><trkpt lat="39.02481" lon="16.5241433"><ele>778.8333333333334</ele><time>2026-04-18T10:24:49.53Z</time></trkpt><trkpt lat="39.0248933" lon="16.5241017"><ele>778.6666666666667</ele><time>2026-04-18T10:24:50.532Z</time></trkpt><trkpt lat="39.0249783" lon="16.524065"><ele>778.5</ele><time>2026-04-18T10:24:51.533Z</time></trkpt><trkpt lat="39.02505" lon="16.5240183"><ele>778.3333333333333</ele><time>2026-04-18T10:24:52.536Z</time></trkpt><trkpt lat="39.025095" lon="16.5239383"><ele>778.1666666666666</ele><time>2026-04-18T10:24:53.531Z</time></trkpt><trkpt lat="39.0251133" lon="16.523835"><ele>778.0</ele><time>2026-04-18T10:24:54.533Z</time></trkpt><trkpt lat="39.025125" lon="16.523715"><ele>781.1666666666666</ele><time>2026-04-18T10:24:55.534Z</time></trkpt><trkpt lat="39.0251583" lon="16.5235983"><ele>784.3333333333333</ele><time>2026-04-18T10:24:56.534Z</time></trkpt><trkpt lat="39.0251867" lon="16.5234867"><ele>787.5</ele><time>2026-04-18T10:24:57.533Z</time></trkpt><trkpt lat="39.0252333" lon="16.5234017"><ele>790.6666666666667</ele><time>2026-04-18T10:24:58.614Z</time></trkpt><trkpt lat="39.0252517" lon="16.5233167"><ele>793.8333333333334</ele><time>2026-04-18T10:24:59.532Z</time></trkpt><trkpt lat="39.025235" lon="16.5231833"><ele>797.0</ele><time>2026-04-18T10:25:01.53Z</time></trkpt><trkpt lat="39.0251783" lon="16.52314"><ele>797.0000000000001</ele><time>2026-04-18T10:25:02.533Z</time></trkpt><trkpt lat="39.025105" lon="16.5231117"><ele>797.0</ele><time>2026-04-18T10:25:03.534Z</time></trkpt><trkpt lat="39.0250217" lon="16.5230767"><ele>797.0</ele><time>2026-04-18T10:25:04.532Z</time></trkpt><trkpt lat="39.0249483" lon="16.5230167"><ele>797.0</ele><time>2026-04-18T10:25:05.533Z</time></trkpt><trkpt lat="39.0249033" lon="16.52292"><ele>797.0000000000001</ele><time>2026-04-18T10:25:06.532Z</time></trkpt><trkpt lat="39.0248817" lon="16.5228033"><ele>797.0</ele><time>2026-04-18T10:25:07.531Z</time></trkpt><trkpt lat="39.0248683" lon="16.5226817"><ele>795.4000000000001</ele><time>2026-04-18T10:25:08.535Z</time></trkpt><trkpt lat="39.0248883" lon="16.5225483"><ele>793.8000000000001</ele><time>2026-04-18T10:25:09.531Z</time></trkpt><trkpt lat="39.0249217" lon="16.522405"><ele>792.2</ele><time>2026-04-18T10:25:10.529Z</time></trkpt><trkpt lat="39.024945" lon="16.52226"><ele>790.6</ele><time>2026-04-18T10:25:11.531Z</time></trkpt><trkpt lat="39.0249633" lon="16.5221283"><ele>789.0</ele><time>2026-04-18T10:25:12.53Z</time></trkpt><trkpt lat="39.0249833" lon="16.5220067"><ele>792.3333333333334</ele><time>2026-04-18T10:25:13.533Z</time></trkpt><trkpt lat="39.0250017" lon="16.5218967"><ele>795.6666666666667</ele><time>2026-04-18T10:25:14.529Z</time></trkpt><trkpt lat="39.025025" lon="16.521805"><ele>799.0</ele><time>2026-04-18T10:25:15.533Z</time></trkpt><trkpt lat="39.0250433" lon="16.5216817"><ele>802.3333333333334</ele><time>2026-04-18T10:25:17.532Z</time></trkpt><trkpt lat="39.025065" lon="16.5215867"><ele>805.6666666666667</ele><time>2026-04-18T10:25:21.532Z</time></trkpt><trkpt lat="39.02509" lon="16.5214867"><ele>809.0</ele><time>2026-04-18T10:25:23.531Z</time></trkpt><trkpt lat="39.0251167" lon="16.52134"><ele>809.0000000000001</ele><time>2026-04-18T10:25:25.532Z</time></trkpt><trkpt lat="39.0251117" lon="16.5212383"><ele>809.0</ele><time>2026-04-18T10:25:26.53Z</time></trkpt><trkpt lat="39.0250817" lon="16.5211333"><ele>809.0</ele><time>2026-04-18T10:25:27.533Z</time></trkpt><trkpt lat="39.025045" lon="16.52103"><ele>809.0</ele><time>2026-04-18T10:25:28.533Z</time></trkpt><trkpt lat="39.024995" lon="16.5209367"><ele>809.0000000000001</ele><time>2026-04-18T10:25:29.531Z</time></trkpt><trkpt lat="39.0249383" lon="16.5208383"><ele>809.0</ele><time>2026-04-18T10:25:30.533Z</time></trkpt><trkpt lat="39.0248767" lon="16.5207333"><ele>808.8000000000001</ele><time>2026-04-18T10:25:31.53Z</time></trkpt><trkpt lat="39.02479" lon="16.5206583"><ele>808.6</ele><time>2026-04-18T10:25:32.531Z</time></trkpt><trkpt lat="39.0247033" lon="16.5205867"><ele>808.4</ele><time>2026-04-18T10:25:33.537Z</time></trkpt><trkpt lat="39.02462" lon="16.52053"><ele>808.2</ele><time>2026-04-18T10:25:34.533Z</time></trkpt><trkpt lat="39.0245583" lon="16.520455"><ele>808.0</ele><time>2026-04-18T10:25:35.531Z</time></trkpt><trkpt lat="39.0245217" lon="16.5203617"><ele>808.0</ele><time>2026-04-18T10:25:36.532Z</time></trkpt><trkpt lat="39.0245033" lon="16.5202517"><ele>808.0</ele><time>2026-04-18T10:25:37.532Z</time></trkpt><trkpt lat="39.0245067" lon="16.520135"><ele>808.0</ele><time>2026-04-18T10:25:38.532Z</time></trkpt><trkpt lat="39.0245033" lon="16.5200083"><ele>808.0</ele><time>2026-04-18T10:25:39.533Z</time></trkpt><trkpt lat="39.0245217" lon="16.5198767"><ele>808.0</ele><time>2026-04-18T10:25:40.533Z</time></trkpt><trkpt lat="39.0245317" lon="16.51975"><ele>808.0</ele><time>2026-04-18T10:25:41.533Z</time></trkpt><trkpt lat="39.0245417" lon="16.51963"><ele>808.0</ele><time>2026-04-18T10:25:42.534Z</time></trkpt><trkpt lat="39.0245717" lon="16.5195217"><ele>808.0</ele><time>2026-04-18T10:25:43.532Z</time></trkpt><trkpt lat="39.0246283" lon="16.519425"><ele>808.0</ele><time>2026-04-18T10:25:44.532Z</time></trkpt><trkpt lat="39.0247233" lon="16.51935"><ele>808.0</ele><time>2026-04-18T10:25:45.532Z</time></trkpt><trkpt lat="39.0248117" lon="16.5192583"><ele>807.25</ele><time>2026-04-18T10:25:46.532Z</time></trkpt><trkpt lat="39.024905" lon="16.5191633"><ele>806.5</ele><time>2026-04-18T10:25:47.532Z</time></trkpt><trkpt lat="39.025005" lon="16.5190683"><ele>805.75</ele><time>2026-04-18T10:25:48.531Z</time></trkpt><trkpt lat="39.02511" lon="16.5189733"><ele>805.0</ele><time>2026-04-18T10:25:49.531Z</time></trkpt><trkpt lat="39.0252083" lon="16.5188767"><ele>807.4</ele><time>2026-04-18T10:25:50.53Z</time></trkpt><trkpt lat="39.0253017" lon="16.5187967"><ele>809.8</ele><time>2026-04-18T10:25:51.535Z</time></trkpt><trkpt lat="39.0253667" lon="16.51871"><ele>812.2</ele><time>2026-04-18T10:25:52.531Z</time></trkpt><trkpt lat="39.025395" lon="16.5186133"><ele>814.6</ele><time>2026-04-18T10:25:53.531Z</time></trkpt><trkpt lat="39.0253817" lon="16.5185083"><ele>817.0</ele><time>2026-04-18T10:25:54.529Z</time></trkpt><trkpt lat="39.025315" lon="16.5184133"><ele>817.0</ele><time>2026-04-18T10:25:55.531Z</time></trkpt><trkpt lat="39.025225" lon="16.518325"><ele>817.0</ele><time>2026-04-18T10:25:56.532Z</time></trkpt><trkpt lat="39.02517" lon="16.51823"><ele>817.0</ele><time>2026-04-18T10:25:57.533Z</time></trkpt><trkpt lat="39.0251067" lon="16.51812"><ele>817.0</ele><time>2026-04-18T10:25:58.531Z</time></trkpt><trkpt lat="39.02505" lon="16.5179983"><ele>817.0</ele><time>2026-04-18T10:25:59.532Z</time></trkpt><trkpt lat="39.0250167" lon="16.51787"><ele>817.75</ele><time>2026-04-18T10:26:00.53Z</time></trkpt><trkpt lat="39.025015" lon="16.5177383"><ele>818.5</ele><time>2026-04-18T10:26:01.531Z</time></trkpt><trkpt lat="39.0250367" lon="16.5176033"><ele>819.25</ele><time>2026-04-18T10:26:02.538Z</time></trkpt><trkpt lat="39.0250883" lon="16.51747"><ele>820.0</ele><time>2026-04-18T10:26:03.53Z</time></trkpt><trkpt lat="39.025125" lon="16.5173167"><ele>820.0</ele><time>2026-04-18T10:26:04.532Z</time></trkpt><trkpt lat="39.0251567" lon="16.5171633"><ele>820.0</ele><time>2026-04-18T10:26:05.531Z</time></trkpt><trkpt lat="39.0252383" lon="16.5170383"><ele>820.0</ele><time>2026-04-18T10:26:06.531Z</time></trkpt><trkpt lat="39.0252417" lon="16.51692"><ele>820.0</ele><time>2026-04-18T10:26:07.53Z</time></trkpt><trkpt lat="39.0252183" lon="16.5168167"><ele>820.0</ele><time>2026-04-18T10:26:08.531Z</time></trkpt><trkpt lat="39.0251783" lon="16.5167217"><ele>822.0</ele><time>2026-04-18T10:26:09.532Z</time></trkpt><trkpt lat="39.0251017" lon="16.5166583"><ele>824.0</ele><time>2026-04-18T10:26:10.532Z</time></trkpt><trkpt lat="39.0250083" lon="16.51664"><ele>826.0</ele><time>2026-04-18T10:26:11.531Z</time></trkpt><trkpt lat="39.0249083" lon="16.5166817"><ele>828.0</ele><time>2026-04-18T10:26:12.533Z</time></trkpt><trkpt lat="39.0247967" lon="16.5167217"><ele>830.0</ele><time>2026-04-18T10:26:13.532Z</time></trkpt><trkpt lat="39.0246617" lon="16.51675"><ele>830.0</ele><time>2026-04-18T10:26:14.531Z</time></trkpt><trkpt lat="39.0245567" lon="16.5168183"><ele>830.0</ele><time>2026-04-18T10:26:15.531Z</time></trkpt><trkpt lat="39.0244467" lon="16.5168583"><ele>830.0</ele><time>2026-04-18T10:26:16.532Z</time></trkpt><trkpt lat="39.02435" lon="16.5168733"><ele>830.0</ele><time>2026-04-18T10:26:17.532Z</time></trkpt><trkpt lat="39.0242583" lon="16.51683"><ele>830.0</ele><time>2026-04-18T10:26:18.531Z</time></trkpt><trkpt lat="39.0241733" lon="16.51676"><ele>832.5</ele><time>2026-04-18T10:26:19.531Z</time></trkpt><trkpt lat="39.0240833" lon="16.5166467"><ele>835.0</ele><time>2026-04-18T10:26:20.531Z</time></trkpt><trkpt lat="39.0239817" lon="16.5165517"><ele>837.5</ele><time>2026-04-18T10:26:21.533Z</time></trkpt><trkpt lat="39.0239067" lon="16.5164467"><ele>840.0</ele><time>2026-04-18T10:26:22.533Z</time></trkpt><trkpt lat="39.0238367" lon="16.5163667"><ele>840.0</ele><time>2026-04-18T10:26:23.531Z</time></trkpt><trkpt lat="39.02376" lon="16.5163317"><ele>840.0</ele><time>2026-04-18T10:26:24.532Z</time></trkpt><trkpt lat="39.0236933" lon="16.51635"><ele>840.0</ele><time>2026-04-18T10:26:25.532Z</time></trkpt><trkpt lat="39.0236433" lon="16.51643"><ele>840.0</ele><time>2026-04-18T10:26:26.531Z</time></trkpt><trkpt lat="39.02363" lon="16.5165367"><ele>840.0</ele><time>2026-04-18T10:26:27.538Z</time></trkpt><trkpt lat="39.0236567" lon="16.5166667"><ele>840.0</ele><time>2026-04-18T10:26:28.533Z</time></trkpt><trkpt lat="39.023605" lon="16.5167817"><ele>840.0</ele><time>2026-04-18T10:26:30.533Z</time></trkpt><trkpt lat="39.0235167" lon="16.51673"><ele>840.0</ele><time>2026-04-18T10:26:32.536Z</time></trkpt><trkpt lat="39.02345" lon="16.5165483"><ele>840.0</ele><time>2026-04-18T10:26:34.532Z</time></trkpt><trkpt lat="39.0234183" lon="16.516435"><ele>840.0</ele><time>2026-04-18T10:26:35.531Z</time></trkpt><trkpt lat="39.0233717" lon="16.5163267"><ele>840.0</ele><time>2026-04-18T10:26:36.53Z</time></trkpt><trkpt lat="39.02331" lon="16.5162167"><ele>841.6</ele><time>2026-04-18T10:26:37.534Z</time></trkpt><trkpt lat="39.0232233" lon="16.5161217"><ele>843.2</ele><time>2026-04-18T10:26:38.532Z</time></trkpt><trkpt lat="39.02316" lon="16.5160167"><ele>844.8</ele><time>2026-04-18T10:26:39.534Z</time></trkpt><trkpt lat="39.0231183" lon="16.51591"><ele>846.4</ele><time>2026-04-18T10:26:40.531Z</time></trkpt><trkpt lat="39.0231167" lon="16.5157967"><ele>848.0</ele><time>2026-04-18T10:26:41.532Z</time></trkpt><trkpt lat="39.02319" lon="16.5156967"><ele>848.0000000000001</ele><time>2026-04-18T10:26:42.532Z</time></trkpt><trkpt lat="39.0232417" lon="16.5156083"><ele>848.0</ele><time>2026-04-18T10:26:43.533Z</time></trkpt><trkpt lat="39.0232617" lon="16.5155"><ele>848.0</ele><time>2026-04-18T10:26:44.532Z</time></trkpt><trkpt lat="39.0232817" lon="16.5154033"><ele>848.0</ele><time>2026-04-18T10:26:45.535Z</time></trkpt><trkpt lat="39.0233067" lon="16.5152483"><ele>848.0000000000001</ele><time>2026-04-18T10:26:47.531Z</time></trkpt><trkpt lat="39.0233433" lon="16.5151733"><ele>848.0</ele><time>2026-04-18T10:26:48.531Z</time></trkpt><trkpt lat="39.0233867" lon="16.5150867"><ele>849.0</ele><time>2026-04-18T10:26:49.531Z</time></trkpt><trkpt lat="39.0234533" lon="16.5149867"><ele>850.0</ele><time>2026-04-18T10:26:50.532Z</time></trkpt><trkpt lat="39.0235267" lon="16.5148717"><ele>851.0</ele><time>2026-04-18T10:26:51.534Z</time></trkpt><trkpt lat="39.0235967" lon="16.51474"><ele>852.0</ele><time>2026-04-18T10:26:52.531Z</time></trkpt><trkpt lat="39.023655" lon="16.5145933"><ele>851.25</ele><time>2026-04-18T10:26:53.531Z</time></trkpt><trkpt lat="39.0237167" lon="16.5144583"><ele>850.5</ele><time>2026-04-18T10:26:54.532Z</time></trkpt><trkpt lat="39.0237833" lon="16.5143267"><ele>849.75</ele><time>2026-04-18T10:26:55.532Z</time></trkpt><trkpt lat="39.0238483" lon="16.51419"><ele>849.0</ele><time>2026-04-18T10:26:56.536Z</time></trkpt><trkpt lat="39.0238883" lon="16.5140433"><ele>849.0</ele><time>2026-04-18T10:26:57.533Z</time></trkpt><trkpt lat="39.0239233" lon="16.5138883"><ele>849.0</ele><time>2026-04-18T10:26:58.533Z</time></trkpt><trkpt lat="39.0239867" lon="16.5137667"><ele>849.0</ele><time>2026-04-18T10:26:59.532Z</time></trkpt><trkpt lat="39.0240683" lon="16.5136533"><ele>849.0</ele><time>2026-04-18T10:27:00.532Z</time></trkpt><trkpt lat="39.0241617" lon="16.513565"><ele>852.0</ele><time>2026-04-18T10:27:01.531Z</time></trkpt><trkpt lat="39.0242667" lon="16.513495"><ele>855.0</ele><time>2026-04-18T10:27:02.531Z</time></trkpt><trkpt lat="39.02439" lon="16.5134517"><ele>858.0</ele><time>2026-04-18T10:27:03.531Z</time></trkpt><trkpt lat="39.02451" lon="16.5133933"><ele>861.0</ele><time>2026-04-18T10:27:04.532Z</time></trkpt><trkpt lat="39.0246217" lon="16.513305"><ele>861.0</ele><time>2026-04-18T10:27:05.533Z</time></trkpt><trkpt lat="39.02474" lon="16.5132233"><ele>861.0</ele><time>2026-04-18T10:27:06.53Z</time></trkpt><trkpt lat="39.0248583" lon="16.5131333"><ele>861.0</ele><time>2026-04-18T10:27:07.534Z</time></trkpt><trkpt lat="39.0249833" lon="16.5130733"><ele>861.0</ele><time>2026-04-18T10:27:08.53Z</time></trkpt><trkpt lat="39.0251" lon="16.5130983"><ele>862.25</ele><time>2026-04-18T10:27:09.53Z</time></trkpt><trkpt lat="39.0252183" lon="16.5131467"><ele>863.5</ele><time>2026-04-18T10:27:10.531Z</time></trkpt><trkpt lat="39.0253217" lon="16.513075"><ele>864.75</ele><time>2026-04-18T10:27:11.531Z</time></trkpt><trkpt lat="39.0254317" lon="16.5131117"><ele>866.0</ele><time>2026-04-18T10:27:12.532Z</time></trkpt><trkpt lat="39.025525" lon="16.513155"><ele>866.0000000000001</ele><time>2026-04-18T10:27:13.535Z</time></trkpt><trkpt lat="39.025605" lon="16.5131583"><ele>866.0</ele><time>2026-04-18T10:27:14.535Z</time></trkpt><trkpt lat="39.0256617" lon="16.513115"><ele>866.0</ele><time>2026-04-18T10:27:15.535Z</time></trkpt><trkpt lat="39.025685" lon="16.513025"><ele>866.0</ele><time>2026-04-18T10:27:16.531Z</time></trkpt><trkpt lat="39.025685" lon="16.51292"><ele>866.0000000000001</ele><time>2026-04-18T10:27:17.53Z</time></trkpt><trkpt lat="39.025695" lon="16.51281"><ele>866.0</ele><time>2026-04-18T10:27:18.53Z</time></trkpt><trkpt lat="39.02571" lon="16.5126783"><ele>866.5999999999999</ele><time>2026-04-18T10:27:19.536Z</time></trkpt><trkpt lat="39.0257417" lon="16.5125417"><ele>867.1999999999999</ele><time>2026-04-18T10:27:20.531Z</time></trkpt><trkpt lat="39.0257667" lon="16.512395"><ele>867.8000000000001</ele><time>2026-04-18T10:27:21.531Z</time></trkpt><trkpt lat="39.02578" lon="16.5122617"><ele>868.4000000000001</ele><time>2026-04-18T10:27:22.53Z</time></trkpt><trkpt lat="39.0257417" lon="16.5121467"><ele>869.0</ele><time>2026-04-18T10:27:23.531Z</time></trkpt><trkpt lat="39.0256717" lon="16.5120483"><ele>871.0</ele><time>2026-04-18T10:27:24.535Z</time></trkpt><trkpt lat="39.02559" lon="16.5119617"><ele>873.0000000000001</ele><time>2026-04-18T10:27:25.531Z</time></trkpt><trkpt lat="39.0255567" lon="16.5118633"><ele>875.0000000000001</ele><time>2026-04-18T10:27:26.536Z</time></trkpt><trkpt lat="39.0255533" lon="16.5117617"><ele>877.0</ele><time>2026-04-18T10:27:27.534Z</time></trkpt><trkpt lat="39.025605" lon="16.5116733"><ele>879.0</ele><time>2026-04-18T10:27:28.53Z</time></trkpt><trkpt lat="39.0256867" lon="16.5116067"><ele>879.0</ele><time>2026-04-18T10:27:29.535Z</time></trkpt><trkpt lat="39.0257833" lon="16.51151"><ele>879.0</ele><time>2026-04-18T10:27:30.532Z</time></trkpt><trkpt lat="39.0259083" lon="16.511415"><ele>879.0</ele><time>2026-04-18T10:27:31.531Z</time></trkpt><trkpt lat="39.0260467" lon="16.5113133"><ele>879.0</ele><time>2026-04-18T10:27:32.531Z</time></trkpt><trkpt lat="39.0261867" lon="16.5112117"><ele>880.5</ele><time>2026-04-18T10:27:33.534Z</time></trkpt><trkpt lat="39.02632" lon="16.5111167"><ele>882.0</ele><time>2026-04-18T10:27:34.533Z</time></trkpt><trkpt lat="39.0264217" lon="16.5110167"><ele>883.5</ele><time>2026-04-18T10:27:35.531Z</time></trkpt><trkpt lat="39.0265133" lon="16.510925"><ele>885.0</ele><time>2026-04-18T10:27:36.532Z</time></trkpt><trkpt lat="39.0266117" lon="16.5108533"><ele>888.4</ele><time>2026-04-18T10:27:37.53Z</time></trkpt><trkpt lat="39.0267217" lon="16.510855"><ele>891.8</ele><time>2026-04-18T10:27:38.533Z</time></trkpt><trkpt lat="39.0268183" lon="16.510875"><ele>895.2</ele><time>2026-04-18T10:27:39.533Z</time></trkpt><trkpt lat="39.0269117" lon="16.5109067"><ele>898.6</ele><time>2026-04-18T10:27:40.531Z</time></trkpt><trkpt lat="39.0269683" lon="16.5109917"><ele>902.0</ele><time>2026-04-18T10:27:41.533Z</time></trkpt><trkpt lat="39.0269833" lon="16.5111067"><ele>903.6</ele><time>2026-04-18T10:27:42.53Z</time></trkpt><trkpt lat="39.026965" lon="16.511265"><ele>905.2</ele><time>2026-04-18T10:27:43.532Z</time></trkpt><trkpt lat="39.0270067" lon="16.5113633"><ele>906.8</ele><time>2026-04-18T10:27:44.535Z</time></trkpt><trkpt lat="39.0270483" lon="16.5114817"><ele>908.4</ele><time>2026-04-18T10:27:45.534Z</time></trkpt><trkpt lat="39.0270983" lon="16.51158"><ele>910.0</ele><time>2026-04-18T10:27:46.532Z</time></trkpt><trkpt lat="39.0271883" lon="16.5117117"><ele>910.0</ele><time>2026-04-18T10:27:47.532Z</time></trkpt><trkpt lat="39.0273083" lon="16.51184"><ele>910.0</ele><time>2026-04-18T10:27:48.531Z</time></trkpt><trkpt lat="39.0273883" lon="16.5120133"><ele>910.0</ele><time>2026-04-18T10:27:49.532Z</time></trkpt><trkpt lat="39.0274917" lon="16.512125"><ele>910.0</ele><time>2026-04-18T10:27:50.532Z</time></trkpt><trkpt lat="39.02758" lon="16.51223"><ele>913.25</ele><time>2026-04-18T10:27:51.535Z</time></trkpt><trkpt lat="39.027695" lon="16.5123117"><ele>916.5</ele><time>2026-04-18T10:27:52.531Z</time></trkpt><trkpt lat="39.0278183" lon="16.512365"><ele>919.75</ele><time>2026-04-18T10:27:53.532Z</time></trkpt><trkpt lat="39.0279417" lon="16.512435"><ele>923.0</ele><time>2026-04-18T10:27:54.534Z</time></trkpt><trkpt lat="39.0280683" lon="16.5125267"><ele>923.0</ele><time>2026-04-18T10:27:55.535Z</time></trkpt><trkpt lat="39.028205" lon="16.51261"><ele>923.0</ele><time>2026-04-18T10:27:56.535Z</time></trkpt><trkpt lat="39.02835" lon="16.5126417"><ele>923.0</ele><time>2026-04-18T10:27:57.532Z</time></trkpt><trkpt lat="39.0285033" lon="16.5126583"><ele>922.5</ele><time>2026-04-18T10:27:58.534Z</time></trkpt><trkpt lat="39.0286517" lon="16.5126683"><ele>922.0</ele><time>2026-04-18T10:27:59.533Z</time></trkpt><trkpt lat="39.02879" lon="16.5126567"><ele>921.5</ele><time>2026-04-18T10:28:00.535Z</time></trkpt><trkpt lat="39.02893" lon="16.5126483"><ele>921.0</ele><time>2026-04-18T10:28:01.533Z</time></trkpt><trkpt lat="39.029065" lon="16.5125917"><ele>922.3333333333333</ele><time>2026-04-18T10:28:02.533Z</time></trkpt><trkpt lat="39.0292117" lon="16.5125467"><ele>923.6666666666666</ele><time>2026-04-18T10:28:03.534Z</time></trkpt><trkpt lat="39.02936" lon="16.51249"><ele>925.0</ele><time>2026-04-18T10:28:04.531Z</time></trkpt><trkpt lat="39.0295133" lon="16.5124217"><ele>925.0</ele><time>2026-04-18T10:28:05.531Z</time></trkpt><trkpt lat="39.0296733" lon="16.51238"><ele>925.0</ele><time>2026-04-18T10:28:06.535Z</time></trkpt><trkpt lat="39.02982" lon="16.5122967"><ele>925.0</ele><time>2026-04-18T10:28:07.531Z</time></trkpt><trkpt lat="39.0299633" lon="16.5122683"><ele>925.5</ele><time>2026-04-18T10:28:08.53Z</time></trkpt><trkpt lat="39.0301" lon="16.51221"><ele>926.0</ele><time>2026-04-18T10:28:09.534Z</time></trkpt><trkpt lat="39.030235" lon="16.5122117"><ele>926.5</ele><time>2026-04-18T10:28:10.531Z</time></trkpt><trkpt lat="39.0303717" lon="16.512245"><ele>927.0</ele><time>2026-04-18T10:28:11.534Z</time></trkpt><trkpt lat="39.03051" lon="16.51227"><ele>927.0</ele><time>2026-04-18T10:28:12.533Z</time></trkpt><trkpt lat="39.030645" lon="16.512255"><ele>927.0</ele><time>2026-04-18T10:28:13.533Z</time></trkpt><trkpt lat="39.0307833" lon="16.5122167"><ele>927.0</ele><time>2026-04-18T10:28:14.531Z</time></trkpt><trkpt lat="39.030925" lon="16.5121733"><ele>927.0</ele><time>2026-04-18T10:28:15.532Z</time></trkpt><trkpt lat="39.0310667" lon="16.5121433"><ele>928.3333333333333</ele><time>2026-04-18T10:28:16.532Z</time></trkpt><trkpt lat="39.0312167" lon="16.5121233"><ele>929.6666666666666</ele><time>2026-04-18T10:28:17.535Z</time></trkpt><trkpt lat="39.03137" lon="16.51212"><ele>931.0</ele><time>2026-04-18T10:28:18.532Z</time></trkpt><trkpt lat="39.0315283" lon="16.51213"><ele>932.0</ele><time>2026-04-18T10:28:19.534Z</time></trkpt><trkpt lat="39.0316867" lon="16.5121767"><ele>933.0</ele><time>2026-04-18T10:28:20.531Z</time></trkpt><trkpt lat="39.0318567" lon="16.5121717"><ele>934.0</ele><time>2026-04-18T10:28:21.532Z</time></trkpt><trkpt lat="39.03203" lon="16.5121833"><ele>934.0</ele><time>2026-04-18T10:28:22.532Z</time></trkpt><trkpt lat="39.0322033" lon="16.5121717"><ele>934.0</ele><time>2026-04-18T10:28:23.53Z</time></trkpt><trkpt lat="39.03236" lon="16.5121883"><ele>934.0</ele><time>2026-04-18T10:28:24.531Z</time></trkpt><trkpt lat="39.03251" lon="16.5121817"><ele>935.25</ele><time>2026-04-18T10:28:25.534Z</time></trkpt><trkpt lat="39.0326517" lon="16.5121733"><ele>936.5</ele><time>2026-04-18T10:28:26.531Z</time></trkpt><trkpt lat="39.032785" lon="16.5122133"><ele>937.75</ele><time>2026-04-18T10:28:27.532Z</time></trkpt><trkpt lat="39.0329033" lon="16.5122067"><ele>939.0</ele><time>2026-04-18T10:28:28.531Z</time></trkpt><trkpt lat="39.0330167" lon="16.5121683"><ele>939.0</ele><time>2026-04-18T10:28:29.531Z</time></trkpt><trkpt lat="39.0331233" lon="16.5121467"><ele>939.0</ele><time>2026-04-18T10:28:30.534Z</time></trkpt><trkpt lat="39.0332317" lon="16.5121867"><ele>939.0</ele><time>2026-04-18T10:28:31.532Z</time></trkpt><trkpt lat="39.033355" lon="16.5122183"><ele>939.0</ele><time>2026-04-18T10:28:32.533Z</time></trkpt><trkpt lat="39.03348" lon="16.51226"><ele>939.0</ele><time>2026-04-18T10:28:33.532Z</time></trkpt><trkpt lat="39.0335967" lon="16.5123083"><ele>939.0</ele><time>2026-04-18T10:28:34.532Z</time></trkpt><trkpt lat="39.0336967" lon="16.51236"><ele>939.0</ele><time>2026-04-18T10:28:35.531Z</time></trkpt><trkpt lat="39.033795" lon="16.5124467"><ele>939.0</ele><time>2026-04-18T10:28:36.531Z</time></trkpt><trkpt lat="39.0338983" lon="16.5124683"><ele>939.0</ele><time>2026-04-18T10:28:37.532Z</time></trkpt><trkpt lat="39.03402" lon="16.5124917"><ele>939.0</ele><time>2026-04-18T10:28:38.53Z</time></trkpt><trkpt lat="39.0341433" lon="16.51252"><ele>939.0</ele><time>2026-04-18T10:28:39.532Z</time></trkpt><trkpt lat="39.034275" lon="16.5125533"><ele>939.0</ele><time>2026-04-18T10:28:40.531Z</time></trkpt><trkpt lat="39.03441" lon="16.5125667"><ele>937.5</ele><time>2026-04-18T10:28:41.53Z</time></trkpt><trkpt lat="39.0345417" lon="16.5125717"><ele>936.0</ele><time>2026-04-18T10:28:42.532Z</time></trkpt><trkpt lat="39.03467" lon="16.51253"><ele>934.5</ele><time>2026-04-18T10:28:43.531Z</time></trkpt><trkpt lat="39.0347917" lon="16.5124467"><ele>933.0</ele><time>2026-04-18T10:28:44.53Z</time></trkpt><trkpt lat="39.0349083" lon="16.5123533"><ele>935.25</ele><time>2026-04-18T10:28:45.532Z</time></trkpt><trkpt lat="39.0350167" lon="16.512245"><ele>937.5</ele><time>2026-04-18T10:28:46.532Z</time></trkpt><trkpt lat="39.0351333" lon="16.51216"><ele>939.75</ele><time>2026-04-18T10:28:47.531Z</time></trkpt><trkpt lat="39.0352483" lon="16.5120933"><ele>942.0</ele><time>2026-04-18T10:28:48.61Z</time></trkpt><trkpt lat="39.0353717" lon="16.512045"><ele>942.0</ele><time>2026-04-18T10:28:49.531Z</time></trkpt><trkpt lat="39.035505" lon="16.5120667"><ele>942.0</ele><time>2026-04-18T10:28:50.533Z</time></trkpt><trkpt lat="39.0356417" lon="16.5120983"><ele>942.0</ele><time>2026-04-18T10:28:51.533Z</time></trkpt><trkpt lat="39.035765" lon="16.51216"><ele>942.0</ele><time>2026-04-18T10:28:52.531Z</time></trkpt><trkpt lat="39.0358683" lon="16.51221"><ele>945.2</ele><time>2026-04-18T10:28:53.533Z</time></trkpt><trkpt lat="39.0359633" lon="16.5122067"><ele>948.4000000000001</ele><time>2026-04-18T10:28:54.531Z</time></trkpt><trkpt lat="39.0360517" lon="16.51215"><ele>951.5999999999999</ele><time>2026-04-18T10:28:55.533Z</time></trkpt><trkpt lat="39.0361383" lon="16.5120583"><ele>954.8</ele><time>2026-04-18T10:28:56.531Z</time></trkpt><trkpt lat="39.0362267" lon="16.51194"><ele>958.0</ele><time>2026-04-18T10:28:57.532Z</time></trkpt><trkpt lat="39.0363183" lon="16.5118067"><ele>960.0</ele><time>2026-04-18T10:28:58.533Z</time></trkpt><trkpt lat="39.036405" lon="16.5117017"><ele>962.0</ele><time>2026-04-18T10:28:59.533Z</time></trkpt><trkpt lat="39.0364883" lon="16.51164"><ele>964.0</ele><time>2026-04-18T10:29:00.532Z</time></trkpt><trkpt lat="39.0365717" lon="16.51163"><ele>966.0</ele><time>2026-04-18T10:29:01.533Z</time></trkpt><trkpt lat="39.036645" lon="16.51161"><ele>968.0</ele><time>2026-04-18T10:29:02.533Z</time></trkpt><trkpt lat="39.0367317" lon="16.5116217"><ele>971.5</ele><time>2026-04-18T10:29:03.533Z</time></trkpt><trkpt lat="39.03681" lon="16.5117067"><ele>975.0</ele><time>2026-04-18T10:29:04.532Z</time></trkpt><trkpt lat="39.0369117" lon="16.511765"><ele>978.5</ele><time>2026-04-18T10:29:05.532Z</time></trkpt><trkpt lat="39.0370017" lon="16.511865"><ele>982.0</ele><time>2026-04-18T10:29:06.53Z</time></trkpt><trkpt lat="39.0370867" lon="16.51198"><ele>982.0</ele><time>2026-04-18T10:29:07.532Z</time></trkpt><trkpt lat="39.0371967" lon="16.5120683"><ele>982.0</ele><time>2026-04-18T10:29:08.531Z</time></trkpt><trkpt lat="39.0372883" lon="16.5121917"><ele>982.0</ele><time>2026-04-18T10:29:09.531Z</time></trkpt><trkpt lat="39.0373717" lon="16.5123233"><ele>982.0</ele><time>2026-04-18T10:29:10.533Z</time></trkpt><trkpt lat="39.037425" lon="16.5122733"><ele>985.6666666666666</ele><time>2026-04-18T10:29:11.532Z</time></trkpt><trkpt lat="39.03749" lon="16.512355"><ele>989.3333333333333</ele><time>2026-04-18T10:29:12.53Z</time></trkpt><trkpt lat="39.0376017" lon="16.5125467"><ele>993.0</ele><time>2026-04-18T10:29:13.531Z</time></trkpt><trkpt lat="39.0377267" lon="16.5127383"><ele>993.0</ele><time>2026-04-18T10:29:14.532Z</time></trkpt><trkpt lat="39.0378383" lon="16.5128483"><ele>993.0</ele><time>2026-04-18T10:29:15.531Z</time></trkpt><trkpt lat="39.037975" lon="16.5129"><ele>993.0</ele><time>2026-04-18T10:29:16.532Z</time></trkpt><trkpt lat="39.038105" lon="16.5129233"><ele>993.0</ele><time>2026-04-18T10:29:17.531Z</time></trkpt><trkpt lat="39.0382267" lon="16.5129333"><ele>991.0</ele><time>2026-04-18T10:29:18.533Z</time></trkpt><trkpt lat="39.0383617" lon="16.5129317"><ele>989.0</ele><time>2026-04-18T10:29:19.533Z</time></trkpt><trkpt lat="39.0384467" lon="16.5128533"><ele>987.0</ele><time>2026-04-18T10:29:20.534Z</time></trkpt><trkpt lat="39.0385383" lon="16.5127767"><ele>985.0</ele><time>2026-04-18T10:29:21.534Z</time></trkpt><trkpt lat="39.0386333" lon="16.5126783"><ele>991.0</ele><time>2026-04-18T10:29:22.534Z</time></trkpt><trkpt lat="39.038735" lon="16.512625"><ele>997.0</ele><time>2026-04-18T10:29:23.534Z</time></trkpt><trkpt lat="39.03884" lon="16.5125867"><ele>1003.0</ele><time>2026-04-18T10:29:24.533Z</time></trkpt><trkpt lat="39.0389483" lon="16.512605"><ele>1009.0</ele><time>2026-04-18T10:29:25.533Z</time></trkpt><trkpt lat="39.03907" lon="16.5127"><ele>1009.8000000000001</ele><time>2026-04-18T10:29:26.534Z</time></trkpt><trkpt lat="39.0391933" lon="16.5127383"><ele>1010.6000000000001</ele><time>2026-04-18T10:29:27.534Z</time></trkpt><trkpt lat="39.0393167" lon="16.5127633"><ele>1011.4</ele><time>2026-04-18T10:29:28.533Z</time></trkpt><trkpt lat="39.0394083" lon="16.5128133"><ele>1012.2</ele><time>2026-04-18T10:29:29.533Z</time></trkpt><trkpt lat="39.0394967" lon="16.5127833"><ele>1013.0</ele><time>2026-04-18T10:29:30.532Z</time></trkpt><trkpt lat="39.0395767" lon="16.5127433"><ele>1013.0000000000001</ele><time>2026-04-18T10:29:31.533Z</time></trkpt><trkpt lat="39.0396483" lon="16.51268"><ele>1013.0</ele><time>2026-04-18T10:29:32.532Z</time></trkpt><trkpt lat="39.0397183" lon="16.5126417"><ele>1013.0</ele><time>2026-04-18T10:29:33.535Z</time></trkpt><trkpt lat="39.0397783" lon="16.5126167"><ele>1013.0</ele><time>2026-04-18T10:29:34.532Z</time></trkpt><trkpt lat="39.0398733" lon="16.5125367"><ele>1013.0000000000001</ele><time>2026-04-18T10:29:36.533Z</time></trkpt><trkpt lat="39.039945" lon="16.512445"><ele>1013.0</ele><time>2026-04-18T10:29:38.533Z</time></trkpt><trkpt lat="39.040035" lon="16.5123467"><ele>1012.2</ele><time>2026-04-18T10:29:40.534Z</time></trkpt><trkpt lat="39.0401067" lon="16.5122933"><ele>1011.4</ele><time>2026-04-18T10:29:41.531Z</time></trkpt><trkpt lat="39.0401833" lon="16.5122117"><ele>1010.6000000000001</ele><time>2026-04-18T10:29:42.535Z</time></trkpt><trkpt lat="39.0402667" lon="16.5121217"><ele>1009.8000000000001</ele><time>2026-04-18T10:29:43.531Z</time></trkpt><trkpt lat="39.0403633" lon="16.5120717"><ele>1009.0</ele><time>2026-04-18T10:29:44.531Z</time></trkpt><trkpt lat="39.04047" lon="16.5120467"><ele>1009.0</ele><time>2026-04-18T10:29:45.531Z</time></trkpt><trkpt lat="39.0405817" lon="16.512105"><ele>1009.0000000000001</ele><time>2026-04-18T10:29:46.614Z</time></trkpt><trkpt lat="39.0406883" lon="16.51212"><ele>1009.0000000000001</ele><time>2026-04-18T10:29:47.53Z</time></trkpt><trkpt lat="39.0407867" lon="16.5121333"><ele>1009.0</ele><time>2026-04-18T10:29:48.531Z</time></trkpt><trkpt lat="39.0408817" lon="16.51211"><ele>1009.0</ele><time>2026-04-18T10:29:49.532Z</time></trkpt><trkpt lat="39.040975" lon="16.512065"><ele>1013.75</ele><time>2026-04-18T10:29:50.532Z</time></trkpt><trkpt lat="39.0410633" lon="16.5119817"><ele>1018.5</ele><time>2026-04-18T10:29:51.534Z</time></trkpt><trkpt lat="39.0411483" lon="16.5118833"><ele>1023.25</ele><time>2026-04-18T10:29:52.53Z</time></trkpt><trkpt lat="39.0412383" lon="16.51179"><ele>1028.0</ele><time>2026-04-18T10:29:53.531Z</time></trkpt><trkpt lat="39.0413283" lon="16.51169"><ele>1028.0</ele><time>2026-04-18T10:29:54.532Z</time></trkpt><trkpt lat="39.0414017" lon="16.5115783"><ele>1028.0</ele><time>2026-04-18T10:29:55.531Z</time></trkpt><trkpt lat="39.041455" lon="16.51147"><ele>1028.0</ele><time>2026-04-18T10:29:56.53Z</time></trkpt><trkpt lat="39.0414817" lon="16.5113467"><ele>1028.0</ele><time>2026-04-18T10:29:57.531Z</time></trkpt><trkpt lat="39.0415033" lon="16.5112167"><ele>1028.0</ele><time>2026-04-18T10:29:58.531Z</time></trkpt><trkpt lat="39.0415017" lon="16.51108"><ele>1030.6</ele><time>2026-04-18T10:29:59.534Z</time></trkpt><trkpt lat="39.0414767" lon="16.5109317"><ele>1033.1999999999998</ele><time>2026-04-18T10:30:00.532Z</time></trkpt><trkpt lat="39.0414667" lon="16.510795"><ele>1035.8</ele><time>2026-04-18T10:30:01.532Z</time></trkpt><trkpt lat="39.041485" lon="16.510695"><ele>1038.3999999999999</ele><time>2026-04-18T10:30:02.534Z</time></trkpt><trkpt lat="39.041515" lon="16.51062"><ele>1041.0</ele><time>2026-04-18T10:30:03.533Z</time></trkpt><trkpt lat="39.0416133" lon="16.5105367"><ele>1038.3999999999999</ele><time>2026-04-18T10:30:05.531Z</time></trkpt><trkpt lat="39.041685" lon="16.5105017"><ele>1035.8</ele><time>2026-04-18T10:30:06.532Z</time></trkpt><trkpt lat="39.04178" lon="16.5104667"><ele>1033.1999999999998</ele><time>2026-04-18T10:30:07.533Z</time></trkpt><trkpt lat="39.04189" lon="16.5104317"><ele>1030.6</ele><time>2026-04-18T10:30:08.533Z</time></trkpt><trkpt lat="39.042005" lon="16.510395"><ele>1028.0</ele><time>2026-04-18T10:30:09.533Z</time></trkpt><trkpt lat="39.0421317" lon="16.5103967"><ele>1028.0</ele><time>2026-04-18T10:30:10.532Z</time></trkpt><trkpt lat="39.042265" lon="16.51039"><ele>1028.0</ele><time>2026-04-18T10:30:11.532Z</time></trkpt><trkpt lat="39.0424033" lon="16.5103617"><ele>1028.0</ele><time>2026-04-18T10:30:12.531Z</time></trkpt><trkpt lat="39.042545" lon="16.5103283"><ele>1028.0</ele><time>2026-04-18T10:30:13.532Z</time></trkpt><trkpt lat="39.0426983" lon="16.5103017"><ele>1026.0</ele><time>2026-04-18T10:30:14.532Z</time></trkpt><trkpt lat="39.0428533" lon="16.5102783"><ele>1024.0</ele><time>2026-04-18T10:30:15.535Z</time></trkpt><trkpt lat="39.0430017" lon="16.51025"><ele>1022.0</ele><time>2026-04-18T10:30:16.532Z</time></trkpt><trkpt lat="39.04315" lon="16.5102383"><ele>1022.0</ele><time>2026-04-18T10:30:17.531Z</time></trkpt><trkpt lat="39.0432967" lon="16.51024"><ele>1022.0</ele><time>2026-04-18T10:30:18.531Z</time></trkpt><trkpt lat="39.0434467" lon="16.5102633"><ele>1022.0</ele><time>2026-04-18T10:30:19.532Z</time></trkpt><trkpt lat="39.0435483" lon="16.5102133"><ele>1022.0</ele><time>2026-04-18T10:30:20.53Z</time></trkpt><trkpt lat="39.0436517" lon="16.5101617"><ele>1024.0</ele><time>2026-04-18T10:30:21.533Z</time></trkpt><trkpt lat="39.043765" lon="16.5101"><ele>1026.0</ele><time>2026-04-18T10:30:22.532Z</time></trkpt><trkpt lat="39.0438733" lon="16.5100017"><ele>1028.0</ele><time>2026-04-18T10:30:23.533Z</time></trkpt><trkpt lat="39.0439667" lon="16.509875"><ele>1030.0</ele><time>2026-04-18T10:30:24.532Z</time></trkpt><trkpt lat="39.0441" lon="16.5098317"><ele>1030.4</ele><time>2026-04-18T10:30:25.531Z</time></trkpt><trkpt lat="39.0442233" lon="16.5097333"><ele>1030.8</ele><time>2026-04-18T10:30:26.531Z</time></trkpt><trkpt lat="39.0443083" lon="16.5096933"><ele>1031.2</ele><time>2026-04-18T10:30:27.531Z</time></trkpt><trkpt lat="39.0443833" lon="16.5096283"><ele>1031.6</ele><time>2026-04-18T10:30:28.533Z</time></trkpt><trkpt lat="39.044425" lon="16.5095267"><ele>1032.0</ele><time>2026-04-18T10:30:29.533Z</time></trkpt><trkpt lat="39.0444417" lon="16.50938"><ele>1035.75</ele><time>2026-04-18T10:30:30.532Z</time></trkpt><trkpt lat="39.04445" lon="16.509215"><ele>1039.5</ele><time>2026-04-18T10:30:31.532Z</time></trkpt><trkpt lat="39.0444417" lon="16.5090383"><ele>1043.25</ele><time>2026-04-18T10:30:32.533Z</time></trkpt><trkpt lat="39.044375" lon="16.5088933"><ele>1047.0</ele><time>2026-04-18T10:30:33.534Z</time></trkpt><trkpt lat="39.0443" lon="16.5087367"><ele>1045.25</ele><time>2026-04-18T10:30:34.533Z</time></trkpt><trkpt lat="39.04423" lon="16.5085633"><ele>1043.5</ele><time>2026-04-18T10:30:35.532Z</time></trkpt><trkpt lat="39.0441683" lon="16.5083917"><ele>1041.75</ele><time>2026-04-18T10:30:36.531Z</time></trkpt><trkpt lat="39.04411" lon="16.5082383"><ele>1040.0</ele><time>2026-04-18T10:30:37.536Z</time></trkpt><trkpt lat="39.0440733" lon="16.50808"><ele>1040.0</ele><time>2026-04-18T10:30:38.532Z</time></trkpt><trkpt lat="39.0440683" lon="16.507925"><ele>1040.0</ele><time>2026-04-18T10:30:39.534Z</time></trkpt><trkpt lat="39.0440633" lon="16.507765"><ele>1040.0</ele><time>2026-04-18T10:30:40.534Z</time></trkpt><trkpt lat="39.04411" lon="16.5076283"><ele>1040.0</ele><time>2026-04-18T10:30:41.533Z</time></trkpt><trkpt lat="39.0441567" lon="16.5075083"><ele>1045.75</ele><time>2026-04-18T10:30:42.532Z</time></trkpt><trkpt lat="39.0442267" lon="16.5074183"><ele>1051.5</ele><time>2026-04-18T10:30:43.536Z</time></trkpt><trkpt lat="39.0443233" lon="16.5073517"><ele>1057.25</ele><time>2026-04-18T10:30:44.534Z</time></trkpt><trkpt lat="39.04443" lon="16.50727"><ele>1063.0</ele><time>2026-04-18T10:30:45.533Z</time></trkpt><trkpt lat="39.0445433" lon="16.5072067"><ele>1063.0</ele><time>2026-04-18T10:30:46.532Z</time></trkpt><trkpt lat="39.044655" lon="16.5071533"><ele>1063.0</ele><time>2026-04-18T10:30:47.532Z</time></trkpt><trkpt lat="39.0447633" lon="16.5071417"><ele>1063.0</ele><time>2026-04-18T10:30:48.532Z</time></trkpt><trkpt lat="39.044865" lon="16.5071767"><ele>1063.0</ele><time>2026-04-18T10:30:49.532Z</time></trkpt><trkpt lat="39.0449717" lon="16.5072317"><ele>1063.0</ele><time>2026-04-18T10:30:50.53Z</time></trkpt><trkpt lat="39.0450667" lon="16.5072017"><ele>1066.0</ele><time>2026-04-18T10:30:51.531Z</time></trkpt><trkpt lat="39.0451583" lon="16.5071983"><ele>1069.0</ele><time>2026-04-18T10:30:52.533Z</time></trkpt><trkpt lat="39.04522" lon="16.5072317"><ele>1072.0</ele><time>2026-04-18T10:30:53.532Z</time></trkpt><trkpt lat="39.0452233" lon="16.5073667"><ele>1075.0</ele><time>2026-04-18T10:30:55.532Z</time></trkpt><trkpt lat="39.0451883" lon="16.5074383"><ele>1078.0</ele><time>2026-04-18T10:30:56.531Z</time></trkpt><trkpt lat="39.045095" lon="16.5074967"><ele>1081.0</ele><time>2026-04-18T10:30:57.532Z</time></trkpt><trkpt lat="39.045035" lon="16.50756"><ele>1081.0</ele><time>2026-04-18T10:30:58.534Z</time></trkpt><trkpt lat="39.04504" lon="16.507705"><ele>1081.0</ele><time>2026-04-18T10:31:00.53Z</time></trkpt><trkpt lat="39.045195" lon="16.5077267"><ele>1081.0</ele><time>2026-04-18T10:31:02.53Z</time></trkpt><trkpt lat="39.0453117" lon="16.507715"><ele>1081.0</ele><time>2026-04-18T10:31:03.532Z</time></trkpt><trkpt lat="39.045455" lon="16.5077233"><ele>1081.0</ele><time>2026-04-18T10:31:04.532Z</time></trkpt><trkpt lat="39.0456233" lon="16.5077117"><ele>1081.0</ele><time>2026-04-18T10:31:05.53Z</time></trkpt><trkpt lat="39.0457933" lon="16.507715"><ele>1081.0</ele><time>2026-04-18T10:31:06.531Z</time></trkpt><trkpt lat="39.0459667" lon="16.5077317"><ele>1085.3333333333333</ele><time>2026-04-18T10:31:07.533Z</time></trkpt><trkpt lat="39.04614" lon="16.5077317"><ele>1089.6666666666667</ele><time>2026-04-18T10:31:08.531Z</time></trkpt><trkpt lat="39.0463067" lon="16.5077567"><ele>1094.0</ele><time>2026-04-18T10:31:09.531Z</time></trkpt><trkpt lat="39.0464667" lon="16.5077717"><ele>1094.0</ele><time>2026-04-18T10:31:10.533Z</time></trkpt><trkpt lat="39.0466183" lon="16.507785"><ele>1094.0</ele><time>2026-04-18T10:31:11.532Z</time></trkpt><trkpt lat="39.0467617" lon="16.5078183"><ele>1094.0</ele><time>2026-04-18T10:31:12.532Z</time></trkpt><trkpt lat="39.0469" lon="16.507875"><ele>1094.0</ele><time>2026-04-18T10:31:13.532Z</time></trkpt><trkpt lat="39.0470383" lon="16.507895"><ele>1098.0</ele><time>2026-04-18T10:31:14.535Z</time></trkpt><trkpt lat="39.0471733" lon="16.5079"><ele>1102.0</ele><time>2026-04-18T10:31:15.533Z</time></trkpt><trkpt lat="39.047305" lon="16.5078967"><ele>1106.0</ele><time>2026-04-18T10:31:16.533Z</time></trkpt><trkpt lat="39.0474267" lon="16.5078633"><ele>1110.0</ele><time>2026-04-18T10:31:17.531Z</time></trkpt><trkpt lat="39.0475467" lon="16.5078183"><ele>1114.0</ele><time>2026-04-18T10:31:18.531Z</time></trkpt><trkpt lat="39.0476433" lon="16.5077217"><ele>1118.0</ele><time>2026-04-18T10:31:19.534Z</time></trkpt><trkpt lat="39.0477183" lon="16.5075883"><ele>1122.0</ele><time>2026-04-18T10:31:20.532Z</time></trkpt><trkpt lat="39.0477767" lon="16.507425"><ele>1126.0</ele><time>2026-04-18T10:31:21.532Z</time></trkpt><trkpt lat="39.0478433" lon="16.5072633"><ele>1126.0</ele><time>2026-04-18T10:31:22.531Z</time></trkpt><trkpt lat="39.047905" lon="16.5070917"><ele>1126.0</ele><time>2026-04-18T10:31:23.531Z</time></trkpt><trkpt lat="39.04797" lon="16.5069233"><ele>1126.0</ele><time>2026-04-18T10:31:24.536Z</time></trkpt><trkpt lat="39.04806" lon="16.5067733"><ele>1126.0</ele><time>2026-04-18T10:31:25.531Z</time></trkpt><trkpt lat="39.0481083" lon="16.5066183"><ele>1127.75</ele><time>2026-04-18T10:31:26.53Z</time></trkpt><trkpt lat="39.0481783" lon="16.50649"><ele>1129.5</ele><time>2026-04-18T10:31:27.534Z</time></trkpt><trkpt lat="39.04826" lon="16.5063883"><ele>1131.25</ele><time>2026-04-18T10:31:28.533Z</time></trkpt><trkpt lat="39.0483483" lon="16.5062983"><ele>1133.0</ele><time>2026-04-18T10:31:29.531Z</time></trkpt><trkpt lat="39.0484633" lon="16.5062367"><ele>1138.0</ele><time>2026-04-18T10:31:30.532Z</time></trkpt><trkpt lat="39.0485467" lon="16.5061417"><ele>1143.0</ele><time>2026-04-18T10:31:31.532Z</time></trkpt><trkpt lat="39.04865" lon="16.5060667"><ele>1148.0</ele><time>2026-04-18T10:31:32.531Z</time></trkpt><trkpt lat="39.0487183" lon="16.5059483"><ele>1153.0</ele><time>2026-04-18T10:31:33.533Z</time></trkpt><trkpt lat="39.04879" lon="16.5058133"><ele>1153.0</ele><time>2026-04-18T10:31:34.534Z</time></trkpt><trkpt lat="39.048855" lon="16.5056667"><ele>1153.0</ele><time>2026-04-18T10:31:35.53Z</time></trkpt><trkpt lat="39.0489233" lon="16.50553"><ele>1153.0</ele><time>2026-04-18T10:31:36.535Z</time></trkpt><trkpt lat="39.0489833" lon="16.5054017"><ele>1153.0</ele><time>2026-04-18T10:31:37.531Z</time></trkpt><trkpt lat="39.0490617" lon="16.5053167"><ele>1154.4</ele><time>2026-04-18T10:31:38.534Z</time></trkpt><trkpt lat="39.0491383" lon="16.50527"><ele>1155.8</ele><time>2026-04-18T10:31:39.533Z</time></trkpt><trkpt lat="39.0492233" lon="16.5052617"><ele>1157.2</ele><time>2026-04-18T10:31:40.531Z</time></trkpt><trkpt lat="39.0493383" lon="16.50527"><ele>1158.6</ele><time>2026-04-18T10:31:41.532Z</time></trkpt><trkpt lat="39.049485" lon="16.5053117"><ele>1160.0</ele><time>2026-04-18T10:31:42.53Z</time></trkpt><trkpt lat="39.0496467" lon="16.5054233"><ele>1157.6666666666667</ele><time>2026-04-18T10:31:43.532Z</time></trkpt><trkpt lat="39.04981" lon="16.505505"><ele>1155.3333333333333</ele><time>2026-04-18T10:31:44.534Z</time></trkpt><trkpt lat="39.0499717" lon="16.50554"><ele>1153.0</ele><time>2026-04-18T10:31:45.531Z</time></trkpt><trkpt lat="39.0501267" lon="16.5056083"><ele>1153.0</ele><time>2026-04-18T10:31:46.533Z</time></trkpt><trkpt lat="39.05025" lon="16.505745"><ele>1153.0</ele><time>2026-04-18T10:31:47.537Z</time></trkpt><trkpt lat="39.05035" lon="16.5057717"><ele>1153.0</ele><time>2026-04-18T10:31:48.531Z</time></trkpt><trkpt lat="39.0504283" lon="16.50577"><ele>1153.0</ele><time>2026-04-18T10:31:49.532Z</time></trkpt><trkpt lat="39.0505067" lon="16.5057133"><ele>1153.0</ele><time>2026-04-18T10:31:50.532Z</time></trkpt><trkpt lat="39.0505867" lon="16.50563"><ele>1153.0</ele><time>2026-04-18T10:31:51.537Z</time></trkpt><trkpt lat="39.0506833" lon="16.5055383"><ele>1153.0</ele><time>2026-04-18T10:31:52.533Z</time></trkpt><trkpt lat="39.0507283" lon="16.5053983"><ele>1153.0</ele><time>2026-04-18T10:31:53.531Z</time></trkpt><trkpt lat="39.0507733" lon="16.505245"><ele>1153.0</ele><time>2026-04-18T10:31:54.533Z</time></trkpt><trkpt lat="39.0508033" lon="16.5050533"><ele>1159.6666666666665</ele><time>2026-04-18T10:31:55.532Z</time></trkpt><trkpt lat="39.0508617" lon="16.50486"><ele>1166.3333333333333</ele><time>2026-04-18T10:31:56.531Z</time></trkpt><trkpt lat="39.0508483" lon="16.5046583"><ele>1173.0</ele><time>2026-04-18T10:31:57.532Z</time></trkpt><trkpt lat="39.0509467" lon="16.5045083"><ele>1177.75</ele><time>2026-04-18T10:31:58.534Z</time></trkpt><trkpt lat="39.05093" lon="16.50431"><ele>1182.5</ele><time>2026-04-18T10:31:59.532Z</time></trkpt><trkpt lat="39.0509683" lon="16.5041633"><ele>1187.25</ele><time>2026-04-18T10:32:00.533Z</time></trkpt><trkpt lat="39.0510183" lon="16.5040317"><ele>1192.0</ele><time>2026-04-18T10:32:01.533Z</time></trkpt><trkpt lat="39.0510983" lon="16.5039467"><ele>1192.0</ele><time>2026-04-18T10:32:02.534Z</time></trkpt><trkpt lat="39.0511933" lon="16.5039067"><ele>1192.0</ele><time>2026-04-18T10:32:03.533Z</time></trkpt><trkpt lat="39.0512917" lon="16.5038733"><ele>1192.0</ele><time>2026-04-18T10:32:04.532Z</time></trkpt><trkpt lat="39.0514083" lon="16.50387"><ele>1192.0</ele><time>2026-04-18T10:32:05.532Z</time></trkpt><trkpt lat="39.0515483" lon="16.503895"><ele>1188.5</ele><time>2026-04-18T10:32:06.533Z</time></trkpt><trkpt lat="39.0516833" lon="16.5039067"><ele>1185.0</ele><time>2026-04-18T10:32:07.536Z</time></trkpt><trkpt lat="39.05182" lon="16.5038983"><ele>1181.5</ele><time>2026-04-18T10:32:08.533Z</time></trkpt><trkpt lat="39.0519383" lon="16.50394"><ele>1178.0</ele><time>2026-04-18T10:32:09.533Z</time></trkpt><trkpt lat="39.05204" lon="16.5039233"><ele>1178.0</ele><time>2026-04-18T10:32:10.534Z</time></trkpt><trkpt lat="39.052115" lon="16.5038467"><ele>1178.0</ele><time>2026-04-18T10:32:11.533Z</time></trkpt><trkpt lat="39.05219" lon="16.503795"><ele>1178.0</ele><time>2026-04-18T10:32:12.531Z</time></trkpt><trkpt lat="39.0522633" lon="16.5037033"><ele>1178.0</ele><time>2026-04-18T10:32:13.534Z</time></trkpt><trkpt lat="39.0523283" lon="16.5035967"><ele>1178.0</ele><time>2026-04-18T10:32:14.531Z</time></trkpt><trkpt lat="39.0523983" lon="16.5034883"><ele>1180.6</ele><time>2026-04-18T10:32:15.531Z</time></trkpt><trkpt lat="39.052435" lon="16.50335"><ele>1183.1999999999998</ele><time>2026-04-18T10:32:16.532Z</time></trkpt><trkpt lat="39.0524667" lon="16.5031983"><ele>1185.8</ele><time>2026-04-18T10:32:17.533Z</time></trkpt><trkpt lat="39.05253" lon="16.5030933"><ele>1188.3999999999999</ele><time>2026-04-18T10:32:18.53Z</time></trkpt><trkpt lat="39.0525883" lon="16.5029933"><ele>1191.0</ele><time>2026-04-18T10:32:19.611Z</time></trkpt><trkpt lat="39.0526567" lon="16.5029233"><ele>1193.8333333333333</ele><time>2026-04-18T10:32:20.532Z</time></trkpt><trkpt lat="39.0527167" lon="16.5028717"><ele>1196.6666666666667</ele><time>2026-04-18T10:32:21.535Z</time></trkpt><trkpt lat="39.0527683" lon="16.5028067"><ele>1199.5</ele><time>2026-04-18T10:32:22.532Z</time></trkpt><trkpt lat="39.052815" lon="16.502725"><ele>1202.3333333333335</ele><time>2026-04-18T10:32:23.531Z</time></trkpt><trkpt lat="39.0528517" lon="16.5026167"><ele>1205.1666666666667</ele><time>2026-04-18T10:32:24.531Z</time></trkpt><trkpt lat="39.0529033" lon="16.5025017"><ele>1208.0</ele><time>2026-04-18T10:32:25.53Z</time></trkpt><trkpt lat="39.0529383" lon="16.5023667"><ele>1208.0</ele><time>2026-04-18T10:32:26.532Z</time></trkpt><trkpt lat="39.052995" lon="16.5022417"><ele>1208.0</ele><time>2026-04-18T10:32:27.532Z</time></trkpt><trkpt lat="39.0530433" lon="16.5021233"><ele>1208.0</ele><time>2026-04-18T10:32:28.532Z</time></trkpt><trkpt lat="39.0530883" lon="16.5020217"><ele>1208.0</ele><time>2026-04-18T10:32:29.532Z</time></trkpt><trkpt lat="39.053145" lon="16.5019483"><ele>1208.0</ele><time>2026-04-18T10:32:30.53Z</time></trkpt><trkpt lat="39.0532217" lon="16.5018983"><ele>1204.8</ele><time>2026-04-18T10:32:31.537Z</time></trkpt><trkpt lat="39.05331" lon="16.50186"><ele>1201.6</ele><time>2026-04-18T10:32:32.531Z</time></trkpt><trkpt lat="39.0534117" lon="16.5018583"><ele>1198.4</ele><time>2026-04-18T10:32:33.532Z</time></trkpt><trkpt lat="39.05353" lon="16.5018967"><ele>1195.2</ele><time>2026-04-18T10:32:34.531Z</time></trkpt><trkpt lat="39.0536467" lon="16.5019133"><ele>1192.0</ele><time>2026-04-18T10:32:35.531Z</time></trkpt><trkpt lat="39.05376" lon="16.5019967"><ele>1192.0</ele><time>2026-04-18T10:32:36.532Z</time></trkpt><trkpt lat="39.0538767" lon="16.5020617"><ele>1192.0</ele><time>2026-04-18T10:32:37.534Z</time></trkpt><trkpt lat="39.0539833" lon="16.5021317"><ele>1192.0</ele><time>2026-04-18T10:32:38.536Z</time></trkpt><trkpt lat="39.054095" lon="16.5022967"><ele>1192.0</ele><time>2026-04-18T10:32:39.532Z</time></trkpt><trkpt lat="39.0542183" lon="16.5024233"><ele>1195.0</ele><time>2026-04-18T10:32:40.535Z</time></trkpt><trkpt lat="39.0543267" lon="16.502585"><ele>1198.0</ele><time>2026-04-18T10:32:41.531Z</time></trkpt><trkpt lat="39.0544483" lon="16.5027083"><ele>1201.0</ele><time>2026-04-18T10:32:42.534Z</time></trkpt><trkpt lat="39.054575" lon="16.5028667"><ele>1200.5</ele><time>2026-04-18T10:32:43.536Z</time></trkpt><trkpt lat="39.0547117" lon="16.50294"><ele>1200.0</ele><time>2026-04-18T10:32:44.531Z</time></trkpt><trkpt lat="39.05481" lon="16.503035"><ele>1199.5</ele><time>2026-04-18T10:32:45.53Z</time></trkpt><trkpt lat="39.0548883" lon="16.503175"><ele>1199.0</ele><time>2026-04-18T10:32:46.53Z</time></trkpt><trkpt lat="39.05497" lon="16.5033017"><ele>1202.25</ele><time>2026-04-18T10:32:47.533Z</time></trkpt><trkpt lat="39.055065" lon="16.50341"><ele>1205.5</ele><time>2026-04-18T10:32:48.531Z</time></trkpt><trkpt lat="39.0551833" lon="16.5034883"><ele>1208.75</ele><time>2026-04-18T10:32:49.531Z</time></trkpt><trkpt lat="39.0553267" lon="16.5035"><ele>1212.0</ele><time>2026-04-18T10:32:50.53Z</time></trkpt><trkpt lat="39.05547" lon="16.50355"><ele>1212.0</ele><time>2026-04-18T10:32:51.53Z</time></trkpt><trkpt lat="39.0555983" lon="16.5036517"><ele>1212.0</ele><time>2026-04-18T10:32:52.533Z</time></trkpt><trkpt lat="39.0557333" lon="16.5037217"><ele>1212.0</ele><time>2026-04-18T10:32:53.53Z</time></trkpt><trkpt lat="39.05587" lon="16.5038083"><ele>1212.0</ele><time>2026-04-18T10:32:54.529Z</time></trkpt><trkpt lat="39.0559683" lon="16.50393"><ele>1209.25</ele><time>2026-04-18T10:32:55.532Z</time></trkpt><trkpt lat="39.0560617" lon="16.50407"><ele>1206.5</ele><time>2026-04-18T10:32:56.529Z</time></trkpt><trkpt lat="39.0561433" lon="16.504235"><ele>1203.75</ele><time>2026-04-18T10:32:57.53Z</time></trkpt><trkpt lat="39.0561567" lon="16.5044233"><ele>1201.0</ele><time>2026-04-18T10:32:58.53Z</time></trkpt><trkpt lat="39.056175" lon="16.5046117"><ele>1197.25</ele><time>2026-04-18T10:32:59.532Z</time></trkpt><trkpt lat="39.0562217" lon="16.5047767"><ele>1193.5</ele><time>2026-04-18T10:33:00.532Z</time></trkpt><trkpt lat="39.0562883" lon="16.5049183"><ele>1189.75</ele><time>2026-04-18T10:33:01.532Z</time></trkpt><trkpt lat="39.0563417" lon="16.5050517"><ele>1186.0</ele><time>2026-04-18T10:33:02.533Z</time></trkpt><trkpt lat="39.0563983" lon="16.50518"><ele>1186.0</ele><time>2026-04-18T10:33:03.531Z</time></trkpt><trkpt lat="39.0564617" lon="16.5052917"><ele>1186.0</ele><time>2026-04-18T10:33:04.532Z</time></trkpt><trkpt lat="39.05654" lon="16.5053633"><ele>1186.0</ele><time>2026-04-18T10:33:05.533Z</time></trkpt><trkpt lat="39.0566267" lon="16.505405"><ele>1186.0</ele><time>2026-04-18T10:33:06.531Z</time></trkpt><trkpt lat="39.0567283" lon="16.50544"><ele>1186.0</ele><time>2026-04-18T10:33:07.531Z</time></trkpt><trkpt lat="39.0568517" lon="16.5054567"><ele>1190.0</ele><time>2026-04-18T10:33:08.534Z</time></trkpt><trkpt lat="39.0569783" lon="16.5054767"><ele>1194.0</ele><time>2026-04-18T10:33:09.532Z</time></trkpt><trkpt lat="39.0571133" lon="16.5055067"><ele>1198.0</ele><time>2026-04-18T10:33:10.534Z</time></trkpt><trkpt lat="39.0572333" lon="16.5054617"><ele>1202.0</ele><time>2026-04-18T10:33:11.531Z</time></trkpt><trkpt lat="39.0573733" lon="16.505495"><ele>1203.25</ele><time>2026-04-18T10:33:12.532Z</time></trkpt><trkpt lat="39.0575" lon="16.5054533"><ele>1204.5</ele><time>2026-04-18T10:33:13.533Z</time></trkpt><trkpt lat="39.0576283" lon="16.5053967"><ele>1205.75</ele><time>2026-04-18T10:33:14.531Z</time></trkpt><trkpt lat="39.0577733" lon="16.505355"><ele>1207.0</ele><time>2026-04-18T10:33:15.533Z</time></trkpt><trkpt lat="39.0579167" lon="16.5053017"><ele>1207.0</ele><time>2026-04-18T10:33:16.532Z</time></trkpt><trkpt lat="39.0580383" lon="16.5052083"><ele>1207.0</ele><time>2026-04-18T10:33:17.533Z</time></trkpt><trkpt lat="39.0581617" lon="16.50514"><ele>1207.0</ele><time>2026-04-18T10:33:18.534Z</time></trkpt><trkpt lat="39.0582733" lon="16.5050517"><ele>1207.0</ele><time>2026-04-18T10:33:19.533Z</time></trkpt><trkpt lat="39.0583867" lon="16.5049717"><ele>1204.25</ele><time>2026-04-18T10:33:20.532Z</time></trkpt><trkpt lat="39.0585067" lon="16.5049283"><ele>1201.5</ele><time>2026-04-18T10:33:21.532Z</time></trkpt><trkpt lat="39.05863" lon="16.504875"><ele>1198.75</ele><time>2026-04-18T10:33:22.53Z</time></trkpt><trkpt lat="39.05875" lon="16.5048683"><ele>1196.0</ele><time>2026-04-18T10:33:23.533Z</time></trkpt><trkpt lat="39.0588617" lon="16.50484"><ele>1196.0</ele><time>2026-04-18T10:33:24.532Z</time></trkpt><trkpt lat="39.0589483" lon="16.5048117"><ele>1196.0</ele><time>2026-04-18T10:33:25.532Z</time></trkpt><trkpt lat="39.05902" lon="16.50478"><ele>1196.0</ele><time>2026-04-18T10:33:26.532Z</time></trkpt><trkpt lat="39.0590833" lon="16.50474"><ele>1196.0</ele><time>2026-04-18T10:33:27.534Z</time></trkpt><trkpt lat="39.059105" lon="16.5046067"><ele>1196.0</ele><time>2026-04-18T10:33:28.533Z</time></trkpt><trkpt lat="39.0591083" lon="16.5044533"><ele>1190.8</ele><time>2026-04-18T10:33:29.531Z</time></trkpt><trkpt lat="39.059125" lon="16.5043117"><ele>1185.6</ele><time>2026-04-18T10:33:30.534Z</time></trkpt><trkpt lat="39.059155" lon="16.5041733"><ele>1180.4</ele><time>2026-04-18T10:33:31.53Z</time></trkpt><trkpt lat="39.059185" lon="16.5040367"><ele>1175.2</ele><time>2026-04-18T10:33:32.537Z</time></trkpt><trkpt lat="39.05923" lon="16.5039233"><ele>1170.0</ele><time>2026-04-18T10:33:33.533Z</time></trkpt><trkpt lat="39.0592933" lon="16.5038417"><ele>1170.0</ele><time>2026-04-18T10:33:34.531Z</time></trkpt><trkpt lat="39.05937" lon="16.5037917"><ele>1170.0</ele><time>2026-04-18T10:33:35.531Z</time></trkpt><trkpt lat="39.0594583" lon="16.5037983"><ele>1170.0</ele><time>2026-04-18T10:33:36.536Z</time></trkpt><trkpt lat="39.0595417" lon="16.503825"><ele>1170.0</ele><time>2026-04-18T10:33:37.53Z</time></trkpt><trkpt lat="39.05961" lon="16.5038933"><ele>1170.0</ele><time>2026-04-18T10:33:38.532Z</time></trkpt><trkpt lat="39.0596483" lon="16.5039917"><ele>1170.0</ele><time>2026-04-18T10:33:39.531Z</time></trkpt><trkpt lat="39.05972" lon="16.5040383"><ele>1170.0</ele><time>2026-04-18T10:33:40.531Z</time></trkpt><trkpt lat="39.059795" lon="16.5041083"><ele>1170.0</ele><time>2026-04-18T10:33:41.532Z</time></trkpt><trkpt lat="39.0598633" lon="16.5041833"><ele>1170.0</ele><time>2026-04-18T10:33:42.533Z</time></trkpt><trkpt lat="39.059945" lon="16.50422"><ele>1170.0</ele><time>2026-04-18T10:33:43.531Z</time></trkpt><trkpt lat="39.0600467" lon="16.504225"><ele>1170.0</ele><time>2026-04-18T10:33:44.532Z</time></trkpt><trkpt lat="39.0601433" lon="16.5042383"><ele>1169.0</ele><time>2026-04-18T10:33:45.532Z</time></trkpt><trkpt lat="39.0602433" lon="16.5042483"><ele>1168.0</ele><time>2026-04-18T10:33:46.532Z</time></trkpt><trkpt lat="39.060325" lon="16.50431"><ele>1167.0</ele><time>2026-04-18T10:33:47.531Z</time></trkpt><trkpt lat="39.0604017" lon="16.5044017"><ele>1166.0</ele><time>2026-04-18T10:33:48.531Z</time></trkpt><trkpt lat="39.0604817" lon="16.5045033"><ele>1165.0</ele><time>2026-04-18T10:33:49.531Z</time></trkpt><trkpt lat="39.06055" lon="16.5046133"><ele>1172.5</ele><time>2026-04-18T10:33:50.533Z</time></trkpt><trkpt lat="39.0606267" lon="16.5047233"><ele>1180.0</ele><time>2026-04-18T10:33:51.534Z</time></trkpt><trkpt lat="39.0606883" lon="16.5048533"><ele>1187.5</ele><time>2026-04-18T10:33:52.53Z</time></trkpt><trkpt lat="39.06073" lon="16.5050017"><ele>1195.0</ele><time>2026-04-18T10:33:53.531Z</time></trkpt><trkpt lat="39.0607633" lon="16.50517"><ele>1188.5</ele><time>2026-04-18T10:33:54.532Z</time></trkpt><trkpt lat="39.0607883" lon="16.5053567"><ele>1182.0</ele><time>2026-04-18T10:33:55.532Z</time></trkpt><trkpt lat="39.06086" lon="16.505485"><ele>1175.5</ele><time>2026-04-18T10:33:56.534Z</time></trkpt><trkpt lat="39.060785" lon="16.5055733"><ele>1169.0</ele><time>2026-04-18T10:33:57.534Z</time></trkpt><trkpt lat="39.0608283" lon="16.5057617"><ele>1169.0</ele><time>2026-04-18T10:33:58.53Z</time></trkpt><trkpt lat="39.060865" lon="16.5059467"><ele>1169.0</ele><time>2026-04-18T10:33:59.53Z</time></trkpt><trkpt lat="39.060895" lon="16.50613"><ele>1169.0</ele><time>2026-04-18T10:34:00.531Z</time></trkpt><trkpt lat="39.0609" lon="16.5062833"><ele>1169.0</ele><time>2026-04-18T10:34:01.53Z</time></trkpt><trkpt lat="39.0609117" lon="16.5064267"><ele>1167.2</ele><time>2026-04-18T10:34:02.53Z</time></trkpt><trkpt lat="39.0609417" lon="16.5065583"><ele>1165.4</ele><time>2026-04-18T10:34:03.532Z</time></trkpt><trkpt lat="39.0609917" lon="16.50667"><ele>1163.6</ele><time>2026-04-18T10:34:04.531Z</time></trkpt><trkpt lat="39.0610367" lon="16.5067733"><ele>1161.8</ele><time>2026-04-18T10:34:05.531Z</time></trkpt><trkpt lat="39.06112" lon="16.506825"><ele>1160.0</ele><time>2026-04-18T10:34:06.53Z</time></trkpt><trkpt lat="39.0612183" lon="16.506825"><ele>1160.0</ele><time>2026-04-18T10:34:07.531Z</time></trkpt><trkpt lat="39.0613133" lon="16.5067767"><ele>1160.0</ele><time>2026-04-18T10:34:08.53Z</time></trkpt><trkpt lat="39.0613917" lon="16.5067067"><ele>1160.0</ele><time>2026-04-18T10:34:09.534Z</time></trkpt><trkpt lat="39.061455" lon="16.506635"><ele>1160.0</ele><time>2026-04-18T10:34:10.533Z</time></trkpt><trkpt lat="39.0614917" lon="16.5065333"><ele>1160.0</ele><time>2026-04-18T10:34:11.53Z</time></trkpt><trkpt lat="39.0614983" lon="16.506435"><ele>1160.0</ele><time>2026-04-18T10:34:12.531Z</time></trkpt><trkpt lat="39.0614883" lon="16.5063333"><ele>1162.25</ele><time>2026-04-18T10:34:13.532Z</time></trkpt><trkpt lat="39.061465" lon="16.50622"><ele>1164.5</ele><time>2026-04-18T10:34:14.532Z</time></trkpt><trkpt lat="39.0614183" lon="16.506075"><ele>1166.75</ele><time>2026-04-18T10:34:15.534Z</time></trkpt><trkpt lat="39.0614" lon="16.505895"><ele>1169.0</ele><time>2026-04-18T10:34:16.531Z</time></trkpt><trkpt lat="39.061385" lon="16.5057117"><ele>1169.0</ele><time>2026-04-18T10:34:17.532Z</time></trkpt><trkpt lat="39.061345" lon="16.5055383"><ele>1169.0</ele><time>2026-04-18T10:34:18.532Z</time></trkpt><trkpt lat="39.061325" lon="16.50536"><ele>1169.0</ele><time>2026-04-18T10:34:19.535Z</time></trkpt><trkpt lat="39.0613083" lon="16.5051883"><ele>1169.0</ele><time>2026-04-18T10:34:20.534Z</time></trkpt><trkpt lat="39.061275" lon="16.5050317"><ele>1167.2</ele><time>2026-04-18T10:34:21.533Z</time></trkpt><trkpt lat="39.061235" lon="16.504895"><ele>1165.4</ele><time>2026-04-18T10:34:22.53Z</time></trkpt><trkpt lat="39.0611833" lon="16.5047883"><ele>1163.6</ele><time>2026-04-18T10:34:23.532Z</time></trkpt><trkpt lat="39.0611667" lon="16.5047"><ele>1161.8</ele><time>2026-04-18T10:34:24.532Z</time></trkpt><trkpt lat="39.0612433" lon="16.5045883"><ele>1160.0</ele><time>2026-04-18T10:34:26.533Z</time></trkpt><trkpt lat="39.0613083" lon="16.5046067"><ele>1160.0</ele><time>2026-04-18T10:34:27.532Z</time></trkpt><trkpt lat="39.0613667" lon="16.5046433"><ele>1160.0</ele><time>2026-04-18T10:34:28.531Z</time></trkpt><trkpt lat="39.0615033" lon="16.5047367"><ele>1160.0</ele><time>2026-04-18T10:34:30.53Z</time></trkpt><trkpt lat="39.06156" lon="16.504885"><ele>1160.0</ele><time>2026-04-18T10:34:31.533Z</time></trkpt><trkpt lat="39.06164" lon="16.504995"><ele>1153.0</ele><time>2026-04-18T10:34:32.533Z</time></trkpt><trkpt lat="39.061715" lon="16.5051133"><ele>1146.0</ele><time>2026-04-18T10:34:33.534Z</time></trkpt><trkpt lat="39.0618217" lon="16.5051933"><ele>1139.0</ele><time>2026-04-18T10:34:34.532Z</time></trkpt><trkpt lat="39.06192" lon="16.5052783"><ele>1132.0</ele><time>2026-04-18T10:34:35.532Z</time></trkpt><trkpt lat="39.0620183" lon="16.5053483"><ele>1132.0</ele><time>2026-04-18T10:34:36.532Z</time></trkpt><trkpt lat="39.0621267" lon="16.5054117"><ele>1132.0</ele><time>2026-04-18T10:34:37.533Z</time></trkpt><trkpt lat="39.0622383" lon="16.50549"><ele>1132.0</ele><time>2026-04-18T10:34:38.534Z</time></trkpt><trkpt lat="39.0623733" lon="16.50556"><ele>1132.0</ele><time>2026-04-18T10:34:39.534Z</time></trkpt><trkpt lat="39.062505" lon="16.50566"><ele>1130.3333333333333</ele><time>2026-04-18T10:34:40.53Z</time></trkpt><trkpt lat="39.0626617" lon="16.505715"><ele>1128.6666666666667</ele><time>2026-04-18T10:34:41.529Z</time></trkpt><trkpt lat="39.0628183" lon="16.505775"><ele>1127.0</ele><time>2026-04-18T10:34:42.533Z</time></trkpt><trkpt lat="39.0629633" lon="16.5058767"><ele>1127.0</ele><time>2026-04-18T10:34:43.53Z</time></trkpt><trkpt lat="39.0631167" lon="16.505915"><ele>1127.0</ele><time>2026-04-18T10:34:44.535Z</time></trkpt><trkpt lat="39.0632683" lon="16.5059317"><ele>1127.0</ele><time>2026-04-18T10:34:45.533Z</time></trkpt><trkpt lat="39.0634117" lon="16.5060167"><ele>1124.3333333333335</ele><time>2026-04-18T10:34:46.532Z</time></trkpt><trkpt lat="39.06357" lon="16.506035"><ele>1121.6666666666667</ele><time>2026-04-18T10:34:47.53Z</time></trkpt><trkpt lat="39.0637233" lon="16.5060283"><ele>1119.0</ele><time>2026-04-18T10:34:48.531Z</time></trkpt><trkpt lat="39.0638833" lon="16.506045"><ele>1119.0</ele><time>2026-04-18T10:34:49.533Z</time></trkpt><trkpt lat="39.06404" lon="16.5060283"><ele>1119.0</ele><time>2026-04-18T10:34:50.531Z</time></trkpt><trkpt lat="39.0641867" lon="16.5060183"><ele>1119.0</ele><time>2026-04-18T10:34:51.533Z</time></trkpt><trkpt lat="39.0643217" lon="16.5059533"><ele>1119.0</ele><time>2026-04-18T10:34:52.531Z</time></trkpt><trkpt lat="39.064455" lon="16.5058667"><ele>1120.3333333333333</ele><time>2026-04-18T10:34:53.529Z</time></trkpt><trkpt lat="39.0645783" lon="16.5057483"><ele>1121.6666666666665</ele><time>2026-04-18T10:34:54.532Z</time></trkpt><trkpt lat="39.0646967" lon="16.505595"><ele>1123.0</ele><time>2026-04-18T10:34:55.534Z</time></trkpt><trkpt lat="39.0648283" lon="16.5054867"><ele>1124.3333333333333</ele><time>2026-04-18T10:34:56.533Z</time></trkpt><trkpt lat="39.06496" lon="16.5053633"><ele>1125.6666666666667</ele><time>2026-04-18T10:34:57.533Z</time></trkpt><trkpt lat="39.0650967" lon="16.5052583"><ele>1127.0</ele><time>2026-04-18T10:34:58.535Z</time></trkpt><trkpt lat="39.06525" lon="16.50517"><ele>1127.0</ele><time>2026-04-18T10:34:59.534Z</time></trkpt><trkpt lat="39.0654067" lon="16.5050617"><ele>1127.0</ele><time>2026-04-18T10:35:00.534Z</time></trkpt><trkpt lat="39.0655717" lon="16.5049733"><ele>1127.0</ele><time>2026-04-18T10:35:01.535Z</time></trkpt><trkpt lat="39.0657333" lon="16.50489"><ele>1131.0</ele><time>2026-04-18T10:35:02.537Z</time></trkpt><trkpt lat="39.065905" lon="16.504835"><ele>1135.0</ele><time>2026-04-18T10:35:03.533Z</time></trkpt><trkpt lat="39.0660583" lon="16.5047783"><ele>1139.0</ele><time>2026-04-18T10:35:04.533Z</time></trkpt><trkpt lat="39.0661967" lon="16.50471"><ele>1139.0</ele><time>2026-04-18T10:35:05.533Z</time></trkpt><trkpt lat="39.066315" lon="16.5046617"><ele>1139.0</ele><time>2026-04-18T10:35:06.534Z</time></trkpt><trkpt lat="39.0664183" lon="16.504645"><ele>1139.0</ele><time>2026-04-18T10:35:07.536Z</time></trkpt><trkpt lat="39.0665" lon="16.5046783"><ele>1139.0</ele><time>2026-04-18T10:35:08.529Z</time></trkpt><trkpt lat="39.0665983" lon="16.504755"><ele>1139.0</ele><time>2026-04-18T10:35:09.531Z</time></trkpt><trkpt lat="39.0667017" lon="16.504835"><ele>1139.4</ele><time>2026-04-18T10:35:10.535Z</time></trkpt><trkpt lat="39.0668067" lon="16.504925"><ele>1139.8000000000002</ele><time>2026-04-18T10:35:11.532Z</time></trkpt><trkpt lat="39.0669083" lon="16.5050067"><ele>1140.1999999999998</ele><time>2026-04-18T10:35:12.529Z</time></trkpt><trkpt lat="39.067005" lon="16.5050233"><ele>1140.6</ele><time>2026-04-18T10:35:13.535Z</time></trkpt><trkpt lat="39.0670867" lon="16.5050267"><ele>1141.0</ele><time>2026-04-18T10:35:14.533Z</time></trkpt><trkpt lat="39.0671617" lon="16.504995"><ele>1141.0</ele><time>2026-04-18T10:35:15.534Z</time></trkpt><trkpt lat="39.0672167" lon="16.5049017"><ele>1141.0</ele><time>2026-04-18T10:35:16.534Z</time></trkpt><trkpt lat="39.0672783" lon="16.5047917"><ele>1141.0</ele><time>2026-04-18T10:35:17.531Z</time></trkpt><trkpt lat="39.0673233" lon="16.5046367"><ele>1141.0</ele><time>2026-04-18T10:35:18.53Z</time></trkpt><trkpt lat="39.0673833" lon="16.504495"><ele>1138.0</ele><time>2026-04-18T10:35:19.53Z</time></trkpt><trkpt lat="39.06746" lon="16.5043883"><ele>1135.0</ele><time>2026-04-18T10:35:20.53Z</time></trkpt><trkpt lat="39.067535" lon="16.5042783"><ele>1132.0</ele><time>2026-04-18T10:35:21.531Z</time></trkpt><trkpt lat="39.0676233" lon="16.50419"><ele>1129.0</ele><time>2026-04-18T10:35:22.532Z</time></trkpt><trkpt lat="39.0677217" lon="16.504115"><ele>1129.0</ele><time>2026-04-18T10:35:23.533Z</time></trkpt><trkpt lat="39.0678217" lon="16.5040667"><ele>1129.0</ele><time>2026-04-18T10:35:24.531Z</time></trkpt><trkpt lat="39.0679283" lon="16.5040367"><ele>1129.0</ele><time>2026-04-18T10:35:25.534Z</time></trkpt><trkpt lat="39.0680517" lon="16.5040183"><ele>1129.0</ele><time>2026-04-18T10:35:26.533Z</time></trkpt><trkpt lat="39.0681933" lon="16.5040267"><ele>1131.25</ele><time>2026-04-18T10:35:27.531Z</time></trkpt><trkpt lat="39.0683383" lon="16.504005"><ele>1133.5</ele><time>2026-04-18T10:35:28.531Z</time></trkpt><trkpt lat="39.068475" lon="16.5039833"><ele>1135.75</ele><time>2026-04-18T10:35:29.531Z</time></trkpt><trkpt lat="39.06861" lon="16.5039383"><ele>1138.0</ele><time>2026-04-18T10:35:30.532Z</time></trkpt><trkpt lat="39.068745" lon="16.5039033"><ele>1138.0</ele><time>2026-04-18T10:35:31.53Z</time></trkpt><trkpt lat="39.0688633" lon="16.5038383"><ele>1138.0</ele><time>2026-04-18T10:35:32.53Z</time></trkpt><trkpt lat="39.0689733" lon="16.5037417"><ele>1138.0</ele><time>2026-04-18T10:35:33.533Z</time></trkpt><trkpt lat="39.06908" lon="16.5036533"><ele>1138.0</ele><time>2026-04-18T10:35:34.53Z</time></trkpt><trkpt lat="39.0691783" lon="16.5035533"><ele>1136.8</ele><time>2026-04-18T10:35:35.531Z</time></trkpt><trkpt lat="39.0692633" lon="16.5034433"><ele>1135.6</ele><time>2026-04-18T10:35:36.534Z</time></trkpt><trkpt lat="39.069345" lon="16.5033367"><ele>1134.4</ele><time>2026-04-18T10:35:37.534Z</time></trkpt><trkpt lat="39.069415" lon="16.5032467"><ele>1133.2</ele><time>2026-04-18T10:35:38.534Z</time></trkpt><trkpt lat="39.0694983" lon="16.5031833"><ele>1132.0</ele><time>2026-04-18T10:35:39.532Z</time></trkpt><trkpt lat="39.0695833" lon="16.5031317"><ele>1132.0</ele><time>2026-04-18T10:35:40.533Z</time></trkpt><trkpt lat="39.069685" lon="16.50308"><ele>1132.0</ele><time>2026-04-18T10:35:41.532Z</time></trkpt><trkpt lat="39.0697833" lon="16.5029867"><ele>1132.0</ele><time>2026-04-18T10:35:42.534Z</time></trkpt><trkpt lat="39.0698917" lon="16.5029033"><ele>1132.0</ele><time>2026-04-18T10:35:43.532Z</time></trkpt><trkpt lat="39.070005" lon="16.5028633"><ele>1130.0</ele><time>2026-04-18T10:35:44.532Z</time></trkpt><trkpt lat="39.070125" lon="16.502835"><ele>1128.0</ele><time>2026-04-18T10:35:45.534Z</time></trkpt><trkpt lat="39.0702683" lon="16.5028217"><ele>1126.0</ele><time>2026-04-18T10:35:46.534Z</time></trkpt><trkpt lat="39.0704217" lon="16.502805"><ele>1124.0</ele><time>2026-04-18T10:35:47.536Z</time></trkpt><trkpt lat="39.0705867" lon="16.5028167"><ele>1124.0</ele><time>2026-04-18T10:35:48.533Z</time></trkpt><trkpt lat="39.070745" lon="16.5027967"><ele>1124.0</ele><time>2026-04-18T10:35:49.535Z</time></trkpt><trkpt lat="39.070895" lon="16.5027933"><ele>1124.0</ele><time>2026-04-18T10:35:50.533Z</time></trkpt><trkpt lat="39.07104" lon="16.5027883"><ele>1123.0</ele><time>2026-04-18T10:35:51.533Z</time></trkpt><trkpt lat="39.0711683" lon="16.5027667"><ele>1122.0</ele><time>2026-04-18T10:35:52.533Z</time></trkpt><trkpt lat="39.071275" lon="16.50275"><ele>1121.0</ele><time>2026-04-18T10:35:53.533Z</time></trkpt><trkpt lat="39.07137" lon="16.502735"><ele>1120.0</ele><time>2026-04-18T10:35:54.534Z</time></trkpt><trkpt lat="39.0714433" lon="16.50268"><ele>1119.0</ele><time>2026-04-18T10:35:55.532Z</time></trkpt><trkpt lat="39.07151" lon="16.502615"><ele>1119.0</ele><time>2026-04-18T10:35:56.53Z</time></trkpt><trkpt lat="39.0715783" lon="16.5025633"><ele>1119.0</ele><time>2026-04-18T10:35:57.532Z</time></trkpt><trkpt lat="39.0716417" lon="16.5024967"><ele>1119.0</ele><time>2026-04-18T10:35:58.533Z</time></trkpt><trkpt lat="39.0717267" lon="16.5024583"><ele>1119.0</ele><time>2026-04-18T10:35:59.532Z</time></trkpt><trkpt lat="39.071815" lon="16.5024133"><ele>1119.0</ele><time>2026-04-18T10:36:00.532Z</time></trkpt><trkpt lat="39.0719117" lon="16.50238"><ele>1119.0</ele><time>2026-04-18T10:36:01.532Z</time></trkpt><trkpt lat="39.0720117" lon="16.5023317"><ele>1117.4</ele><time>2026-04-18T10:36:02.53Z</time></trkpt><trkpt lat="39.0721183" lon="16.5022883"><ele>1115.8000000000002</ele><time>2026-04-18T10:36:03.533Z</time></trkpt><trkpt lat="39.0722167" lon="16.5022467"><ele>1114.1999999999998</ele><time>2026-04-18T10:36:04.533Z</time></trkpt><trkpt lat="39.0723067" lon="16.5022083"><ele>1112.6</ele><time>2026-04-18T10:36:05.535Z</time></trkpt><trkpt lat="39.0723833" lon="16.5021867"><ele>1111.0</ele><time>2026-04-18T10:36:06.531Z</time></trkpt><trkpt lat="39.0724517" lon="16.5021633"><ele>1109.6</ele><time>2026-04-18T10:36:07.531Z</time></trkpt><trkpt lat="39.0725433" lon="16.5021217"><ele>1108.1999999999998</ele><time>2026-04-18T10:36:09.53Z</time></trkpt><trkpt lat="39.072615" lon="16.5020833"><ele>1106.8000000000002</ele><time>2026-04-18T10:36:11.53Z</time></trkpt><trkpt lat="39.07271" lon="16.50203"><ele>1105.4</ele><time>2026-04-18T10:36:13.531Z</time></trkpt><trkpt lat="39.0727983" lon="16.5019383"><ele>1104.0</ele><time>2026-04-18T10:36:15.532Z</time></trkpt><trkpt lat="39.0729217" lon="16.5018517"><ele>1104.0</ele><time>2026-04-18T10:36:17.531Z</time></trkpt><trkpt lat="39.0730033" lon="16.5018"><ele>1104.0</ele><time>2026-04-18T10:36:18.53Z</time></trkpt><trkpt lat="39.0730883" lon="16.5017183"><ele>1104.0</ele><time>2026-04-18T10:36:19.533Z</time></trkpt><trkpt lat="39.0731817" lon="16.5016283"><ele>1104.0</ele><time>2026-04-18T10:36:20.532Z</time></trkpt><trkpt lat="39.0732867" lon="16.5015533"><ele>1104.0</ele><time>2026-04-18T10:36:21.532Z</time></trkpt><trkpt lat="39.0733767" lon="16.50145"><ele>1104.4</ele><time>2026-04-18T10:36:22.531Z</time></trkpt><trkpt lat="39.0734717" lon="16.5013733"><ele>1104.8000000000002</ele><time>2026-04-18T10:36:23.533Z</time></trkpt><trkpt lat="39.073555" lon="16.5012983"><ele>1105.1999999999998</ele><time>2026-04-18T10:36:24.533Z</time></trkpt><trkpt lat="39.0736333" lon="16.5012283"><ele>1105.6</ele><time>2026-04-18T10:36:25.531Z</time></trkpt><trkpt lat="39.0737217" lon="16.50119"><ele>1106.0</ele><time>2026-04-18T10:36:26.533Z</time></trkpt><trkpt lat="39.073805" lon="16.5011317"><ele>1106.6</ele><time>2026-04-18T10:36:27.53Z</time></trkpt><trkpt lat="39.0738883" lon="16.5010867"><ele>1107.1999999999998</ele><time>2026-04-18T10:36:28.533Z</time></trkpt><trkpt lat="39.073965" lon="16.5010283"><ele>1107.8000000000002</ele><time>2026-04-18T10:36:29.533Z</time></trkpt><trkpt lat="39.074045" lon="16.500975"><ele>1108.4</ele><time>2026-04-18T10:36:30.529Z</time></trkpt><trkpt lat="39.0741333" lon="16.50095"><ele>1109.0</ele><time>2026-04-18T10:36:31.531Z</time></trkpt><trkpt lat="39.0742267" lon="16.5009233"><ele>1109.6000000000001</ele><time>2026-04-18T10:36:32.534Z</time></trkpt><trkpt lat="39.0743217" lon="16.5008783"><ele>1110.2</ele><time>2026-04-18T10:36:33.532Z</time></trkpt><trkpt lat="39.0744117" lon="16.5008233"><ele>1110.8000000000002</ele><time>2026-04-18T10:36:34.53Z</time></trkpt><trkpt lat="39.0745067" lon="16.5007917"><ele>1111.4</ele><time>2026-04-18T10:36:35.53Z</time></trkpt><trkpt lat="39.0745983" lon="16.5007633"><ele>1112.0</ele><time>2026-04-18T10:36:36.532Z</time></trkpt><trkpt lat="39.0746867" lon="16.5007333"><ele>1112.0</ele><time>2026-04-18T10:36:37.534Z</time></trkpt><trkpt lat="39.0747733" lon="16.5007067"><ele>1112.0</ele><time>2026-04-18T10:36:38.531Z</time></trkpt><trkpt lat="39.0748633" lon="16.5006833"><ele>1112.0</ele><time>2026-04-18T10:36:39.537Z</time></trkpt><trkpt lat="39.07494" lon="16.5006533"><ele>1112.0</ele><time>2026-04-18T10:36:40.534Z</time></trkpt><trkpt lat="39.0750383" lon="16.5006617"><ele>1112.0</ele><time>2026-04-18T10:36:42.53Z</time></trkpt><trkpt lat="39.0751167" lon="16.5006567"><ele>1112.0</ele><time>2026-04-18T10:36:45.532Z</time></trkpt><trkpt lat="39.0751917" lon="16.5006217"><ele>1111.0</ele><time>2026-04-18T10:36:48.53Z</time></trkpt><trkpt lat="39.0752583" lon="16.5005917"><ele>1110.0</ele><time>2026-04-18T10:36:50.532Z</time></trkpt><trkpt lat="39.0753367" lon="16.5005667"><ele>1109.0</ele><time>2026-04-18T10:36:52.531Z</time></trkpt><trkpt lat="39.0754733" lon="16.500535"><ele>1108.0</ele><time>2026-04-18T10:36:54.533Z</time></trkpt><trkpt lat="39.07555" lon="16.5005067"><ele>1107.0</ele><time>2026-04-18T10:36:55.531Z</time></trkpt><trkpt lat="39.0756333" lon="16.5004917"><ele>1107.0</ele><time>2026-04-18T10:36:56.532Z</time></trkpt><trkpt lat="39.075725" lon="16.50048"><ele>1107.0</ele><time>2026-04-18T10:36:57.532Z</time></trkpt><trkpt lat="39.0758183" lon="16.5004483"><ele>1107.0</ele><time>2026-04-18T10:36:58.531Z</time></trkpt><trkpt lat="39.0759217" lon="16.50043"><ele>1107.0</ele><time>2026-04-18T10:36:59.531Z</time></trkpt><trkpt lat="39.07603" lon="16.500415"><ele>1107.0</ele><time>2026-04-18T10:37:00.534Z</time></trkpt><trkpt lat="39.0761433" lon="16.5004033"><ele>1106.4</ele><time>2026-04-18T10:37:01.532Z</time></trkpt><trkpt lat="39.0762567" lon="16.5004"><ele>1105.8000000000002</ele><time>2026-04-18T10:37:02.533Z</time></trkpt><trkpt lat="39.0763633" lon="16.500385"><ele>1105.2</ele><time>2026-04-18T10:37:03.535Z</time></trkpt><trkpt lat="39.07646" lon="16.500355"><ele>1104.6000000000001</ele><time>2026-04-18T10:37:04.532Z</time></trkpt><trkpt lat="39.0765517" lon="16.50032"><ele>1104.0</ele><time>2026-04-18T10:37:05.533Z</time></trkpt><trkpt lat="39.0766317" lon="16.5002933"><ele>1103.8333333333333</ele><time>2026-04-18T10:37:06.531Z</time></trkpt><trkpt lat="39.0766967" lon="16.5002633"><ele>1103.6666666666667</ele><time>2026-04-18T10:37:07.532Z</time></trkpt><trkpt lat="39.07679" lon="16.5002033"><ele>1103.5</ele><time>2026-04-18T10:37:09.533Z</time></trkpt><trkpt lat="39.07685" lon="16.500155"><ele>1103.3333333333335</ele><time>2026-04-18T10:37:11.531Z</time></trkpt><trkpt lat="39.0769267" lon="16.500105"><ele>1103.1666666666667</ele><time>2026-04-18T10:37:14.53Z</time></trkpt><trkpt lat="39.0769933" lon="16.500065"><ele>1103.0</ele><time>2026-04-18T10:37:17.53Z</time></trkpt><trkpt lat="39.0770567" lon="16.5000133"><ele>1103.0</ele><time>2026-04-18T10:37:20.533Z</time></trkpt><trkpt lat="39.07712" lon="16.4999567"><ele>1103.0</ele><time>2026-04-18T10:37:24.531Z</time></trkpt><trkpt lat="39.0771967" lon="16.4999"><ele>1103.0</ele><time>2026-04-18T10:37:34.53Z</time></trkpt><trkpt lat="39.0773217" lon="16.49981"><ele>1103.0</ele><time>2026-04-18T10:37:36.532Z</time></trkpt><trkpt lat="39.077405" lon="16.4997733"><ele>1103.0</ele><time>2026-04-18T10:37:37.53Z</time></trkpt><trkpt lat="39.077495" lon="16.4997033"><ele>1102.5</ele><time>2026-04-18T10:37:38.531Z</time></trkpt><trkpt lat="39.077605" lon="16.49969"><ele>1102.0</ele><time>2026-04-18T10:37:39.533Z</time></trkpt><trkpt lat="39.0777217" lon="16.4996333"><ele>1101.5</ele><time>2026-04-18T10:37:40.532Z</time></trkpt><trkpt lat="39.07783" lon="16.4996717"><ele>1101.0</ele><time>2026-04-18T10:37:41.532Z</time></trkpt><trkpt lat="39.077935" lon="16.4996833"><ele>1101.0</ele><time>2026-04-18T10:37:42.53Z</time></trkpt><trkpt lat="39.0780233" lon="16.4996917"><ele>1101.0</ele><time>2026-04-18T10:37:43.533Z</time></trkpt><trkpt lat="39.0781017" lon="16.4996817"><ele>1101.0</ele><time>2026-04-18T10:37:44.533Z</time></trkpt><trkpt lat="39.0781717" lon="16.4996467"><ele>1101.0</ele><time>2026-04-18T10:37:45.534Z</time></trkpt><trkpt lat="39.0782383" lon="16.4995983"><ele>1101.0</ele><time>2026-04-18T10:37:46.532Z</time></trkpt><trkpt lat="39.0783133" lon="16.49954"><ele>1101.0</ele><time>2026-04-18T10:37:47.531Z</time></trkpt><trkpt lat="39.0783933" lon="16.4994817"><ele>1102.3999999999999</ele><time>2026-04-18T10:37:48.53Z</time></trkpt><trkpt lat="39.0784733" lon="16.4994017"><ele>1103.8</ele><time>2026-04-18T10:37:49.53Z</time></trkpt><trkpt lat="39.0785533" lon="16.499315"><ele>1105.1999999999998</ele><time>2026-04-18T10:37:50.53Z</time></trkpt><trkpt lat="39.0786533" lon="16.4992633"><ele>1106.6</ele><time>2026-04-18T10:37:51.531Z</time></trkpt><trkpt lat="39.0787633" lon="16.4992133"><ele>1108.0</ele><time>2026-04-18T10:37:52.53Z</time></trkpt><trkpt lat="39.078865" lon="16.4991433"><ele>1108.0</ele><time>2026-04-18T10:37:53.533Z</time></trkpt><trkpt lat="39.0789683" lon="16.499075"><ele>1108.0</ele><time>2026-04-18T10:37:54.536Z</time></trkpt><trkpt lat="39.07907" lon="16.49902"><ele>1108.0</ele><time>2026-04-18T10:37:55.533Z</time></trkpt><trkpt lat="39.0791667" lon="16.4989667"><ele>1108.0</ele><time>2026-04-18T10:37:56.532Z</time></trkpt><trkpt lat="39.07926" lon="16.4989067"><ele>1108.0</ele><time>2026-04-18T10:37:57.534Z</time></trkpt><trkpt lat="39.079365" lon="16.4988667"><ele>1108.75</ele><time>2026-04-18T10:37:58.532Z</time></trkpt><trkpt lat="39.0794617" lon="16.498795"><ele>1109.5</ele><time>2026-04-18T10:37:59.531Z</time></trkpt><trkpt lat="39.07956" lon="16.4987167"><ele>1110.25</ele><time>2026-04-18T10:38:00.53Z</time></trkpt><trkpt lat="39.0796517" lon="16.4986317"><ele>1111.0</ele><time>2026-04-18T10:38:01.532Z</time></trkpt><trkpt lat="39.0797483" lon="16.4985467"><ele>1111.0</ele><time>2026-04-18T10:38:02.532Z</time></trkpt><trkpt lat="39.0798433" lon="16.4984567"><ele>1111.0</ele><time>2026-04-18T10:38:03.532Z</time></trkpt><trkpt lat="39.0799467" lon="16.4983767"><ele>1111.0</ele><time>2026-04-18T10:38:04.53Z</time></trkpt><trkpt lat="39.080045" lon="16.4982833"><ele>1111.0</ele><time>2026-04-18T10:38:05.532Z</time></trkpt><trkpt lat="39.0801333" lon="16.4982033"><ele>1113.0</ele><time>2026-04-18T10:38:06.532Z</time></trkpt><trkpt lat="39.0802133" lon="16.4981317"><ele>1115.0</ele><time>2026-04-18T10:38:07.532Z</time></trkpt><trkpt lat="39.0802783" lon="16.4980367"><ele>1117.0</ele><time>2026-04-18T10:38:08.531Z</time></trkpt><trkpt lat="39.0803467" lon="16.4979633"><ele>1119.0</ele><time>2026-04-18T10:38:09.535Z</time></trkpt><trkpt lat="39.08042" lon="16.4979017"><ele>1121.0</ele><time>2026-04-18T10:38:10.53Z</time></trkpt><trkpt lat="39.080475" lon="16.4978267"><ele>1121.6</ele><time>2026-04-18T10:38:11.532Z</time></trkpt><trkpt lat="39.0805383" lon="16.4977567"><ele>1122.1999999999998</ele><time>2026-04-18T10:38:12.531Z</time></trkpt><trkpt lat="39.0806717" lon="16.4977583"><ele>1122.8000000000002</ele><time>2026-04-18T10:38:14.531Z</time></trkpt><trkpt lat="39.0807367" lon="16.4976733"><ele>1123.4</ele><time>2026-04-18T10:38:15.533Z</time></trkpt><trkpt lat="39.0807883" lon="16.497745"><ele>1124.0</ele><time>2026-04-18T10:38:17.533Z</time></trkpt><trkpt lat="39.08088" lon="16.4976733"><ele>1124.4</ele><time>2026-04-18T10:38:18.532Z</time></trkpt><trkpt lat="39.0809467" lon="16.4976033"><ele>1124.8000000000002</ele><time>2026-04-18T10:38:19.532Z</time></trkpt><trkpt lat="39.0810017" lon="16.497545"><ele>1125.1999999999998</ele><time>2026-04-18T10:38:20.531Z</time></trkpt><trkpt lat="39.0810967" lon="16.4974467"><ele>1125.6</ele><time>2026-04-18T10:38:21.532Z</time></trkpt><trkpt lat="39.0811683" lon="16.4973867"><ele>1126.0</ele><time>2026-04-18T10:38:22.532Z</time></trkpt><trkpt lat="39.081245" lon="16.4973317"><ele>1126.0</ele><time>2026-04-18T10:38:23.53Z</time></trkpt><trkpt lat="39.0813217" lon="16.4972833"><ele>1126.0</ele><time>2026-04-18T10:38:24.531Z</time></trkpt><trkpt lat="39.0814" lon="16.4972333"><ele>1126.0</ele><time>2026-04-18T10:38:25.614Z</time></trkpt><trkpt lat="39.0814917" lon="16.4971733"><ele>1126.0</ele><time>2026-04-18T10:38:26.532Z</time></trkpt><trkpt lat="39.0815933" lon="16.497125"><ele>1126.0</ele><time>2026-04-18T10:38:27.533Z</time></trkpt><trkpt lat="39.0816883" lon="16.4970667"><ele>1127.0</ele><time>2026-04-18T10:38:28.532Z</time></trkpt><trkpt lat="39.0817917" lon="16.4970117"><ele>1128.0</ele><time>2026-04-18T10:38:29.53Z</time></trkpt><trkpt lat="39.0818883" lon="16.49696"><ele>1129.0</ele><time>2026-04-18T10:38:30.532Z</time></trkpt><trkpt lat="39.0819817" lon="16.4969083"><ele>1130.0</ele><time>2026-04-18T10:38:31.533Z</time></trkpt><trkpt lat="39.082065" lon="16.4968567"><ele>1131.0</ele><time>2026-04-18T10:38:32.531Z</time></trkpt><trkpt lat="39.0821417" lon="16.496805"><ele>1131.0</ele><time>2026-04-18T10:38:33.532Z</time></trkpt><trkpt lat="39.0822217" lon="16.4967533"><ele>1131.0</ele><time>2026-04-18T10:38:34.532Z</time></trkpt><trkpt lat="39.082295" lon="16.496705"><ele>1131.0</ele><time>2026-04-18T10:38:35.53Z</time></trkpt><trkpt lat="39.082365" lon="16.4966567"><ele>1131.0</ele><time>2026-04-18T10:38:36.531Z</time></trkpt><trkpt lat="39.08243" lon="16.4966033"><ele>1131.0</ele><time>2026-04-18T10:38:37.53Z</time></trkpt><trkpt lat="39.082485" lon="16.4965383"><ele>1131.0</ele><time>2026-04-18T10:38:38.535Z</time></trkpt><trkpt lat="39.0825467" lon="16.4964617"><ele>1133.0</ele><time>2026-04-18T10:38:39.53Z</time></trkpt><trkpt lat="39.0826183" lon="16.4963717"><ele>1135.0</ele><time>2026-04-18T10:38:40.531Z</time></trkpt><trkpt lat="39.0826933" lon="16.4962717"><ele>1137.0</ele><time>2026-04-18T10:38:41.531Z</time></trkpt><trkpt lat="39.08275" lon="16.4961733"><ele>1139.0</ele><time>2026-04-18T10:38:42.531Z</time></trkpt><trkpt lat="39.0828" lon="16.4960733"><ele>1141.0</ele><time>2026-04-18T10:38:43.53Z</time></trkpt><trkpt lat="39.08284" lon="16.49597"><ele>1141.0</ele><time>2026-04-18T10:38:44.532Z</time></trkpt><trkpt lat="39.0828683" lon="16.495865"><ele>1141.0</ele><time>2026-04-18T10:38:45.531Z</time></trkpt><trkpt lat="39.0828917" lon="16.495745"><ele>1141.0</ele><time>2026-04-18T10:38:46.531Z</time></trkpt><trkpt lat="39.0829233" lon="16.4956167"><ele>1141.0</ele><time>2026-04-18T10:38:47.53Z</time></trkpt><trkpt lat="39.08295" lon="16.4954967"><ele>1141.0</ele><time>2026-04-18T10:38:48.529Z</time></trkpt><trkpt lat="39.082975" lon="16.4953933"><ele>1141.0</ele><time>2026-04-18T10:38:49.531Z</time></trkpt><trkpt lat="39.0829867" lon="16.495305"><ele>1141.0</ele><time>2026-04-18T10:38:50.529Z</time></trkpt><trkpt lat="39.0830033" lon="16.4952133"><ele>1141.0</ele><time>2026-04-18T10:38:51.53Z</time></trkpt><trkpt lat="39.0830267" lon="16.495125"><ele>1141.0</ele><time>2026-04-18T10:38:52.53Z</time></trkpt><trkpt lat="39.0830517" lon="16.4950317"><ele>1141.0</ele><time>2026-04-18T10:38:53.529Z</time></trkpt><trkpt lat="39.0830767" lon="16.494935"><ele>1141.0</ele><time>2026-04-18T10:38:54.529Z</time></trkpt><trkpt lat="39.0830983" lon="16.494845"><ele>1141.0</ele><time>2026-04-18T10:38:55.531Z</time></trkpt><trkpt lat="39.0831183" lon="16.49476"><ele>1141.0</ele><time>2026-04-18T10:38:56.529Z</time></trkpt><trkpt lat="39.083145" lon="16.4946"><ele>1141.0</ele><time>2026-04-18T10:38:58.533Z</time></trkpt><trkpt lat="39.08315" lon="16.4945083"><ele>1141.0</ele><time>2026-04-18T10:38:59.531Z</time></trkpt><trkpt lat="39.0831467" lon="16.4944183"><ele>1141.0</ele><time>2026-04-18T10:39:00.531Z</time></trkpt><trkpt lat="39.083135" lon="16.4943367"><ele>1141.0</ele><time>2026-04-18T10:39:01.53Z</time></trkpt><trkpt lat="39.083095" lon="16.49419"><ele>1140.6</ele><time>2026-04-18T10:39:03.532Z</time></trkpt><trkpt lat="39.0830617" lon="16.4940433"><ele>1140.1999999999998</ele><time>2026-04-18T10:39:05.532Z</time></trkpt><trkpt lat="39.08307" lon="16.49391"><ele>1139.8000000000002</ele><time>2026-04-18T10:39:07.533Z</time></trkpt><trkpt lat="39.0831383" lon="16.4937817"><ele>1139.4</ele><time>2026-04-18T10:39:09.532Z</time></trkpt><trkpt lat="39.0831867" lon="16.4937133"><ele>1139.0</ele><time>2026-04-18T10:39:10.53Z</time></trkpt><trkpt lat="39.08325" lon="16.493645"><ele>1141.4</ele><time>2026-04-18T10:39:11.533Z</time></trkpt><trkpt lat="39.0833067" lon="16.4935733"><ele>1143.8000000000002</ele><time>2026-04-18T10:39:12.53Z</time></trkpt><trkpt lat="39.0833733" lon="16.493495"><ele>1146.1999999999998</ele><time>2026-04-18T10:39:13.531Z</time></trkpt><trkpt lat="39.083425" lon="16.493405"><ele>1148.6</ele><time>2026-04-18T10:39:14.531Z</time></trkpt><trkpt lat="39.0835033" lon="16.4933283"><ele>1151.0</ele><time>2026-04-18T10:39:15.533Z</time></trkpt><trkpt lat="39.08358" lon="16.4932467"><ele>1151.0</ele><time>2026-04-18T10:39:16.53Z</time></trkpt><trkpt lat="39.0836567" lon="16.4931717"><ele>1151.0</ele><time>2026-04-18T10:39:17.533Z</time></trkpt><trkpt lat="39.083725" lon="16.4931017"><ele>1151.0</ele><time>2026-04-18T10:39:18.532Z</time></trkpt><trkpt lat="39.0837883" lon="16.4930517"><ele>1151.0</ele><time>2026-04-18T10:39:19.532Z</time></trkpt><trkpt lat="39.083845" lon="16.4929983"><ele>1151.0</ele><time>2026-04-18T10:39:20.53Z</time></trkpt><trkpt lat="39.0839" lon="16.4929467"><ele>1151.0</ele><time>2026-04-18T10:39:21.531Z</time></trkpt><trkpt lat="39.0839517" lon="16.4928867"><ele>1150.6666666666667</ele><time>2026-04-18T10:39:22.532Z</time></trkpt><trkpt lat="39.08399" lon="16.4928117"><ele>1150.3333333333335</ele><time>2026-04-18T10:39:23.529Z</time></trkpt><trkpt lat="39.0840333" lon="16.492735"><ele>1150.0</ele><time>2026-04-18T10:39:24.531Z</time></trkpt><trkpt lat="39.0840767" lon="16.4926517"><ele>1149.6666666666667</ele><time>2026-04-18T10:39:25.53Z</time></trkpt><trkpt lat="39.084125" lon="16.492565"><ele>1149.3333333333333</ele><time>2026-04-18T10:39:26.531Z</time></trkpt><trkpt lat="39.084185" lon="16.49248"><ele>1149.0</ele><time>2026-04-18T10:39:27.532Z</time></trkpt><trkpt lat="39.0842417" lon="16.4923933"><ele>1149.0</ele><time>2026-04-18T10:39:28.531Z</time></trkpt><trkpt lat="39.0842933" lon="16.49232"><ele>1149.0</ele><time>2026-04-18T10:39:29.531Z</time></trkpt><trkpt lat="39.08435" lon="16.4922667"><ele>1149.0</ele><time>2026-04-18T10:39:30.532Z</time></trkpt><trkpt lat="39.0844083" lon="16.492225"><ele>1149.0</ele><time>2026-04-18T10:39:31.532Z</time></trkpt><trkpt lat="39.0845133" lon="16.49217"><ele>1149.0</ele><time>2026-04-18T10:39:33.533Z</time></trkpt><trkpt lat="39.084615" lon="16.4921183"><ele>1149.0</ele><time>2026-04-18T10:39:35.531Z</time></trkpt><trkpt lat="39.0846717" lon="16.4920667"><ele>1148.8333333333333</ele><time>2026-04-18T10:39:36.532Z</time></trkpt><trkpt lat="39.084725" lon="16.4919983"><ele>1148.6666666666667</ele><time>2026-04-18T10:39:37.532Z</time></trkpt><trkpt lat="39.0847717" lon="16.49191"><ele>1148.5</ele><time>2026-04-18T10:39:38.532Z</time></trkpt><trkpt lat="39.0848233" lon="16.4918283"><ele>1148.3333333333335</ele><time>2026-04-18T10:39:39.531Z</time></trkpt><trkpt lat="39.0848717" lon="16.4917333"><ele>1148.1666666666667</ele><time>2026-04-18T10:39:40.532Z</time></trkpt><trkpt lat="39.0849433" lon="16.4916617"><ele>1148.0</ele><time>2026-04-18T10:39:41.532Z</time></trkpt><trkpt lat="39.085035" lon="16.491585"><ele>1148.6</ele><time>2026-04-18T10:39:42.534Z</time></trkpt><trkpt lat="39.0850583" lon="16.4914983"><ele>1149.1999999999998</ele><time>2026-04-18T10:39:43.531Z</time></trkpt><trkpt lat="39.085105" lon="16.4913617"><ele>1149.8</ele><time>2026-04-18T10:39:45.533Z</time></trkpt><trkpt lat="39.0852283" lon="16.4913167"><ele>1150.3999999999999</ele><time>2026-04-18T10:39:46.531Z</time></trkpt><trkpt lat="39.0853033" lon="16.49131"><ele>1151.0</ele><time>2026-04-18T10:39:47.53Z</time></trkpt><trkpt lat="39.0853717" lon="16.4912933"><ele>1151.6666666666667</ele><time>2026-04-18T10:39:48.532Z</time></trkpt><trkpt lat="39.08545" lon="16.49119"><ele>1152.3333333333335</ele><time>2026-04-18T10:39:49.535Z</time></trkpt><trkpt lat="39.0855083" lon="16.4910983"><ele>1153.0</ele><time>2026-04-18T10:39:50.534Z</time></trkpt><trkpt lat="39.0855733" lon="16.4910433"><ele>1153.6666666666667</ele><time>2026-04-18T10:39:51.532Z</time></trkpt><trkpt lat="39.0856483" lon="16.491015"><ele>1154.3333333333333</ele><time>2026-04-18T10:39:52.532Z</time></trkpt><trkpt lat="39.0857283" lon="16.4909917"><ele>1155.0</ele><time>2026-04-18T10:39:53.533Z</time></trkpt><trkpt lat="39.0858117" lon="16.490975"><ele>1155.6666666666667</ele><time>2026-04-18T10:39:54.533Z</time></trkpt><trkpt lat="39.085965" lon="16.490945"><ele>1156.3333333333335</ele><time>2026-04-18T10:39:56.531Z</time></trkpt><trkpt lat="39.0861583" lon="16.4909517"><ele>1157.0</ele><time>2026-04-18T10:39:58.537Z</time></trkpt><trkpt lat="39.086265" lon="16.4909867"><ele>1157.0</ele><time>2026-04-18T10:39:59.534Z</time></trkpt><trkpt lat="39.0863783" lon="16.4909817"><ele>1157.0</ele><time>2026-04-18T10:40:02.531Z</time></trkpt><trkpt lat="39.0864667" lon="16.49094"><ele>1157.0</ele><time>2026-04-18T10:40:03.531Z</time></trkpt><trkpt lat="39.08652" lon="16.4908367"><ele>1157.0</ele><time>2026-04-18T10:40:05.532Z</time></trkpt><trkpt lat="39.086575" lon="16.490795"><ele>1157.0</ele><time>2026-04-18T10:40:06.531Z</time></trkpt><trkpt lat="39.0866517" lon="16.4907"><ele>1156.8</ele><time>2026-04-18T10:40:08.53Z</time></trkpt><trkpt lat="39.0866717" lon="16.4905583"><ele>1156.6</ele><time>2026-04-18T10:40:09.531Z</time></trkpt><trkpt lat="39.086675" lon="16.49046"><ele>1156.3999999999999</ele><time>2026-04-18T10:40:10.531Z</time></trkpt><trkpt lat="39.086705" lon="16.490345"><ele>1156.2</ele><time>2026-04-18T10:40:11.535Z</time></trkpt><trkpt lat="39.0867583" lon="16.4902517"><ele>1156.0</ele><time>2026-04-18T10:40:12.532Z</time></trkpt><trkpt lat="39.08682" lon="16.4901583"><ele>1156.0</ele><time>2026-04-18T10:40:13.533Z</time></trkpt><trkpt lat="39.0868783" lon="16.4900533"><ele>1156.0</ele><time>2026-04-18T10:40:14.533Z</time></trkpt><trkpt lat="39.0869467" lon="16.4899933"><ele>1156.0</ele><time>2026-04-18T10:40:15.534Z</time></trkpt><trkpt lat="39.0870283" lon="16.4899567"><ele>1156.0</ele><time>2026-04-18T10:40:16.532Z</time></trkpt><trkpt lat="39.0871033" lon="16.4899333"><ele>1156.0</ele><time>2026-04-18T10:40:17.539Z</time></trkpt><trkpt lat="39.0872167" lon="16.489975"><ele>1156.0</ele><time>2026-04-18T10:40:19.532Z</time></trkpt><trkpt lat="39.0873083" lon="16.4899633"><ele>1156.0</ele><time>2026-04-18T10:40:20.534Z</time></trkpt><trkpt lat="39.0873867" lon="16.489975"><ele>1156.0</ele><time>2026-04-18T10:40:21.531Z</time></trkpt><trkpt lat="39.0874517" lon="16.4899917"><ele>1156.0</ele><time>2026-04-18T10:40:22.533Z</time></trkpt><trkpt lat="39.0875283" lon="16.489995"><ele>1156.0</ele><time>2026-04-18T10:40:23.532Z</time></trkpt><trkpt lat="39.0876033" lon="16.4899883"><ele>1156.0</ele><time>2026-04-18T10:40:24.533Z</time></trkpt><trkpt lat="39.08769" lon="16.4899733"><ele>1155.0</ele><time>2026-04-18T10:40:25.533Z</time></trkpt><trkpt lat="39.087765" lon="16.4899567"><ele>1154.0</ele><time>2026-04-18T10:40:26.533Z</time></trkpt><trkpt lat="39.08784" lon="16.489945"><ele>1153.0</ele><time>2026-04-18T10:40:27.531Z</time></trkpt><trkpt lat="39.0879317" lon="16.4899017"><ele>1152.0</ele><time>2026-04-18T10:40:28.532Z</time></trkpt><trkpt lat="39.0880117" lon="16.4898683"><ele>1151.0</ele><time>2026-04-18T10:40:29.531Z</time></trkpt><trkpt lat="39.0881083" lon="16.48981"><ele>1150.0</ele><time>2026-04-18T10:40:30.532Z</time></trkpt><trkpt lat="39.0881967" lon="16.4897683"><ele>1149.0</ele><time>2026-04-18T10:40:31.532Z</time></trkpt><trkpt lat="39.0882783" lon="16.4897167"><ele>1148.0</ele><time>2026-04-18T10:40:32.533Z</time></trkpt><trkpt lat="39.0883517" lon="16.4896683"><ele>1147.0</ele><time>2026-04-18T10:40:33.531Z</time></trkpt><trkpt lat="39.0884667" lon="16.4896217"><ele>1146.0</ele><time>2026-04-18T10:40:35.532Z</time></trkpt><trkpt lat="39.0885667" lon="16.489645"><ele>1145.0</ele><time>2026-04-18T10:40:37.533Z</time></trkpt><trkpt lat="39.08865" lon="16.489745"><ele>1145.0</ele><time>2026-04-18T10:40:39.531Z</time></trkpt><trkpt lat="39.0886767" lon="16.48987"><ele>1145.0</ele><time>2026-04-18T10:40:41.535Z</time></trkpt><trkpt lat="39.0887017" lon="16.490005"><ele>1145.0</ele><time>2026-04-18T10:40:43.532Z</time></trkpt><trkpt lat="39.08874" lon="16.4901567"><ele>1145.0</ele><time>2026-04-18T10:40:45.533Z</time></trkpt><trkpt lat="39.0888167" lon="16.490255"><ele>1145.0</ele><time>2026-04-18T10:40:47.532Z</time></trkpt><trkpt lat="39.0889133" lon="16.4902867"><ele>1145.0</ele><time>2026-04-18T10:40:49.533Z</time></trkpt><trkpt lat="39.089005" lon="16.49029"><ele>1145.0</ele><time>2026-04-18T10:40:51.536Z</time></trkpt><trkpt lat="39.0891033" lon="16.4903183"><ele>1145.0</ele><time>2026-04-18T10:40:53.533Z</time></trkpt><trkpt lat="39.0891717" lon="16.4903467"><ele>1145.0</ele><time>2026-04-18T10:40:54.534Z</time></trkpt><trkpt lat="39.0892517" lon="16.4903917"><ele>1145.0</ele><time>2026-04-18T10:40:55.533Z</time></trkpt><trkpt lat="39.0893417" lon="16.49043"><ele>1145.0</ele><time>2026-04-18T10:40:56.532Z</time></trkpt><trkpt lat="39.089445" lon="16.49047"><ele>1144.25</ele><time>2026-04-18T10:40:57.534Z</time></trkpt><trkpt lat="39.0895567" lon="16.4905217"><ele>1143.5</ele><time>2026-04-18T10:40:58.533Z</time></trkpt><trkpt lat="39.0896767" lon="16.4905683"><ele>1142.75</ele><time>2026-04-18T10:40:59.532Z</time></trkpt><trkpt lat="39.0898067" lon="16.490615"><ele>1142.0</ele><time>2026-04-18T10:41:00.533Z</time></trkpt><trkpt lat="39.0899467" lon="16.49064"><ele>1140.25</ele><time>2026-04-18T10:41:01.537Z</time></trkpt><trkpt lat="39.0900933" lon="16.4906633"><ele>1138.5</ele><time>2026-04-18T10:41:02.531Z</time></trkpt><trkpt lat="39.09024" lon="16.4906933"><ele>1136.75</ele><time>2026-04-18T10:41:03.532Z</time></trkpt><trkpt lat="39.0903783" lon="16.490735"><ele>1135.0</ele><time>2026-04-18T10:41:04.533Z</time></trkpt><trkpt lat="39.0905083" lon="16.49079"><ele>1135.0</ele><time>2026-04-18T10:41:05.533Z</time></trkpt><trkpt lat="39.0906317" lon="16.4908717"><ele>1135.0</ele><time>2026-04-18T10:41:06.533Z</time></trkpt><trkpt lat="39.09075" lon="16.4909717"><ele>1135.0</ele><time>2026-04-18T10:41:07.535Z</time></trkpt><trkpt lat="39.0908767" lon="16.4910467"><ele>1135.0</ele><time>2026-04-18T10:41:08.532Z</time></trkpt><trkpt lat="39.0909933" lon="16.4911317"><ele>1133.25</ele><time>2026-04-18T10:41:09.533Z</time></trkpt><trkpt lat="39.0911" lon="16.4912367"><ele>1131.5</ele><time>2026-04-18T10:41:10.534Z</time></trkpt><trkpt lat="39.09122" lon="16.491305"><ele>1129.75</ele><time>2026-04-18T10:41:11.532Z</time></trkpt><trkpt lat="39.0913367" lon="16.491435"><ele>1128.0</ele><time>2026-04-18T10:41:12.531Z</time></trkpt><trkpt lat="39.0914483" lon="16.4915"><ele>1127.75</ele><time>2026-04-18T10:41:13.534Z</time></trkpt><trkpt lat="39.09159" lon="16.491575"><ele>1127.5</ele><time>2026-04-18T10:41:14.533Z</time></trkpt><trkpt lat="39.0916283" lon="16.4917217"><ele>1127.25</ele><time>2026-04-18T10:41:15.532Z</time></trkpt><trkpt lat="39.09172" lon="16.4918067"><ele>1127.0</ele><time>2026-04-18T10:41:16.532Z</time></trkpt><trkpt lat="39.0918017" lon="16.4918917"><ele>1125.0</ele><time>2026-04-18T10:41:17.532Z</time></trkpt><trkpt lat="39.0918233" lon="16.4920383"><ele>1123.0</ele><time>2026-04-18T10:41:18.532Z</time></trkpt><trkpt lat="39.0917983" lon="16.492205"><ele>1121.0</ele><time>2026-04-18T10:41:19.533Z</time></trkpt><trkpt lat="39.09178" lon="16.4923717"><ele>1119.0</ele><time>2026-04-18T10:41:20.53Z</time></trkpt><trkpt lat="39.09177" lon="16.4925533"><ele>1118.6666666666667</ele><time>2026-04-18T10:41:21.531Z</time></trkpt><trkpt lat="39.0917717" lon="16.49275"><ele>1118.3333333333335</ele><time>2026-04-18T10:41:22.533Z</time></trkpt><trkpt lat="39.0917767" lon="16.4929483"><ele>1118.0</ele><time>2026-04-18T10:41:23.531Z</time></trkpt><trkpt lat="39.0917783" lon="16.493155"><ele>1117.3333333333335</ele><time>2026-04-18T10:41:24.533Z</time></trkpt><trkpt lat="39.09179" lon="16.4933733"><ele>1116.6666666666667</ele><time>2026-04-18T10:41:25.532Z</time></trkpt><trkpt lat="39.0918033" lon="16.4936"><ele>1116.0</ele><time>2026-04-18T10:41:26.53Z</time></trkpt><trkpt lat="39.0918183" lon="16.4938367"><ele>1115.6666666666667</ele><time>2026-04-18T10:41:27.537Z</time></trkpt><trkpt lat="39.0918383" lon="16.4940667"><ele>1115.3333333333335</ele><time>2026-04-18T10:41:28.534Z</time></trkpt><trkpt lat="39.0918417" lon="16.49428"><ele>1115.0</ele><time>2026-04-18T10:41:29.53Z</time></trkpt><trkpt lat="39.09185" lon="16.4944733"><ele>1114.25</ele><time>2026-04-18T10:41:30.532Z</time></trkpt><trkpt lat="39.09186" lon="16.494655"><ele>1113.5</ele><time>2026-04-18T10:41:31.534Z</time></trkpt><trkpt lat="39.0918933" lon="16.4948333"><ele>1112.75</ele><time>2026-04-18T10:41:32.536Z</time></trkpt><trkpt lat="39.0919533" lon="16.495005"><ele>1112.0</ele><time>2026-04-18T10:41:33.533Z</time></trkpt><trkpt lat="39.0920267" lon="16.4951717"><ele>1112.0</ele><time>2026-04-18T10:41:34.534Z</time></trkpt><trkpt lat="39.09211" lon="16.4953283"><ele>1112.0</ele><time>2026-04-18T10:41:35.536Z</time></trkpt><trkpt lat="39.0922033" lon="16.4954683"><ele>1112.0</ele><time>2026-04-18T10:41:36.536Z</time></trkpt><trkpt lat="39.0923133" lon="16.4955817"><ele>1112.0</ele><time>2026-04-18T10:41:37.532Z</time></trkpt><trkpt lat="39.0924433" lon="16.4956383"><ele>1112.0</ele><time>2026-04-18T10:41:38.532Z</time></trkpt><trkpt lat="39.09259" lon="16.49564"><ele>1112.0</ele><time>2026-04-18T10:41:39.533Z</time></trkpt><trkpt lat="39.0927483" lon="16.4956267"><ele>1112.0</ele><time>2026-04-18T10:41:40.531Z</time></trkpt><trkpt lat="39.09291" lon="16.4956417"><ele>1112.0</ele><time>2026-04-18T10:41:41.531Z</time></trkpt><trkpt lat="39.0930667" lon="16.49563"><ele>1112.0</ele><time>2026-04-18T10:41:42.534Z</time></trkpt><trkpt lat="39.0932167" lon="16.49559"><ele>1112.0</ele><time>2026-04-18T10:41:43.532Z</time></trkpt><trkpt lat="39.09335" lon="16.49558"><ele>1112.0</ele><time>2026-04-18T10:41:44.536Z</time></trkpt><trkpt lat="39.0934583" lon="16.4956333"><ele>1113.25</ele><time>2026-04-18T10:41:45.534Z</time></trkpt><trkpt lat="39.0935433" lon="16.495725"><ele>1114.5</ele><time>2026-04-18T10:41:46.533Z</time></trkpt><trkpt lat="39.0935783" lon="16.495865"><ele>1115.75</ele><time>2026-04-18T10:41:47.532Z</time></trkpt><trkpt lat="39.0936083" lon="16.4960183"><ele>1117.0</ele><time>2026-04-18T10:41:48.532Z</time></trkpt><trkpt lat="39.0936733" lon="16.4961683"><ele>1116.25</ele><time>2026-04-18T10:41:49.53Z</time></trkpt><trkpt lat="39.0937217" lon="16.49633"><ele>1115.5</ele><time>2026-04-18T10:41:50.533Z</time></trkpt><trkpt lat="39.0937683" lon="16.4964833"><ele>1114.75</ele><time>2026-04-18T10:41:51.533Z</time></trkpt><trkpt lat="39.0937833" lon="16.49663"><ele>1114.0</ele><time>2026-04-18T10:41:52.531Z</time></trkpt><trkpt lat="39.0937483" lon="16.4967567"><ele>1114.0</ele><time>2026-04-18T10:41:53.533Z</time></trkpt><trkpt lat="39.09367" lon="16.4968433"><ele>1114.0</ele><time>2026-04-18T10:41:54.532Z</time></trkpt><trkpt lat="39.0935717" lon="16.4969167"><ele>1114.0</ele><time>2026-04-18T10:41:55.532Z</time></trkpt><trkpt lat="39.0935033" lon="16.4970333"><ele>1114.0</ele><time>2026-04-18T10:41:56.53Z</time></trkpt><trkpt lat="39.0934217" lon="16.4971617"><ele>1114.0</ele><time>2026-04-18T10:41:57.531Z</time></trkpt><trkpt lat="39.0933617" lon="16.4973267"><ele>1114.0</ele><time>2026-04-18T10:41:58.531Z</time></trkpt><trkpt lat="39.093305" lon="16.4975017"><ele>1114.0</ele><time>2026-04-18T10:41:59.532Z</time></trkpt><trkpt lat="39.0932317" lon="16.497665"><ele>1114.0</ele><time>2026-04-18T10:42:00.531Z</time></trkpt><trkpt lat="39.093215" lon="16.4978233"><ele>1115.0</ele><time>2026-04-18T10:42:01.532Z</time></trkpt><trkpt lat="39.0932233" lon="16.49799"><ele>1116.0</ele><time>2026-04-18T10:42:02.534Z</time></trkpt><trkpt lat="39.0932967" lon="16.49813"><ele>1117.0</ele><time>2026-04-18T10:42:03.532Z</time></trkpt><trkpt lat="39.0934067" lon="16.4982633"><ele>1118.0</ele><time>2026-04-18T10:42:04.537Z</time></trkpt><trkpt lat="39.09351" lon="16.498415"><ele>1119.3333333333335</ele><time>2026-04-18T10:42:05.533Z</time></trkpt><trkpt lat="39.0936217" lon="16.49857"><ele>1120.6666666666667</ele><time>2026-04-18T10:42:06.533Z</time></trkpt><trkpt lat="39.093745" lon="16.4987233"><ele>1122.0</ele><time>2026-04-18T10:42:07.535Z</time></trkpt><trkpt lat="39.0938583" lon="16.4988867"><ele>1122.0</ele><time>2026-04-18T10:42:08.534Z</time></trkpt><trkpt lat="39.09398" lon="16.499045"><ele>1122.0</ele><time>2026-04-18T10:42:09.533Z</time></trkpt><trkpt lat="39.0940983" lon="16.4992133"><ele>1122.0</ele><time>2026-04-18T10:42:10.534Z</time></trkpt><trkpt lat="39.094235" lon="16.49937"><ele>1123.6666666666667</ele><time>2026-04-18T10:42:11.531Z</time></trkpt><trkpt lat="39.0943583" lon="16.4995433"><ele>1125.3333333333335</ele><time>2026-04-18T10:42:12.616Z</time></trkpt><trkpt lat="39.094485" lon="16.49972"><ele>1127.0</ele><time>2026-04-18T10:42:13.532Z</time></trkpt><trkpt lat="39.0946233" lon="16.4998867"><ele>1127.0</ele><time>2026-04-18T10:42:14.531Z</time></trkpt><trkpt lat="39.0947667" lon="16.5000483"><ele>1127.0</ele><time>2026-04-18T10:42:15.533Z</time></trkpt><trkpt lat="39.0948833" lon="16.5002267"><ele>1127.0</ele><time>2026-04-18T10:42:16.532Z</time></trkpt><trkpt lat="39.095005" lon="16.5004083"><ele>1128.3333333333335</ele><time>2026-04-18T10:42:17.535Z</time></trkpt><trkpt lat="39.0950783" lon="16.5006133"><ele>1129.6666666666667</ele><time>2026-04-18T10:42:18.532Z</time></trkpt><trkpt lat="39.09518" lon="16.5008217"><ele>1131.0</ele><time>2026-04-18T10:42:19.535Z</time></trkpt><trkpt lat="39.0952583" lon="16.5010433"><ele>1130.3333333333333</ele><time>2026-04-18T10:42:20.531Z</time></trkpt><trkpt lat="39.09533" lon="16.501265"><ele>1129.6666666666665</ele><time>2026-04-18T10:42:21.535Z</time></trkpt><trkpt lat="39.09536" lon="16.5014833"><ele>1129.0</ele><time>2026-04-18T10:42:22.533Z</time></trkpt><trkpt lat="39.0954483" lon="16.5017167"><ele>1129.0</ele><time>2026-04-18T10:42:23.534Z</time></trkpt><trkpt lat="39.0955167" lon="16.50195"><ele>1129.0</ele><time>2026-04-18T10:42:24.533Z</time></trkpt><trkpt lat="39.09556" lon="16.5021833"><ele>1129.0</ele><time>2026-04-18T10:42:25.535Z</time></trkpt><trkpt lat="39.095595" lon="16.5024117"><ele>1128.3333333333333</ele><time>2026-04-18T10:42:26.532Z</time></trkpt><trkpt lat="39.095655" lon="16.5026217"><ele>1127.6666666666667</ele><time>2026-04-18T10:42:27.533Z</time></trkpt><trkpt lat="39.0956933" lon="16.5028333"><ele>1127.0</ele><time>2026-04-18T10:42:28.535Z</time></trkpt><trkpt lat="39.0957333" lon="16.503035"><ele>1128.0</ele><time>2026-04-18T10:42:29.53Z</time></trkpt><trkpt lat="39.0958017" lon="16.5032117"><ele>1129.0</ele><time>2026-04-18T10:42:30.531Z</time></trkpt><trkpt lat="39.0958633" lon="16.5034033"><ele>1130.0</ele><time>2026-04-18T10:42:31.531Z</time></trkpt><trkpt lat="39.0959367" lon="16.503605"><ele>1129.0</ele><time>2026-04-18T10:42:32.53Z</time></trkpt><trkpt lat="39.0960367" lon="16.503785"><ele>1128.0</ele><time>2026-04-18T10:42:33.531Z</time></trkpt><trkpt lat="39.0961333" lon="16.5039717"><ele>1127.0</ele><time>2026-04-18T10:42:34.535Z</time></trkpt><trkpt lat="39.0962767" lon="16.50409"><ele>1127.0</ele><time>2026-04-18T10:42:35.531Z</time></trkpt><trkpt lat="39.0963767" lon="16.5043183"><ele>1127.0</ele><time>2026-04-18T10:42:36.531Z</time></trkpt><trkpt lat="39.0964933" lon="16.504525"><ele>1127.0</ele><time>2026-04-18T10:42:37.533Z</time></trkpt><trkpt lat="39.09661" lon="16.504725"><ele>1128.3333333333335</ele><time>2026-04-18T10:42:38.534Z</time></trkpt><trkpt lat="39.096735" lon="16.5048983"><ele>1129.6666666666667</ele><time>2026-04-18T10:42:39.534Z</time></trkpt><trkpt lat="39.0968383" lon="16.5050667"><ele>1131.0</ele><time>2026-04-18T10:42:40.532Z</time></trkpt><trkpt lat="39.0969033" lon="16.5052167"><ele>1131.0</ele><time>2026-04-18T10:42:41.532Z</time></trkpt><trkpt lat="39.09692" lon="16.505355"><ele>1131.0</ele><time>2026-04-18T10:42:42.53Z</time></trkpt><trkpt lat="39.0969417" lon="16.5054583"><ele>1131.0</ele><time>2026-04-18T10:42:43.533Z</time></trkpt><trkpt lat="39.09694" lon="16.5055517"><ele>1131.0</ele><time>2026-04-18T10:42:44.531Z</time></trkpt><trkpt lat="39.097015" lon="16.5056467"><ele>1131.0</ele><time>2026-04-18T10:42:46.531Z</time></trkpt><trkpt lat="39.097075" lon="16.5056767"><ele>1131.0</ele><time>2026-04-18T10:42:47.532Z</time></trkpt><trkpt lat="39.09713" lon="16.5057267"><ele>1132.0</ele><time>2026-04-18T10:42:48.532Z</time></trkpt><trkpt lat="39.09719" lon="16.5057917"><ele>1133.0</ele><time>2026-04-18T10:42:49.534Z</time></trkpt><trkpt lat="39.097245" lon="16.50588"><ele>1134.0</ele><time>2026-04-18T10:42:50.531Z</time></trkpt><trkpt lat="39.0972933" lon="16.50598"><ele>1135.0</ele><time>2026-04-18T10:42:51.532Z</time></trkpt><trkpt lat="39.0973433" lon="16.5061017"><ele>1136.0</ele><time>2026-04-18T10:42:52.536Z</time></trkpt><trkpt lat="39.09739" lon="16.5062383"><ele>1136.75</ele><time>2026-04-18T10:42:53.531Z</time></trkpt><trkpt lat="39.0974467" lon="16.5063783"><ele>1137.5</ele><time>2026-04-18T10:42:54.534Z</time></trkpt><trkpt lat="39.097485" lon="16.5065217"><ele>1138.25</ele><time>2026-04-18T10:42:55.534Z</time></trkpt><trkpt lat="39.09751" lon="16.5066717"><ele>1139.0</ele><time>2026-04-18T10:42:56.531Z</time></trkpt><trkpt lat="39.0975483" lon="16.5068083"><ele>1139.0</ele><time>2026-04-18T10:42:57.533Z</time></trkpt><trkpt lat="39.0975933" lon="16.5069433"><ele>1139.0</ele><time>2026-04-18T10:42:58.534Z</time></trkpt><trkpt lat="39.0976467" lon="16.5070733"><ele>1139.0</ele><time>2026-04-18T10:42:59.532Z</time></trkpt><trkpt lat="39.0976883" lon="16.5072117"><ele>1139.0</ele><time>2026-04-18T10:43:00.534Z</time></trkpt><trkpt lat="39.09773" lon="16.507345"><ele>1138.25</ele><time>2026-04-18T10:43:01.532Z</time></trkpt><trkpt lat="39.0977883" lon="16.5074667"><ele>1137.5</ele><time>2026-04-18T10:43:02.533Z</time></trkpt><trkpt lat="39.0978633" lon="16.5075817"><ele>1136.75</ele><time>2026-04-18T10:43:03.534Z</time></trkpt><trkpt lat="39.0979167" lon="16.507725"><ele>1136.0</ele><time>2026-04-18T10:43:04.535Z</time></trkpt><trkpt lat="39.0979983" lon="16.5078433"><ele>1134.75</ele><time>2026-04-18T10:43:05.533Z</time></trkpt><trkpt lat="39.0980883" lon="16.5079567"><ele>1133.5</ele><time>2026-04-18T10:43:06.536Z</time></trkpt><trkpt lat="39.0981567" lon="16.50809"><ele>1132.25</ele><time>2026-04-18T10:43:07.532Z</time></trkpt><trkpt lat="39.0982383" lon="16.5082067"><ele>1131.0</ele><time>2026-04-18T10:43:08.534Z</time></trkpt><trkpt lat="39.0983283" lon="16.5083083"><ele>1131.0</ele><time>2026-04-18T10:43:09.534Z</time></trkpt><trkpt lat="39.0984333" lon="16.5083817"><ele>1131.0</ele><time>2026-04-18T10:43:10.539Z</time></trkpt><trkpt lat="39.0985433" lon="16.5084333"><ele>1131.0</ele><time>2026-04-18T10:43:11.534Z</time></trkpt><trkpt lat="39.0986567" lon="16.5084833"><ele>1131.0</ele><time>2026-04-18T10:43:12.534Z</time></trkpt><trkpt lat="39.0987733" lon="16.508535"><ele>1131.0</ele><time>2026-04-18T10:43:13.531Z</time></trkpt><trkpt lat="39.0988917" lon="16.5085867"><ele>1131.0</ele><time>2026-04-18T10:43:14.532Z</time></trkpt><trkpt lat="39.0990067" lon="16.5086483"><ele>1131.0</ele><time>2026-04-18T10:43:15.536Z</time></trkpt><trkpt lat="39.09912" lon="16.5087217"><ele>1131.0</ele><time>2026-04-18T10:43:16.535Z</time></trkpt><trkpt lat="39.0992333" lon="16.5088083"><ele>1131.25</ele><time>2026-04-18T10:43:17.532Z</time></trkpt><trkpt lat="39.0993467" lon="16.508905"><ele>1131.5</ele><time>2026-04-18T10:43:18.532Z</time></trkpt><trkpt lat="39.099465" lon="16.508995"><ele>1131.75</ele><time>2026-04-18T10:43:19.532Z</time></trkpt><trkpt lat="39.09957" lon="16.5090983"><ele>1132.0</ele><time>2026-04-18T10:43:20.535Z</time></trkpt><trkpt lat="39.0996717" lon="16.50919"><ele>1132.0</ele><time>2026-04-18T10:43:21.534Z</time></trkpt><trkpt lat="39.0997733" lon="16.5092567"><ele>1132.0</ele><time>2026-04-18T10:43:22.531Z</time></trkpt><trkpt lat="39.09988" lon="16.5092867"><ele>1132.0</ele><time>2026-04-18T10:43:23.532Z</time></trkpt><trkpt lat="39.0999967" lon="16.5092817"><ele>1132.0</ele><time>2026-04-18T10:43:24.536Z</time></trkpt><trkpt lat="39.100115" lon="16.509245"><ele>1133.0</ele><time>2026-04-18T10:43:25.535Z</time></trkpt><trkpt lat="39.100235" lon="16.5091967"><ele>1134.0</ele><time>2026-04-18T10:43:26.534Z</time></trkpt><trkpt lat="39.1003467" lon="16.50919"><ele>1135.0</ele><time>2026-04-18T10:43:27.533Z</time></trkpt><trkpt lat="39.100455" lon="16.509215"><ele>1136.0</ele><time>2026-04-18T10:43:28.537Z</time></trkpt><trkpt lat="39.100555" lon="16.5092683"><ele>1136.0</ele><time>2026-04-18T10:43:29.533Z</time></trkpt><trkpt lat="39.1006467" lon="16.5093167"><ele>1136.0</ele><time>2026-04-18T10:43:30.535Z</time></trkpt><trkpt lat="39.1007233" lon="16.50937"><ele>1136.0</ele><time>2026-04-18T10:43:31.537Z</time></trkpt><trkpt lat="39.10078" lon="16.5094067"><ele>1136.0</ele><time>2026-04-18T10:43:32.533Z</time></trkpt><trkpt lat="39.100855" lon="16.5094467"><ele>1136.0</ele><time>2026-04-18T10:43:34.532Z</time></trkpt><trkpt lat="39.1009183" lon="16.5094733"><ele>1136.0</ele><time>2026-04-18T10:43:37.534Z</time></trkpt><trkpt lat="39.1009867" lon="16.50949"><ele>1137.2</ele><time>2026-04-18T10:43:40.533Z</time></trkpt><trkpt lat="39.10105" lon="16.50952"><ele>1138.3999999999999</ele><time>2026-04-18T10:43:42.531Z</time></trkpt><trkpt lat="39.1011533" lon="16.5095833"><ele>1139.6</ele><time>2026-04-18T10:43:44.53Z</time></trkpt><trkpt lat="39.10127" lon="16.5096317"><ele>1140.8</ele><time>2026-04-18T10:43:46.531Z</time></trkpt><trkpt lat="39.1013367" lon="16.5096317"><ele>1142.0</ele><time>2026-04-18T10:43:47.532Z</time></trkpt><trkpt lat="39.1014517" lon="16.50963"><ele>1142.0</ele><time>2026-04-18T10:43:49.536Z</time></trkpt><trkpt lat="39.10152" lon="16.5095733"><ele>1142.0</ele><time>2026-04-18T10:43:51.533Z</time></trkpt><trkpt lat="39.1015867" lon="16.50951"><ele>1142.0</ele><time>2026-04-18T10:43:53.533Z</time></trkpt><trkpt lat="39.1016217" lon="16.509405"><ele>1142.0</ele><time>2026-04-18T10:43:56.531Z</time></trkpt><trkpt lat="39.10162" lon="16.50931"><ele>1142.0</ele><time>2026-04-18T10:43:58.536Z</time></trkpt><trkpt lat="39.1016217" lon="16.5091767"><ele>1142.0</ele><time>2026-04-18T10:44:00.532Z</time></trkpt><trkpt lat="39.1016283" lon="16.5090567"><ele>1141.4</ele><time>2026-04-18T10:44:02.532Z</time></trkpt><trkpt lat="39.101675" lon="16.508955"><ele>1140.8000000000002</ele><time>2026-04-18T10:44:04.531Z</time></trkpt><trkpt lat="39.1017783" lon="16.5089217"><ele>1140.2</ele><time>2026-04-18T10:44:06.531Z</time></trkpt><trkpt lat="39.101895" lon="16.5089283"><ele>1139.6000000000001</ele><time>2026-04-18T10:44:08.531Z</time></trkpt><trkpt lat="39.1019883" lon="16.5089917"><ele>1139.0</ele><time>2026-04-18T10:44:10.532Z</time></trkpt><trkpt lat="39.1020583" lon="16.5090283"><ele>1139.0</ele><time>2026-04-18T10:44:12.533Z</time></trkpt><trkpt lat="39.1021467" lon="16.5090083"><ele>1139.0</ele><time>2026-04-18T10:44:14.534Z</time></trkpt><trkpt lat="39.102235" lon="16.5089283"><ele>1139.0</ele><time>2026-04-18T10:44:16.532Z</time></trkpt><trkpt lat="39.1023367" lon="16.50882"><ele>1139.0</ele><time>2026-04-18T10:44:18.532Z</time></trkpt><trkpt lat="39.1023983" lon="16.5086983"><ele>1139.0</ele><time>2026-04-18T10:44:20.532Z</time></trkpt><trkpt lat="39.10241" lon="16.50856"><ele>1139.0</ele><time>2026-04-18T10:44:22.533Z</time></trkpt><trkpt lat="39.1024" lon="16.5084333"><ele>1139.0</ele><time>2026-04-18T10:44:24.53Z</time></trkpt><trkpt lat="39.10243" lon="16.5083317"><ele>1139.0</ele><time>2026-04-18T10:44:26.531Z</time></trkpt><trkpt lat="39.10252" lon="16.5083033"><ele>1139.0</ele><time>2026-04-18T10:44:28.534Z</time></trkpt><trkpt lat="39.1026483" lon="16.5083067"><ele>1139.0</ele><time>2026-04-18T10:44:30.53Z</time></trkpt><trkpt lat="39.10277" lon="16.5083533"><ele>1139.0</ele><time>2026-04-18T10:44:32.533Z</time></trkpt><trkpt lat="39.1028567" lon="16.508295"><ele>1139.0</ele><time>2026-04-18T10:44:34.532Z</time></trkpt><trkpt lat="39.10291" lon="16.50822"><ele>1139.0</ele><time>2026-04-18T10:44:36.531Z</time></trkpt><trkpt lat="39.102865" lon="16.5081333"><ele>1139.0</ele><time>2026-04-18T10:44:38.533Z</time></trkpt><trkpt lat="39.102875" lon="16.5080383"><ele>1139.0</ele><time>2026-04-18T10:44:40.533Z</time></trkpt><trkpt lat="39.1029683" lon="16.5080217"><ele>1139.0</ele><time>2026-04-18T10:44:42.532Z</time></trkpt><trkpt lat="39.103065" lon="16.5079783"><ele>1141.0</ele><time>2026-04-18T10:44:44.532Z</time></trkpt><trkpt lat="39.1031717" lon="16.507905"><ele>1143.0</ele><time>2026-04-18T10:44:46.532Z</time></trkpt><trkpt lat="39.1032717" lon="16.507835"><ele>1145.0</ele><time>2026-04-18T10:44:48.533Z</time></trkpt><trkpt lat="39.1033483" lon="16.5078033"><ele>1147.0</ele><time>2026-04-18T10:44:50.535Z</time></trkpt><trkpt lat="39.10341" lon="16.50783"><ele>1149.0</ele><time>2026-04-18T10:44:52.533Z</time></trkpt><trkpt lat="39.103445" lon="16.5079083"><ele>1145.4</ele><time>2026-04-18T10:44:54.535Z</time></trkpt><trkpt lat="39.1034483" lon="16.5080383"><ele>1141.8000000000002</ele><time>2026-04-18T10:44:56.533Z</time></trkpt><trkpt lat="39.1034483" lon="16.5081733"><ele>1138.1999999999998</ele><time>2026-04-18T10:44:58.533Z</time></trkpt><trkpt lat="39.10349" lon="16.5082583"><ele>1134.6</ele><time>2026-04-18T10:45:00.533Z</time></trkpt><trkpt lat="39.10355" lon="16.508285"><ele>1131.0</ele><time>2026-04-18T10:45:02.531Z</time></trkpt><trkpt lat="39.10368" lon="16.5083217"><ele>1131.0</ele><time>2026-04-18T10:45:13.532Z</time></trkpt><trkpt lat="39.1038017" lon="16.5083233"><ele>1131.0</ele><time>2026-04-18T10:45:15.532Z</time></trkpt><trkpt lat="39.1039217" lon="16.5082883"><ele>1131.0</ele><time>2026-04-18T10:45:17.531Z</time></trkpt><trkpt lat="39.1039967" lon="16.5082767"><ele>1131.0</ele><time>2026-04-18T10:45:18.531Z</time></trkpt><trkpt lat="39.1040617" lon="16.50826"><ele>1131.0</ele><time>2026-04-18T10:45:19.531Z</time></trkpt><trkpt lat="39.1041417" lon="16.5082817"><ele>1132.3999999999999</ele><time>2026-04-18T10:45:20.533Z</time></trkpt><trkpt lat="39.1042333" lon="16.5082867"><ele>1133.8</ele><time>2026-04-18T10:45:22.53Z</time></trkpt><trkpt lat="39.1043467" lon="16.5082783"><ele>1135.1999999999998</ele><time>2026-04-18T10:45:24.532Z</time></trkpt><trkpt lat="39.1044433" lon="16.5083"><ele>1136.6</ele><time>2026-04-18T10:45:26.532Z</time></trkpt><trkpt lat="39.104475" lon="16.508395"><ele>1138.0</ele><time>2026-04-18T10:45:28.534Z</time></trkpt><trkpt lat="39.1044533" lon="16.50856"><ele>1138.0</ele><time>2026-04-18T10:45:30.532Z</time></trkpt><trkpt lat="39.1044467" lon="16.5086617"><ele>1138.0</ele><time>2026-04-18T10:45:31.534Z</time></trkpt><trkpt lat="39.1044217" lon="16.5088233"><ele>1138.0</ele><time>2026-04-18T10:45:33.533Z</time></trkpt><trkpt lat="39.1044133" lon="16.5089183"><ele>1138.0</ele><time>2026-04-18T10:45:34.53Z</time></trkpt><trkpt lat="39.104445" lon="16.509065"><ele>1138.0</ele><time>2026-04-18T10:45:36.534Z</time></trkpt><trkpt lat="39.1044917" lon="16.5091217"><ele>1136.2</ele><time>2026-04-18T10:45:37.531Z</time></trkpt><trkpt lat="39.1045917" lon="16.5091783"><ele>1134.4</ele><time>2026-04-18T10:45:39.534Z</time></trkpt><trkpt lat="39.1047133" lon="16.5091667"><ele>1132.6000000000001</ele><time>2026-04-18T10:45:41.534Z</time></trkpt><trkpt lat="39.10479" lon="16.509145"><ele>1130.8</ele><time>2026-04-18T10:45:42.531Z</time></trkpt><trkpt lat="39.10487" lon="16.5091183"><ele>1129.0</ele><time>2026-04-18T10:45:43.53Z</time></trkpt><trkpt lat="39.1049483" lon="16.5091017"><ele>1129.0</ele><time>2026-04-18T10:45:44.529Z</time></trkpt><trkpt lat="39.105025" lon="16.509085"><ele>1129.0</ele><time>2026-04-18T10:45:45.532Z</time></trkpt><trkpt lat="39.1050983" lon="16.509075"><ele>1129.0</ele><time>2026-04-18T10:45:46.533Z</time></trkpt><trkpt lat="39.1051733" lon="16.509065"><ele>1129.0</ele><time>2026-04-18T10:45:47.53Z</time></trkpt><trkpt lat="39.10525" lon="16.5090433"><ele>1129.0</ele><time>2026-04-18T10:45:48.532Z</time></trkpt><trkpt lat="39.1053183" lon="16.5090333"><ele>1129.0</ele><time>2026-04-18T10:45:49.533Z</time></trkpt><trkpt lat="39.10539" lon="16.5090417"><ele>1129.0</ele><time>2026-04-18T10:45:50.532Z</time></trkpt><trkpt lat="39.1054917" lon="16.5090083"><ele>1129.0</ele><time>2026-04-18T10:45:52.531Z</time></trkpt><trkpt lat="39.1055717" lon="16.5089117"><ele>1129.0</ele><time>2026-04-18T10:45:54.53Z</time></trkpt><trkpt lat="39.1056317" lon="16.5087767"><ele>1129.0</ele><time>2026-04-18T10:45:56.533Z</time></trkpt><trkpt lat="39.1056433" lon="16.5086967"><ele>1129.0</ele><time>2026-04-18T10:45:57.536Z</time></trkpt><trkpt lat="39.1056717" lon="16.5086183"><ele>1129.0</ele><time>2026-04-18T10:45:58.532Z</time></trkpt><trkpt lat="39.1057017" lon="16.5085383"><ele>1129.0</ele><time>2026-04-18T10:45:59.531Z</time></trkpt><trkpt lat="39.1056933" lon="16.508445"><ele>1134.0</ele><time>2026-04-18T10:46:00.533Z</time></trkpt><trkpt lat="39.1057167" lon="16.508345"><ele>1139.0</ele><time>2026-04-18T10:46:01.533Z</time></trkpt><trkpt lat="39.1057333" lon="16.5082267"><ele>1144.0</ele><time>2026-04-18T10:46:02.532Z</time></trkpt><trkpt lat="39.1057167" lon="16.50809"><ele>1149.0</ele><time>2026-04-18T10:46:03.534Z</time></trkpt><trkpt lat="39.1056867" lon="16.5079617"><ele>1154.0</ele><time>2026-04-18T10:46:04.532Z</time></trkpt><trkpt lat="39.1056933" lon="16.5078517"><ele>1154.0</ele><time>2026-04-18T10:46:05.532Z</time></trkpt><trkpt lat="39.1057167" lon="16.50777"><ele>1154.0</ele><time>2026-04-18T10:46:06.531Z</time></trkpt><trkpt lat="39.1057333" lon="16.5076867"><ele>1154.0</ele><time>2026-04-18T10:46:08.531Z</time></trkpt><trkpt lat="39.1058317" lon="16.5076967"><ele>1154.0</ele><time>2026-04-18T10:46:10.532Z</time></trkpt><trkpt lat="39.10591" lon="16.5077467"><ele>1154.0</ele><time>2026-04-18T10:46:11.532Z</time></trkpt><trkpt lat="39.10602" lon="16.50788"><ele>1149.3333333333335</ele><time>2026-04-18T10:46:13.533Z</time></trkpt><trkpt lat="39.1062117" lon="16.5080367"><ele>1144.6666666666667</ele><time>2026-04-18T10:46:14.532Z</time></trkpt><trkpt lat="39.10631" lon="16.5081167"><ele>1140.0</ele><time>2026-04-18T10:46:15.535Z</time></trkpt><trkpt lat="39.106475" lon="16.5081933"><ele>1139.5</ele><time>2026-04-18T10:46:17.533Z</time></trkpt><trkpt lat="39.1066017" lon="16.50831"><ele>1139.0</ele><time>2026-04-18T10:46:18.531Z</time></trkpt><trkpt lat="39.1067133" lon="16.5083783"><ele>1138.5</ele><time>2026-04-18T10:46:19.53Z</time></trkpt><trkpt lat="39.1068367" lon="16.50849"><ele>1138.0</ele><time>2026-04-18T10:46:20.535Z</time></trkpt><trkpt lat="39.1069233" lon="16.50852"><ele>1138.0</ele><time>2026-04-18T10:46:21.535Z</time></trkpt><trkpt lat="39.1070067" lon="16.508495"><ele>1138.0</ele><time>2026-04-18T10:46:22.537Z</time></trkpt><trkpt lat="39.1070817" lon="16.5084583"><ele>1138.0</ele><time>2026-04-18T10:46:23.531Z</time></trkpt><trkpt lat="39.1071367" lon="16.508395"><ele>1138.0</ele><time>2026-04-18T10:46:24.533Z</time></trkpt><trkpt lat="39.10718" lon="16.508315"><ele>1138.0</ele><time>2026-04-18T10:46:25.531Z</time></trkpt><trkpt lat="39.1072183" lon="16.5082017"><ele>1138.0</ele><time>2026-04-18T10:46:26.531Z</time></trkpt><trkpt lat="39.1072417" lon="16.5080833"><ele>1138.0</ele><time>2026-04-18T10:46:27.532Z</time></trkpt><trkpt lat="39.1072433" lon="16.5079733"><ele>1138.0</ele><time>2026-04-18T10:46:28.535Z</time></trkpt><trkpt lat="39.1072833" lon="16.5078983"><ele>1138.0</ele><time>2026-04-18T10:46:29.532Z</time></trkpt><trkpt lat="39.10731" lon="16.5078217"><ele>1138.0</ele><time>2026-04-18T10:46:30.53Z</time></trkpt><trkpt lat="39.1073917" lon="16.5077133"><ele>1138.0</ele><time>2026-04-18T10:46:32.531Z</time></trkpt><trkpt lat="39.1074533" lon="16.5076567"><ele>1138.0</ele><time>2026-04-18T10:46:33.53Z</time></trkpt><trkpt lat="39.107525" lon="16.507595"><ele>1140.0</ele><time>2026-04-18T10:46:34.533Z</time></trkpt><trkpt lat="39.1076017" lon="16.50751"><ele>1142.0</ele><time>2026-04-18T10:46:35.531Z</time></trkpt><trkpt lat="39.107675" lon="16.5074"><ele>1144.0</ele><time>2026-04-18T10:46:36.532Z</time></trkpt><trkpt lat="39.107695" lon="16.5072817"><ele>1146.0</ele><time>2026-04-18T10:46:37.531Z</time></trkpt><trkpt lat="39.1077867" lon="16.507195"><ele>1148.0</ele><time>2026-04-18T10:46:38.532Z</time></trkpt><trkpt lat="39.107795" lon="16.5070983"><ele>1148.0</ele><time>2026-04-18T10:46:40.532Z</time></trkpt><trkpt lat="39.1078617" lon="16.5070833"><ele>1148.0</ele><time>2026-04-18T10:46:41.533Z</time></trkpt><trkpt lat="39.1079333" lon="16.5071417"><ele>1148.0</ele><time>2026-04-18T10:46:43.533Z</time></trkpt><trkpt lat="39.1080083" lon="16.5072117"><ele>1148.0</ele><time>2026-04-18T10:46:45.533Z</time></trkpt><trkpt lat="39.1080217" lon="16.5073133"><ele>1148.0</ele><time>2026-04-18T10:46:48.53Z</time></trkpt><trkpt lat="39.1080233" lon="16.507395"><ele>1148.0</ele><time>2026-04-18T10:46:51.532Z</time></trkpt><trkpt lat="39.1080233" lon="16.5075067"><ele>1148.0</ele><time>2026-04-18T10:46:54.532Z</time></trkpt><trkpt lat="39.1079983" lon="16.507625"><ele>1148.0</ele><time>2026-04-18T10:46:56.533Z</time></trkpt><trkpt lat="39.1079867" lon="16.5077217"><ele>1148.0</ele><time>2026-04-18T10:46:57.531Z</time></trkpt><trkpt lat="39.1079917" lon="16.507875"><ele>1148.0</ele><time>2026-04-18T10:46:58.53Z</time></trkpt><trkpt lat="39.1079733" lon="16.508035"><ele>1148.0</ele><time>2026-04-18T10:46:59.534Z</time></trkpt><trkpt lat="39.107925" lon="16.5081517"><ele>1143.8</ele><time>2026-04-18T10:47:00.531Z</time></trkpt><trkpt lat="39.1079233" lon="16.5082567"><ele>1139.6</ele><time>2026-04-18T10:47:01.532Z</time></trkpt><trkpt lat="39.1079383" lon="16.5083383"><ele>1135.4</ele><time>2026-04-18T10:47:02.532Z</time></trkpt><trkpt lat="39.1079917" lon="16.5084517"><ele>1131.2</ele><time>2026-04-18T10:47:04.533Z</time></trkpt><trkpt lat="39.108065" lon="16.5085233"><ele>1127.0</ele><time>2026-04-18T10:47:06.531Z</time></trkpt><trkpt lat="39.1081783" lon="16.5085833"><ele>1127.0</ele><time>2026-04-18T10:47:08.532Z</time></trkpt><trkpt lat="39.1082483" lon="16.5086267"><ele>1127.0</ele><time>2026-04-18T10:47:09.535Z</time></trkpt><trkpt lat="39.108315" lon="16.508685"><ele>1127.0</ele><time>2026-04-18T10:47:10.535Z</time></trkpt><trkpt lat="39.10837" lon="16.508755"><ele>1127.0</ele><time>2026-04-18T10:47:11.533Z</time></trkpt><trkpt lat="39.1084083" lon="16.508835"><ele>1127.0</ele><time>2026-04-18T10:47:12.535Z</time></trkpt><trkpt lat="39.10844" lon="16.5089317"><ele>1127.0</ele><time>2026-04-18T10:47:13.532Z</time></trkpt><trkpt lat="39.1084583" lon="16.5090533"><ele>1127.0</ele><time>2026-04-18T10:47:14.532Z</time></trkpt><trkpt lat="39.108475" lon="16.5091683"><ele>1127.0</ele><time>2026-04-18T10:47:15.535Z</time></trkpt><trkpt lat="39.1084983" lon="16.5092817"><ele>1127.0</ele><time>2026-04-18T10:47:16.534Z</time></trkpt><trkpt lat="39.1085283" lon="16.50938"><ele>1127.0</ele><time>2026-04-18T10:47:17.532Z</time></trkpt><trkpt lat="39.1085633" lon="16.5094717"><ele>1127.0</ele><time>2026-04-18T10:47:18.534Z</time></trkpt><trkpt lat="39.1086033" lon="16.509555"><ele>1127.0</ele><time>2026-04-18T10:47:19.535Z</time></trkpt><trkpt lat="39.10865" lon="16.50963"><ele>1124.8333333333335</ele><time>2026-04-18T10:47:20.534Z</time></trkpt><trkpt lat="39.1087033" lon="16.5096967"><ele>1122.6666666666667</ele><time>2026-04-18T10:47:21.535Z</time></trkpt><trkpt lat="39.1087633" lon="16.509745"><ele>1120.5</ele><time>2026-04-18T10:47:22.535Z</time></trkpt><trkpt lat="39.1088283" lon="16.5097833"><ele>1118.3333333333333</ele><time>2026-04-18T10:47:23.533Z</time></trkpt><trkpt lat="39.1089083" lon="16.50979"><ele>1116.1666666666665</ele><time>2026-04-18T10:47:24.534Z</time></trkpt><trkpt lat="39.108985" lon="16.509825"><ele>1114.0</ele><time>2026-04-18T10:47:25.533Z</time></trkpt><trkpt lat="39.109075" lon="16.5098117"><ele>1116.0</ele><time>2026-04-18T10:47:26.532Z</time></trkpt><trkpt lat="39.109155" lon="16.509865"><ele>1118.0</ele><time>2026-04-18T10:47:27.535Z</time></trkpt><trkpt lat="39.1092233" lon="16.50983"><ele>1120.0</ele><time>2026-04-18T10:47:28.535Z</time></trkpt><trkpt lat="39.1093017" lon="16.509815"><ele>1122.0</ele><time>2026-04-18T10:47:29.535Z</time></trkpt><trkpt lat="39.1093267" lon="16.509905"><ele>1124.0</ele><time>2026-04-18T10:47:30.533Z</time></trkpt><trkpt lat="39.1093733" lon="16.509975"><ele>1126.0</ele><time>2026-04-18T10:47:31.533Z</time></trkpt><trkpt lat="39.109415" lon="16.510115"><ele>1126.0</ele><time>2026-04-18T10:47:33.533Z</time></trkpt><trkpt lat="39.10943" lon="16.51022"><ele>1126.0</ele><time>2026-04-18T10:47:35.53Z</time></trkpt><trkpt lat="39.10948" lon="16.5102883"><ele>1126.0</ele><time>2026-04-18T10:47:37.533Z</time></trkpt><trkpt lat="39.10955" lon="16.5103267"><ele>1126.0</ele><time>2026-04-18T10:47:59.532Z</time></trkpt><trkpt lat="39.1096317" lon="16.51029"><ele>1126.0</ele><time>2026-04-18T10:48:01.532Z</time></trkpt><trkpt lat="39.10973" lon="16.5102083"><ele>1126.0</ele><time>2026-04-18T10:48:03.532Z</time></trkpt><trkpt lat="39.1098517" lon="16.51014"><ele>1125.0</ele><time>2026-04-18T10:48:05.532Z</time></trkpt><trkpt lat="39.1099567" lon="16.5101517"><ele>1124.0</ele><time>2026-04-18T10:48:07.534Z</time></trkpt><trkpt lat="39.1100467" lon="16.5102833"><ele>1123.0</ele><time>2026-04-18T10:48:09.534Z</time></trkpt><trkpt lat="39.1100567" lon="16.5104017"><ele>1122.0</ele><time>2026-04-18T10:48:10.531Z</time></trkpt><trkpt lat="39.11011" lon="16.5105283"><ele>1121.0</ele><time>2026-04-18T10:48:12.531Z</time></trkpt><trkpt lat="39.1101633" lon="16.5105733"><ele>1121.0</ele><time>2026-04-18T10:48:13.532Z</time></trkpt><trkpt lat="39.1102233" lon="16.5106017"><ele>1121.0</ele><time>2026-04-18T10:48:14.53Z</time></trkpt><trkpt lat="39.1102917" lon="16.5106017"><ele>1121.0</ele><time>2026-04-18T10:48:15.534Z</time></trkpt><trkpt lat="39.110375" lon="16.510585"><ele>1121.0</ele><time>2026-04-18T10:48:16.532Z</time></trkpt><trkpt lat="39.1104717" lon="16.51055"><ele>1121.0</ele><time>2026-04-18T10:48:17.53Z</time></trkpt><trkpt lat="39.1105683" lon="16.5105"><ele>1121.0</ele><time>2026-04-18T10:48:18.532Z</time></trkpt><trkpt lat="39.11065" lon="16.5104733"><ele>1121.0</ele><time>2026-04-18T10:48:19.531Z</time></trkpt><trkpt lat="39.1107633" lon="16.51047"><ele>1121.0</ele><time>2026-04-18T10:48:21.536Z</time></trkpt><trkpt lat="39.1106967" lon="16.5104517"><ele>1121.0</ele><time>2026-04-18T10:49:08.533Z</time></trkpt><trkpt lat="39.1105833" lon="16.5104717"><ele>1121.0</ele><time>2026-04-18T10:49:10.534Z</time></trkpt><trkpt lat="39.11052" lon="16.5104933"><ele>1121.0</ele><time>2026-04-18T10:49:11.532Z</time></trkpt><trkpt lat="39.1104317" lon="16.5105383"><ele>1121.0</ele><time>2026-04-18T10:49:12.532Z</time></trkpt><trkpt lat="39.11033" lon="16.51056"><ele>1121.0</ele><time>2026-04-18T10:49:13.534Z</time></trkpt><trkpt lat="39.1102533" lon="16.51056"><ele>1121.0</ele><time>2026-04-18T10:49:14.532Z</time></trkpt><trkpt lat="39.1101933" lon="16.510525"><ele>1121.0</ele><time>2026-04-18T10:49:15.534Z</time></trkpt><trkpt lat="39.1101433" lon="16.5104683"><ele>1121.0</ele><time>2026-04-18T10:49:16.532Z</time></trkpt><trkpt lat="39.110105" lon="16.5103983"><ele>1121.0</ele><time>2026-04-18T10:49:17.532Z</time></trkpt><trkpt lat="39.1100717" lon="16.5103183"><ele>1121.0</ele><time>2026-04-18T10:49:18.534Z</time></trkpt><trkpt lat="39.1100367" lon="16.5102433"><ele>1121.8333333333335</ele><time>2026-04-18T10:49:19.534Z</time></trkpt><trkpt lat="39.1099967" lon="16.51018"><ele>1122.6666666666667</ele><time>2026-04-18T10:49:20.533Z</time></trkpt><trkpt lat="39.1099083" lon="16.5101167"><ele>1123.5</ele><time>2026-04-18T10:49:22.533Z</time></trkpt><trkpt lat="39.1098233" lon="16.5101183"><ele>1124.3333333333333</ele><time>2026-04-18T10:49:24.532Z</time></trkpt><trkpt lat="39.109745" lon="16.5101783"><ele>1125.1666666666665</ele><time>2026-04-18T10:49:26.533Z</time></trkpt><trkpt lat="39.109665" lon="16.5102417"><ele>1126.0</ele><time>2026-04-18T10:49:28.531Z</time></trkpt><trkpt lat="39.109585" lon="16.5103133"><ele>1126.0</ele><time>2026-04-18T10:49:30.534Z</time></trkpt><trkpt lat="39.109505" lon="16.510285"><ele>1126.0</ele><time>2026-04-18T10:49:32.53Z</time></trkpt><trkpt lat="39.1094417" lon="16.5102367"><ele>1126.0</ele><time>2026-04-18T10:50:00.532Z</time></trkpt><trkpt lat="39.1095117" lon="16.510245"><ele>1126.0</ele><time>2026-04-18T10:50:05.532Z</time></trkpt><trkpt lat="39.1095517" lon="16.5103317"><ele>1126.0</ele><time>2026-04-18T10:50:08.53Z</time></trkpt><trkpt lat="39.1096133" lon="16.5103117"><ele>1126.0</ele><time>2026-04-18T10:50:10.533Z</time></trkpt><trkpt lat="39.109695" lon="16.510235"><ele>1126.0</ele><time>2026-04-18T10:50:12.531Z</time></trkpt><trkpt lat="39.1097833" lon="16.5101633"><ele>1126.0</ele><time>2026-04-18T10:50:14.535Z</time></trkpt><trkpt lat="39.1098683" lon="16.5101333"><ele>1126.0</ele><time>2026-04-18T10:50:16.532Z</time></trkpt><trkpt lat="39.109975" lon="16.5101683"><ele>1126.0</ele><time>2026-04-18T10:50:18.533Z</time></trkpt><trkpt lat="39.1100217" lon="16.51024"><ele>1126.0</ele><time>2026-04-18T10:50:19.538Z</time></trkpt><trkpt lat="39.110065" lon="16.5103267"><ele>1125.1666666666665</ele><time>2026-04-18T10:50:20.532Z</time></trkpt><trkpt lat="39.1101083" lon="16.5104117"><ele>1124.3333333333333</ele><time>2026-04-18T10:50:21.534Z</time></trkpt><trkpt lat="39.1101433" lon="16.5104833"><ele>1123.5</ele><time>2026-04-18T10:50:22.533Z</time></trkpt><trkpt lat="39.110215" lon="16.510585"><ele>1122.6666666666667</ele><time>2026-04-18T10:50:24.531Z</time></trkpt><trkpt lat="39.1102783" lon="16.5106"><ele>1121.8333333333335</ele><time>2026-04-18T10:50:25.532Z</time></trkpt><trkpt lat="39.110345" lon="16.5105867"><ele>1121.0</ele><time>2026-04-18T10:50:26.533Z</time></trkpt><trkpt lat="39.11046" lon="16.51057"><ele>1121.0</ele><time>2026-04-18T10:50:28.532Z</time></trkpt><trkpt lat="39.1105033" lon="16.5105067"><ele>1121.0</ele><time>2026-04-18T10:50:29.537Z</time></trkpt><trkpt lat="39.11057" lon="16.5104933"><ele>1121.0</ele><time>2026-04-18T10:50:30.533Z</time></trkpt><trkpt lat="39.1106417" lon="16.5104783"><ele>1121.0</ele><time>2026-04-18T10:50:31.534Z</time></trkpt><trkpt lat="39.1107133" lon="16.510455"><ele>1121.0</ele><time>2026-04-18T10:50:32.611Z</time></trkpt><trkpt lat="39.11078" lon="16.51046"><ele>1121.0</ele><time>2026-04-18T10:50:33.533Z</time></trkpt><trkpt lat="39.1108817" lon="16.5105133"><ele>1121.8</ele><time>2026-04-18T10:50:35.534Z</time></trkpt><trkpt lat="39.1109517" lon="16.5105333"><ele>1122.6</ele><time>2026-04-18T10:50:37.533Z</time></trkpt><trkpt lat="39.111035" lon="16.510545"><ele>1123.4</ele><time>2026-04-18T10:50:39.533Z</time></trkpt><trkpt lat="39.1111183" lon="16.5105033"><ele>1124.2</ele><time>2026-04-18T10:50:41.53Z</time></trkpt><trkpt lat="39.1112133" lon="16.5104267"><ele>1125.0</ele><time>2026-04-18T10:50:43.532Z</time></trkpt><trkpt lat="39.1112833" lon="16.5103233"><ele>1129.5</ele><time>2026-04-18T10:50:44.53Z</time></trkpt><trkpt lat="39.1113583" lon="16.51025"><ele>1134.0</ele><time>2026-04-18T10:50:45.531Z</time></trkpt><trkpt lat="39.1114117" lon="16.5101683"><ele>1138.5</ele><time>2026-04-18T10:50:46.531Z</time></trkpt><trkpt lat="39.1114467" lon="16.5100733"><ele>1143.0</ele><time>2026-04-18T10:50:47.531Z</time></trkpt><trkpt lat="39.1114867" lon="16.5099733"><ele>1147.5</ele><time>2026-04-18T10:50:48.532Z</time></trkpt><trkpt lat="39.11152" lon="16.5098683"><ele>1152.0</ele><time>2026-04-18T10:50:49.533Z</time></trkpt><trkpt lat="39.1115333" lon="16.5097533"><ele>1152.0</ele><time>2026-04-18T10:50:50.533Z</time></trkpt><trkpt lat="39.111555" lon="16.5096517"><ele>1152.0</ele><time>2026-04-18T10:50:51.531Z</time></trkpt><trkpt lat="39.11157" lon="16.5095567"><ele>1152.0</ele><time>2026-04-18T10:50:52.532Z</time></trkpt><trkpt lat="39.1115867" lon="16.5094667"><ele>1152.0</ele><time>2026-04-18T10:50:53.532Z</time></trkpt><trkpt lat="39.1115817" lon="16.5093767"><ele>1152.0</ele><time>2026-04-18T10:50:54.531Z</time></trkpt><trkpt lat="39.11155" lon="16.509235"><ele>1152.0</ele><time>2026-04-18T10:50:56.531Z</time></trkpt><trkpt lat="39.111535" lon="16.5091067"><ele>1153.2</ele><time>2026-04-18T10:50:58.531Z</time></trkpt><trkpt lat="39.1115733" lon="16.5090333"><ele>1154.4</ele><time>2026-04-18T10:51:00.531Z</time></trkpt><trkpt lat="39.1116667" lon="16.5089833"><ele>1155.6</ele><time>2026-04-18T10:51:02.531Z</time></trkpt><trkpt lat="39.1117833" lon="16.5088867"><ele>1156.8</ele><time>2026-04-18T10:51:04.531Z</time></trkpt><trkpt lat="39.1118533" lon="16.5088067"><ele>1158.0</ele><time>2026-04-18T10:51:05.532Z</time></trkpt><trkpt lat="39.111925" lon="16.50871"><ele>1158.0</ele><time>2026-04-18T10:51:06.532Z</time></trkpt><trkpt lat="39.1119867" lon="16.5086183"><ele>1158.0</ele><time>2026-04-18T10:51:07.531Z</time></trkpt><trkpt lat="39.1120417" lon="16.508535"><ele>1158.0</ele><time>2026-04-18T10:51:08.53Z</time></trkpt><trkpt lat="39.1120583" lon="16.5084433"><ele>1158.0</ele><time>2026-04-18T10:51:09.532Z</time></trkpt><trkpt lat="39.1120567" lon="16.508345"><ele>1158.0</ele><time>2026-04-18T10:51:10.534Z</time></trkpt><trkpt lat="39.1120717" lon="16.5082467"><ele>1158.0</ele><time>2026-04-18T10:51:11.531Z</time></trkpt><trkpt lat="39.1120883" lon="16.50815"><ele>1158.0</ele><time>2026-04-18T10:51:12.532Z</time></trkpt><trkpt lat="39.1121033" lon="16.5080533"><ele>1158.0</ele><time>2026-04-18T10:51:13.533Z</time></trkpt><trkpt lat="39.1121483" lon="16.5079833"><ele>1158.0</ele><time>2026-04-18T10:51:14.534Z</time></trkpt><trkpt lat="39.1122167" lon="16.50791"><ele>1158.0</ele><time>2026-04-18T10:51:15.532Z</time></trkpt><trkpt lat="39.1122983" lon="16.5078567"><ele>1158.0</ele><time>2026-04-18T10:51:16.532Z</time></trkpt><trkpt lat="39.1123717" lon="16.507775"><ele>1158.0</ele><time>2026-04-18T10:51:17.532Z</time></trkpt><trkpt lat="39.1124733" lon="16.5077267"><ele>1155.8</ele><time>2026-04-18T10:51:18.533Z</time></trkpt><trkpt lat="39.112585" lon="16.5076883"><ele>1153.6</ele><time>2026-04-18T10:51:19.532Z</time></trkpt><trkpt lat="39.1126717" lon="16.5076283"><ele>1151.4</ele><time>2026-04-18T10:51:20.532Z</time></trkpt><trkpt lat="39.1127417" lon="16.50756"><ele>1149.2</ele><time>2026-04-18T10:51:21.532Z</time></trkpt><trkpt lat="39.1128083" lon="16.5074883"><ele>1147.0</ele><time>2026-04-18T10:51:22.532Z</time></trkpt><trkpt lat="39.1128533" lon="16.50741"><ele>1147.0</ele><time>2026-04-18T10:51:23.531Z</time></trkpt><trkpt lat="39.11289" lon="16.50732"><ele>1147.0</ele><time>2026-04-18T10:51:24.531Z</time></trkpt><trkpt lat="39.1129233" lon="16.5072133"><ele>1147.0</ele><time>2026-04-18T10:51:25.531Z</time></trkpt><trkpt lat="39.11294" lon="16.5070967"><ele>1147.0</ele><time>2026-04-18T10:51:26.532Z</time></trkpt><trkpt lat="39.11294" lon="16.5069633"><ele>1147.0</ele><time>2026-04-18T10:51:27.532Z</time></trkpt><trkpt lat="39.11298" lon="16.5067967"><ele>1150.6</ele><time>2026-04-18T10:51:28.531Z</time></trkpt><trkpt lat="39.1129767" lon="16.5066667"><ele>1154.2</ele><time>2026-04-18T10:51:29.531Z</time></trkpt><trkpt lat="39.1129783" lon="16.5065317"><ele>1157.8</ele><time>2026-04-18T10:51:30.534Z</time></trkpt><trkpt lat="39.1129217" lon="16.5064033"><ele>1161.4</ele><time>2026-04-18T10:51:31.533Z</time></trkpt><trkpt lat="39.11295" lon="16.5062667"><ele>1165.0</ele><time>2026-04-18T10:51:32.531Z</time></trkpt><trkpt lat="39.1130367" lon="16.5061083"><ele>1165.5</ele><time>2026-04-18T10:51:33.534Z</time></trkpt><trkpt lat="39.113045" lon="16.5059567"><ele>1166.0</ele><time>2026-04-18T10:51:34.533Z</time></trkpt><trkpt lat="39.113045" lon="16.5057783"><ele>1166.5</ele><time>2026-04-18T10:51:35.531Z</time></trkpt><trkpt lat="39.1130467" lon="16.5055767"><ele>1167.0</ele><time>2026-04-18T10:51:36.531Z</time></trkpt><trkpt lat="39.1130583" lon="16.5053917"><ele>1167.0</ele><time>2026-04-18T10:51:37.531Z</time></trkpt><trkpt lat="39.1130133" lon="16.5052633"><ele>1167.0</ele><time>2026-04-18T10:51:38.532Z</time></trkpt><trkpt lat="39.1130067" lon="16.5051283"><ele>1167.0</ele><time>2026-04-18T10:51:39.531Z</time></trkpt><trkpt lat="39.1129567" lon="16.50504"><ele>1167.0</ele><time>2026-04-18T10:51:40.534Z</time></trkpt><trkpt lat="39.1129183" lon="16.5049417"><ele>1167.0</ele><time>2026-04-18T10:51:41.534Z</time></trkpt><trkpt lat="39.11286" lon="16.5048683"><ele>1167.0</ele><time>2026-04-18T10:51:42.534Z</time></trkpt><trkpt lat="39.1128" lon="16.5048117"><ele>1167.0</ele><time>2026-04-18T10:51:43.534Z</time></trkpt><trkpt lat="39.1127483" lon="16.50467"><ele>1167.0</ele><time>2026-04-18T10:51:45.532Z</time></trkpt><trkpt lat="39.1127983" lon="16.5045567"><ele>1167.0</ele><time>2026-04-18T10:51:47.532Z</time></trkpt><trkpt lat="39.1128967" lon="16.5044783"><ele>1167.0</ele><time>2026-04-18T10:51:49.533Z</time></trkpt><trkpt lat="39.1129383" lon="16.5044117"><ele>1166.0</ele><time>2026-04-18T10:51:50.532Z</time></trkpt><trkpt lat="39.1129667" lon="16.5043133"><ele>1165.0</ele><time>2026-04-18T10:51:51.534Z</time></trkpt><trkpt lat="39.1129767" lon="16.50419"><ele>1164.0</ele><time>2026-04-18T10:51:52.533Z</time></trkpt><trkpt lat="39.1129883" lon="16.5040683"><ele>1163.0</ele><time>2026-04-18T10:51:53.531Z</time></trkpt><trkpt lat="39.1129683" lon="16.50396"><ele>1162.0</ele><time>2026-04-18T10:51:54.532Z</time></trkpt><trkpt lat="39.112945" lon="16.503865"><ele>1161.0</ele><time>2026-04-18T10:51:55.531Z</time></trkpt><trkpt lat="39.1129033" lon="16.5037783"><ele>1157.6</ele><time>2026-04-18T10:51:56.531Z</time></trkpt><trkpt lat="39.112865" lon="16.5036867"><ele>1154.1999999999998</ele><time>2026-04-18T10:51:57.533Z</time></trkpt><trkpt lat="39.1128433" lon="16.503585"><ele>1150.8000000000002</ele><time>2026-04-18T10:51:58.53Z</time></trkpt><trkpt lat="39.11277" lon="16.5034783"><ele>1147.4</ele><time>2026-04-18T10:51:59.532Z</time></trkpt><trkpt lat="39.1126933" lon="16.5033467"><ele>1144.0</ele><time>2026-04-18T10:52:00.529Z</time></trkpt><trkpt lat="39.11261" lon="16.50323"><ele>1144.0</ele><time>2026-04-18T10:52:01.531Z</time></trkpt><trkpt lat="39.11256" lon="16.5031017"><ele>1144.0</ele><time>2026-04-18T10:52:02.532Z</time></trkpt><trkpt lat="39.11251" lon="16.5029933"><ele>1144.0</ele><time>2026-04-18T10:52:03.53Z</time></trkpt><trkpt lat="39.1124583" lon="16.502895"><ele>1144.0</ele><time>2026-04-18T10:52:04.529Z</time></trkpt><trkpt lat="39.11242" lon="16.5027967"><ele>1144.0</ele><time>2026-04-18T10:52:05.53Z</time></trkpt><trkpt lat="39.11242" lon="16.5026667"><ele>1145.6666666666665</ele><time>2026-04-18T10:52:06.53Z</time></trkpt><trkpt lat="39.1123967" lon="16.5025533"><ele>1147.3333333333333</ele><time>2026-04-18T10:52:07.529Z</time></trkpt><trkpt lat="39.1123767" lon="16.5024467"><ele>1149.0</ele><time>2026-04-18T10:52:08.53Z</time></trkpt><trkpt lat="39.1123267" lon="16.5023533"><ele>1150.6666666666667</ele><time>2026-04-18T10:52:09.531Z</time></trkpt><trkpt lat="39.1122733" lon="16.502265"><ele>1152.3333333333335</ele><time>2026-04-18T10:52:10.53Z</time></trkpt><trkpt lat="39.1122367" lon="16.5021683"><ele>1154.0</ele><time>2026-04-18T10:52:11.53Z</time></trkpt><trkpt lat="39.11218" lon="16.5020783"><ele>1154.0</ele><time>2026-04-18T10:52:12.53Z</time></trkpt><trkpt lat="39.1121433" lon="16.5019733"><ele>1154.0</ele><time>2026-04-18T10:52:13.53Z</time></trkpt><trkpt lat="39.1121067" lon="16.5018733"><ele>1154.0</ele><time>2026-04-18T10:52:14.529Z</time></trkpt><trkpt lat="39.112045" lon="16.50179"><ele>1154.0</ele><time>2026-04-18T10:52:15.53Z</time></trkpt><trkpt lat="39.11199" lon="16.501715"><ele>1154.0</ele><time>2026-04-18T10:52:16.53Z</time></trkpt><trkpt lat="39.111935" lon="16.5016417"><ele>1154.0</ele><time>2026-04-18T10:52:17.531Z</time></trkpt><trkpt lat="39.1118783" lon="16.5015667"><ele>1154.0</ele><time>2026-04-18T10:52:18.531Z</time></trkpt><trkpt lat="39.1118383" lon="16.5014667"><ele>1154.0</ele><time>2026-04-18T10:52:19.532Z</time></trkpt><trkpt lat="39.1118033" lon="16.5013583"><ele>1154.0</ele><time>2026-04-18T10:52:20.535Z</time></trkpt><trkpt lat="39.1117533" lon="16.5012517"><ele>1154.0</ele><time>2026-04-18T10:52:21.534Z</time></trkpt><trkpt lat="39.111725" lon="16.5011017"><ele>1154.0</ele><time>2026-04-18T10:52:22.533Z</time></trkpt><trkpt lat="39.11171" lon="16.5009383"><ele>1150.0</ele><time>2026-04-18T10:52:23.532Z</time></trkpt><trkpt lat="39.1116817" lon="16.5007817"><ele>1146.0</ele><time>2026-04-18T10:52:24.534Z</time></trkpt><trkpt lat="39.111655" lon="16.500625"><ele>1142.0</ele><time>2026-04-18T10:52:25.533Z</time></trkpt><trkpt lat="39.1116233" lon="16.5004667"><ele>1138.0</ele><time>2026-04-18T10:52:26.532Z</time></trkpt><trkpt lat="39.1116333" lon="16.500295"><ele>1135.5</ele><time>2026-04-18T10:52:27.531Z</time></trkpt><trkpt lat="39.111645" lon="16.5001433"><ele>1133.0</ele><time>2026-04-18T10:52:28.536Z</time></trkpt><trkpt lat="39.111605" lon="16.4999917"><ele>1130.5</ele><time>2026-04-18T10:52:29.53Z</time></trkpt><trkpt lat="39.1116983" lon="16.499835"><ele>1128.0</ele><time>2026-04-18T10:52:30.532Z</time></trkpt><trkpt lat="39.1116983" lon="16.4996733"><ele>1128.8333333333333</ele><time>2026-04-18T10:52:31.531Z</time></trkpt><trkpt lat="39.111705" lon="16.4995317"><ele>1129.6666666666667</ele><time>2026-04-18T10:52:32.532Z</time></trkpt><trkpt lat="39.11171" lon="16.4994267"><ele>1130.5</ele><time>2026-04-18T10:52:33.531Z</time></trkpt><trkpt lat="39.1117233" lon="16.4993417"><ele>1131.3333333333335</ele><time>2026-04-18T10:52:34.533Z</time></trkpt><trkpt lat="39.111755" lon="16.499265"><ele>1132.1666666666667</ele><time>2026-04-18T10:52:35.533Z</time></trkpt><trkpt lat="39.1118" lon="16.4992067"><ele>1133.0</ele><time>2026-04-18T10:52:36.531Z</time></trkpt><trkpt lat="39.111855" lon="16.499135"><ele>1133.0</ele><time>2026-04-18T10:52:37.532Z</time></trkpt><trkpt lat="39.111925" lon="16.49906"><ele>1133.0</ele><time>2026-04-18T10:52:38.532Z</time></trkpt><trkpt lat="39.1119667" lon="16.498965"><ele>1133.0</ele><time>2026-04-18T10:52:39.53Z</time></trkpt><trkpt lat="39.1120333" lon="16.4989117"><ele>1133.0</ele><time>2026-04-18T10:52:40.532Z</time></trkpt><trkpt lat="39.1121067" lon="16.4988333"><ele>1133.0</ele><time>2026-04-18T10:52:42.532Z</time></trkpt><trkpt lat="39.11216" lon="16.49878"><ele>1133.0</ele><time>2026-04-18T10:52:44.534Z</time></trkpt><trkpt lat="39.1122283" lon="16.498695"><ele>1133.8333333333335</ele><time>2026-04-18T10:52:47.533Z</time></trkpt><trkpt lat="39.1123133" lon="16.498645"><ele>1134.6666666666667</ele><time>2026-04-18T10:52:50.531Z</time></trkpt><trkpt lat="39.1123883" lon="16.4986017"><ele>1135.5</ele><time>2026-04-18T10:52:52.532Z</time></trkpt><trkpt lat="39.1124517" lon="16.4985483"><ele>1136.3333333333333</ele><time>2026-04-18T10:52:54.53Z</time></trkpt><trkpt lat="39.112515" lon="16.4984717"><ele>1137.1666666666665</ele><time>2026-04-18T10:52:56.533Z</time></trkpt><trkpt lat="39.1125817" lon="16.4983817"><ele>1138.0</ele><time>2026-04-18T10:52:58.531Z</time></trkpt><trkpt lat="39.11264" lon="16.49829"><ele>1136.1666666666665</ele><time>2026-04-18T10:53:00.53Z</time></trkpt><trkpt lat="39.112695" lon="16.4982217"><ele>1134.3333333333333</ele><time>2026-04-18T10:53:02.532Z</time></trkpt><trkpt lat="39.112755" lon="16.4981683"><ele>1132.5</ele><time>2026-04-18T10:53:04.534Z</time></trkpt><trkpt lat="39.1128083" lon="16.4981033"><ele>1130.6666666666667</ele><time>2026-04-18T10:53:06.533Z</time></trkpt><trkpt lat="39.112895" lon="16.4980567"><ele>1128.8333333333335</ele><time>2026-04-18T10:53:09.533Z</time></trkpt><trkpt lat="39.1129783" lon="16.4980917"><ele>1127.0</ele><time>2026-04-18T10:55:45.531Z</time></trkpt><trkpt lat="39.1130683" lon="16.4981767"><ele>1127.0</ele><time>2026-04-18T10:55:47.531Z</time></trkpt><trkpt lat="39.1131183" lon="16.498245"><ele>1127.0</ele><time>2026-04-18T10:55:48.53Z</time></trkpt><trkpt lat="39.1131917" lon="16.4983217"><ele>1127.0</ele><time>2026-04-18T10:55:49.53Z</time></trkpt><trkpt lat="39.11321" lon="16.4984483"><ele>1127.0</ele><time>2026-04-18T10:55:51.531Z</time></trkpt><trkpt lat="39.1132633" lon="16.4985517"><ele>1127.0</ele><time>2026-04-18T10:55:52.529Z</time></trkpt><trkpt lat="39.113305" lon="16.498645"><ele>1127.0</ele><time>2026-04-18T10:55:53.53Z</time></trkpt><trkpt lat="39.1133483" lon="16.498715"><ele>1128.4</ele><time>2026-04-18T10:55:55.531Z</time></trkpt><trkpt lat="39.113425" lon="16.4987833"><ele>1129.8000000000002</ele><time>2026-04-18T10:55:57.532Z</time></trkpt><trkpt lat="39.1135183" lon="16.49882"><ele>1131.2</ele><time>2026-04-18T10:55:59.53Z</time></trkpt><trkpt lat="39.1135933" lon="16.498835"><ele>1132.6000000000001</ele><time>2026-04-18T10:56:01.532Z</time></trkpt><trkpt lat="39.1136783" lon="16.498845"><ele>1134.0</ele><time>2026-04-18T10:56:03.531Z</time></trkpt><trkpt lat="39.113785" lon="16.4988733"><ele>1134.0</ele><time>2026-04-18T10:56:05.532Z</time></trkpt><trkpt lat="39.11385" lon="16.4988817"><ele>1134.0</ele><time>2026-04-18T10:56:06.532Z</time></trkpt><trkpt lat="39.1139233" lon="16.4988567"><ele>1134.0</ele><time>2026-04-18T10:56:07.53Z</time></trkpt><trkpt lat="39.1140033" lon="16.4988317"><ele>1134.0</ele><time>2026-04-18T10:56:08.532Z</time></trkpt><trkpt lat="39.11408" lon="16.49883"><ele>1134.0</ele><time>2026-04-18T10:56:09.53Z</time></trkpt><trkpt lat="39.1141567" lon="16.498795"><ele>1134.0</ele><time>2026-04-18T10:56:10.531Z</time></trkpt><trkpt lat="39.1142367" lon="16.4987683"><ele>1135.8333333333333</ele><time>2026-04-18T10:56:11.531Z</time></trkpt><trkpt lat="39.1143117" lon="16.4987233"><ele>1137.6666666666667</ele><time>2026-04-18T10:56:12.533Z</time></trkpt><trkpt lat="39.1143917" lon="16.4987033"><ele>1139.5</ele><time>2026-04-18T10:56:13.534Z</time></trkpt><trkpt lat="39.114475" lon="16.4987117"><ele>1141.3333333333335</ele><time>2026-04-18T10:56:14.532Z</time></trkpt><trkpt lat="39.1145583" lon="16.4987017"><ele>1143.1666666666667</ele><time>2026-04-18T10:56:15.531Z</time></trkpt><trkpt lat="39.11464" lon="16.4986983"><ele>1145.0</ele><time>2026-04-18T10:56:16.53Z</time></trkpt><trkpt lat="39.1147117" lon="16.4986817"><ele>1145.0000000000002</ele><time>2026-04-18T10:56:17.53Z</time></trkpt><trkpt lat="39.1147817" lon="16.498675"><ele>1145.0</ele><time>2026-04-18T10:56:18.53Z</time></trkpt><trkpt lat="39.1148517" lon="16.4986833"><ele>1145.0</ele><time>2026-04-18T10:56:19.531Z</time></trkpt><trkpt lat="39.1149233" lon="16.4987033"><ele>1145.0</ele><time>2026-04-18T10:56:20.533Z</time></trkpt><trkpt lat="39.1149883" lon="16.4987367"><ele>1145.0</ele><time>2026-04-18T10:56:21.531Z</time></trkpt><trkpt lat="39.1150567" lon="16.4987467"><ele>1145.0000000000002</ele><time>2026-04-18T10:56:22.534Z</time></trkpt><trkpt lat="39.1151333" lon="16.49876"><ele>1145.0</ele><time>2026-04-18T10:56:23.533Z</time></trkpt><trkpt lat="39.1152083" lon="16.4987883"><ele>1147.3333333333335</ele><time>2026-04-18T10:56:24.531Z</time></trkpt><trkpt lat="39.1152733" lon="16.498775"><ele>1149.6666666666667</ele><time>2026-04-18T10:56:25.532Z</time></trkpt><trkpt lat="39.1153717" lon="16.4987967"><ele>1152.0</ele><time>2026-04-18T10:56:27.533Z</time></trkpt><trkpt lat="39.1153817" lon="16.4986533"><ele>1154.3333333333333</ele><time>2026-04-18T10:56:40.016Z</time></trkpt><trkpt lat="39.1154067" lon="16.4987383"><ele>1156.6666666666665</ele><time>2026-04-18T10:56:41.532Z</time></trkpt><trkpt lat="39.1153567" lon="16.4988483"><ele>1159.0</ele><time>2026-04-18T10:56:45.534Z</time></trkpt><trkpt lat="39.1153167" lon="16.49873"><ele>1159.0</ele><time>2026-04-18T10:58:52.878Z</time></trkpt><trkpt lat="39.1153317" lon="16.4988817"><ele>1159.0</ele><time>2026-04-18T10:58:57.531Z</time></trkpt><trkpt lat="39.115415" lon="16.4989133"><ele>1159.0</ele><time>2026-04-18T10:58:58.532Z</time></trkpt><trkpt lat="39.1153717" lon="16.4988367"><ele>1159.0</ele><time>2026-04-18T10:59:02.531Z</time></trkpt><trkpt lat="39.1153483" lon="16.4987567"><ele>1159.0</ele><time>2026-04-18T10:59:05.532Z</time></trkpt><trkpt lat="39.1153083" lon="16.49866"><ele>1159.0</ele><time>2026-04-18T10:59:07.533Z</time></trkpt><trkpt lat="39.11528" lon="16.4985717"><ele>1159.0</ele><time>2026-04-18T10:59:09.531Z</time></trkpt><trkpt lat="39.1152533" lon="16.4984817"><ele>1159.0</ele><time>2026-04-18T10:59:11.531Z</time></trkpt><trkpt lat="39.11524" lon="16.498395"><ele>1159.0</ele><time>2026-04-18T10:59:13.535Z</time></trkpt><trkpt lat="39.1152167" lon="16.49828"><ele>1159.0</ele><time>2026-04-18T10:59:15.531Z</time></trkpt><trkpt lat="39.1151883" lon="16.4981933"><ele>1159.0</ele><time>2026-04-18T10:59:17.534Z</time></trkpt><trkpt lat="39.11515" lon="16.4981033"><ele>1159.0</ele><time>2026-04-18T10:59:19.532Z</time></trkpt><trkpt lat="39.1151167" lon="16.4979767"><ele>1160.0</ele><time>2026-04-18T10:59:21.531Z</time></trkpt><trkpt lat="39.1150717" lon="16.49787"><ele>1161.0</ele><time>2026-04-18T10:59:23.531Z</time></trkpt><trkpt lat="39.115025" lon="16.4977133"><ele>1162.0</ele><time>2026-04-18T10:59:25.533Z</time></trkpt><trkpt lat="39.1150233" lon="16.49755"><ele>1163.0</ele><time>2026-04-18T10:59:27.534Z</time></trkpt><trkpt lat="39.1150167" lon="16.4974483"><ele>1164.0</ele><time>2026-04-18T10:59:28.533Z</time></trkpt><trkpt lat="39.1150217" lon="16.4973367"><ele>1164.0</ele><time>2026-04-18T10:59:29.532Z</time></trkpt><trkpt lat="39.1150317" lon="16.49725"><ele>1164.0</ele><time>2026-04-18T10:59:30.532Z</time></trkpt><trkpt lat="39.1150567" lon="16.4971"><ele>1164.0</ele><time>2026-04-18T10:59:32.535Z</time></trkpt><trkpt lat="39.1150983" lon="16.4969533"><ele>1164.0</ele><time>2026-04-18T10:59:34.531Z</time></trkpt><trkpt lat="39.115145" lon="16.4968183"><ele>1164.0</ele><time>2026-04-18T10:59:36.533Z</time></trkpt><trkpt lat="39.115195" lon="16.496685"><ele>1163.75</ele><time>2026-04-18T10:59:38.533Z</time></trkpt><trkpt lat="39.1152483" lon="16.49655"><ele>1163.5</ele><time>2026-04-18T10:59:40.534Z</time></trkpt><trkpt lat="39.11532" lon="16.4964383"><ele>1163.25</ele><time>2026-04-18T10:59:42.532Z</time></trkpt><trkpt lat="39.1153867" lon="16.4963167"><ele>1163.0</ele><time>2026-04-18T10:59:44.532Z</time></trkpt><trkpt lat="39.11546" lon="16.49618"><ele>1163.1666666666667</ele><time>2026-04-18T10:59:46.53Z</time></trkpt><trkpt lat="39.1155517" lon="16.4960967"><ele>1163.3333333333335</ele><time>2026-04-18T10:59:48.534Z</time></trkpt><trkpt lat="39.1156133" lon="16.4960483"><ele>1163.5</ele><time>2026-04-18T10:59:49.53Z</time></trkpt><trkpt lat="39.11567" lon="16.4960033"><ele>1163.6666666666667</ele><time>2026-04-18T10:59:50.531Z</time></trkpt><trkpt lat="39.1157583" lon="16.495945"><ele>1163.8333333333333</ele><time>2026-04-18T10:59:52.53Z</time></trkpt><trkpt lat="39.1158267" lon="16.4959017"><ele>1164.0</ele><time>2026-04-18T10:59:54.529Z</time></trkpt><trkpt lat="39.1158933" lon="16.4958633"><ele>1164.0</ele><time>2026-04-18T10:59:56.535Z</time></trkpt><trkpt lat="39.1159667" lon="16.4958383"><ele>1164.0</ele><time>2026-04-18T10:59:59.535Z</time></trkpt><trkpt lat="39.1160533" lon="16.495825"><ele>1164.0</ele><time>2026-04-18T11:00:02.53Z</time></trkpt><trkpt lat="39.1161333" lon="16.4958467"><ele>1164.0</ele><time>2026-04-18T11:00:04.53Z</time></trkpt><trkpt lat="39.1162283" lon="16.4958883"><ele>1164.0</ele><time>2026-04-18T11:00:06.531Z</time></trkpt><trkpt lat="39.1163317" lon="16.49594"><ele>1164.0</ele><time>2026-04-18T11:00:08.529Z</time></trkpt><trkpt lat="39.116415" lon="16.4959917"><ele>1164.0</ele><time>2026-04-18T11:00:10.532Z</time></trkpt><trkpt lat="39.1164867" lon="16.4960433"><ele>1164.0</ele><time>2026-04-18T11:00:12.532Z</time></trkpt><trkpt lat="39.116555" lon="16.4960933"><ele>1164.0</ele><time>2026-04-18T11:00:14.532Z</time></trkpt><trkpt lat="39.1166183" lon="16.4961417"><ele>1164.0</ele><time>2026-04-18T11:00:16.532Z</time></trkpt><trkpt lat="39.1166733" lon="16.496185"><ele>1164.0</ele><time>2026-04-18T11:00:18.532Z</time></trkpt><trkpt lat="39.1167333" lon="16.4962383"><ele>1166.8333333333333</ele><time>2026-04-18T11:00:20.531Z</time></trkpt><trkpt lat="39.1167933" lon="16.4962933"><ele>1169.6666666666667</ele><time>2026-04-18T11:00:22.532Z</time></trkpt><trkpt lat="39.1168583" lon="16.4963467"><ele>1172.5</ele><time>2026-04-18T11:00:24.534Z</time></trkpt><trkpt lat="39.1169367" lon="16.4964017"><ele>1175.3333333333335</ele><time>2026-04-18T11:00:27.534Z</time></trkpt><trkpt lat="39.1170317" lon="16.4964117"><ele>1178.1666666666667</ele><time>2026-04-18T11:00:30.533Z</time></trkpt><trkpt lat="39.1171067" lon="16.4964"><ele>1181.0</ele><time>2026-04-18T11:00:32.534Z</time></trkpt><trkpt lat="39.1171917" lon="16.4964117"><ele>1181.0</ele><time>2026-04-18T11:00:34.534Z</time></trkpt><trkpt lat="39.11728" lon="16.4964283"><ele>1181.0</ele><time>2026-04-18T11:00:36.531Z</time></trkpt><trkpt lat="39.117355" lon="16.496435"><ele>1181.0</ele><time>2026-04-18T11:00:38.533Z</time></trkpt><trkpt lat="39.11742" lon="16.4964433"><ele>1181.0</ele><time>2026-04-18T11:00:40.535Z</time></trkpt><trkpt lat="39.117515" lon="16.4964617"><ele>1181.0</ele><time>2026-04-18T11:00:43.532Z</time></trkpt><trkpt lat="39.1175883" lon="16.4964783"><ele>1181.0</ele><time>2026-04-18T11:00:45.531Z</time></trkpt><trkpt lat="39.1176583" lon="16.4964867"><ele>1180.3999999999999</ele><time>2026-04-18T11:00:47.532Z</time></trkpt><trkpt lat="39.1177233" lon="16.4965167"><ele>1179.8</ele><time>2026-04-18T11:00:50.532Z</time></trkpt><trkpt lat="39.1177333" lon="16.4963383"><ele>1179.1999999999998</ele><time>2026-04-18T11:01:17.83Z</time></trkpt><trkpt lat="39.1177267" lon="16.4965433"><ele>1178.6</ele><time>2026-04-18T11:01:19.03Z</time></trkpt><trkpt lat="39.117805" lon="16.496515"><ele>1178.0</ele><time>2026-04-18T11:01:20.529Z</time></trkpt><trkpt lat="39.11787" lon="16.4965217"><ele>1178.0</ele><time>2026-04-18T11:01:21.534Z</time></trkpt><trkpt lat="39.11796" lon="16.4964817"><ele>1178.0</ele><time>2026-04-18T11:01:23.53Z</time></trkpt><trkpt lat="39.1180333" lon="16.4964433"><ele>1178.0</ele><time>2026-04-18T11:01:25.532Z</time></trkpt><trkpt lat="39.11813" lon="16.4963983"><ele>1178.0</ele><time>2026-04-18T11:01:27.532Z</time></trkpt><trkpt lat="39.11821" lon="16.4963667"><ele>1178.0</ele><time>2026-04-18T11:01:29.531Z</time></trkpt><trkpt lat="39.1183083" lon="16.496325"><ele>1178.8333333333335</ele><time>2026-04-18T11:01:31.534Z</time></trkpt><trkpt lat="39.1184" lon="16.4962917"><ele>1179.6666666666667</ele><time>2026-04-18T11:01:33.53Z</time></trkpt><trkpt lat="39.1184883" lon="16.4962367"><ele>1180.5</ele><time>2026-04-18T11:01:35.534Z</time></trkpt><trkpt lat="39.1185783" lon="16.49618"><ele>1181.3333333333333</ele><time>2026-04-18T11:01:37.532Z</time></trkpt><trkpt lat="39.1186417" lon="16.49614"><ele>1182.1666666666665</ele><time>2026-04-18T11:01:39.533Z</time></trkpt><trkpt lat="39.1187133" lon="16.4961317"><ele>1183.0</ele><time>2026-04-18T11:01:44.531Z</time></trkpt><trkpt lat="39.1188283" lon="16.496155"><ele>1179.5</ele><time>2026-04-18T11:02:06.531Z</time></trkpt><trkpt lat="39.1189217" lon="16.49611"><ele>1176.0</ele><time>2026-04-18T11:02:09.534Z</time></trkpt><trkpt lat="39.1189917" lon="16.4960817"><ele>1172.5</ele><time>2026-04-18T11:02:11.532Z</time></trkpt><trkpt lat="39.11892" lon="16.49608"><ele>1169.0</ele><time>2026-04-18T11:02:24.536Z</time></trkpt><trkpt lat="39.1188433" lon="16.4961217"><ele>1165.5</ele><time>2026-04-18T11:02:27.533Z</time></trkpt><trkpt lat="39.1187933" lon="16.4961717"><ele>1162.0</ele><time>2026-04-18T11:02:29.532Z</time></trkpt><trkpt lat="39.1187333" lon="16.496225"><ele>1166.2</ele><time>2026-04-18T11:02:31.534Z</time></trkpt><trkpt lat="39.11864" lon="16.496295"><ele>1170.4</ele><time>2026-04-18T11:02:33.536Z</time></trkpt><trkpt lat="39.1185383" lon="16.496345"><ele>1174.6</ele><time>2026-04-18T11:02:35.531Z</time></trkpt><trkpt lat="39.1184567" lon="16.496385"><ele>1178.8</ele><time>2026-04-18T11:02:37.532Z</time></trkpt><trkpt lat="39.1183683" lon="16.4964133"><ele>1183.0</ele><time>2026-04-18T11:02:39.534Z</time></trkpt><trkpt lat="39.1182583" lon="16.4964383"><ele>1182.1666666666665</ele><time>2026-04-18T11:02:41.533Z</time></trkpt><trkpt lat="39.1181933" lon="16.4964567"><ele>1181.3333333333333</ele><time>2026-04-18T11:02:42.533Z</time></trkpt><trkpt lat="39.1180683" lon="16.4964883"><ele>1180.5</ele><time>2026-04-18T11:02:44.53Z</time></trkpt><trkpt lat="39.118005" lon="16.49651"><ele>1179.6666666666667</ele><time>2026-04-18T11:02:45.531Z</time></trkpt><trkpt lat="39.11794" lon="16.496525"><ele>1178.8333333333335</ele><time>2026-04-18T11:02:46.531Z</time></trkpt><trkpt lat="39.1178767" lon="16.4965483"><ele>1178.0</ele><time>2026-04-18T11:02:47.529Z</time></trkpt><trkpt lat="39.1177717" lon="16.4965817"><ele>1178.0</ele><time>2026-04-18T11:02:49.531Z</time></trkpt><trkpt lat="39.117695" lon="16.49659"><ele>1178.0</ele><time>2026-04-18T11:02:51.53Z</time></trkpt><trkpt lat="39.11761" lon="16.4965817"><ele>1178.0</ele><time>2026-04-18T11:02:54.53Z</time></trkpt><trkpt lat="39.1175383" lon="16.4965517"><ele>1178.0</ele><time>2026-04-18T11:02:58.531Z</time></trkpt><trkpt lat="39.1174667" lon="16.496535"><ele>1178.0</ele><time>2026-04-18T11:03:04.532Z</time></trkpt><trkpt lat="39.1174017" lon="16.4965133"><ele>1178.0</ele><time>2026-04-18T11:03:07.534Z</time></trkpt><trkpt lat="39.117335" lon="16.4964983"><ele>1178.0</ele><time>2026-04-18T11:03:09.533Z</time></trkpt><trkpt lat="39.1172717" lon="16.496475"><ele>1178.5</ele><time>2026-04-18T11:03:11.532Z</time></trkpt><trkpt lat="39.1172017" lon="16.49646"><ele>1179.0</ele><time>2026-04-18T11:03:13.532Z</time></trkpt><trkpt lat="39.1171317" lon="16.4964533"><ele>1179.5</ele><time>2026-04-18T11:03:15.532Z</time></trkpt><trkpt lat="39.1170517" lon="16.4964583"><ele>1180.0</ele><time>2026-04-18T11:03:17.53Z</time></trkpt><trkpt lat="39.1169633" lon="16.4964567"><ele>1180.5</ele><time>2026-04-18T11:03:20.533Z</time></trkpt><trkpt lat="39.116905" lon="16.4963967"><ele>1181.0</ele><time>2026-04-18T11:03:24.534Z</time></trkpt><trkpt lat="39.1168567" lon="16.4963367"><ele>1181.0</ele><time>2026-04-18T11:03:26.531Z</time></trkpt><trkpt lat="39.1167967" lon="16.4962783"><ele>1181.0</ele><time>2026-04-18T11:03:28.532Z</time></trkpt><trkpt lat="39.116735" lon="16.4962333"><ele>1181.0</ele><time>2026-04-18T11:03:30.532Z</time></trkpt><trkpt lat="39.11666" lon="16.4961683"><ele>1181.0</ele><time>2026-04-18T11:03:33.532Z</time></trkpt><trkpt lat="39.116585" lon="16.4961117"><ele>1181.0</ele><time>2026-04-18T11:03:36.536Z</time></trkpt><trkpt lat="39.11652" lon="16.4960517"><ele>1181.0</ele><time>2026-04-18T11:03:39.534Z</time></trkpt><trkpt lat="39.1164583" lon="16.496005"><ele>1178.5714285714287</ele><time>2026-04-18T11:03:41.535Z</time></trkpt><trkpt lat="39.1164017" lon="16.4959667"><ele>1176.1428571428573</ele><time>2026-04-18T11:03:43.532Z</time></trkpt><trkpt lat="39.1163233" lon="16.4959133"><ele>1173.7142857142858</ele><time>2026-04-18T11:03:46.533Z</time></trkpt><trkpt lat="39.116265" lon="16.49588"><ele>1171.2857142857142</ele><time>2026-04-18T11:03:48.53Z</time></trkpt><trkpt lat="39.1162" lon="16.4958367"><ele>1168.8571428571427</ele><time>2026-04-18T11:03:50.531Z</time></trkpt><trkpt lat="39.116125" lon="16.4958"><ele>1166.4285714285713</ele><time>2026-04-18T11:03:52.531Z</time></trkpt><trkpt lat="39.1160533" lon="16.4957817"><ele>1164.0</ele><time>2026-04-18T11:03:54.533Z</time></trkpt><trkpt lat="39.1159883" lon="16.4957783"><ele>1164.0</ele><time>2026-04-18T11:03:56.533Z</time></trkpt><trkpt lat="39.1159133" lon="16.4957883"><ele>1164.0</ele><time>2026-04-18T11:03:58.533Z</time></trkpt><trkpt lat="39.1158283" lon="16.4958117"><ele>1164.0</ele><time>2026-04-18T11:04:00.529Z</time></trkpt><trkpt lat="39.1157483" lon="16.4958467"><ele>1164.0</ele><time>2026-04-18T11:04:02.532Z</time></trkpt><trkpt lat="39.115685" lon="16.4958733"><ele>1164.0</ele><time>2026-04-18T11:04:05.531Z</time></trkpt><trkpt lat="39.1155267" lon="16.495915"><ele>1163.8333333333333</ele><time>2026-04-18T11:04:26.533Z</time></trkpt><trkpt lat="39.1154317" lon="16.4959767"><ele>1163.6666666666667</ele><time>2026-04-18T11:04:28.535Z</time></trkpt><trkpt lat="39.1153567" lon="16.4960317"><ele>1163.5</ele><time>2026-04-18T11:04:30.533Z</time></trkpt><trkpt lat="39.1153117" lon="16.4961"><ele>1163.3333333333335</ele><time>2026-04-18T11:04:32.531Z</time></trkpt><trkpt lat="39.11528" lon="16.4961767"><ele>1163.1666666666667</ele><time>2026-04-18T11:04:34.53Z</time></trkpt><trkpt lat="39.1152517" lon="16.49626"><ele>1163.0</ele><time>2026-04-18T11:04:36.533Z</time></trkpt><trkpt lat="39.1152083" lon="16.496345"><ele>1163.0</ele><time>2026-04-18T11:04:38.533Z</time></trkpt><trkpt lat="39.1151517" lon="16.4964317"><ele>1163.0</ele><time>2026-04-18T11:04:40.536Z</time></trkpt><trkpt lat="39.1150933" lon="16.4965283"><ele>1163.0</ele><time>2026-04-18T11:04:42.532Z</time></trkpt><trkpt lat="39.1150433" lon="16.496625"><ele>1163.0</ele><time>2026-04-18T11:04:44.533Z</time></trkpt><trkpt lat="39.114995" lon="16.496725"><ele>1163.0</ele><time>2026-04-18T11:04:46.531Z</time></trkpt><trkpt lat="39.1149483" lon="16.496845"><ele>1163.0</ele><time>2026-04-18T11:04:48.534Z</time></trkpt><trkpt lat="39.1149083" lon="16.4969617"><ele>1163.0</ele><time>2026-04-18T11:04:50.535Z</time></trkpt><trkpt lat="39.1148817" lon="16.4970833"><ele>1163.0</ele><time>2026-04-18T11:04:52.532Z</time></trkpt><trkpt lat="39.1148667" lon="16.4972"><ele>1163.0</ele><time>2026-04-18T11:04:54.532Z</time></trkpt><trkpt lat="39.11489" lon="16.4972817"><ele>1163.0</ele><time>2026-04-18T11:04:56.534Z</time></trkpt><trkpt lat="39.1149117" lon="16.497375"><ele>1163.0</ele><time>2026-04-18T11:04:58.533Z</time></trkpt><trkpt lat="39.114925" lon="16.4974867"><ele>1163.2</ele><time>2026-04-18T11:05:00.534Z</time></trkpt><trkpt lat="39.1149483" lon="16.4976117"><ele>1163.4</ele><time>2026-04-18T11:05:02.531Z</time></trkpt><trkpt lat="39.114985" lon="16.4977467"><ele>1163.6000000000001</ele><time>2026-04-18T11:05:04.533Z</time></trkpt><trkpt lat="39.1150267" lon="16.4978733"><ele>1163.8</ele><time>2026-04-18T11:05:06.534Z</time></trkpt><trkpt lat="39.1150883" lon="16.4979983"><ele>1164.0</ele><time>2026-04-18T11:05:08.533Z</time></trkpt><trkpt lat="39.11514" lon="16.49812"><ele>1163.1666666666667</ele><time>2026-04-18T11:05:10.534Z</time></trkpt><trkpt lat="39.115195" lon="16.4982217"><ele>1162.3333333333333</ele><time>2026-04-18T11:05:12.536Z</time></trkpt><trkpt lat="39.1152383" lon="16.4982883"><ele>1161.5</ele><time>2026-04-18T11:05:14.53Z</time></trkpt><trkpt lat="39.115285" lon="16.49836"><ele>1160.6666666666665</ele><time>2026-04-18T11:05:16.53Z</time></trkpt><trkpt lat="39.1153433" lon="16.4984533"><ele>1159.8333333333333</ele><time>2026-04-18T11:05:18.532Z</time></trkpt><trkpt lat="39.1153867" lon="16.4985433"><ele>1159.0</ele><time>2026-04-18T11:05:20.534Z</time></trkpt><trkpt lat="39.1154467" lon="16.49861"><ele>1159.0</ele><time>2026-04-18T11:05:25.53Z</time></trkpt><trkpt lat="39.1155467" lon="16.4986483"><ele>1159.0</ele><time>2026-04-18T11:05:27.53Z</time></trkpt><trkpt lat="39.1156783" lon="16.4986433"><ele>1159.0</ele><time>2026-04-18T11:05:29.53Z</time></trkpt><trkpt lat="39.11577" lon="16.4986433"><ele>1159.0</ele><time>2026-04-18T11:05:30.53Z</time></trkpt><trkpt lat="39.1157733" lon="16.4987617"><ele>1159.0</ele><time>2026-04-18T11:05:35.532Z</time></trkpt><trkpt lat="39.115725" lon="16.498905"><ele>1159.0</ele><time>2026-04-18T11:05:37.532Z</time></trkpt><trkpt lat="39.1156817" lon="16.4990517"><ele>1159.0</ele><time>2026-04-18T11:05:39.531Z</time></trkpt><trkpt lat="39.1156517" lon="16.4992"><ele>1159.0</ele><time>2026-04-18T11:05:41.535Z</time></trkpt><trkpt lat="39.11564" lon="16.4993117"><ele>1159.0</ele><time>2026-04-18T11:05:43.531Z</time></trkpt><trkpt lat="39.11564" lon="16.4994067"><ele>1159.0</ele><time>2026-04-18T11:05:45.534Z</time></trkpt><trkpt lat="39.1156617" lon="16.4995283"><ele>1159.6000000000001</ele><time>2026-04-18T11:05:48.535Z</time></trkpt><trkpt lat="39.115725" lon="16.499625"><ele>1160.2</ele><time>2026-04-18T11:05:50.529Z</time></trkpt><trkpt lat="39.115805" lon="16.4997233"><ele>1160.8000000000002</ele><time>2026-04-18T11:05:52.534Z</time></trkpt><trkpt lat="39.115885" lon="16.4998017"><ele>1161.4</ele><time>2026-04-18T11:05:54.532Z</time></trkpt><trkpt lat="39.1159717" lon="16.4998983"><ele>1162.0</ele><time>2026-04-18T11:05:57.53Z</time></trkpt><trkpt lat="39.116005" lon="16.4999717"><ele>1164.2</ele><time>2026-04-18T11:06:02.532Z</time></trkpt><trkpt lat="39.116095" lon="16.5000383"><ele>1166.4</ele><time>2026-04-18T11:06:32.534Z</time></trkpt><trkpt lat="39.1161817" lon="16.4999983"><ele>1168.6</ele><time>2026-04-18T11:06:35.533Z</time></trkpt><trkpt lat="39.1162833" lon="16.4999683"><ele>1170.8</ele><time>2026-04-18T11:06:37.534Z</time></trkpt><trkpt lat="39.1164083" lon="16.4999617"><ele>1173.0</ele><time>2026-04-18T11:06:39.533Z</time></trkpt><trkpt lat="39.1164733" lon="16.499955"><ele>1173.0</ele><time>2026-04-18T11:06:40.535Z</time></trkpt><trkpt lat="39.11654" lon="16.49995"><ele>1173.0</ele><time>2026-04-18T11:06:41.534Z</time></trkpt><trkpt lat="39.11661" lon="16.4999483"><ele>1173.0</ele><time>2026-04-18T11:06:42.533Z</time></trkpt><trkpt lat="39.1167317" lon="16.4999533"><ele>1173.0</ele><time>2026-04-18T11:06:44.534Z</time></trkpt><trkpt lat="39.1167983" lon="16.499965"><ele>1173.0</ele><time>2026-04-18T11:06:45.537Z</time></trkpt><trkpt lat="39.1168667" lon="16.499985"><ele>1173.0</ele><time>2026-04-18T11:06:46.536Z</time></trkpt><trkpt lat="39.116935" lon="16.50001"><ele>1175.8333333333333</ele><time>2026-04-18T11:06:47.533Z</time></trkpt><trkpt lat="39.1170033" lon="16.5000383"><ele>1178.6666666666667</ele><time>2026-04-18T11:06:48.533Z</time></trkpt><trkpt lat="39.1170717" lon="16.50006"><ele>1181.5</ele><time>2026-04-18T11:06:49.534Z</time></trkpt><trkpt lat="39.117135" lon="16.5000817"><ele>1184.3333333333335</ele><time>2026-04-18T11:06:50.534Z</time></trkpt><trkpt lat="39.1172" lon="16.5001033"><ele>1187.1666666666667</ele><time>2026-04-18T11:06:51.534Z</time></trkpt><trkpt lat="39.1173267" lon="16.5001433"><ele>1190.0</ele><time>2026-04-18T11:06:53.535Z</time></trkpt><trkpt lat="39.1173967" lon="16.5001667"><ele>1193.0</ele><time>2026-04-18T11:06:54.533Z</time></trkpt><trkpt lat="39.1174617" lon="16.5001967"><ele>1196.0</ele><time>2026-04-18T11:06:55.533Z</time></trkpt><trkpt lat="39.1175617" lon="16.500245"><ele>1199.0</ele><time>2026-04-18T11:06:56.536Z</time></trkpt><trkpt lat="39.1176617" lon="16.5001733"><ele>1202.0</ele><time>2026-04-18T11:06:58.534Z</time></trkpt><trkpt lat="39.11778" lon="16.5001683"><ele>1205.0</ele><time>2026-04-18T11:07:01.534Z</time></trkpt><trkpt lat="39.1179133" lon="16.50024"><ele>1205.0</ele><time>2026-04-18T11:07:03.535Z</time></trkpt><trkpt lat="39.117985" lon="16.5002717"><ele>1205.0</ele><time>2026-04-18T11:07:04.535Z</time></trkpt><trkpt lat="39.1180733" lon="16.500275"><ele>1205.0</ele><time>2026-04-18T11:07:05.531Z</time></trkpt><trkpt lat="39.11816" lon="16.5002517"><ele>1205.0</ele><time>2026-04-18T11:07:06.531Z</time></trkpt><trkpt lat="39.11821" lon="16.5001967"><ele>1205.0</ele><time>2026-04-18T11:07:07.531Z</time></trkpt><trkpt lat="39.1182917" lon="16.5001717"><ele>1205.0</ele><time>2026-04-18T11:07:08.53Z</time></trkpt><trkpt lat="39.118375" lon="16.5001683"><ele>1208.5</ele><time>2026-04-18T11:07:09.53Z</time></trkpt><trkpt lat="39.1184567" lon="16.5002083"><ele>1212.0</ele><time>2026-04-18T11:07:10.531Z</time></trkpt><trkpt lat="39.118555" lon="16.5002583"><ele>1215.5</ele><time>2026-04-18T11:07:11.53Z</time></trkpt><trkpt lat="39.11864" lon="16.50029"><ele>1219.0</ele><time>2026-04-18T11:07:12.531Z</time></trkpt><trkpt lat="39.1187133" lon="16.5002967"><ele>1222.5</ele><time>2026-04-18T11:07:13.532Z</time></trkpt><trkpt lat="39.118775" lon="16.5003133"><ele>1226.0</ele><time>2026-04-18T11:07:14.529Z</time></trkpt><trkpt lat="39.1188617" lon="16.5003367"><ele>1226.0</ele><time>2026-04-18T11:07:16.531Z</time></trkpt><trkpt lat="39.1189583" lon="16.5003517"><ele>1226.0</ele><time>2026-04-18T11:07:19.53Z</time></trkpt><trkpt lat="39.11904" lon="16.5003333"><ele>1226.0</ele><time>2026-04-18T11:07:21.534Z</time></trkpt><trkpt lat="39.119135" lon="16.5003267"><ele>1226.0</ele><time>2026-04-18T11:07:23.531Z</time></trkpt><trkpt lat="39.1192083" lon="16.500325"><ele>1226.0</ele><time>2026-04-18T11:07:24.53Z</time></trkpt><trkpt lat="39.1193233" lon="16.5003433"><ele>1226.3333333333335</ele><time>2026-04-18T11:07:26.532Z</time></trkpt><trkpt lat="39.1194017" lon="16.5003683"><ele>1226.6666666666667</ele><time>2026-04-18T11:07:27.534Z</time></trkpt><trkpt lat="39.1195" lon="16.5004167"><ele>1227.0</ele><time>2026-04-18T11:07:29.532Z</time></trkpt><trkpt lat="39.119595" lon="16.50044"><ele>1227.3333333333333</ele><time>2026-04-18T11:07:31.533Z</time></trkpt><trkpt lat="39.119655" lon="16.500475"><ele>1227.6666666666665</ele><time>2026-04-18T11:07:32.53Z</time></trkpt><trkpt lat="39.1197333" lon="16.5004633"><ele>1228.0</ele><time>2026-04-18T11:07:33.533Z</time></trkpt><trkpt lat="39.1198517" lon="16.500455"><ele>1228.0</ele><time>2026-04-18T11:07:35.532Z</time></trkpt><trkpt lat="39.1199467" lon="16.5004283"><ele>1228.0</ele><time>2026-04-18T11:07:37.532Z</time></trkpt><trkpt lat="39.1200167" lon="16.50039"><ele>1228.0</ele><time>2026-04-18T11:07:39.532Z</time></trkpt><trkpt lat="39.1200717" lon="16.50032"><ele>1228.0</ele><time>2026-04-18T11:07:41.535Z</time></trkpt><trkpt lat="39.12012" lon="16.500245"><ele>1228.0</ele><time>2026-04-18T11:07:43.532Z</time></trkpt><trkpt lat="39.120165" lon="16.5001733"><ele>1228.0</ele><time>2026-04-18T11:07:45.534Z</time></trkpt><trkpt lat="39.12021" lon="16.500095"><ele>1231.2</ele><time>2026-04-18T11:07:47.534Z</time></trkpt><trkpt lat="39.120305" lon="16.49996"><ele>1234.4</ele><time>2026-04-18T11:08:04.534Z</time></trkpt><trkpt lat="39.1203433" lon="16.4998917"><ele>1237.6000000000001</ele><time>2026-04-18T11:08:06.532Z</time></trkpt><trkpt lat="39.1204717" lon="16.49978"><ele>1240.8</ele><time>2026-04-18T11:08:19.536Z</time></trkpt><trkpt lat="39.12054" lon="16.4997383"><ele>1244.0</ele><time>2026-04-18T11:08:22.534Z</time></trkpt><trkpt lat="39.1206533" lon="16.4996867"><ele>1241.8333333333335</ele><time>2026-04-18T11:08:25.533Z</time></trkpt><trkpt lat="39.1207467" lon="16.49965"><ele>1239.6666666666667</ele><time>2026-04-18T11:08:27.534Z</time></trkpt><trkpt lat="39.1208567" lon="16.4996533"><ele>1237.5</ele><time>2026-04-18T11:08:29.529Z</time></trkpt><trkpt lat="39.1209433" lon="16.4996333"><ele>1235.3333333333333</ele><time>2026-04-18T11:08:30.534Z</time></trkpt><trkpt lat="39.1210233" lon="16.4996317"><ele>1233.1666666666665</ele><time>2026-04-18T11:08:31.531Z</time></trkpt><trkpt lat="39.1210867" lon="16.4996283"><ele>1231.0</ele><time>2026-04-18T11:08:32.532Z</time></trkpt><trkpt lat="39.1211583" lon="16.4996467"><ele>1231.0</ele><time>2026-04-18T11:08:33.53Z</time></trkpt><trkpt lat="39.1212633" lon="16.4996533"><ele>1231.0</ele><time>2026-04-18T11:08:35.532Z</time></trkpt><trkpt lat="39.1213283" lon="16.4996483"><ele>1231.0</ele><time>2026-04-18T11:08:37.536Z</time></trkpt><trkpt lat="39.1213983" lon="16.4996833"><ele>1231.0</ele><time>2026-04-18T11:08:41.532Z</time></trkpt><trkpt lat="39.1214983" lon="16.499785"><ele>1231.0</ele><time>2026-04-18T11:08:54.533Z</time></trkpt><trkpt lat="39.1215367" lon="16.4998817"><ele>1230.2</ele><time>2026-04-18T11:08:56.533Z</time></trkpt><trkpt lat="39.1216017" lon="16.4999467"><ele>1229.3999999999999</ele><time>2026-04-18T11:08:58.532Z</time></trkpt><trkpt lat="39.1216717" lon="16.5000367"><ele>1228.6</ele><time>2026-04-18T11:09:00.532Z</time></trkpt><trkpt lat="39.121795" lon="16.50011"><ele>1227.8</ele><time>2026-04-18T11:09:11.532Z</time></trkpt><trkpt lat="39.1218567" lon="16.5001883"><ele>1227.0</ele><time>2026-04-18T11:09:13.532Z</time></trkpt><trkpt lat="39.121955" lon="16.5002867"><ele>1227.0</ele><time>2026-04-18T11:09:15.537Z</time></trkpt><trkpt lat="39.12204" lon="16.5004033"><ele>1227.0</ele><time>2026-04-18T11:09:17.533Z</time></trkpt><trkpt lat="39.1221283" lon="16.500465"><ele>1227.0</ele><time>2026-04-18T11:09:19.533Z</time></trkpt><trkpt lat="39.1221917" lon="16.500485"><ele>1227.0</ele><time>2026-04-18T11:09:20.537Z</time></trkpt><trkpt lat="39.1222533" lon="16.5005367"><ele>1227.0</ele><time>2026-04-18T11:09:21.534Z</time></trkpt><trkpt lat="39.12231" lon="16.5005767"><ele>1227.0</ele><time>2026-04-18T11:09:22.533Z</time></trkpt><trkpt lat="39.1223783" lon="16.500615"><ele>1228.6666666666667</ele><time>2026-04-18T11:09:23.537Z</time></trkpt><trkpt lat="39.1224467" lon="16.5006483"><ele>1230.3333333333333</ele><time>2026-04-18T11:09:24.532Z</time></trkpt><trkpt lat="39.1225167" lon="16.500685"><ele>1232.0</ele><time>2026-04-18T11:09:25.536Z</time></trkpt><trkpt lat="39.1225867" lon="16.5007283"><ele>1233.6666666666665</ele><time>2026-04-18T11:09:26.536Z</time></trkpt><trkpt lat="39.1226517" lon="16.5007817"><ele>1235.3333333333333</ele><time>2026-04-18T11:09:27.534Z</time></trkpt><trkpt lat="39.1227133" lon="16.5008267"><ele>1237.0</ele><time>2026-04-18T11:09:28.532Z</time></trkpt><trkpt lat="39.12282" lon="16.5008933"><ele>1237.0</ele><time>2026-04-18T11:09:30.533Z</time></trkpt><trkpt lat="39.1229217" lon="16.50097"><ele>1237.0</ele><time>2026-04-18T11:09:32.531Z</time></trkpt><trkpt lat="39.123035" lon="16.5009883"><ele>1237.0</ele><time>2026-04-18T11:09:34.531Z</time></trkpt><trkpt lat="39.1231317" lon="16.5010067"><ele>1237.0</ele><time>2026-04-18T11:09:36.532Z</time></trkpt><trkpt lat="39.1232283" lon="16.5009967"><ele>1237.0</ele><time>2026-04-18T11:09:38.531Z</time></trkpt><trkpt lat="39.1233567" lon="16.5009783"><ele>1238.142857142857</ele><time>2026-04-18T11:09:40.531Z</time></trkpt><trkpt lat="39.123425" lon="16.5009733"><ele>1239.2857142857144</ele><time>2026-04-18T11:09:41.53Z</time></trkpt><trkpt lat="39.1235017" lon="16.5009733"><ele>1240.4285714285716</ele><time>2026-04-18T11:09:43.531Z</time></trkpt><trkpt lat="39.1235667" lon="16.5010083"><ele>1241.5714285714284</ele><time>2026-04-18T11:09:52.533Z</time></trkpt><trkpt lat="39.12364" lon="16.501065"><ele>1242.7142857142858</ele><time>2026-04-18T11:09:54.532Z</time></trkpt><trkpt lat="39.1236967" lon="16.5011117"><ele>1243.857142857143</ele><time>2026-04-18T11:09:55.533Z</time></trkpt><trkpt lat="39.1237483" lon="16.50118"><ele>1245.0</ele><time>2026-04-18T11:09:56.532Z</time></trkpt><trkpt lat="39.1238083" lon="16.5012467"><ele>1246.6666666666667</ele><time>2026-04-18T11:09:57.534Z</time></trkpt><trkpt lat="39.1238767" lon="16.5013183"><ele>1248.3333333333333</ele><time>2026-04-18T11:09:58.531Z</time></trkpt><trkpt lat="39.1239483" lon="16.5013833"><ele>1250.0</ele><time>2026-04-18T11:09:59.532Z</time></trkpt><trkpt lat="39.1240133" lon="16.5014367"><ele>1251.6666666666665</ele><time>2026-04-18T11:10:00.531Z</time></trkpt><trkpt lat="39.12408" lon="16.5014983"><ele>1253.3333333333333</ele><time>2026-04-18T11:10:01.532Z</time></trkpt><trkpt lat="39.1241633" lon="16.50157"><ele>1255.0</ele><time>2026-04-18T11:10:02.532Z</time></trkpt><trkpt lat="39.1242517" lon="16.5016183"><ele>1254.0</ele><time>2026-04-18T11:10:03.534Z</time></trkpt><trkpt lat="39.1243317" lon="16.501665"><ele>1253.0</ele><time>2026-04-18T11:10:04.531Z</time></trkpt><trkpt lat="39.1244083" lon="16.501695"><ele>1252.0</ele><time>2026-04-18T11:10:05.533Z</time></trkpt><trkpt lat="39.12418" lon="16.50106"><ele>1252.0</ele><time>2026-04-18T11:10:06.786Z</time></trkpt><trkpt lat="39.1246367" lon="16.5010733"><ele>1252.0</ele><time>2026-04-18T11:10:08.53Z</time></trkpt><trkpt lat="39.124815" lon="16.5012017"><ele>1252.0</ele><time>2026-04-18T11:10:09.532Z</time></trkpt><trkpt lat="39.1248783" lon="16.5011617"><ele>1252.0</ele><time>2026-04-18T11:10:10.531Z</time></trkpt><trkpt lat="39.1249617" lon="16.5012217"><ele>1252.0</ele><time>2026-04-18T11:10:11.531Z</time></trkpt><trkpt lat="39.1250283" lon="16.5012033"><ele>1252.0</ele><time>2026-04-18T11:10:12.534Z</time></trkpt><trkpt lat="39.1251417" lon="16.5011683"><ele>1254.8333333333333</ele><time>2026-04-18T11:10:14.533Z</time></trkpt><trkpt lat="39.1252383" lon="16.501155"><ele>1257.6666666666665</ele><time>2026-04-18T11:10:16.532Z</time></trkpt><trkpt lat="39.1253283" lon="16.5011483"><ele>1260.5</ele><time>2026-04-18T11:10:19.534Z</time></trkpt><trkpt lat="39.1254033" lon="16.50114"><ele>1263.3333333333333</ele><time>2026-04-18T11:10:22.536Z</time></trkpt><trkpt lat="39.1254667" lon="16.5011417"><ele>1266.1666666666667</ele><time>2026-04-18T11:10:26.535Z</time></trkpt><trkpt lat="39.1255233" lon="16.5011983"><ele>1269.0</ele><time>2026-04-18T11:10:30.536Z</time></trkpt><trkpt lat="39.1256017" lon="16.5012033"><ele>1269.0</ele><time>2026-04-18T11:10:34.531Z</time></trkpt><trkpt lat="39.1256617" lon="16.5011583"><ele>1269.0</ele><time>2026-04-18T11:10:37.532Z</time></trkpt><trkpt lat="39.1257417" lon="16.5010983"><ele>1269.0</ele><time>2026-04-18T11:10:40.533Z</time></trkpt><trkpt lat="39.1258483" lon="16.5010783"><ele>1269.0</ele><time>2026-04-18T11:10:42.532Z</time></trkpt><trkpt lat="39.1259617" lon="16.50108"><ele>1269.0</ele><time>2026-04-18T11:10:44.532Z</time></trkpt><trkpt lat="39.1260267" lon="16.5010817"><ele>1269.0</ele><time>2026-04-18T11:10:45.531Z</time></trkpt><trkpt lat="39.1260933" lon="16.5010867"><ele>1270.5</ele><time>2026-04-18T11:10:47.53Z</time></trkpt><trkpt lat="39.1261633" lon="16.5010567"><ele>1272.0</ele><time>2026-04-18T11:10:49.531Z</time></trkpt><trkpt lat="39.1262383" lon="16.5010183"><ele>1273.5</ele><time>2026-04-18T11:10:51.529Z</time></trkpt><trkpt lat="39.1263083" lon="16.5009933"><ele>1275.0</ele><time>2026-04-18T11:10:53.53Z</time></trkpt><trkpt lat="39.1263817" lon="16.5009817"><ele>1276.5</ele><time>2026-04-18T11:10:55.532Z</time></trkpt><trkpt lat="39.1264533" lon="16.5009717"><ele>1278.0</ele><time>2026-04-18T11:10:59.53Z</time></trkpt><trkpt lat="39.12659" lon="16.500935"><ele>1279.6666666666667</ele><time>2026-04-18T11:11:07.537Z</time></trkpt><trkpt lat="39.126655" lon="16.5009"><ele>1281.3333333333333</ele><time>2026-04-18T11:11:09.535Z</time></trkpt><trkpt lat="39.1267433" lon="16.500865"><ele>1283.0</ele><time>2026-04-18T11:11:11.536Z</time></trkpt><trkpt lat="39.1268467" lon="16.5008267"><ele>1284.6666666666665</ele><time>2026-04-18T11:11:13.539Z</time></trkpt><trkpt lat="39.1269067" lon="16.5008017"><ele>1286.3333333333333</ele><time>2026-04-18T11:11:14.538Z</time></trkpt><trkpt lat="39.1269867" lon="16.50077"><ele>1288.0</ele><time>2026-04-18T11:11:16.535Z</time></trkpt><trkpt lat="39.1270567" lon="16.50072"><ele>1288.0</ele><time>2026-04-18T11:11:19.532Z</time></trkpt><trkpt lat="39.1271067" lon="16.50066"><ele>1288.0</ele><time>2026-04-18T11:11:23.532Z</time></trkpt><trkpt lat="39.1271767" lon="16.5006483"><ele>1288.0</ele><time>2026-04-18T11:11:29.529Z</time></trkpt><trkpt lat="39.127295" lon="16.50068"><ele>1288.0</ele><time>2026-04-18T11:12:12.532Z</time></trkpt><trkpt lat="39.1273783" lon="16.500585"><ele>1288.0</ele><time>2026-04-18T11:14:36.004Z</time></trkpt><trkpt lat="39.1274283" lon="16.500525"><ele>1288.0</ele><time>2026-04-18T11:15:14.532Z</time></trkpt><trkpt lat="39.1274883" lon="16.5004433"><ele>1289.4</ele><time>2026-04-18T11:15:16.53Z</time></trkpt><trkpt lat="39.1275683" lon="16.50034"><ele>1290.8000000000002</ele><time>2026-04-18T11:15:18.534Z</time></trkpt><trkpt lat="39.1276433" lon="16.5002433"><ele>1292.2</ele><time>2026-04-18T11:15:20.53Z</time></trkpt><trkpt lat="39.1276933" lon="16.500145"><ele>1293.6</ele><time>2026-04-18T11:15:22.533Z</time></trkpt><trkpt lat="39.1277417" lon="16.5000367"><ele>1295.0</ele><time>2026-04-18T11:15:24.535Z</time></trkpt><trkpt lat="39.12778" lon="16.49996"><ele>1295.0</ele><time>2026-04-18T11:15:25.532Z</time></trkpt><trkpt lat="39.1278617" lon="16.499855"><ele>1295.0</ele><time>2026-04-18T11:15:27.533Z</time></trkpt><trkpt lat="39.1279367" lon="16.4997667"><ele>1295.0</ele><time>2026-04-18T11:15:29.532Z</time></trkpt><trkpt lat="39.1280267" lon="16.4996617"><ele>1295.0</ele><time>2026-04-18T11:15:31.536Z</time></trkpt><trkpt lat="39.1280767" lon="16.4995967"><ele>1295.0</ele><time>2026-04-18T11:15:32.534Z</time></trkpt><trkpt lat="39.128125" lon="16.4995267"><ele>1294.6666666666667</ele><time>2026-04-18T11:15:33.53Z</time></trkpt><trkpt lat="39.1281783" lon="16.4994567"><ele>1294.3333333333335</ele><time>2026-04-18T11:15:34.535Z</time></trkpt><trkpt lat="39.1282367" lon="16.4993833"><ele>1294.0</ele><time>2026-04-18T11:15:35.532Z</time></trkpt><trkpt lat="39.128285" lon="16.4993217"><ele>1293.6666666666667</ele><time>2026-04-18T11:15:36.532Z</time></trkpt><trkpt lat="39.1283533" lon="16.499245"><ele>1293.3333333333333</ele><time>2026-04-18T11:15:39.532Z</time></trkpt><trkpt lat="39.1284067" lon="16.499175"><ele>1293.0</ele><time>2026-04-18T11:15:41.537Z</time></trkpt><trkpt lat="39.1284533" lon="16.4991167"><ele>1296.0</ele><time>2026-04-18T11:15:43.534Z</time></trkpt><trkpt lat="39.128505" lon="16.4990167"><ele>1299.0</ele><time>2026-04-18T11:15:45.534Z</time></trkpt><trkpt lat="39.128535" lon="16.49894"><ele>1302.0</ele><time>2026-04-18T11:15:46.532Z</time></trkpt><trkpt lat="39.12857" lon="16.4988583"><ele>1305.0</ele><time>2026-04-18T11:15:47.531Z</time></trkpt><trkpt lat="39.1286267" lon="16.4987017"><ele>1308.0</ele><time>2026-04-18T11:15:49.534Z</time></trkpt><trkpt lat="39.1286733" lon="16.4985683"><ele>1309.4</ele><time>2026-04-18T11:15:51.534Z</time></trkpt><trkpt lat="39.1287167" lon="16.4984367"><ele>1310.8000000000002</ele><time>2026-04-18T11:15:53.532Z</time></trkpt><trkpt lat="39.1287433" lon="16.4983533"><ele>1312.2</ele><time>2026-04-18T11:15:54.533Z</time></trkpt><trkpt lat="39.1288" lon="16.4982167"><ele>1313.6</ele><time>2026-04-18T11:15:56.533Z</time></trkpt><trkpt lat="39.1288633" lon="16.4980817"><ele>1315.0</ele><time>2026-04-18T11:15:58.534Z</time></trkpt><trkpt lat="39.128925" lon="16.4979383"><ele>1317.1666666666665</ele><time>2026-04-18T11:16:00.533Z</time></trkpt><trkpt lat="39.128955" lon="16.4978583"><ele>1319.3333333333333</ele><time>2026-04-18T11:16:01.535Z</time></trkpt><trkpt lat="39.1289833" lon="16.4977783"><ele>1321.5</ele><time>2026-04-18T11:16:02.534Z</time></trkpt><trkpt lat="39.12902" lon="16.4976917"><ele>1323.6666666666667</ele><time>2026-04-18T11:16:03.538Z</time></trkpt><trkpt lat="39.1290567" lon="16.497605"><ele>1325.8333333333335</ele><time>2026-04-18T11:16:04.531Z</time></trkpt><trkpt lat="39.1291283" lon="16.4974667"><ele>1328.0</ele><time>2026-04-18T11:16:06.533Z</time></trkpt><trkpt lat="39.1291683" lon="16.4973933"><ele>1328.6000000000001</ele><time>2026-04-18T11:16:07.534Z</time></trkpt><trkpt lat="39.1292383" lon="16.497295"><ele>1329.2</ele><time>2026-04-18T11:16:09.531Z</time></trkpt><trkpt lat="39.1293233" lon="16.4972383"><ele>1329.8</ele><time>2026-04-18T11:16:11.532Z</time></trkpt><trkpt lat="39.129425" lon="16.497195"><ele>1330.4</ele><time>2026-04-18T11:16:13.534Z</time></trkpt><trkpt lat="39.129505" lon="16.4971383"><ele>1331.0</ele><time>2026-04-18T11:16:15.531Z</time></trkpt><trkpt lat="39.1295483" lon="16.4970467"><ele>1332.3333333333335</ele><time>2026-04-18T11:16:17.532Z</time></trkpt><trkpt lat="39.12957" lon="16.4969567"><ele>1333.6666666666667</ele><time>2026-04-18T11:16:19.531Z</time></trkpt><trkpt lat="39.1295783" lon="16.4968533"><ele>1335.0</ele><time>2026-04-18T11:16:21.532Z</time></trkpt><trkpt lat="39.1295967" lon="16.496765"><ele>1336.3333333333333</ele><time>2026-04-18T11:16:23.532Z</time></trkpt><trkpt lat="39.1296483" lon="16.4966267"><ele>1337.6666666666665</ele><time>2026-04-18T11:16:25.533Z</time></trkpt><trkpt lat="39.1296717" lon="16.496535"><ele>1339.0</ele><time>2026-04-18T11:16:27.533Z</time></trkpt><trkpt lat="39.1297183" lon="16.496405"><ele>1339.0</ele><time>2026-04-18T11:16:29.532Z</time></trkpt><trkpt lat="39.1297683" lon="16.4962683"><ele>1339.0</ele><time>2026-04-18T11:16:31.534Z</time></trkpt><trkpt lat="39.1297983" lon="16.4961933"><ele>1339.0</ele><time>2026-04-18T11:16:32.531Z</time></trkpt><trkpt lat="39.1298383" lon="16.4960867"><ele>1339.0</ele><time>2026-04-18T11:16:33.532Z</time></trkpt><trkpt lat="39.12987" lon="16.496"><ele>1339.0</ele><time>2026-04-18T11:16:34.536Z</time></trkpt><trkpt lat="39.1299183" lon="16.4959"><ele>1339.0</ele><time>2026-04-18T11:16:35.533Z</time></trkpt><trkpt lat="39.1299583" lon="16.4957983"><ele>1338.8000000000002</ele><time>2026-04-18T11:16:36.531Z</time></trkpt><trkpt lat="39.1300017" lon="16.495705"><ele>1338.6000000000001</ele><time>2026-04-18T11:16:37.533Z</time></trkpt><trkpt lat="39.13003" lon="16.4955783"><ele>1338.4</ele><time>2026-04-18T11:16:39.532Z</time></trkpt><trkpt lat="39.13" lon="16.4954967"><ele>1338.2</ele><time>2026-04-18T11:16:41.534Z</time></trkpt><trkpt lat="39.129895" lon="16.4955217"><ele>1338.0</ele><time>2026-04-18T11:16:44.536Z</time></trkpt><trkpt lat="39.1297967" lon="16.49549"><ele>1337.8000000000002</ele><time>2026-04-18T11:16:46.532Z</time></trkpt><trkpt lat="39.1297283" lon="16.4954067"><ele>1337.6</ele><time>2026-04-18T11:16:48.53Z</time></trkpt><trkpt lat="39.1296883" lon="16.4953067"><ele>1337.4</ele><time>2026-04-18T11:16:51.538Z</time></trkpt><trkpt lat="39.1296767" lon="16.4951933"><ele>1337.1999999999998</ele><time>2026-04-18T11:16:54.534Z</time></trkpt><trkpt lat="39.1296817" lon="16.4950667"><ele>1337.0</ele><time>2026-04-18T11:16:57.535Z</time></trkpt><trkpt lat="39.1296967" lon="16.4949617"><ele>1337.0</ele><time>2026-04-18T11:16:59.532Z</time></trkpt><trkpt lat="39.1297383" lon="16.49487"><ele>1337.0</ele><time>2026-04-18T11:17:02.535Z</time></trkpt><trkpt lat="39.1298117" lon="16.4947767"><ele>1337.0</ele><time>2026-04-18T11:17:05.536Z</time></trkpt><trkpt lat="39.1298917" lon="16.4946817"><ele>1337.0</ele><time>2026-04-18T11:17:07.536Z</time></trkpt><trkpt lat="39.129985" lon="16.4945633"><ele>1337.0</ele><time>2026-04-18T11:17:09.531Z</time></trkpt><trkpt lat="39.13003" lon="16.4945017"><ele>1336.6666666666667</ele><time>2026-04-18T11:17:10.533Z</time></trkpt><trkpt lat="39.13008" lon="16.4944517"><ele>1336.3333333333335</ele><time>2026-04-18T11:17:11.529Z</time></trkpt><trkpt lat="39.1301333" lon="16.4943967"><ele>1336.0</ele><time>2026-04-18T11:17:12.529Z</time></trkpt><trkpt lat="39.1301883" lon="16.4943267"><ele>1335.6666666666667</ele><time>2026-04-18T11:17:13.528Z</time></trkpt><trkpt lat="39.1302383" lon="16.4942417"><ele>1335.3333333333333</ele><time>2026-04-18T11:17:14.531Z</time></trkpt><trkpt lat="39.13029" lon="16.494145"><ele>1335.0</ele><time>2026-04-18T11:17:15.533Z</time></trkpt><trkpt lat="39.1303383" lon="16.4940483"><ele>1335.0</ele><time>2026-04-18T11:17:16.534Z</time></trkpt><trkpt lat="39.13038" lon="16.4939583"><ele>1335.0</ele><time>2026-04-18T11:17:17.53Z</time></trkpt><trkpt lat="39.1304233" lon="16.49388"><ele>1335.0</ele><time>2026-04-18T11:17:18.531Z</time></trkpt><trkpt lat="39.1305083" lon="16.49377"><ele>1335.0</ele><time>2026-04-18T11:17:20.53Z</time></trkpt><trkpt lat="39.1305683" lon="16.493745"><ele>1335.0</ele><time>2026-04-18T11:17:21.529Z</time></trkpt><trkpt lat="39.1306883" lon="16.493735"><ele>1335.1666666666667</ele><time>2026-04-18T11:17:23.529Z</time></trkpt><trkpt lat="39.130765" lon="16.493735"><ele>1335.3333333333333</ele><time>2026-04-18T11:17:25.53Z</time></trkpt><trkpt lat="39.130855" lon="16.4936983"><ele>1335.5</ele><time>2026-04-18T11:17:47.531Z</time></trkpt><trkpt lat="39.1309067" lon="16.493795"><ele>1335.6666666666665</ele><time>2026-04-18T11:17:50.533Z</time></trkpt><trkpt lat="39.1309733" lon="16.493825"><ele>1335.8333333333333</ele><time>2026-04-18T11:17:52.53Z</time></trkpt><trkpt lat="39.1310383" lon="16.49387"><ele>1336.0</ele><time>2026-04-18T11:17:54.533Z</time></trkpt><trkpt lat="39.1311217" lon="16.4939233"><ele>1335.6</ele><time>2026-04-18T11:17:56.532Z</time></trkpt><trkpt lat="39.1312117" lon="16.49398"><ele>1335.1999999999998</ele><time>2026-04-18T11:17:58.533Z</time></trkpt><trkpt lat="39.1312733" lon="16.4940733"><ele>1334.8000000000002</ele><time>2026-04-18T11:18:00.531Z</time></trkpt><trkpt lat="39.131355" lon="16.4941517"><ele>1334.4</ele><time>2026-04-18T11:18:02.535Z</time></trkpt><trkpt lat="39.1314167" lon="16.49424"><ele>1334.0</ele><time>2026-04-18T11:18:04.532Z</time></trkpt><trkpt lat="39.131475" lon="16.494335"><ele>1334.0</ele><time>2026-04-18T11:18:06.53Z</time></trkpt><trkpt lat="39.131555" lon="16.4944"><ele>1334.0</ele><time>2026-04-18T11:18:08.53Z</time></trkpt><trkpt lat="39.13164" lon="16.494445"><ele>1334.0</ele><time>2026-04-18T11:18:10.532Z</time></trkpt><trkpt lat="39.131725" lon="16.4944717"><ele>1334.0</ele><time>2026-04-18T11:18:12.533Z</time></trkpt><trkpt lat="39.131815" lon="16.49452"><ele>1334.0</ele><time>2026-04-18T11:18:14.531Z</time></trkpt><trkpt lat="39.1318817" lon="16.49459"><ele>1331.3333333333335</ele><time>2026-04-18T11:18:16.53Z</time></trkpt><trkpt lat="39.13193" lon="16.49467"><ele>1328.6666666666667</ele><time>2026-04-18T11:18:18.531Z</time></trkpt><trkpt lat="39.1319683" lon="16.4947417"><ele>1326.0</ele><time>2026-04-18T11:18:20.531Z</time></trkpt><trkpt lat="39.13198" lon="16.4948233"><ele>1323.3333333333333</ele><time>2026-04-18T11:18:22.532Z</time></trkpt><trkpt lat="39.131985" lon="16.4949083"><ele>1320.6666666666665</ele><time>2026-04-18T11:18:24.532Z</time></trkpt><trkpt lat="39.1320017" lon="16.4950233"><ele>1318.0</ele><time>2026-04-18T11:18:27.608Z</time></trkpt><trkpt lat="39.132005" lon="16.4951367"><ele>1318.0</ele><time>2026-04-18T11:18:29.532Z</time></trkpt><trkpt lat="39.132025" lon="16.4952667"><ele>1318.0</ele><time>2026-04-18T11:18:31.53Z</time></trkpt><trkpt lat="39.132065" lon="16.49537"><ele>1318.0</ele><time>2026-04-18T11:18:33.533Z</time></trkpt><trkpt lat="39.1321417" lon="16.495445"><ele>1318.0</ele><time>2026-04-18T11:18:35.529Z</time></trkpt><trkpt lat="39.1322233" lon="16.4954983"><ele>1318.0</ele><time>2026-04-18T11:18:37.53Z</time></trkpt><trkpt lat="39.1323" lon="16.4955467"><ele>1315.857142857143</ele><time>2026-04-18T11:18:39.53Z</time></trkpt><trkpt lat="39.132355" lon="16.4956067"><ele>1313.7142857142856</ele><time>2026-04-18T11:18:41.531Z</time></trkpt><trkpt lat="39.1323933" lon="16.4956717"><ele>1311.5714285714284</ele><time>2026-04-18T11:18:43.531Z</time></trkpt><trkpt lat="39.1324167" lon="16.4957483"><ele>1309.4285714285716</ele><time>2026-04-18T11:18:45.532Z</time></trkpt><trkpt lat="39.1324367" lon="16.4958333"><ele>1307.2857142857142</ele><time>2026-04-18T11:18:47.532Z</time></trkpt><trkpt lat="39.13249" lon="16.4959183"><ele>1305.142857142857</ele><time>2026-04-18T11:18:49.531Z</time></trkpt><trkpt lat="39.13254" lon="16.4959967"><ele>1303.0</ele><time>2026-04-18T11:18:51.534Z</time></trkpt><trkpt lat="39.1326067" lon="16.496035"><ele>1303.0</ele><time>2026-04-18T11:18:53.531Z</time></trkpt><trkpt lat="39.13267" lon="16.496045"><ele>1303.0</ele><time>2026-04-18T11:18:55.531Z</time></trkpt><trkpt lat="39.132725" lon="16.4960867"><ele>1303.0</ele><time>2026-04-18T11:18:57.531Z</time></trkpt><trkpt lat="39.1327867" lon="16.496175"><ele>1303.0</ele><time>2026-04-18T11:18:59.531Z</time></trkpt><trkpt lat="39.1327933" lon="16.4963317"><ele>1303.0</ele><time>2026-04-18T11:19:01.532Z</time></trkpt><trkpt lat="39.132825" lon="16.49641"><ele>1303.0</ele><time>2026-04-18T11:19:02.614Z</time></trkpt><trkpt lat="39.1328333" lon="16.4964933"><ele>1300.5</ele><time>2026-04-18T11:19:03.532Z</time></trkpt><trkpt lat="39.1328433" lon="16.4965833"><ele>1298.0</ele><time>2026-04-18T11:19:04.534Z</time></trkpt><trkpt lat="39.1328467" lon="16.496675"><ele>1295.5</ele><time>2026-04-18T11:19:05.531Z</time></trkpt><trkpt lat="39.13284" lon="16.4967617"><ele>1293.0</ele><time>2026-04-18T11:19:06.529Z</time></trkpt><trkpt lat="39.1328167" lon="16.4968933"><ele>1290.5</ele><time>2026-04-18T11:19:08.531Z</time></trkpt><trkpt lat="39.1328167" lon="16.496995"><ele>1288.0</ele><time>2026-04-18T11:19:10.608Z</time></trkpt><trkpt lat="39.1328283" lon="16.497075"><ele>1285.8333333333333</ele><time>2026-04-18T11:19:12.612Z</time></trkpt><trkpt lat="39.1328533" lon="16.497165"><ele>1283.6666666666665</ele><time>2026-04-18T11:19:14.533Z</time></trkpt><trkpt lat="39.1328867" lon="16.4972517"><ele>1281.5</ele><time>2026-04-18T11:19:16.536Z</time></trkpt><trkpt lat="39.1328933" lon="16.4973367"><ele>1279.3333333333333</ele><time>2026-04-18T11:19:18.532Z</time></trkpt><trkpt lat="39.132935" lon="16.49746"><ele>1277.1666666666667</ele><time>2026-04-18T11:19:21.534Z</time></trkpt><trkpt lat="39.132995" lon="16.4975117"><ele>1275.0</ele><time>2026-04-18T11:19:23.532Z</time></trkpt><trkpt lat="39.13308" lon="16.497505"><ele>1275.0</ele><time>2026-04-18T11:19:25.531Z</time></trkpt><trkpt lat="39.1331917" lon="16.4974967"><ele>1275.0</ele><time>2026-04-18T11:19:27.533Z</time></trkpt><trkpt lat="39.133255" lon="16.4974917"><ele>1275.0</ele><time>2026-04-18T11:19:28.533Z</time></trkpt><trkpt lat="39.13336" lon="16.4975233"><ele>1275.0</ele><time>2026-04-18T11:19:30.531Z</time></trkpt><trkpt lat="39.1334383" lon="16.4975683"><ele>1275.0</ele><time>2026-04-18T11:19:32.533Z</time></trkpt><trkpt lat="39.1334983" lon="16.4976317"><ele>1275.0</ele><time>2026-04-18T11:19:34.532Z</time></trkpt><trkpt lat="39.1335517" lon="16.4976917"><ele>1275.4</ele><time>2026-04-18T11:19:37.531Z</time></trkpt><trkpt lat="39.1336283" lon="16.497735"><ele>1275.8</ele><time>2026-04-18T11:19:57.53Z</time></trkpt><trkpt lat="39.133725" lon="16.49776"><ele>1276.2</ele><time>2026-04-18T11:19:59.531Z</time></trkpt><trkpt lat="39.1338283" lon="16.497795"><ele>1276.6</ele><time>2026-04-18T11:20:01.53Z</time></trkpt><trkpt lat="39.1339483" lon="16.4977967"><ele>1277.0</ele><time>2026-04-18T11:20:03.532Z</time></trkpt><trkpt lat="39.1340617" lon="16.497805"><ele>1276.1666666666667</ele><time>2026-04-18T11:20:05.53Z</time></trkpt><trkpt lat="39.1341733" lon="16.49778"><ele>1275.3333333333335</ele><time>2026-04-18T11:20:07.531Z</time></trkpt><trkpt lat="39.134235" lon="16.4977483"><ele>1274.5</ele><time>2026-04-18T11:20:08.532Z</time></trkpt><trkpt lat="39.1343317" lon="16.4976583"><ele>1273.6666666666667</ele><time>2026-04-18T11:20:10.532Z</time></trkpt><trkpt lat="39.13438" lon="16.4975933"><ele>1272.8333333333333</ele><time>2026-04-18T11:20:11.53Z</time></trkpt><trkpt lat="39.134425" lon="16.4975233"><ele>1272.0</ele><time>2026-04-18T11:20:12.532Z</time></trkpt><trkpt lat="39.1344617" lon="16.4974533"><ele>1272.0</ele><time>2026-04-18T11:20:13.532Z</time></trkpt><trkpt lat="39.1345117" lon="16.4973583"><ele>1272.0</ele><time>2026-04-18T11:20:15.531Z</time></trkpt><trkpt lat="39.134575" lon="16.4973017"><ele>1272.0</ele><time>2026-04-18T11:20:17.612Z</time></trkpt><trkpt lat="39.13467" lon="16.4972733"><ele>1272.0</ele><time>2026-04-18T11:20:31.531Z</time></trkpt><trkpt lat="39.1347783" lon="16.49722"><ele>1272.0</ele><time>2026-04-18T11:20:33.534Z</time></trkpt><trkpt lat="39.134845" lon="16.49724"><ele>1272.0</ele><time>2026-04-18T11:20:34.533Z</time></trkpt><trkpt lat="39.1349467" lon="16.4972167"><ele>1270.4285714285713</ele><time>2026-04-18T11:20:36.535Z</time></trkpt><trkpt lat="39.1350233" lon="16.49721"><ele>1268.857142857143</ele><time>2026-04-18T11:20:39.536Z</time></trkpt><trkpt lat="39.1349917" lon="16.497135"><ele>1267.2857142857142</ele><time>2026-04-18T11:21:02.532Z</time></trkpt><trkpt lat="39.1349533" lon="16.4970467"><ele>1265.7142857142858</ele><time>2026-04-18T11:21:04.531Z</time></trkpt><trkpt lat="39.1349633" lon="16.4969533"><ele>1264.142857142857</ele><time>2026-04-18T11:21:06.531Z</time></trkpt><trkpt lat="39.13493" lon="16.4968667"><ele>1262.5714285714287</ele><time>2026-04-18T11:21:08.531Z</time></trkpt><trkpt lat="39.1349" lon="16.4967733"><ele>1261.0</ele><time>2026-04-18T11:21:10.53Z</time></trkpt><trkpt lat="39.1348767" lon="16.4966633"><ele>1267.1666666666665</ele><time>2026-04-18T11:21:12.533Z</time></trkpt><trkpt lat="39.1348633" lon="16.496545"><ele>1273.3333333333333</ele><time>2026-04-18T11:21:14.531Z</time></trkpt><trkpt lat="39.134835" lon="16.4964517"><ele>1279.5</ele><time>2026-04-18T11:21:16.53Z</time></trkpt><trkpt lat="39.1347917" lon="16.4963667"><ele>1285.6666666666667</ele><time>2026-04-18T11:21:18.531Z</time></trkpt><trkpt lat="39.134775" lon="16.496255"><ele>1291.8333333333335</ele><time>2026-04-18T11:21:22.53Z</time></trkpt><trkpt lat="39.1347517" lon="16.4961767"><ele>1298.0</ele><time>2026-04-18T11:21:24.535Z</time></trkpt><trkpt lat="39.1347367" lon="16.4960917"><ele>1300.6666666666667</ele><time>2026-04-18T11:21:26.531Z</time></trkpt><trkpt lat="39.134715" lon="16.495995"><ele>1303.3333333333335</ele><time>2026-04-18T11:21:28.531Z</time></trkpt><trkpt lat="39.1346317" lon="16.4958933"><ele>1306.0</ele><time>2026-04-18T11:21:51.535Z</time></trkpt><trkpt lat="39.1346533" lon="16.49598"><ele>1308.6666666666667</ele><time>2026-04-18T11:22:10.533Z</time></trkpt><trkpt lat="39.134675" lon="16.4960567"><ele>1311.3333333333333</ele><time>2026-04-18T11:22:19.532Z</time></trkpt><trkpt lat="39.1347367" lon="16.4961233"><ele>1314.0</ele><time>2026-04-18T11:22:23.532Z</time></trkpt><trkpt lat="39.1347533" lon="16.4962167"><ele>1311.7142857142856</ele><time>2026-04-18T11:22:26.53Z</time></trkpt><trkpt lat="39.1347733" lon="16.4963233"><ele>1309.4285714285716</ele><time>2026-04-18T11:22:29.531Z</time></trkpt><trkpt lat="39.1347867" lon="16.49641"><ele>1307.142857142857</ele><time>2026-04-18T11:22:31.532Z</time></trkpt><trkpt lat="39.1348183" lon="16.4965017"><ele>1304.8571428571427</ele><time>2026-04-18T11:22:34.532Z</time></trkpt><trkpt lat="39.1348317" lon="16.4965967"><ele>1302.5714285714284</ele><time>2026-04-18T11:22:38.53Z</time></trkpt><trkpt lat="39.1348517" lon="16.4966767"><ele>1300.2857142857142</ele><time>2026-04-18T11:22:40.533Z</time></trkpt><trkpt lat="39.1348717" lon="16.49676"><ele>1298.0</ele><time>2026-04-18T11:22:42.532Z</time></trkpt><trkpt lat="39.1348983" lon="16.4968583"><ele>1295.0</ele><time>2026-04-18T11:22:45.534Z</time></trkpt><trkpt lat="39.1349167" lon="16.49698"><ele>1292.0</ele><time>2026-04-18T11:22:48.531Z</time></trkpt><trkpt lat="39.1349417" lon="16.49708"><ele>1289.0</ele><time>2026-04-18T11:22:51.531Z</time></trkpt><trkpt lat="39.1349767" lon="16.4971633"><ele>1286.0</ele><time>2026-04-18T11:22:54.53Z</time></trkpt><trkpt lat="39.1350883" lon="16.4972233"><ele>1283.0</ele><time>2026-04-18T11:23:14.535Z</time></trkpt><trkpt lat="39.1351767" lon="16.49724"><ele>1283.0</ele><time>2026-04-18T11:23:16.532Z</time></trkpt><trkpt lat="39.1352683" lon="16.4971917"><ele>1283.0</ele><time>2026-04-18T11:23:18.539Z</time></trkpt><trkpt lat="39.1353533" lon="16.4971383"><ele>1283.0</ele><time>2026-04-18T11:23:20.533Z</time></trkpt><trkpt lat="39.1354467" lon="16.497095"><ele>1283.0</ele><time>2026-04-18T11:23:22.535Z</time></trkpt><trkpt lat="39.1355533" lon="16.4970917"><ele>1283.0</ele><time>2026-04-18T11:23:24.534Z</time></trkpt><trkpt lat="39.135635" lon="16.497085"><ele>1283.0</ele><time>2026-04-18T11:23:26.536Z</time></trkpt><trkpt lat="39.1356983" lon="16.4970483"><ele>1283.0</ele><time>2026-04-18T11:23:28.535Z</time></trkpt><trkpt lat="39.1357617" lon="16.4969833"><ele>1283.0</ele><time>2026-04-18T11:23:30.537Z</time></trkpt><trkpt lat="39.13584" lon="16.4968983"><ele>1283.0</ele><time>2026-04-18T11:23:32.533Z</time></trkpt><trkpt lat="39.1359317" lon="16.4968133"><ele>1283.0</ele><time>2026-04-18T11:23:34.532Z</time></trkpt><trkpt lat="39.1359917" lon="16.4967817"><ele>1283.0</ele><time>2026-04-18T11:23:35.533Z</time></trkpt><trkpt lat="39.1360733" lon="16.496665"><ele>1283.3333333333335</ele><time>2026-04-18T11:23:37.532Z</time></trkpt><trkpt lat="39.1361283" lon="16.4966233"><ele>1283.6666666666667</ele><time>2026-04-18T11:23:38.532Z</time></trkpt><trkpt lat="39.1362283" lon="16.49653"><ele>1284.0</ele><time>2026-04-18T11:23:40.533Z</time></trkpt><trkpt lat="39.1362817" lon="16.4964817"><ele>1284.3333333333333</ele><time>2026-04-18T11:23:41.532Z</time></trkpt><trkpt lat="39.1363417" lon="16.4964417"><ele>1284.6666666666665</ele><time>2026-04-18T11:23:42.53Z</time></trkpt><trkpt lat="39.136455" lon="16.4963683"><ele>1285.0</ele><time>2026-04-18T11:23:44.53Z</time></trkpt><trkpt lat="39.1365183" lon="16.4963117"><ele>1284.3333333333333</ele><time>2026-04-18T11:23:45.532Z</time></trkpt><trkpt lat="39.136595" lon="16.4962667"><ele>1283.6666666666665</ele><time>2026-04-18T11:23:46.53Z</time></trkpt><trkpt lat="39.136665" lon="16.4962233"><ele>1283.0</ele><time>2026-04-18T11:23:47.531Z</time></trkpt><trkpt lat="39.1367383" lon="16.4961767"><ele>1282.3333333333333</ele><time>2026-04-18T11:23:48.531Z</time></trkpt><trkpt lat="39.136805" lon="16.4961333"><ele>1281.6666666666667</ele><time>2026-04-18T11:23:49.531Z</time></trkpt><trkpt lat="39.1368633" lon="16.4960733"><ele>1281.0</ele><time>2026-04-18T11:23:50.532Z</time></trkpt><trkpt lat="39.1369017" lon="16.4960083"><ele>1284.5</ele><time>2026-04-18T11:23:51.531Z</time></trkpt><trkpt lat="39.13694" lon="16.4959433"><ele>1288.0</ele><time>2026-04-18T11:23:52.529Z</time></trkpt><trkpt lat="39.1369783" lon="16.4958733"><ele>1291.5</ele><time>2026-04-18T11:23:53.532Z</time></trkpt><trkpt lat="39.1370617" lon="16.4957667"><ele>1295.0</ele><time>2026-04-18T11:23:55.532Z</time></trkpt><trkpt lat="39.1371217" lon="16.495715"><ele>1298.5</ele><time>2026-04-18T11:23:57.533Z</time></trkpt><trkpt lat="39.13719" lon="16.4956967"><ele>1302.0</ele><time>2026-04-18T11:23:59.531Z</time></trkpt><trkpt lat="39.1373067" lon="16.495665"><ele>1302.0</ele><time>2026-04-18T11:24:27.534Z</time></trkpt><trkpt lat="39.1373783" lon="16.4956517"><ele>1302.0</ele><time>2026-04-18T11:24:29.531Z</time></trkpt><trkpt lat="39.1374583" lon="16.4956467"><ele>1302.0</ele><time>2026-04-18T11:24:31.533Z</time></trkpt><trkpt lat="39.1375367" lon="16.4956183"><ele>1302.0</ele><time>2026-04-18T11:24:33.535Z</time></trkpt><trkpt lat="39.1376067" lon="16.4956167"><ele>1302.0</ele><time>2026-04-18T11:24:35.532Z</time></trkpt><trkpt lat="39.1376883" lon="16.495625"><ele>1302.0</ele><time>2026-04-18T11:24:37.534Z</time></trkpt><trkpt lat="39.13777" lon="16.4956483"><ele>1300.6666666666667</ele><time>2026-04-18T11:24:39.536Z</time></trkpt><trkpt lat="39.1378383" lon="16.4957117"><ele>1299.3333333333333</ele><time>2026-04-18T11:24:41.534Z</time></trkpt><trkpt lat="39.137905" lon="16.49571"><ele>1298.0</ele><time>2026-04-18T11:24:43.535Z</time></trkpt><trkpt lat="39.1379833" lon="16.4957117"><ele>1296.6666666666665</ele><time>2026-04-18T11:24:46.533Z</time></trkpt><trkpt lat="39.1380467" lon="16.4957083"><ele>1295.3333333333333</ele><time>2026-04-18T11:24:49.535Z</time></trkpt><trkpt lat="39.13813" lon="16.4956867"><ele>1294.0</ele><time>2026-04-18T11:24:52.536Z</time></trkpt><trkpt lat="39.1382033" lon="16.4956883"><ele>1295.6666666666665</ele><time>2026-04-18T11:24:54.535Z</time></trkpt><trkpt lat="39.13829" lon="16.495645"><ele>1297.3333333333333</ele><time>2026-04-18T11:24:57.535Z</time></trkpt><trkpt lat="39.13836" lon="16.4956417"><ele>1299.0</ele><time>2026-04-18T11:24:59.532Z</time></trkpt><trkpt lat="39.13843" lon="16.4955933"><ele>1300.6666666666667</ele><time>2026-04-18T11:25:01.533Z</time></trkpt><trkpt lat="39.1385133" lon="16.4955717"><ele>1302.3333333333335</ele><time>2026-04-18T11:25:03.534Z</time></trkpt><trkpt lat="39.1385783" lon="16.4955467"><ele>1304.0</ele><time>2026-04-18T11:25:05.531Z</time></trkpt><trkpt lat="39.1386667" lon="16.495515"><ele>1304.0</ele><time>2026-04-18T11:25:08.533Z</time></trkpt><trkpt lat="39.1388017" lon="16.4954867"><ele>1304.0</ele><time>2026-04-18T11:26:17.534Z</time></trkpt><trkpt lat="39.1388867" lon="16.4954867"><ele>1304.0</ele><time>2026-04-18T11:26:31.531Z</time></trkpt><trkpt lat="39.138955" lon="16.49548"><ele>1304.0</ele><time>2026-04-18T11:26:33.532Z</time></trkpt><trkpt lat="39.1390367" lon="16.4954667"><ele>1304.0</ele><time>2026-04-18T11:26:35.532Z</time></trkpt><trkpt lat="39.1391133" lon="16.4954783"><ele>1306.1666666666667</ele><time>2026-04-18T11:26:39.535Z</time></trkpt><trkpt lat="39.1392133" lon="16.4954933"><ele>1308.3333333333335</ele><time>2026-04-18T11:26:42.53Z</time></trkpt><trkpt lat="39.1392883" lon="16.495525"><ele>1310.5</ele><time>2026-04-18T11:26:44.531Z</time></trkpt><trkpt lat="39.139355" lon="16.4955783"><ele>1312.6666666666667</ele><time>2026-04-18T11:26:46.532Z</time></trkpt><trkpt lat="39.1394033" lon="16.4956767"><ele>1314.8333333333333</ele><time>2026-04-18T11:26:49.532Z</time></trkpt><trkpt lat="39.1393533" lon="16.4957267"><ele>1317.0</ele><time>2026-04-18T11:26:54.533Z</time></trkpt><trkpt lat="39.13929" lon="16.49582"><ele>1317.0</ele><time>2026-04-18T11:26:57.53Z</time></trkpt><trkpt lat="39.1392317" lon="16.4959033"><ele>1317.0</ele><time>2026-04-18T11:26:59.533Z</time></trkpt><trkpt lat="39.1391567" lon="16.4960067"><ele>1317.0</ele><time>2026-04-18T11:27:01.533Z</time></trkpt><trkpt lat="39.1390967" lon="16.4961283"><ele>1317.0</ele><time>2026-04-18T11:27:03.531Z</time></trkpt><trkpt lat="39.1390367" lon="16.4962433"><ele>1317.0</ele><time>2026-04-18T11:27:05.531Z</time></trkpt><trkpt lat="39.1389783" lon="16.4963067"><ele>1315.1666666666667</ele><time>2026-04-18T11:27:07.533Z</time></trkpt><trkpt lat="39.138925" lon="16.496395"><ele>1313.3333333333333</ele><time>2026-04-18T11:27:09.531Z</time></trkpt><trkpt lat="39.138885" lon="16.4965033"><ele>1311.5</ele><time>2026-04-18T11:27:11.532Z</time></trkpt><trkpt lat="39.1388933" lon="16.496615"><ele>1309.6666666666665</ele><time>2026-04-18T11:27:13.534Z</time></trkpt><trkpt lat="39.13891" lon="16.4967217"><ele>1307.8333333333333</ele><time>2026-04-18T11:27:15.534Z</time></trkpt><trkpt lat="39.1389167" lon="16.49682"><ele>1306.0</ele><time>2026-04-18T11:27:17.534Z</time></trkpt><trkpt lat="39.1389217" lon="16.4969233"><ele>1306.0</ele><time>2026-04-18T11:27:19.533Z</time></trkpt><trkpt lat="39.1389217" lon="16.4970167"><ele>1306.0</ele><time>2026-04-18T11:27:21.535Z</time></trkpt><trkpt lat="39.1389233" lon="16.4971167"><ele>1306.0</ele><time>2026-04-18T11:27:23.533Z</time></trkpt><trkpt lat="39.138935" lon="16.4971983"><ele>1306.0</ele><time>2026-04-18T11:27:25.534Z</time></trkpt><trkpt lat="39.1389717" lon="16.4972867"><ele>1306.0</ele><time>2026-04-18T11:27:27.534Z</time></trkpt><trkpt lat="39.13901" lon="16.4973883"><ele>1306.0</ele><time>2026-04-18T11:27:29.536Z</time></trkpt><trkpt lat="39.1390317" lon="16.4974883"><ele>1307.5</ele><time>2026-04-18T11:27:31.533Z</time></trkpt><trkpt lat="39.1390467" lon="16.4975817"><ele>1309.0</ele><time>2026-04-18T11:27:33.534Z</time></trkpt><trkpt lat="39.139065" lon="16.4976717"><ele>1310.5</ele><time>2026-04-18T11:27:35.532Z</time></trkpt><trkpt lat="39.1390883" lon="16.4977767"><ele>1312.0</ele><time>2026-04-18T11:27:38.531Z</time></trkpt><trkpt lat="39.1391017" lon="16.49789"><ele>1313.5</ele><time>2026-04-18T11:27:41.538Z</time></trkpt><trkpt lat="39.1391183" lon="16.498005"><ele>1315.0</ele><time>2026-04-18T11:27:43.531Z</time></trkpt><trkpt lat="39.1391067" lon="16.4981567"><ele>1318.2</ele><time>2026-04-18T11:28:46.531Z</time></trkpt><trkpt lat="39.1390167" lon="16.498155"><ele>1321.4</ele><time>2026-04-18T11:28:49.533Z</time></trkpt><trkpt lat="39.13895" lon="16.4981783"><ele>1324.6</ele><time>2026-04-18T11:28:52.534Z</time></trkpt><trkpt lat="39.1388733" lon="16.4981567"><ele>1327.8</ele><time>2026-04-18T11:28:56.531Z</time></trkpt><trkpt lat="39.1388017" lon="16.498135"><ele>1331.0</ele><time>2026-04-18T11:28:59.53Z</time></trkpt><trkpt lat="39.1386383" lon="16.4982767"><ele>1331.0</ele><time>2026-04-18T11:30:21.791Z</time></trkpt><trkpt lat="39.1386983" lon="16.49825"><ele>1331.0</ele><time>2026-04-18T11:30:23.53Z</time></trkpt><trkpt lat="39.1386367" lon="16.498195"><ele>1331.0</ele><time>2026-04-18T11:30:33.532Z</time></trkpt><trkpt lat="39.1385683" lon="16.49817"><ele>1331.0</ele><time>2026-04-18T11:30:36.532Z</time></trkpt><trkpt lat="39.138505" lon="16.4981717"><ele>1331.0</ele><time>2026-04-18T11:30:42.534Z</time></trkpt><trkpt lat="39.138435" lon="16.4981333"><ele>1331.0</ele><time>2026-04-18T11:30:51.534Z</time></trkpt><trkpt lat="39.138365" lon="16.498145"><ele>1331.0</ele><time>2026-04-18T11:31:03.534Z</time></trkpt><trkpt lat="39.13829" lon="16.4981317"><ele>1330.0</ele><time>2026-04-18T11:31:06.532Z</time></trkpt><trkpt lat="39.1382067" lon="16.4981417"><ele>1329.0</ele><time>2026-04-18T11:31:08.533Z</time></trkpt><trkpt lat="39.1381183" lon="16.4981717"><ele>1328.0</ele><time>2026-04-18T11:31:10.534Z</time></trkpt><trkpt lat="39.138015" lon="16.49822"><ele>1327.0</ele><time>2026-04-18T11:31:12.539Z</time></trkpt><trkpt lat="39.1379317" lon="16.4982667"><ele>1326.0</ele><time>2026-04-18T11:31:14.534Z</time></trkpt><trkpt lat="39.1378717" lon="16.4983017"><ele>1325.0</ele><time>2026-04-18T11:31:16.537Z</time></trkpt><trkpt lat="39.1377967" lon="16.4983233"><ele>1325.0</ele><time>2026-04-18T11:31:18.534Z</time></trkpt><trkpt lat="39.1377183" lon="16.498355"><ele>1325.0</ele><time>2026-04-18T11:31:20.535Z</time></trkpt><trkpt lat="39.1376317" lon="16.4983833"><ele>1325.0</ele><time>2026-04-18T11:31:22.534Z</time></trkpt><trkpt lat="39.1375483" lon="16.498415"><ele>1325.0</ele><time>2026-04-18T11:31:24.534Z</time></trkpt><trkpt lat="39.1374717" lon="16.4984417"><ele>1325.0</ele><time>2026-04-18T11:31:26.535Z</time></trkpt><trkpt lat="39.1374033" lon="16.4984783"><ele>1325.0</ele><time>2026-04-18T11:31:28.536Z</time></trkpt><trkpt lat="39.1373333" lon="16.4985183"><ele>1323.3333333333335</ele><time>2026-04-18T11:31:31.532Z</time></trkpt><trkpt lat="39.1372483" lon="16.498585"><ele>1321.6666666666667</ele><time>2026-04-18T11:31:48.531Z</time></trkpt><trkpt lat="39.1371917" lon="16.4986267"><ele>1320.0</ele><time>2026-04-18T11:31:50.532Z</time></trkpt><trkpt lat="39.13713" lon="16.4986883"><ele>1318.3333333333333</ele><time>2026-04-18T11:31:52.531Z</time></trkpt><trkpt lat="39.137065" lon="16.49876"><ele>1316.6666666666665</ele><time>2026-04-18T11:31:55.53Z</time></trkpt><trkpt lat="39.137" lon="16.49879"><ele>1315.0</ele><time>2026-04-18T11:31:58.531Z</time></trkpt><trkpt lat="39.136925" lon="16.49883"><ele>1315.0</ele><time>2026-04-18T11:32:01.533Z</time></trkpt><trkpt lat="39.1368567" lon="16.4989033"><ele>1315.0</ele><time>2026-04-18T11:32:04.532Z</time></trkpt><trkpt lat="39.13677" lon="16.49896"><ele>1315.0</ele><time>2026-04-18T11:32:07.533Z</time></trkpt><trkpt lat="39.1367067" lon="16.4989917"><ele>1315.0</ele><time>2026-04-18T11:32:09.534Z</time></trkpt><trkpt lat="39.136635" lon="16.4990133"><ele>1315.0</ele><time>2026-04-18T11:32:11.534Z</time></trkpt><trkpt lat="39.1365667" lon="16.4990317"><ele>1315.0</ele><time>2026-04-18T11:32:13.53Z</time></trkpt><trkpt lat="39.1364933" lon="16.4990467"><ele>1311.5</ele><time>2026-04-18T11:32:15.534Z</time></trkpt><trkpt lat="39.1364183" lon="16.4990633"><ele>1308.0</ele><time>2026-04-18T11:32:17.533Z</time></trkpt><trkpt lat="39.13635" lon="16.499085"><ele>1304.5</ele><time>2026-04-18T11:32:19.533Z</time></trkpt><trkpt lat="39.1362633" lon="16.4991183"><ele>1301.0</ele><time>2026-04-18T11:32:22.532Z</time></trkpt><trkpt lat="39.1361833" lon="16.4991517"><ele>1297.5</ele><time>2026-04-18T11:32:25.532Z</time></trkpt><trkpt lat="39.1361267" lon="16.4991933"><ele>1294.0</ele><time>2026-04-18T11:32:27.533Z</time></trkpt><trkpt lat="39.136055" lon="16.4992533"><ele>1294.0</ele><time>2026-04-18T11:32:30.532Z</time></trkpt><trkpt lat="39.135995" lon="16.4993267"><ele>1294.0</ele><time>2026-04-18T11:32:33.535Z</time></trkpt><trkpt lat="39.13594" lon="16.4993833"><ele>1294.0</ele><time>2026-04-18T11:32:36.531Z</time></trkpt><trkpt lat="39.13588" lon="16.4994233"><ele>1294.0</ele><time>2026-04-18T11:32:39.533Z</time></trkpt><trkpt lat="39.1358183" lon="16.4994633"><ele>1294.0</ele><time>2026-04-18T11:32:42.533Z</time></trkpt><trkpt lat="39.1357717" lon="16.49952"><ele>1294.0</ele><time>2026-04-18T11:32:45.531Z</time></trkpt><trkpt lat="39.1357267" lon="16.4995833"><ele>1294.0</ele><time>2026-04-18T11:32:49.533Z</time></trkpt><trkpt lat="39.135705" lon="16.499685"><ele>1290.6666666666665</ele><time>2026-04-18T11:32:54.53Z</time></trkpt><trkpt lat="39.1356867" lon="16.4997817"><ele>1287.3333333333333</ele><time>2026-04-18T11:32:58.533Z</time></trkpt><trkpt lat="39.1356783" lon="16.49987"><ele>1284.0</ele><time>2026-04-18T11:33:08.531Z</time></trkpt><trkpt lat="39.1356617" lon="16.4999933"><ele>1280.6666666666667</ele><time>2026-04-18T11:33:11.531Z</time></trkpt><trkpt lat="39.13565" lon="16.5000917"><ele>1277.3333333333335</ele><time>2026-04-18T11:33:13.533Z</time></trkpt><trkpt lat="39.135635" lon="16.5001883"><ele>1274.0</ele><time>2026-04-18T11:33:15.534Z</time></trkpt><trkpt lat="39.13562" lon="16.5002817"><ele>1274.0</ele><time>2026-04-18T11:33:17.532Z</time></trkpt><trkpt lat="39.135605" lon="16.5003733"><ele>1274.0</ele><time>2026-04-18T11:33:19.531Z</time></trkpt><trkpt lat="39.135575" lon="16.5004633"><ele>1274.0</ele><time>2026-04-18T11:33:21.533Z</time></trkpt><trkpt lat="39.135525" lon="16.500555"><ele>1274.0</ele><time>2026-04-18T11:33:24.532Z</time></trkpt><trkpt lat="39.13545" lon="16.5005483"><ele>1274.0</ele><time>2026-04-18T11:33:27.534Z</time></trkpt><trkpt lat="39.1354083" lon="16.5004733"><ele>1274.0</ele><time>2026-04-18T11:33:31.534Z</time></trkpt><trkpt lat="39.135385" lon="16.5003717"><ele>1274.0</ele><time>2026-04-18T11:33:46.534Z</time></trkpt><trkpt lat="39.13536" lon="16.5002967"><ele>1274.0</ele><time>2026-04-18T11:33:52.533Z</time></trkpt><trkpt lat="39.1353433" lon="16.5002133"><ele>1274.0</ele><time>2026-04-18T11:33:56.534Z</time></trkpt><trkpt lat="39.135315" lon="16.500125"><ele>1274.0</ele><time>2026-04-18T11:33:59.534Z</time></trkpt><trkpt lat="39.1352717" lon="16.5000367"><ele>1274.0</ele><time>2026-04-18T11:34:02.531Z</time></trkpt><trkpt lat="39.1352417" lon="16.499965"><ele>1274.0</ele><time>2026-04-18T11:34:05.533Z</time></trkpt><trkpt lat="39.1351883" lon="16.4998833"><ele>1274.0</ele><time>2026-04-18T11:34:08.532Z</time></trkpt><trkpt lat="39.135135" lon="16.4998083"><ele>1274.0</ele><time>2026-04-18T11:34:11.531Z</time></trkpt><trkpt lat="39.13509" lon="16.499735"><ele>1274.0</ele><time>2026-04-18T11:34:14.533Z</time></trkpt><trkpt lat="39.13504" lon="16.499665"><ele>1274.0</ele><time>2026-04-18T11:34:18.53Z</time></trkpt><trkpt lat="39.13497" lon="16.4996067"><ele>1274.0</ele><time>2026-04-18T11:34:23.533Z</time></trkpt><trkpt lat="39.1348983" lon="16.4995583"><ele>1274.0</ele><time>2026-04-18T11:34:26.531Z</time></trkpt><trkpt lat="39.1348267" lon="16.4995567"><ele>1274.0</ele><time>2026-04-18T11:34:29.534Z</time></trkpt><trkpt lat="39.1347633" lon="16.4996333"><ele>1270.5</ele><time>2026-04-18T11:34:32.534Z</time></trkpt><trkpt lat="39.1347167" lon="16.4997117"><ele>1267.0</ele><time>2026-04-18T11:34:36.532Z</time></trkpt><trkpt lat="39.13469" lon="16.49981"><ele>1263.5</ele><time>2026-04-18T11:35:08.534Z</time></trkpt><trkpt lat="39.13466" lon="16.4998933"><ele>1260.0</ele><time>2026-04-18T11:35:09.536Z</time></trkpt><trkpt lat="39.1346067" lon="16.5000083"><ele>1256.5</ele><time>2026-04-18T11:35:10.532Z</time></trkpt><trkpt lat="39.1345583" lon="16.5001"><ele>1253.0</ele><time>2026-04-18T11:35:11.532Z</time></trkpt><trkpt lat="39.13451" lon="16.5001867"><ele>1253.0</ele><time>2026-04-18T11:35:12.534Z</time></trkpt><trkpt lat="39.1344567" lon="16.5002783"><ele>1253.0</ele><time>2026-04-18T11:35:13.535Z</time></trkpt><trkpt lat="39.1344117" lon="16.5003483"><ele>1253.0</ele><time>2026-04-18T11:35:14.532Z</time></trkpt><trkpt lat="39.1343767" lon="16.5004267"><ele>1253.0</ele><time>2026-04-18T11:35:15.533Z</time></trkpt><trkpt lat="39.134335" lon="16.5004967"><ele>1253.0</ele><time>2026-04-18T11:35:16.533Z</time></trkpt><trkpt lat="39.1342917" lon="16.5005583"><ele>1253.0</ele><time>2026-04-18T11:35:17.531Z</time></trkpt><trkpt lat="39.134235" lon="16.500595"><ele>1253.0</ele><time>2026-04-18T11:35:18.534Z</time></trkpt><trkpt lat="39.1341567" lon="16.500695"><ele>1253.0</ele><time>2026-04-18T11:35:20.532Z</time></trkpt><trkpt lat="39.134135" lon="16.5008033"><ele>1253.0</ele><time>2026-04-18T11:35:22.531Z</time></trkpt><trkpt lat="39.134135" lon="16.5009117"><ele>1253.0</ele><time>2026-04-18T11:35:24.532Z</time></trkpt><trkpt lat="39.1341417" lon="16.50101"><ele>1253.0</ele><time>2026-04-18T11:35:26.531Z</time></trkpt><trkpt lat="39.1341333" lon="16.50113"><ele>1253.0</ele><time>2026-04-18T11:35:28.531Z</time></trkpt><trkpt lat="39.134095" lon="16.5012617"><ele>1249.4</ele><time>2026-04-18T11:35:30.531Z</time></trkpt><trkpt lat="39.1340467" lon="16.5013733"><ele>1245.8</ele><time>2026-04-18T11:35:32.53Z</time></trkpt><trkpt lat="39.1339567" lon="16.501445"><ele>1242.2</ele><time>2026-04-18T11:35:34.532Z</time></trkpt><trkpt lat="39.1338467" lon="16.5014967"><ele>1238.6</ele><time>2026-04-18T11:35:36.532Z</time></trkpt><trkpt lat="39.1337933" lon="16.5015417"><ele>1235.0</ele><time>2026-04-18T11:35:37.531Z</time></trkpt><trkpt lat="39.133735" lon="16.5015783"><ele>1235.0</ele><time>2026-04-18T11:35:38.532Z</time></trkpt><trkpt lat="39.1336783" lon="16.5016217"><ele>1235.0</ele><time>2026-04-18T11:35:39.535Z</time></trkpt><trkpt lat="39.1336167" lon="16.501655"><ele>1235.0</ele><time>2026-04-18T11:35:40.533Z</time></trkpt><trkpt lat="39.13354" lon="16.50176"><ele>1235.0</ele><time>2026-04-18T11:35:42.534Z</time></trkpt><trkpt lat="39.133485" lon="16.5018817"><ele>1235.0</ele><time>2026-04-18T11:35:44.53Z</time></trkpt><trkpt lat="39.13348" lon="16.5020217"><ele>1235.2</ele><time>2026-04-18T11:35:46.531Z</time></trkpt><trkpt lat="39.1335167" lon="16.5021367"><ele>1235.4</ele><time>2026-04-18T11:35:48.531Z</time></trkpt><trkpt lat="39.1335733" lon="16.5022317"><ele>1235.6</ele><time>2026-04-18T11:35:50.534Z</time></trkpt><trkpt lat="39.1336683" lon="16.5022833"><ele>1235.8</ele><time>2026-04-18T11:35:52.537Z</time></trkpt><trkpt lat="39.1337667" lon="16.5023717"><ele>1236.0</ele><time>2026-04-18T11:35:54.533Z</time></trkpt><trkpt lat="39.133855" lon="16.5024333"><ele>1236.0</ele><time>2026-04-18T11:35:56.532Z</time></trkpt><trkpt lat="39.13392" lon="16.50248"><ele>1236.0</ele><time>2026-04-18T11:35:58.533Z</time></trkpt><trkpt lat="39.1339533" lon="16.5025767"><ele>1236.0</ele><time>2026-04-18T11:36:01.532Z</time></trkpt><trkpt lat="39.1339017" lon="16.502675"><ele>1236.0</ele><time>2026-04-18T11:36:04.611Z</time></trkpt><trkpt lat="39.1338467" lon="16.502755"><ele>1236.0</ele><time>2026-04-18T11:36:06.534Z</time></trkpt><trkpt lat="39.133765" lon="16.5028183"><ele>1236.0</ele><time>2026-04-18T11:36:08.532Z</time></trkpt><trkpt lat="39.1336183" lon="16.50287"><ele>1236.0</ele><time>2026-04-18T11:36:10.531Z</time></trkpt><trkpt lat="39.133535" lon="16.502895"><ele>1236.0</ele><time>2026-04-18T11:36:11.532Z</time></trkpt><trkpt lat="39.13343" lon="16.502855"><ele>1236.0</ele><time>2026-04-18T11:36:13.533Z</time></trkpt><trkpt lat="39.1333617" lon="16.50284"><ele>1236.0</ele><time>2026-04-18T11:36:14.534Z</time></trkpt><trkpt lat="39.1332333" lon="16.5028833"><ele>1236.0</ele><time>2026-04-18T11:36:16.535Z</time></trkpt><trkpt lat="39.1331417" lon="16.5029017"><ele>1240.2</ele><time>2026-04-18T11:36:17.533Z</time></trkpt><trkpt lat="39.1330467" lon="16.5029417"><ele>1244.3999999999999</ele><time>2026-04-18T11:36:19.535Z</time></trkpt><trkpt lat="39.1329333" lon="16.50297"><ele>1248.6</ele><time>2026-04-18T11:36:21.538Z</time></trkpt><trkpt lat="39.1328583" lon="16.5029567"><ele>1252.8</ele><time>2026-04-18T11:36:22.534Z</time></trkpt><trkpt lat="39.1327467" lon="16.5029667"><ele>1257.0</ele><time>2026-04-18T11:36:23.533Z</time></trkpt><trkpt lat="39.1326217" lon="16.502955"><ele>1257.0</ele><time>2026-04-18T11:36:24.533Z</time></trkpt><trkpt lat="39.1325117" lon="16.5029567"><ele>1257.0</ele><time>2026-04-18T11:36:25.531Z</time></trkpt><trkpt lat="39.132395" lon="16.5029717"><ele>1257.0</ele><time>2026-04-18T11:36:26.534Z</time></trkpt><trkpt lat="39.1323017" lon="16.50301"><ele>1257.0</ele><time>2026-04-18T11:36:27.535Z</time></trkpt><trkpt lat="39.1322183" lon="16.503025"><ele>1257.0</ele><time>2026-04-18T11:36:28.534Z</time></trkpt><trkpt lat="39.1321233" lon="16.5030133"><ele>1254.8</ele><time>2026-04-18T11:36:30.534Z</time></trkpt><trkpt lat="39.13204" lon="16.5030167"><ele>1252.6</ele><time>2026-04-18T11:36:31.534Z</time></trkpt><trkpt lat="39.131935" lon="16.50302"><ele>1250.3999999999999</ele><time>2026-04-18T11:36:32.536Z</time></trkpt><trkpt lat="39.1318333" lon="16.5030233"><ele>1248.2</ele><time>2026-04-18T11:36:33.536Z</time></trkpt><trkpt lat="39.1317583" lon="16.503015"><ele>1246.0</ele><time>2026-04-18T11:36:34.534Z</time></trkpt><trkpt lat="39.1316433" lon="16.50298"><ele>1242.3999999999999</ele><time>2026-04-18T11:36:36.534Z</time></trkpt><trkpt lat="39.1315" lon="16.5030483"><ele>1238.8</ele><time>2026-04-18T11:36:38.533Z</time></trkpt><trkpt lat="39.1314167" lon="16.503095"><ele>1235.1999999999998</ele><time>2026-04-18T11:36:40.53Z</time></trkpt><trkpt lat="39.1313333" lon="16.5031417"><ele>1231.6</ele><time>2026-04-18T11:36:42.531Z</time></trkpt><trkpt lat="39.13126" lon="16.5032467"><ele>1228.0</ele><time>2026-04-18T11:36:44.534Z</time></trkpt><trkpt lat="39.13123" lon="16.503375"><ele>1228.0</ele><time>2026-04-18T11:36:46.53Z</time></trkpt><trkpt lat="39.1312267" lon="16.503525"><ele>1228.0</ele><time>2026-04-18T11:36:48.531Z</time></trkpt><trkpt lat="39.1312367" lon="16.503625"><ele>1228.0</ele><time>2026-04-18T11:36:49.531Z</time></trkpt><trkpt lat="39.1312617" lon="16.5037267"><ele>1228.0</ele><time>2026-04-18T11:36:50.531Z</time></trkpt><trkpt lat="39.1312717" lon="16.50383"><ele>1228.0</ele><time>2026-04-18T11:36:51.531Z</time></trkpt><trkpt lat="39.1312917" lon="16.503915"><ele>1228.0</ele><time>2026-04-18T11:36:52.532Z</time></trkpt><trkpt lat="39.13135" lon="16.5040383"><ele>1229.6</ele><time>2026-04-18T11:36:54.533Z</time></trkpt><trkpt lat="39.1314317" lon="16.504115"><ele>1231.1999999999998</ele><time>2026-04-18T11:36:56.531Z</time></trkpt><trkpt lat="39.1315067" lon="16.504195"><ele>1232.8</ele><time>2026-04-18T11:36:58.531Z</time></trkpt><trkpt lat="39.1315083" lon="16.5043033"><ele>1234.3999999999999</ele><time>2026-04-18T11:37:00.532Z</time></trkpt><trkpt lat="39.131435" lon="16.5043683"><ele>1236.0</ele><time>2026-04-18T11:37:02.531Z</time></trkpt><trkpt lat="39.13132" lon="16.50443"><ele>1236.0</ele><time>2026-04-18T11:37:04.532Z</time></trkpt><trkpt lat="39.1312" lon="16.50448"><ele>1236.0</ele><time>2026-04-18T11:37:06.537Z</time></trkpt><trkpt lat="39.131125" lon="16.5045183"><ele>1236.0</ele><time>2026-04-18T11:37:07.535Z</time></trkpt><trkpt lat="39.131025" lon="16.5045633"><ele>1236.0</ele><time>2026-04-18T11:37:08.534Z</time></trkpt><trkpt lat="39.1309517" lon="16.5045917"><ele>1236.0</ele><time>2026-04-18T11:37:09.533Z</time></trkpt><trkpt lat="39.130835" lon="16.504635"><ele>1236.8333333333333</ele><time>2026-04-18T11:37:11.53Z</time></trkpt><trkpt lat="39.1307267" lon="16.5046783"><ele>1237.6666666666667</ele><time>2026-04-18T11:37:12.534Z</time></trkpt><trkpt lat="39.1306583" lon="16.50473"><ele>1238.5</ele><time>2026-04-18T11:37:13.531Z</time></trkpt><trkpt lat="39.1306017" lon="16.5048"><ele>1239.3333333333335</ele><time>2026-04-18T11:37:14.534Z</time></trkpt><trkpt lat="39.1305617" lon="16.5048683"><ele>1240.1666666666667</ele><time>2026-04-18T11:37:15.533Z</time></trkpt><trkpt lat="39.1305033" lon="16.50495"><ele>1241.0</ele><time>2026-04-18T11:37:17.531Z</time></trkpt><trkpt lat="39.1304517" lon="16.505005"><ele>1241.0</ele><time>2026-04-18T11:37:18.533Z</time></trkpt><trkpt lat="39.1303383" lon="16.50504"><ele>1241.0</ele><time>2026-04-18T11:37:19.529Z</time></trkpt><trkpt lat="39.130265" lon="16.5050717"><ele>1241.0</ele><time>2026-04-18T11:37:20.533Z</time></trkpt><trkpt lat="39.1301317" lon="16.50513"><ele>1241.0</ele><time>2026-04-18T11:37:21.532Z</time></trkpt><trkpt lat="39.1300433" lon="16.50516"><ele>1241.0</ele><time>2026-04-18T11:37:22.535Z</time></trkpt><trkpt lat="39.1299583" lon="16.50519"><ele>1241.3333333333335</ele><time>2026-04-18T11:37:23.534Z</time></trkpt><trkpt lat="39.1298767" lon="16.5051967"><ele>1241.6666666666667</ele><time>2026-04-18T11:37:24.537Z</time></trkpt><trkpt lat="39.1297933" lon="16.50522"><ele>1242.0</ele><time>2026-04-18T11:37:25.534Z</time></trkpt><trkpt lat="39.1297233" lon="16.5052467"><ele>1242.3333333333333</ele><time>2026-04-18T11:37:26.534Z</time></trkpt><trkpt lat="39.1296617" lon="16.5052933"><ele>1242.6666666666665</ele><time>2026-04-18T11:37:27.531Z</time></trkpt><trkpt lat="39.1296133" lon="16.5054467"><ele>1243.0</ele><time>2026-04-18T11:37:29.534Z</time></trkpt><trkpt lat="39.12956" lon="16.505515"><ele>1243.0</ele><time>2026-04-18T11:37:30.531Z</time></trkpt><trkpt lat="39.1295183" lon="16.5056133"><ele>1243.0</ele><time>2026-04-18T11:37:31.532Z</time></trkpt><trkpt lat="39.1294417" lon="16.505715"><ele>1243.0</ele><time>2026-04-18T11:37:32.533Z</time></trkpt><trkpt lat="39.1293867" lon="16.5058117"><ele>1243.0</ele><time>2026-04-18T11:37:33.533Z</time></trkpt><trkpt lat="39.129315" lon="16.5058967"><ele>1243.0</ele><time>2026-04-18T11:37:34.531Z</time></trkpt><trkpt lat="39.1292233" lon="16.505965"><ele>1243.0</ele><time>2026-04-18T11:37:35.533Z</time></trkpt><trkpt lat="39.12913" lon="16.506035"><ele>1243.0</ele><time>2026-04-18T11:37:36.535Z</time></trkpt><trkpt lat="39.12905" lon="16.5061283"><ele>1243.0</ele><time>2026-04-18T11:37:37.533Z</time></trkpt><trkpt lat="39.1289533" lon="16.506195"><ele>1243.0</ele><time>2026-04-18T11:37:38.531Z</time></trkpt><trkpt lat="39.1288717" lon="16.50629"><ele>1243.0</ele><time>2026-04-18T11:37:39.531Z</time></trkpt><trkpt lat="39.1287817" lon="16.5063933"><ele>1244.8</ele><time>2026-04-18T11:37:40.533Z</time></trkpt><trkpt lat="39.128685" lon="16.506475"><ele>1246.6</ele><time>2026-04-18T11:37:41.533Z</time></trkpt><trkpt lat="39.1286033" lon="16.5065533"><ele>1248.4</ele><time>2026-04-18T11:37:42.532Z</time></trkpt><trkpt lat="39.12854" lon="16.5066417"><ele>1250.2</ele><time>2026-04-18T11:37:43.532Z</time></trkpt><trkpt lat="39.1284817" lon="16.506745"><ele>1252.0</ele><time>2026-04-18T11:37:44.534Z</time></trkpt><trkpt lat="39.1284083" lon="16.5068433"><ele>1252.0</ele><time>2026-04-18T11:37:45.533Z</time></trkpt><trkpt lat="39.12834" lon="16.5069567"><ele>1252.0</ele><time>2026-04-18T11:37:46.532Z</time></trkpt><trkpt lat="39.128295" lon="16.5070917"><ele>1252.0</ele><time>2026-04-18T11:37:47.531Z</time></trkpt><trkpt lat="39.128225" lon="16.50717"><ele>1252.0</ele><time>2026-04-18T11:37:48.53Z</time></trkpt><trkpt lat="39.1281867" lon="16.5072683"><ele>1252.0</ele><time>2026-04-18T11:37:49.53Z</time></trkpt><trkpt lat="39.12812" lon="16.50732"><ele>1252.0</ele><time>2026-04-18T11:37:50.53Z</time></trkpt><trkpt lat="39.1280867" lon="16.5073967"><ele>1252.0</ele><time>2026-04-18T11:37:51.532Z</time></trkpt><trkpt lat="39.1280817" lon="16.50748"><ele>1252.0</ele><time>2026-04-18T11:37:52.531Z</time></trkpt><trkpt lat="39.128105" lon="16.5075833"><ele>1252.0</ele><time>2026-04-18T11:37:53.53Z</time></trkpt><trkpt lat="39.1281233" lon="16.5076883"><ele>1252.0</ele><time>2026-04-18T11:37:54.53Z</time></trkpt><trkpt lat="39.1281283" lon="16.5078"><ele>1252.0</ele><time>2026-04-18T11:37:55.53Z</time></trkpt><trkpt lat="39.1281517" lon="16.5079167"><ele>1252.0</ele><time>2026-04-18T11:37:56.529Z</time></trkpt><trkpt lat="39.1281767" lon="16.5080233"><ele>1252.0</ele><time>2026-04-18T11:37:57.53Z</time></trkpt><trkpt lat="39.1282067" lon="16.5081117"><ele>1252.0</ele><time>2026-04-18T11:37:58.533Z</time></trkpt><trkpt lat="39.1282383" lon="16.508225"><ele>1252.0</ele><time>2026-04-18T11:38:00.53Z</time></trkpt><trkpt lat="39.1282333" lon="16.5083233"><ele>1252.0</ele><time>2026-04-18T11:38:04.532Z</time></trkpt><trkpt lat="39.1282333" lon="16.508415"><ele>1252.0</ele><time>2026-04-18T11:38:27.535Z</time></trkpt><trkpt lat="39.128185" lon="16.5085467"><ele>1252.0</ele><time>2026-04-18T11:38:29.532Z</time></trkpt><trkpt lat="39.1281483" lon="16.5086833"><ele>1252.0</ele><time>2026-04-18T11:38:31.532Z</time></trkpt><trkpt lat="39.1281033" lon="16.508755"><ele>1252.0</ele><time>2026-04-18T11:38:32.532Z</time></trkpt><trkpt lat="39.12801" lon="16.5088017"><ele>1252.0</ele><time>2026-04-18T11:38:33.535Z</time></trkpt><trkpt lat="39.1279" lon="16.5088417"><ele>1252.0</ele><time>2026-04-18T11:38:34.531Z</time></trkpt><trkpt lat="39.1277833" lon="16.5088967"><ele>1254.25</ele><time>2026-04-18T11:38:35.531Z</time></trkpt><trkpt lat="39.1276767" lon="16.5089717"><ele>1256.5</ele><time>2026-04-18T11:38:36.531Z</time></trkpt><trkpt lat="39.12758" lon="16.5090583"><ele>1258.75</ele><time>2026-04-18T11:38:37.533Z</time></trkpt><trkpt lat="39.1274833" lon="16.5091267"><ele>1261.0</ele><time>2026-04-18T11:38:38.531Z</time></trkpt><trkpt lat="39.127385" lon="16.509185"><ele>1261.0</ele><time>2026-04-18T11:38:39.533Z</time></trkpt><trkpt lat="39.1272967" lon="16.50922"><ele>1261.0</ele><time>2026-04-18T11:38:40.529Z</time></trkpt><trkpt lat="39.127215" lon="16.5092533"><ele>1261.0</ele><time>2026-04-18T11:38:41.534Z</time></trkpt><trkpt lat="39.1271283" lon="16.5092667"><ele>1261.0</ele><time>2026-04-18T11:38:42.53Z</time></trkpt><trkpt lat="39.1270483" lon="16.5092783"><ele>1261.0</ele><time>2026-04-18T11:38:43.529Z</time></trkpt><trkpt lat="39.1269667" lon="16.509305"><ele>1261.0</ele><time>2026-04-18T11:38:44.532Z</time></trkpt><trkpt lat="39.1268767" lon="16.5092983"><ele>1261.0</ele><time>2026-04-18T11:38:45.532Z</time></trkpt><trkpt lat="39.1267933" lon="16.5092983"><ele>1261.0</ele><time>2026-04-18T11:38:46.532Z</time></trkpt><trkpt lat="39.1267067" lon="16.50928"><ele>1261.0</ele><time>2026-04-18T11:38:47.53Z</time></trkpt><trkpt lat="39.126635" lon="16.5093317"><ele>1261.0</ele><time>2026-04-18T11:38:48.533Z</time></trkpt><trkpt lat="39.1265617" lon="16.509325"><ele>1261.0</ele><time>2026-04-18T11:38:49.529Z</time></trkpt><trkpt lat="39.1264533" lon="16.5093867"><ele>1261.0</ele><time>2026-04-18T11:38:51.536Z</time></trkpt><trkpt lat="39.1263383" lon="16.509435"><ele>1261.6666666666665</ele><time>2026-04-18T11:38:53.53Z</time></trkpt><trkpt lat="39.1262867" lon="16.5094883"><ele>1262.3333333333333</ele><time>2026-04-18T11:38:54.531Z</time></trkpt><trkpt lat="39.126225" lon="16.50953"><ele>1263.0</ele><time>2026-04-18T11:38:55.53Z</time></trkpt><trkpt lat="39.1261533" lon="16.50963"><ele>1263.6666666666667</ele><time>2026-04-18T11:38:57.531Z</time></trkpt><trkpt lat="39.1260967" lon="16.50968"><ele>1264.3333333333335</ele><time>2026-04-18T11:38:58.532Z</time></trkpt><trkpt lat="39.1260467" lon="16.5097433"><ele>1265.0</ele><time>2026-04-18T11:38:59.531Z</time></trkpt><trkpt lat="39.13469" lon="16.49981"><ele>1263.0</ele><time>2026-04-18T11:35:08.534Z</time></trkpt><trkpt lat="39.13466" lon="16.4998933"><ele>1261.0</ele><time>2026-04-18T11:35:09.536Z</time></trkpt><trkpt lat="39.1346067" lon="16.5000083"><ele>1259.0</ele><time>2026-04-18T11:35:10.532Z</time></trkpt><trkpt lat="39.1345583" lon="16.5001"><ele>1257.0</ele><time>2026-04-18T11:35:11.532Z</time></trkpt><trkpt lat="39.13451" lon="16.5001867"><ele>1255.0</ele><time>2026-04-18T11:35:12.534Z</time></trkpt><trkpt lat="39.1344567" lon="16.5002783"><ele>1253.0</ele><time>2026-04-18T11:35:13.535Z</time></trkpt><trkpt lat="39.1344117" lon="16.5003483"><ele>1253.0</ele><time>2026-04-18T11:35:14.532Z</time></trkpt><trkpt lat="39.1343767" lon="16.5004267"><ele>1253.0</ele><time>2026-04-18T11:35:15.533Z</time></trkpt><trkpt lat="39.134335" lon="16.5004967"><ele>1253.0</ele><time>2026-04-18T11:35:16.533Z</time></trkpt><trkpt lat="39.1342917" lon="16.5005583"><ele>1253.0</ele><time>2026-04-18T11:35:17.531Z</time></trkpt><trkpt lat="39.134235" lon="16.500595"><ele>1253.0</ele><time>2026-04-18T11:35:18.534Z</time></trkpt><trkpt lat="39.1341567" lon="16.500695"><ele>1253.0</ele><time>2026-04-18T11:35:20.532Z</time></trkpt><trkpt lat="39.134135" lon="16.5008033"><ele>1253.0</ele><time>2026-04-18T11:35:22.531Z</time></trkpt><trkpt lat="39.134135" lon="16.5009117"><ele>1253.0</ele><time>2026-04-18T11:35:24.532Z</time></trkpt><trkpt lat="39.1341417" lon="16.50101"><ele>1253.0</ele><time>2026-04-18T11:35:26.531Z</time></trkpt><trkpt lat="39.1341333" lon="16.50113"><ele>1253.0</ele><time>2026-04-18T11:35:28.531Z</time></trkpt><trkpt lat="39.134095" lon="16.5012617"><ele>1253.0</ele><time>2026-04-18T11:35:30.531Z</time></trkpt><trkpt lat="39.1340467" lon="16.5013733"><ele>1250.0</ele><time>2026-04-18T11:35:32.53Z</time></trkpt><trkpt lat="39.1339567" lon="16.501445"><ele>1247.0</ele><time>2026-04-18T11:35:34.532Z</time></trkpt><trkpt lat="39.1338467" lon="16.5014967"><ele>1244.0</ele><time>2026-04-18T11:35:36.532Z</time></trkpt><trkpt lat="39.1337933" lon="16.5015417"><ele>1241.0</ele><time>2026-04-18T11:35:37.531Z</time></trkpt><trkpt lat="39.133735" lon="16.5015783"><ele>1238.0</ele><time>2026-04-18T11:35:38.532Z</time></trkpt><trkpt lat="39.1336783" lon="16.5016217"><ele>1235.0</ele><time>2026-04-18T11:35:39.535Z</time></trkpt><trkpt lat="39.1336167" lon="16.501655"><ele>1235.0</ele><time>2026-04-18T11:35:40.533Z</time></trkpt><trkpt lat="39.13354" lon="16.50176"><ele>1235.0</ele><time>2026-04-18T11:35:42.534Z</time></trkpt><trkpt lat="39.133485" lon="16.5018817"><ele>1235.0</ele><time>2026-04-18T11:35:44.53Z</time></trkpt><trkpt lat="39.13348" lon="16.5020217"><ele>1235.0</ele><time>2026-04-18T11:35:46.531Z</time></trkpt><trkpt lat="39.1335167" lon="16.5021367"><ele>1235.0</ele><time>2026-04-18T11:35:48.531Z</time></trkpt><trkpt lat="39.1335733" lon="16.5022317"><ele>1235.2</ele><time>2026-04-18T11:35:50.534Z</time></trkpt><trkpt lat="39.1336683" lon="16.5022833"><ele>1235.4</ele><time>2026-04-18T11:35:52.537Z</time></trkpt><trkpt lat="39.1337667" lon="16.5023717"><ele>1235.6</ele><time>2026-04-18T11:35:54.533Z</time></trkpt><trkpt lat="39.133855" lon="16.5024333"><ele>1235.8</ele><time>2026-04-18T11:35:56.532Z</time></trkpt><trkpt lat="39.13392" lon="16.50248"><ele>1236.0</ele><time>2026-04-18T11:35:58.533Z</time></trkpt><trkpt lat="39.1339533" lon="16.5025767"><ele>1236.0</ele><time>2026-04-18T11:36:01.532Z</time></trkpt><trkpt lat="39.1339017" lon="16.502675"><ele>1236.0</ele><time>2026-04-18T11:36:04.611Z</time></trkpt><trkpt lat="39.1338467" lon="16.502755"><ele>1236.0</ele><time>2026-04-18T11:36:06.534Z</time></trkpt><trkpt lat="39.133765" lon="16.5028183"><ele>1236.0</ele><time>2026-04-18T11:36:08.532Z</time></trkpt><trkpt lat="39.1336183" lon="16.50287"><ele>1236.0</ele><time>2026-04-18T11:36:10.531Z</time></trkpt><trkpt lat="39.133535" lon="16.502895"><ele>1236.0</ele><time>2026-04-18T11:36:11.532Z</time></trkpt><trkpt lat="39.13343" lon="16.502855"><ele>1236.0</ele><time>2026-04-18T11:36:13.533Z</time></trkpt><trkpt lat="39.1333617" lon="16.50284"><ele>1236.0</ele><time>2026-04-18T11:36:14.534Z</time></trkpt><trkpt lat="39.1332333" lon="16.5028833"><ele>1236.0</ele><time>2026-04-18T11:36:16.535Z</time></trkpt><trkpt lat="39.1331417" lon="16.5029017"><ele>1236.0</ele><time>2026-04-18T11:36:17.533Z</time></trkpt><trkpt lat="39.1330467" lon="16.5029417"><ele>1240.2</ele><time>2026-04-18T11:36:19.535Z</time></trkpt><trkpt lat="39.1329333" lon="16.50297"><ele>1244.3999999999999</ele><time>2026-04-18T11:36:21.538Z</time></trkpt><trkpt lat="39.1328583" lon="16.5029567"><ele>1248.6</ele><time>2026-04-18T11:36:22.534Z</time></trkpt><trkpt lat="39.1327467" lon="16.5029667"><ele>1252.8</ele><time>2026-04-18T11:36:23.533Z</time></trkpt><trkpt lat="39.1326217" lon="16.502955"><ele>1257.0</ele><time>2026-04-18T11:36:24.533Z</time></trkpt><trkpt lat="39.1325117" lon="16.5029567"><ele>1257.0</ele><time>2026-04-18T11:36:25.531Z</time></trkpt><trkpt lat="39.132395" lon="16.5029717"><ele>1257.0</ele><time>2026-04-18T11:36:26.534Z</time></trkpt><trkpt lat="39.1323017" lon="16.50301"><ele>1257.0</ele><time>2026-04-18T11:36:27.535Z</time></trkpt><trkpt lat="39.1322183" lon="16.503025"><ele>1257.0</ele><time>2026-04-18T11:36:28.534Z</time></trkpt><trkpt lat="39.1321233" lon="16.5030133"><ele>1257.0</ele><time>2026-04-18T11:36:30.534Z</time></trkpt><trkpt lat="39.13204" lon="16.5030167"><ele>1254.8</ele><time>2026-04-18T11:36:31.534Z</time></trkpt><trkpt lat="39.131935" lon="16.50302"><ele>1252.6</ele><time>2026-04-18T11:36:32.536Z</time></trkpt><trkpt lat="39.1318333" lon="16.5030233"><ele>1250.3999999999999</ele><time>2026-04-18T11:36:33.536Z</time></trkpt><trkpt lat="39.1317583" lon="16.503015"><ele>1248.2</ele><time>2026-04-18T11:36:34.534Z</time></trkpt><trkpt lat="39.1316433" lon="16.50298"><ele>1246.0</ele><time>2026-04-18T11:36:36.534Z</time></trkpt><trkpt lat="39.1315" lon="16.5030483"><ele>1242.3999999999999</ele><time>2026-04-18T11:36:38.533Z</time></trkpt><trkpt lat="39.1314167" lon="16.503095"><ele>1238.8</ele><time>2026-04-18T11:36:40.53Z</time></trkpt><trkpt lat="39.1313333" lon="16.5031417"><ele>1235.1999999999998</ele><time>2026-04-18T11:36:42.531Z</time></trkpt><trkpt lat="39.13126" lon="16.5032467"><ele>1231.6</ele><time>2026-04-18T11:36:44.534Z</time></trkpt><trkpt lat="39.13123" lon="16.503375"><ele>1228.0</ele><time>2026-04-18T11:36:46.53Z</time></trkpt><trkpt lat="39.1312267" lon="16.503525"><ele>1228.0</ele><time>2026-04-18T11:36:48.531Z</time></trkpt><trkpt lat="39.1312367" lon="16.503625"><ele>1228.0</ele><time>2026-04-18T11:36:49.531Z</time></trkpt><trkpt lat="39.1312617" lon="16.5037267"><ele>1228.0</ele><time>2026-04-18T11:36:50.531Z</time></trkpt><trkpt lat="39.1312717" lon="16.50383"><ele>1228.0</ele><time>2026-04-18T11:36:51.531Z</time></trkpt><trkpt lat="39.1312917" lon="16.503915"><ele>1228.0</ele><time>2026-04-18T11:36:52.532Z</time></trkpt><trkpt lat="39.13135" lon="16.5040383"><ele>1228.0</ele><time>2026-04-18T11:36:54.533Z</time></trkpt><trkpt lat="39.1314317" lon="16.504115"><ele>1229.6</ele><time>2026-04-18T11:36:56.531Z</time></trkpt><trkpt lat="39.1315067" lon="16.504195"><ele>1231.1999999999998</ele><time>2026-04-18T11:36:58.531Z</time></trkpt><trkpt lat="39.1315083" lon="16.5043033"><ele>1232.8</ele><time>2026-04-18T11:37:00.532Z</time></trkpt><trkpt lat="39.131435" lon="16.5043683"><ele>1234.3999999999999</ele><time>2026-04-18T11:37:02.531Z</time></trkpt><trkpt lat="39.13132" lon="16.50443"><ele>1236.0</ele><time>2026-04-18T11:37:04.532Z</time></trkpt><trkpt lat="39.1312" lon="16.50448"><ele>1236.0</ele><time>2026-04-18T11:37:06.537Z</time></trkpt><trkpt lat="39.131125" lon="16.5045183"><ele>1236.0</ele><time>2026-04-18T11:37:07.535Z</time></trkpt><trkpt lat="39.131025" lon="16.5045633"><ele>1236.0</ele><time>2026-04-18T11:37:08.534Z</time></trkpt><trkpt lat="39.1309517" lon="16.5045917"><ele>1236.0</ele><time>2026-04-18T11:37:09.533Z</time></trkpt><trkpt lat="39.130835" lon="16.504635"><ele>1236.0</ele><time>2026-04-18T11:37:11.53Z</time></trkpt><trkpt lat="39.1307267" lon="16.5046783"><ele>1236.8333333333333</ele><time>2026-04-18T11:37:12.534Z</time></trkpt><trkpt lat="39.1306583" lon="16.50473"><ele>1237.6666666666667</ele><time>2026-04-18T11:37:13.531Z</time></trkpt><trkpt lat="39.1306017" lon="16.5048"><ele>1238.5</ele><time>2026-04-18T11:37:14.534Z</time></trkpt><trkpt lat="39.1305617" lon="16.5048683"><ele>1239.3333333333335</ele><time>2026-04-18T11:37:15.533Z</time></trkpt><trkpt lat="39.1305033" lon="16.50495"><ele>1240.1666666666667</ele><time>2026-04-18T11:37:17.531Z</time></trkpt><trkpt lat="39.1304517" lon="16.505005"><ele>1241.0</ele><time>2026-04-18T11:37:18.533Z</time></trkpt><trkpt lat="39.1303383" lon="16.50504"><ele>1241.0</ele><time>2026-04-18T11:37:19.529Z</time></trkpt><trkpt lat="39.130265" lon="16.5050717"><ele>1241.0</ele><time>2026-04-18T11:37:20.533Z</time></trkpt><trkpt lat="39.1301317" lon="16.50513"><ele>1241.0</ele><time>2026-04-18T11:37:21.532Z</time></trkpt><trkpt lat="39.1300433" lon="16.50516"><ele>1241.0</ele><time>2026-04-18T11:37:22.535Z</time></trkpt><trkpt lat="39.1299583" lon="16.50519"><ele>1241.0</ele><time>2026-04-18T11:37:23.534Z</time></trkpt><trkpt lat="39.1298767" lon="16.5051967"><ele>1241.3333333333335</ele><time>2026-04-18T11:37:24.537Z</time></trkpt><trkpt lat="39.1297933" lon="16.50522"><ele>1241.6666666666667</ele><time>2026-04-18T11:37:25.534Z</time></trkpt><trkpt lat="39.1297233" lon="16.5052467"><ele>1242.0</ele><time>2026-04-18T11:37:26.534Z</time></trkpt><trkpt lat="39.1296617" lon="16.5052933"><ele>1242.3333333333333</ele><time>2026-04-18T11:37:27.531Z</time></trkpt><trkpt lat="39.1296133" lon="16.5054467"><ele>1242.6666666666665</ele><time>2026-04-18T11:37:29.534Z</time></trkpt><trkpt lat="39.12956" lon="16.505515"><ele>1243.0</ele><time>2026-04-18T11:37:30.531Z</time></trkpt><trkpt lat="39.1295183" lon="16.5056133"><ele>1243.0</ele><time>2026-04-18T11:37:31.532Z</time></trkpt><trkpt lat="39.1294417" lon="16.505715"><ele>1243.0</ele><time>2026-04-18T11:37:32.533Z</time></trkpt><trkpt lat="39.1293867" lon="16.5058117"><ele>1243.0</ele><time>2026-04-18T11:37:33.533Z</time></trkpt><trkpt lat="39.129315" lon="16.5058967"><ele>1243.0</ele><time>2026-04-18T11:37:34.531Z</time></trkpt><trkpt lat="39.1292233" lon="16.505965"><ele>1243.0</ele><time>2026-04-18T11:37:35.533Z</time></trkpt><trkpt lat="39.12913" lon="16.506035"><ele>1244.8</ele><time>2026-04-18T11:37:36.535Z</time></trkpt><trkpt lat="39.12905" lon="16.5061283"><ele>1246.6</ele><time>2026-04-18T11:37:37.533Z</time></trkpt><trkpt lat="39.1289533" lon="16.506195"><ele>1248.4</ele><time>2026-04-18T11:37:38.531Z</time></trkpt><trkpt lat="39.1288717" lon="16.50629"><ele>1250.2</ele><time>2026-04-18T11:37:39.531Z</time></trkpt><trkpt lat="39.1287817" lon="16.5063933"><ele>1252.0</ele><time>2026-04-18T11:37:40.533Z</time></trkpt><trkpt lat="39.128685" lon="16.506475"><ele>1252.0</ele><time>2026-04-18T11:37:41.533Z</time></trkpt><trkpt lat="39.1286033" lon="16.5065533"><ele>1252.0</ele><time>2026-04-18T11:37:42.532Z</time></trkpt><trkpt lat="39.12854" lon="16.5066417"><ele>1252.0</ele><time>2026-04-18T11:37:43.532Z</time></trkpt><trkpt lat="39.1284817" lon="16.506745"><ele>1252.0</ele><time>2026-04-18T11:37:44.534Z</time></trkpt><trkpt lat="39.1284083" lon="16.5068433"><ele>1252.0</ele><time>2026-04-18T11:37:45.533Z</time></trkpt><trkpt lat="39.12834" lon="16.5069567"><ele>1251.3333333333333</ele><time>2026-04-18T11:37:46.532Z</time></trkpt><trkpt lat="39.128295" lon="16.5070917"><ele>1250.6666666666665</ele><time>2026-04-18T11:37:47.531Z</time></trkpt><trkpt lat="39.128225" lon="16.50717"><ele>1250.0</ele><time>2026-04-18T11:37:48.53Z</time></trkpt><trkpt lat="39.1281867" lon="16.5072683"><ele>1249.3333333333333</ele><time>2026-04-18T11:37:49.53Z</time></trkpt><trkpt lat="39.12812" lon="16.50732"><ele>1248.6666666666667</ele><time>2026-04-18T11:37:50.53Z</time></trkpt><trkpt lat="39.1280867" lon="16.5073967"><ele>1248.0</ele><time>2026-04-18T11:37:51.532Z</time></trkpt><trkpt lat="39.1280817" lon="16.50748"><ele>1248.0</ele><time>2026-04-18T11:37:52.531Z</time></trkpt><trkpt lat="39.128105" lon="16.5075833"><ele>1248.0</ele><time>2026-04-18T11:37:53.53Z</time></trkpt><trkpt lat="39.1281233" lon="16.5076883"><ele>1248.0</ele><time>2026-04-18T11:37:54.53Z</time></trkpt><trkpt lat="39.1281283" lon="16.5078"><ele>1248.0</ele><time>2026-04-18T11:37:55.53Z</time></trkpt><trkpt lat="39.1281517" lon="16.5079167"><ele>1248.0</ele><time>2026-04-18T11:37:56.529Z</time></trkpt><trkpt lat="39.1281767" lon="16.5080233"><ele>1248.0</ele><time>2026-04-18T11:37:57.53Z</time></trkpt><trkpt lat="39.1282067" lon="16.5081117"><ele>1248.8</ele><time>2026-04-18T11:37:58.533Z</time></trkpt><trkpt lat="39.1282383" lon="16.508225"><ele>1249.6</ele><time>2026-04-18T11:38:00.53Z</time></trkpt><trkpt lat="39.1282333" lon="16.5083233"><ele>1250.4</ele><time>2026-04-18T11:38:04.532Z</time></trkpt><trkpt lat="39.1282333" lon="16.508415"><ele>1251.2</ele><time>2026-04-18T11:38:27.535Z</time></trkpt><trkpt lat="39.128185" lon="16.5085467"><ele>1252.0</ele><time>2026-04-18T11:38:29.532Z</time></trkpt><trkpt lat="39.1281483" lon="16.5086833"><ele>1255.0</ele><time>2026-04-18T11:38:31.532Z</time></trkpt><trkpt lat="39.1281033" lon="16.508755"><ele>1258.0</ele><time>2026-04-18T11:38:32.532Z</time></trkpt><trkpt lat="39.12801" lon="16.5088017"><ele>1261.0</ele><time>2026-04-18T11:38:33.535Z</time></trkpt><trkpt lat="39.1279" lon="16.5088417"><ele>1264.0</ele><time>2026-04-18T11:38:34.531Z</time></trkpt><trkpt lat="39.1277833" lon="16.5088967"><ele>1267.0</ele><time>2026-04-18T11:38:35.531Z</time></trkpt><trkpt lat="39.1276767" lon="16.5089717"><ele>1267.0</ele><time>2026-04-18T11:38:36.531Z</time></trkpt><trkpt lat="39.12758" lon="16.5090583"><ele>1267.0</ele><time>2026-04-18T11:38:37.533Z</time></trkpt><trkpt lat="39.1274833" lon="16.5091267"><ele>1267.0</ele><time>2026-04-18T11:38:38.531Z</time></trkpt><trkpt lat="39.127385" lon="16.509185"><ele>1267.0</ele><time>2026-04-18T11:38:39.533Z</time></trkpt><trkpt lat="39.1272967" lon="16.50922"><ele>1267.0</ele><time>2026-04-18T11:38:40.529Z</time></trkpt><trkpt lat="39.127215" lon="16.5092533"><ele>1266.0</ele><time>2026-04-18T11:38:41.534Z</time></trkpt><trkpt lat="39.1271283" lon="16.5092667"><ele>1265.0</ele><time>2026-04-18T11:38:42.53Z</time></trkpt><trkpt lat="39.1270483" lon="16.5092783"><ele>1264.0</ele><time>2026-04-18T11:38:43.529Z</time></trkpt><trkpt lat="39.1269667" lon="16.509305"><ele>1263.0</ele><time>2026-04-18T11:38:44.532Z</time></trkpt><trkpt lat="39.1268767" lon="16.5092983"><ele>1262.0</ele><time>2026-04-18T11:38:45.532Z</time></trkpt><trkpt lat="39.1267933" lon="16.5092983"><ele>1261.0</ele><time>2026-04-18T11:38:46.532Z</time></trkpt><trkpt lat="39.1267067" lon="16.50928"><ele>1261.0</ele><time>2026-04-18T11:38:47.53Z</time></trkpt><trkpt lat="39.126635" lon="16.5093317"><ele>1261.0</ele><time>2026-04-18T11:38:48.533Z</time></trkpt><trkpt lat="39.1265617" lon="16.509325"><ele>1261.0</ele><time>2026-04-18T11:38:49.529Z</time></trkpt><trkpt lat="39.1264533" lon="16.5093867"><ele>1261.0</ele><time>2026-04-18T11:38:51.536Z</time></trkpt><trkpt lat="39.1263383" lon="16.509435"><ele>1261.0</ele><time>2026-04-18T11:38:53.53Z</time></trkpt><trkpt lat="39.1262867" lon="16.5094883"><ele>1261.6666666666665</ele><time>2026-04-18T11:38:54.531Z</time></trkpt><trkpt lat="39.126225" lon="16.50953"><ele>1262.3333333333333</ele><time>2026-04-18T11:38:55.53Z</time></trkpt><trkpt lat="39.1261533" lon="16.50963"><ele>1263.0</ele><time>2026-04-18T11:38:57.531Z</time></trkpt><trkpt lat="39.1260967" lon="16.50968"><ele>1263.6666666666667</ele><time>2026-04-18T11:38:58.532Z</time></trkpt><trkpt lat="39.1260467" lon="16.5097433"><ele>1264.3333333333335</ele><time>2026-04-18T11:38:59.531Z</time></trkpt><trkpt lat="39.1259667" lon="16.509825"><ele>1265.0</ele><time>2026-04-18T11:39:00.532Z</time></trkpt><trkpt lat="39.1258933" lon="16.5097783"><ele>1265.0</ele><time>2026-04-18T11:39:02.531Z</time></trkpt><trkpt lat="39.1257833" lon="16.50971"><ele>1265.0</ele><time>2026-04-18T11:39:04.531Z</time></trkpt><trkpt lat="39.1256217" lon="16.5096217"><ele>1265.0</ele><time>2026-04-18T11:39:06.535Z</time></trkpt><trkpt lat="39.1255533" lon="16.50958"><ele>1265.0</ele><time>2026-04-18T11:39:07.53Z</time></trkpt><trkpt lat="39.1254733" lon="16.5095517"><ele>1264.8</ele><time>2026-04-18T11:39:08.532Z</time></trkpt><trkpt lat="39.12538" lon="16.5095417"><ele>1264.6</ele><time>2026-04-18T11:39:09.532Z</time></trkpt><trkpt lat="39.1252433" lon="16.5095517"><ele>1264.4</ele><time>2026-04-18T11:39:11.534Z</time></trkpt><trkpt lat="39.12517" lon="16.5095683"><ele>1264.2</ele><time>2026-04-18T11:39:12.531Z</time></trkpt><trkpt lat="39.125095" lon="16.509585"><ele>1264.0</ele><time>2026-04-18T11:39:13.533Z</time></trkpt><trkpt lat="39.1250067" lon="16.5096467"><ele>1264.0</ele><time>2026-04-18T11:39:14.533Z</time></trkpt><trkpt lat="39.12494" lon="16.5096583"><ele>1264.0</ele><time>2026-04-18T11:39:15.533Z</time></trkpt><trkpt lat="39.1248367" lon="16.5096767"><ele>1264.0</ele><time>2026-04-18T11:39:17.533Z</time></trkpt><trkpt lat="39.12476" lon="16.5096417"><ele>1264.0</ele><time>2026-04-18T11:39:19.534Z</time></trkpt><trkpt lat="39.1246383" lon="16.5095933"><ele>1264.0</ele><time>2026-04-18T11:39:21.533Z</time></trkpt><trkpt lat="39.1245217" lon="16.5095767"><ele>1264.2</ele><time>2026-04-18T11:39:22.534Z</time></trkpt><trkpt lat="39.1244183" lon="16.50956"><ele>1264.4</ele><time>2026-04-18T11:39:23.533Z</time></trkpt><trkpt lat="39.1243133" lon="16.5095517"><ele>1264.6</ele><time>2026-04-18T11:39:24.53Z</time></trkpt><trkpt lat="39.1242183" lon="16.5095583"><ele>1264.8</ele><time>2026-04-18T11:39:25.532Z</time></trkpt><trkpt lat="39.1241083" lon="16.5095833"><ele>1265.0</ele><time>2026-04-18T11:39:26.534Z</time></trkpt><trkpt lat="39.1239983" lon="16.5095917"><ele>1265.4</ele><time>2026-04-18T11:39:27.531Z</time></trkpt><trkpt lat="39.123885" lon="16.5095983"><ele>1265.8</ele><time>2026-04-18T11:39:28.533Z</time></trkpt><trkpt lat="39.1237867" lon="16.509605"><ele>1266.2</ele><time>2026-04-18T11:39:29.533Z</time></trkpt><trkpt lat="39.1237" lon="16.5095883"><ele>1266.6</ele><time>2026-04-18T11:39:30.533Z</time></trkpt><trkpt lat="39.1236217" lon="16.5095633"><ele>1267.0</ele><time>2026-04-18T11:39:31.534Z</time></trkpt><trkpt lat="39.1235367" lon="16.5095283"><ele>1265.6</ele><time>2026-04-18T11:39:32.533Z</time></trkpt><trkpt lat="39.1234533" lon="16.5094583"><ele>1264.2</ele><time>2026-04-18T11:39:33.534Z</time></trkpt><trkpt lat="39.1233717" lon="16.509385"><ele>1262.8</ele><time>2026-04-18T11:39:34.533Z</time></trkpt><trkpt lat="39.1232833" lon="16.5093333"><ele>1261.4</ele><time>2026-04-18T11:39:35.534Z</time></trkpt><trkpt lat="39.1231917" lon="16.5092767"><ele>1260.0</ele><time>2026-04-18T11:39:36.533Z</time></trkpt><trkpt lat="39.1230967" lon="16.509235"><ele>1260.0</ele><time>2026-04-18T11:39:37.533Z</time></trkpt><trkpt lat="39.1229883" lon="16.50925"><ele>1260.0</ele><time>2026-04-18T11:39:38.536Z</time></trkpt><trkpt lat="39.1228317" lon="16.509255"><ele>1260.0</ele><time>2026-04-18T11:39:39.534Z</time></trkpt><trkpt lat="39.1226783" lon="16.5092783"><ele>1260.0</ele><time>2026-04-18T11:39:40.53Z</time></trkpt><trkpt lat="39.122525" lon="16.5093083"><ele>1259.0</ele><time>2026-04-18T11:39:41.533Z</time></trkpt><trkpt lat="39.1223817" lon="16.5093517"><ele>1258.0</ele><time>2026-04-18T11:39:42.531Z</time></trkpt><trkpt lat="39.1222567" lon="16.5094017"><ele>1257.0</ele><time>2026-04-18T11:39:43.537Z</time></trkpt><trkpt lat="39.1221267" lon="16.5094217"><ele>1256.0</ele><time>2026-04-18T11:39:44.532Z</time></trkpt><trkpt lat="39.12199" lon="16.5094567"><ele>1256.0</ele><time>2026-04-18T11:39:45.532Z</time></trkpt><trkpt lat="39.1218667" lon="16.5095183"><ele>1256.0</ele><time>2026-04-18T11:39:46.531Z</time></trkpt><trkpt lat="39.1217367" lon="16.5095517"><ele>1256.0</ele><time>2026-04-18T11:39:47.531Z</time></trkpt><trkpt lat="39.1216117" lon="16.5096033"><ele>1256.0</ele><time>2026-04-18T11:39:48.532Z</time></trkpt><trkpt lat="39.1215017" lon="16.5096633"><ele>1255.3333333333335</ele><time>2026-04-18T11:39:49.535Z</time></trkpt><trkpt lat="39.12136" lon="16.509715"><ele>1254.6666666666667</ele><time>2026-04-18T11:39:51.531Z</time></trkpt><trkpt lat="39.12121" lon="16.5097633"><ele>1254.0</ele><time>2026-04-18T11:39:52.532Z</time></trkpt><trkpt lat="39.1210567" lon="16.50982"><ele>1254.0</ele><time>2026-04-18T11:39:53.53Z</time></trkpt><trkpt lat="39.1209033" lon="16.50987"><ele>1254.0</ele><time>2026-04-18T11:39:54.529Z</time></trkpt><trkpt lat="39.1207967" lon="16.5099517"><ele>1254.0</ele><time>2026-04-18T11:39:55.532Z</time></trkpt><trkpt lat="39.1207233" lon="16.5100117"><ele>1254.0</ele><time>2026-04-18T11:39:56.53Z</time></trkpt><trkpt lat="39.1205567" lon="16.509985"><ele>1254.0</ele><time>2026-04-18T11:39:57.531Z</time></trkpt><trkpt lat="39.120425" lon="16.5100367"><ele>1254.0</ele><time>2026-04-18T11:39:58.531Z</time></trkpt><trkpt lat="39.1202917" lon="16.510135"><ele>1254.0</ele><time>2026-04-18T11:40:00.53Z</time></trkpt><trkpt lat="39.1201733" lon="16.5101967"><ele>1254.0</ele><time>2026-04-18T11:40:01.53Z</time></trkpt><trkpt lat="39.1200867" lon="16.5102067"><ele>1254.0</ele><time>2026-04-18T11:40:02.531Z</time></trkpt><trkpt lat="39.1200183" lon="16.5102033"><ele>1254.0</ele><time>2026-04-18T11:40:03.53Z</time></trkpt><trkpt lat="39.1199483" lon="16.5102433"><ele>1254.0</ele><time>2026-04-18T11:40:05.529Z</time></trkpt><trkpt lat="39.11995" lon="16.5101583"><ele>1254.0</ele><time>2026-04-18T11:40:06.53Z</time></trkpt><trkpt lat="39.119885" lon="16.510135"><ele>1254.0</ele><time>2026-04-18T11:40:07.53Z</time></trkpt><trkpt lat="39.1198167" lon="16.5101233"><ele>1254.0</ele><time>2026-04-18T11:40:08.529Z</time></trkpt><trkpt lat="39.11969" lon="16.5101133"><ele>1253.2</ele><time>2026-04-18T11:40:10.531Z</time></trkpt><trkpt lat="39.1196233" lon="16.51013"><ele>1252.4</ele><time>2026-04-18T11:40:11.53Z</time></trkpt><trkpt lat="39.1195583" lon="16.5101467"><ele>1251.6</ele><time>2026-04-18T11:40:12.531Z</time></trkpt><trkpt lat="39.119445" lon="16.5101867"><ele>1250.8</ele><time>2026-04-18T11:40:14.531Z</time></trkpt><trkpt lat="39.1193833" lon="16.5103933"><ele>1250.0</ele><time>2026-04-18T11:40:28.534Z</time></trkpt><trkpt lat="39.1193817" lon="16.5104767"><ele>1249.8333333333335</ele><time>2026-04-18T11:40:31.533Z</time></trkpt><trkpt lat="39.119385" lon="16.5105683"><ele>1249.6666666666667</ele><time>2026-04-18T11:40:33.533Z</time></trkpt><trkpt lat="39.1194117" lon="16.5106533"><ele>1249.5</ele><time>2026-04-18T11:40:35.531Z</time></trkpt><trkpt lat="39.11942" lon="16.5107617"><ele>1249.3333333333333</ele><time>2026-04-18T11:40:38.533Z</time></trkpt><trkpt lat="39.11937" lon="16.5108333"><ele>1249.1666666666665</ele><time>2026-04-18T11:40:41.532Z</time></trkpt><trkpt lat="39.11929" lon="16.5108417"><ele>1249.0</ele><time>2026-04-18T11:40:45.533Z</time></trkpt><trkpt lat="39.1192167" lon="16.5108567"><ele>1249.0</ele><time>2026-04-18T11:40:47.533Z</time></trkpt><trkpt lat="39.1191367" lon="16.5109083"><ele>1249.0</ele><time>2026-04-18T11:40:49.534Z</time></trkpt><trkpt lat="39.1190683" lon="16.5109783"><ele>1249.0</ele><time>2026-04-18T11:40:51.533Z</time></trkpt><trkpt lat="39.1190033" lon="16.5110617"><ele>1249.0</ele><time>2026-04-18T11:40:53.533Z</time></trkpt><trkpt lat="39.1189267" lon="16.5111283"><ele>1249.0</ele><time>2026-04-18T11:40:55.533Z</time></trkpt><trkpt lat="39.118885" lon="16.5112083"><ele>1249.0</ele><time>2026-04-18T11:40:57.532Z</time></trkpt><trkpt lat="39.1188617" lon="16.5112933"><ele>1246.0</ele><time>2026-04-18T11:41:01.538Z</time></trkpt><trkpt lat="39.11881" lon="16.5113933"><ele>1243.0</ele><time>2026-04-18T11:41:05.532Z</time></trkpt><trkpt lat="39.1187967" lon="16.5114767"><ele>1240.0</ele><time>2026-04-18T11:41:07.534Z</time></trkpt><trkpt lat="39.11879" lon="16.51157"><ele>1237.0</ele><time>2026-04-18T11:41:10.531Z</time></trkpt><trkpt lat="39.1187633" lon="16.5116483"><ele>1234.0</ele><time>2026-04-18T11:41:12.529Z</time></trkpt><trkpt lat="39.118715" lon="16.5117733"><ele>1231.0</ele><time>2026-04-18T11:41:14.531Z</time></trkpt><trkpt lat="39.1186817" lon="16.5118817"><ele>1231.0</ele><time>2026-04-18T11:41:16.529Z</time></trkpt><trkpt lat="39.1186767" lon="16.5119817"><ele>1231.0</ele><time>2026-04-18T11:41:19.53Z</time></trkpt><trkpt lat="39.1186083" lon="16.5120633"><ele>1231.0</ele><time>2026-04-18T11:41:22.53Z</time></trkpt><trkpt lat="39.118535" lon="16.5120733"><ele>1231.0</ele><time>2026-04-18T11:41:24.53Z</time></trkpt><trkpt lat="39.118465" lon="16.5120767"><ele>1231.0</ele><time>2026-04-18T11:41:26.531Z</time></trkpt><trkpt lat="39.1184017" lon="16.512095"><ele>1231.0</ele><time>2026-04-18T11:41:28.529Z</time></trkpt><trkpt lat="39.1183517" lon="16.5120433"><ele>1231.0</ele><time>2026-04-18T11:41:31.531Z</time></trkpt><trkpt lat="39.11833" lon="16.5119567"><ele>1231.0</ele><time>2026-04-18T11:41:34.533Z</time></trkpt><trkpt lat="39.1183317" lon="16.5118567"><ele>1231.0</ele><time>2026-04-18T11:41:36.533Z</time></trkpt><trkpt lat="39.1183267" lon="16.5117383"><ele>1231.0</ele><time>2026-04-18T11:41:38.531Z</time></trkpt><trkpt lat="39.1182583" lon="16.5116667"><ele>1231.0</ele><time>2026-04-18T11:41:40.534Z</time></trkpt><trkpt lat="39.1181767" lon="16.5116283"><ele>1231.0</ele><time>2026-04-18T11:41:42.533Z</time></trkpt><trkpt lat="39.1181017" lon="16.511625"><ele>1231.0</ele><time>2026-04-18T11:41:44.534Z</time></trkpt><trkpt lat="39.1180117" lon="16.5117"><ele>1229.857142857143</ele><time>2026-04-18T11:41:46.532Z</time></trkpt><trkpt lat="39.11795" lon="16.51172"><ele>1228.7142857142858</ele><time>2026-04-18T11:41:47.534Z</time></trkpt><trkpt lat="39.1178883" lon="16.511745"><ele>1227.5714285714284</ele><time>2026-04-18T11:41:48.532Z</time></trkpt><trkpt lat="39.1178133" lon="16.5117617"><ele>1226.4285714285716</ele><time>2026-04-18T11:41:49.534Z</time></trkpt><trkpt lat="39.1177417" lon="16.511775"><ele>1225.2857142857144</ele><time>2026-04-18T11:41:50.531Z</time></trkpt><trkpt lat="39.1176767" lon="16.511785"><ele>1224.142857142857</ele><time>2026-04-18T11:41:51.535Z</time></trkpt><trkpt lat="39.1176067" lon="16.511765"><ele>1223.0</ele><time>2026-04-18T11:41:52.534Z</time></trkpt><trkpt lat="39.117525" lon="16.511785"><ele>1223.0</ele><time>2026-04-18T11:41:53.534Z</time></trkpt><trkpt lat="39.1174417" lon="16.5117717"><ele>1223.0</ele><time>2026-04-18T11:41:54.531Z</time></trkpt><trkpt lat="39.117355" lon="16.5117417"><ele>1223.0</ele><time>2026-04-18T11:41:55.534Z</time></trkpt><trkpt lat="39.1172783" lon="16.511735"><ele>1223.0</ele><time>2026-04-18T11:41:56.534Z</time></trkpt><trkpt lat="39.1172033" lon="16.5117367"><ele>1223.0</ele><time>2026-04-18T11:41:57.532Z</time></trkpt><trkpt lat="39.117135" lon="16.5117467"><ele>1223.0</ele><time>2026-04-18T11:41:58.535Z</time></trkpt><trkpt lat="39.117065" lon="16.51174"><ele>1221.1666666666667</ele><time>2026-04-18T11:41:59.532Z</time></trkpt><trkpt lat="39.1170033" lon="16.5117"><ele>1219.3333333333335</ele><time>2026-04-18T11:42:00.533Z</time></trkpt><trkpt lat="39.1169417" lon="16.51166"><ele>1217.5</ele><time>2026-04-18T11:42:01.537Z</time></trkpt><trkpt lat="39.1168717" lon="16.5116267"><ele>1215.6666666666667</ele><time>2026-04-18T11:42:02.532Z</time></trkpt><trkpt lat="39.116805" lon="16.5116067"><ele>1213.8333333333333</ele><time>2026-04-18T11:42:03.534Z</time></trkpt><trkpt lat="39.1166917" lon="16.5115467"><ele>1212.0</ele><time>2026-04-18T11:42:05.536Z</time></trkpt><trkpt lat="39.11661" lon="16.5115267"><ele>1210.2</ele><time>2026-04-18T11:42:06.536Z</time></trkpt><trkpt lat="39.1165217" lon="16.5114633"><ele>1208.4</ele><time>2026-04-18T11:42:08.533Z</time></trkpt><trkpt lat="39.1164267" lon="16.511405"><ele>1206.6</ele><time>2026-04-18T11:42:10.533Z</time></trkpt><trkpt lat="39.1163317" lon="16.51136"><ele>1204.8</ele><time>2026-04-18T11:42:12.532Z</time></trkpt><trkpt lat="39.1162383" lon="16.511325"><ele>1203.0</ele><time>2026-04-18T11:42:14.535Z</time></trkpt><trkpt lat="39.1161733" lon="16.51128"><ele>1203.0</ele><time>2026-04-18T11:42:16.536Z</time></trkpt><trkpt lat="39.11611" lon="16.51127"><ele>1203.0</ele><time>2026-04-18T11:42:18.533Z</time></trkpt><trkpt lat="39.115995" lon="16.5112733"><ele>1203.0</ele><time>2026-04-18T11:42:21.533Z</time></trkpt><trkpt lat="39.1159167" lon="16.51126"><ele>1203.0</ele><time>2026-04-18T11:42:23.533Z</time></trkpt><trkpt lat="39.1158283" lon="16.5112883"><ele>1203.0</ele><time>2026-04-18T11:42:25.533Z</time></trkpt><trkpt lat="39.1157483" lon="16.5112983"><ele>1203.0</ele><time>2026-04-18T11:42:27.533Z</time></trkpt><trkpt lat="39.1156733" lon="16.5113333"><ele>1202.0</ele><time>2026-04-18T11:42:30.531Z</time></trkpt><trkpt lat="39.1156083" lon="16.5113567"><ele>1201.0</ele><time>2026-04-18T11:42:32.532Z</time></trkpt><trkpt lat="39.115525" lon="16.511395"><ele>1200.0</ele><time>2026-04-18T11:42:35.531Z</time></trkpt><trkpt lat="39.11547" lon="16.5114717"><ele>1199.0</ele><time>2026-04-18T11:42:38.53Z</time></trkpt><trkpt lat="39.1154583" lon="16.51157"><ele>1198.0</ele><time>2026-04-18T11:42:40.529Z</time></trkpt><trkpt lat="39.1154067" lon="16.51166"><ele>1197.0</ele><time>2026-04-18T11:42:42.532Z</time></trkpt><trkpt lat="39.1153683" lon="16.511745"><ele>1197.0</ele><time>2026-04-18T11:42:44.532Z</time></trkpt><trkpt lat="39.1153217" lon="16.5118367"><ele>1197.0</ele><time>2026-04-18T11:42:46.533Z</time></trkpt><trkpt lat="39.1152617" lon="16.5119267"><ele>1197.0</ele><time>2026-04-18T11:42:49.531Z</time></trkpt><trkpt lat="39.115205" lon="16.5119817"><ele>1197.0</ele><time>2026-04-18T11:42:51.533Z</time></trkpt><trkpt lat="39.115155" lon="16.5120383"><ele>1197.0</ele><time>2026-04-18T11:42:53.532Z</time></trkpt><trkpt lat="39.1150917" lon="16.5120717"><ele>1197.0</ele><time>2026-04-18T11:42:55.534Z</time></trkpt><trkpt lat="39.1150167" lon="16.512135"><ele>1196.1666666666667</ele><time>2026-04-18T11:42:57.533Z</time></trkpt><trkpt lat="39.1149167" lon="16.5122217"><ele>1195.3333333333333</ele><time>2026-04-18T11:42:59.532Z</time></trkpt><trkpt lat="39.1148417" lon="16.5122633"><ele>1194.5</ele><time>2026-04-18T11:43:00.533Z</time></trkpt><trkpt lat="39.1147917" lon="16.5123133"><ele>1193.6666666666665</ele><time>2026-04-18T11:43:01.534Z</time></trkpt><trkpt lat="39.114745" lon="16.51237"><ele>1192.8333333333333</ele><time>2026-04-18T11:43:02.535Z</time></trkpt><trkpt lat="39.1146917" lon="16.51244"><ele>1192.0</ele><time>2026-04-18T11:43:03.532Z</time></trkpt><trkpt lat="39.1145883" lon="16.5124717"><ele>1190.8333333333333</ele><time>2026-04-18T11:43:04.532Z</time></trkpt><trkpt lat="39.1144917" lon="16.5124567"><ele>1189.6666666666665</ele><time>2026-04-18T11:43:05.533Z</time></trkpt><trkpt lat="39.1144033" lon="16.5124933"><ele>1188.5</ele><time>2026-04-18T11:43:06.535Z</time></trkpt><trkpt lat="39.1143133" lon="16.5125017"><ele>1187.3333333333333</ele><time>2026-04-18T11:43:07.534Z</time></trkpt><trkpt lat="39.1142183" lon="16.512485"><ele>1186.1666666666667</ele><time>2026-04-18T11:43:08.532Z</time></trkpt><trkpt lat="39.1141733" lon="16.512425"><ele>1185.0</ele><time>2026-04-18T11:43:09.532Z</time></trkpt><trkpt lat="39.1141117" lon="16.5123983"><ele>1182.4</ele><time>2026-04-18T11:43:10.531Z</time></trkpt><trkpt lat="39.1140417" lon="16.5124067"><ele>1179.8</ele><time>2026-04-18T11:43:11.531Z</time></trkpt><trkpt lat="39.1139567" lon="16.5124217"><ele>1177.2</ele><time>2026-04-18T11:43:12.53Z</time></trkpt><trkpt lat="39.1138817" lon="16.5124417"><ele>1174.6</ele><time>2026-04-18T11:43:13.533Z</time></trkpt><trkpt lat="39.113735" lon="16.51251"><ele>1172.0</ele><time>2026-04-18T11:43:14.531Z</time></trkpt><trkpt lat="39.1136267" lon="16.5125333"><ele>1172.0</ele><time>2026-04-18T11:43:15.533Z</time></trkpt><trkpt lat="39.1135433" lon="16.5125467"><ele>1172.0</ele><time>2026-04-18T11:43:16.532Z</time></trkpt><trkpt lat="39.113475" lon="16.5125567"><ele>1172.0</ele><time>2026-04-18T11:43:17.533Z</time></trkpt><trkpt lat="39.11338" lon="16.51257"><ele>1172.0</ele><time>2026-04-18T11:43:18.532Z</time></trkpt><trkpt lat="39.1132933" lon="16.512585"><ele>1172.0</ele><time>2026-04-18T11:43:19.535Z</time></trkpt><trkpt lat="39.1132267" lon="16.5126"><ele>1172.0</ele><time>2026-04-18T11:43:20.533Z</time></trkpt><trkpt lat="39.11311" lon="16.51265"><ele>1168.6</ele><time>2026-04-18T11:43:22.531Z</time></trkpt><trkpt lat="39.113015" lon="16.5127433"><ele>1165.2</ele><time>2026-04-18T11:43:24.532Z</time></trkpt><trkpt lat="39.1129467" lon="16.5128833"><ele>1161.8</ele><time>2026-04-18T11:43:26.535Z</time></trkpt><trkpt lat="39.11291" lon="16.51296"><ele>1158.4</ele><time>2026-04-18T11:43:27.532Z</time></trkpt><trkpt lat="39.1128517" lon="16.5130967"><ele>1155.0</ele><time>2026-04-18T11:43:29.536Z</time></trkpt><trkpt lat="39.112795" lon="16.51322"><ele>1155.0</ele><time>2026-04-18T11:43:31.531Z</time></trkpt><trkpt lat="39.1127333" lon="16.513345"><ele>1155.0</ele><time>2026-04-18T11:43:33.533Z</time></trkpt><trkpt lat="39.11271" lon="16.513455"><ele>1155.0</ele><time>2026-04-18T11:43:35.535Z</time></trkpt><trkpt lat="39.11269" lon="16.5135417"><ele>1155.0</ele><time>2026-04-18T11:43:37.534Z</time></trkpt><trkpt lat="39.112685" lon="16.5136233"><ele>1155.0</ele><time>2026-04-18T11:43:39.531Z</time></trkpt><trkpt lat="39.1126383" lon="16.5136833"><ele>1155.0</ele><time>2026-04-18T11:43:41.532Z</time></trkpt><trkpt lat="39.112555" lon="16.5137183"><ele>1155.0</ele><time>2026-04-18T11:43:44.533Z</time></trkpt><trkpt lat="39.112485" lon="16.51372"><ele>1155.0</ele><time>2026-04-18T11:43:46.529Z</time></trkpt><trkpt lat="39.1124183" lon="16.5137283"><ele>1155.0</ele><time>2026-04-18T11:43:48.531Z</time></trkpt><trkpt lat="39.112345" lon="16.5137033"><ele>1155.0</ele><time>2026-04-18T11:43:51.532Z</time></trkpt><trkpt lat="39.11228" lon="16.5136467"><ele>1155.0</ele><time>2026-04-18T11:43:54.53Z</time></trkpt><trkpt lat="39.1122217" lon="16.51358"><ele>1155.0</ele><time>2026-04-18T11:43:57.531Z</time></trkpt><trkpt lat="39.1121367" lon="16.5135433"><ele>1150.8333333333333</ele><time>2026-04-18T11:44:00.529Z</time></trkpt><trkpt lat="39.1120733" lon="16.5135433"><ele>1146.6666666666667</ele><time>2026-04-18T11:44:02.53Z</time></trkpt><trkpt lat="39.1119883" lon="16.5135133"><ele>1142.5</ele><time>2026-04-18T11:44:05.53Z</time></trkpt><trkpt lat="39.1119067" lon="16.5135017"><ele>1138.3333333333335</ele><time>2026-04-18T11:44:07.53Z</time></trkpt><trkpt lat="39.1118217" lon="16.5134717"><ele>1134.1666666666667</ele><time>2026-04-18T11:44:09.531Z</time></trkpt><trkpt lat="39.11174" lon="16.5134467"><ele>1130.0</ele><time>2026-04-18T11:44:11.531Z</time></trkpt><trkpt lat="39.1116567" lon="16.51343"><ele>1130.0</ele><time>2026-04-18T11:44:13.533Z</time></trkpt><trkpt lat="39.111585" lon="16.51338"><ele>1130.0</ele><time>2026-04-18T11:44:15.531Z</time></trkpt><trkpt lat="39.1115117" lon="16.5133533"><ele>1130.0</ele><time>2026-04-18T11:44:17.532Z</time></trkpt><trkpt lat="39.1114383" lon="16.51333"><ele>1130.0</ele><time>2026-04-18T11:44:19.531Z</time></trkpt><trkpt lat="39.11137" lon="16.5133283"><ele>1130.0</ele><time>2026-04-18T11:44:21.532Z</time></trkpt><trkpt lat="39.1112783" lon="16.5133017"><ele>1130.0</ele><time>2026-04-18T11:44:24.531Z</time></trkpt><trkpt lat="39.111205" lon="16.5133033"><ele>1127.6</ele><time>2026-04-18T11:44:27.531Z</time></trkpt><trkpt lat="39.1111317" lon="16.51329"><ele>1125.2</ele><time>2026-04-18T11:44:29.53Z</time></trkpt><trkpt lat="39.1110383" lon="16.5132717"><ele>1122.8</ele><time>2026-04-18T11:44:31.535Z</time></trkpt><trkpt lat="39.11094" lon="16.5132883"><ele>1120.4</ele><time>2026-04-18T11:44:33.533Z</time></trkpt><trkpt lat="39.1108383" lon="16.51331"><ele>1118.0</ele><time>2026-04-18T11:44:35.534Z</time></trkpt><trkpt lat="39.11071" lon="16.5133017"><ele>1116.75</ele><time>2026-04-18T11:44:37.532Z</time></trkpt><trkpt lat="39.1105933" lon="16.51334"><ele>1115.5</ele><time>2026-04-18T11:44:39.531Z</time></trkpt><trkpt lat="39.1104717" lon="16.513355"><ele>1114.25</ele><time>2026-04-18T11:44:41.531Z</time></trkpt><trkpt lat="39.1103517" lon="16.5133117"><ele>1113.0</ele><time>2026-04-18T11:44:43.531Z</time></trkpt><trkpt lat="39.110235" lon="16.5132967"><ele>1113.0</ele><time>2026-04-18T11:44:45.534Z</time></trkpt><trkpt lat="39.1101083" lon="16.513315"><ele>1113.0</ele><time>2026-04-18T11:44:47.533Z</time></trkpt><trkpt lat="39.1100383" lon="16.51332"><ele>1113.0</ele><time>2026-04-18T11:44:48.531Z</time></trkpt><trkpt lat="39.1099683" lon="16.5133217"><ele>1113.0</ele><time>2026-04-18T11:44:49.532Z</time></trkpt><trkpt lat="39.1098483" lon="16.5132917"><ele>1113.0</ele><time>2026-04-18T11:44:51.534Z</time></trkpt><trkpt lat="39.1097467" lon="16.5132217"><ele>1113.0</ele><time>2026-04-18T11:44:53.533Z</time></trkpt><trkpt lat="39.1096333" lon="16.5131667"><ele>1113.0</ele><time>2026-04-18T11:44:55.538Z</time></trkpt><trkpt lat="39.1095217" lon="16.5131117"><ele>1113.0</ele><time>2026-04-18T11:44:57.614Z</time></trkpt><trkpt lat="39.1094283" lon="16.51306"><ele>1113.0</ele><time>2026-04-18T11:44:59.533Z</time></trkpt><trkpt lat="39.1093683" lon="16.512985"><ele>1113.0</ele><time>2026-04-18T11:45:01.531Z</time></trkpt><trkpt lat="39.1093233" lon="16.5129117"><ele>1113.0</ele><time>2026-04-18T11:45:03.536Z</time></trkpt><trkpt lat="39.1092683" lon="16.5128367"><ele>1113.0</ele><time>2026-04-18T11:45:06.53Z</time></trkpt><trkpt lat="39.1092117" lon="16.5127767"><ele>1113.0</ele><time>2026-04-18T11:45:09.532Z</time></trkpt><trkpt lat="39.1091383" lon="16.512745"><ele>1113.0</ele><time>2026-04-18T11:45:12.529Z</time></trkpt><trkpt lat="39.1091633" lon="16.51284"><ele>1113.0</ele><time>2026-04-18T11:45:16.53Z</time></trkpt><trkpt lat="39.1092583" lon="16.5129333"><ele>1113.0</ele><time>2026-04-18T11:45:18.531Z</time></trkpt><trkpt lat="39.1093367" lon="16.5129667"><ele>1113.0</ele><time>2026-04-18T11:45:19.531Z</time></trkpt><trkpt lat="39.1093767" lon="16.5130333"><ele>1113.0</ele><time>2026-04-18T11:45:20.531Z</time></trkpt><trkpt lat="39.1094417" lon="16.5130733"><ele>1113.0</ele><time>2026-04-18T11:45:21.533Z</time></trkpt><trkpt lat="39.1095183" lon="16.5131183"><ele>1113.0</ele><time>2026-04-18T11:45:22.534Z</time></trkpt><trkpt lat="39.1095767" lon="16.5132133"><ele>1113.0</ele><time>2026-04-18T11:45:23.531Z</time></trkpt><trkpt lat="39.1096917" lon="16.5132017"><ele>1113.0</ele><time>2026-04-18T11:45:24.533Z</time></trkpt><trkpt lat="39.10976" lon="16.5133117"><ele>1113.0</ele><time>2026-04-18T11:45:25.532Z</time></trkpt><trkpt lat="39.109835" lon="16.5133333"><ele>1113.0</ele><time>2026-04-18T11:45:26.532Z</time></trkpt><trkpt lat="39.109915" lon="16.51334"><ele>1113.0</ele><time>2026-04-18T11:45:27.534Z</time></trkpt><trkpt lat="39.1099983" lon="16.5133583"><ele>1113.0</ele><time>2026-04-18T11:45:28.531Z</time></trkpt><trkpt lat="39.110095" lon="16.5133717"><ele>1113.0</ele><time>2026-04-18T11:45:29.532Z</time></trkpt><trkpt lat="39.1101917" lon="16.5133683"><ele>1113.0</ele><time>2026-04-18T11:45:30.531Z</time></trkpt><trkpt lat="39.1102483" lon="16.5133283"><ele>1113.0</ele><time>2026-04-18T11:45:31.532Z</time></trkpt><trkpt lat="39.1103383" lon="16.5133067"><ele>1113.0</ele><time>2026-04-18T11:45:32.533Z</time></trkpt><trkpt lat="39.1104517" lon="16.51335"><ele>1113.0</ele><time>2026-04-18T11:45:34.531Z</time></trkpt><trkpt lat="39.1105583" lon="16.5133683"><ele>1113.0</ele><time>2026-04-18T11:45:36.536Z</time></trkpt><trkpt lat="39.110685" lon="16.5133533"><ele>1113.0</ele><time>2026-04-18T11:45:38.531Z</time></trkpt><trkpt lat="39.1107667" lon="16.5133433"><ele>1114.0</ele><time>2026-04-18T11:45:39.535Z</time></trkpt><trkpt lat="39.1108617" lon="16.5133183"><ele>1115.0</ele><time>2026-04-18T11:45:40.533Z</time></trkpt><trkpt lat="39.1109667" lon="16.513275"><ele>1116.0</ele><time>2026-04-18T11:45:41.531Z</time></trkpt><trkpt lat="39.1110317" lon="16.5133233"><ele>1117.0</ele><time>2026-04-18T11:45:42.532Z</time></trkpt><trkpt lat="39.1111683" lon="16.5133467"><ele>1118.0</ele><time>2026-04-18T11:45:44.531Z</time></trkpt><trkpt lat="39.1112317" lon="16.5133617"><ele>1118.0</ele><time>2026-04-18T11:45:45.532Z</time></trkpt><trkpt lat="39.1113" lon="16.513435"><ele>1118.0</ele><time>2026-04-18T11:45:47.532Z</time></trkpt><trkpt lat="39.1113433" lon="16.5135233"><ele>1118.0</ele><time>2026-04-18T11:45:50.535Z</time></trkpt><trkpt lat="39.11138" lon="16.5135917"><ele>1118.0</ele><time>2026-04-18T11:45:52.532Z</time></trkpt><trkpt lat="39.1114267" lon="16.5137233"><ele>1118.0</ele><time>2026-04-18T11:45:54.533Z</time></trkpt><trkpt lat="39.111455" lon="16.51381"><ele>1118.0</ele><time>2026-04-18T11:45:55.53Z</time></trkpt><trkpt lat="39.1114783" lon="16.51389"><ele>1119.5</ele><time>2026-04-18T11:45:56.532Z</time></trkpt><trkpt lat="39.1115083" lon="16.5139617"><ele>1121.0</ele><time>2026-04-18T11:45:57.531Z</time></trkpt><trkpt lat="39.1115483" lon="16.5140283"><ele>1122.5</ele><time>2026-04-18T11:45:58.535Z</time></trkpt><trkpt lat="39.1116467" lon="16.5141233"><ele>1124.0</ele><time>2026-04-18T11:46:00.532Z</time></trkpt><trkpt lat="39.111695" lon="16.5141933"><ele>1125.5</ele><time>2026-04-18T11:46:01.532Z</time></trkpt><trkpt lat="39.1117767" lon="16.514195"><ele>1127.0</ele><time>2026-04-18T11:46:02.533Z</time></trkpt><trkpt lat="39.1118683" lon="16.5141967"><ele>1128.0</ele><time>2026-04-18T11:46:03.536Z</time></trkpt><trkpt lat="39.1119617" lon="16.514215"><ele>1129.0</ele><time>2026-04-18T11:46:04.531Z</time></trkpt><trkpt lat="39.1120483" lon="16.5142533"><ele>1130.0</ele><time>2026-04-18T11:46:05.537Z</time></trkpt><trkpt lat="39.1121383" lon="16.514285"><ele>1131.0</ele><time>2026-04-18T11:46:06.53Z</time></trkpt><trkpt lat="39.1122167" lon="16.5143483"><ele>1132.0</ele><time>2026-04-18T11:46:07.532Z</time></trkpt><trkpt lat="39.112285" lon="16.514435"><ele>1132.0</ele><time>2026-04-18T11:46:08.532Z</time></trkpt><trkpt lat="39.112385" lon="16.5145333"><ele>1132.0</ele><time>2026-04-18T11:46:09.533Z</time></trkpt><trkpt lat="39.1124417" lon="16.51467"><ele>1132.0</ele><time>2026-04-18T11:46:10.533Z</time></trkpt><trkpt lat="39.1125333" lon="16.51476"><ele>1132.0</ele><time>2026-04-18T11:46:11.531Z</time></trkpt><trkpt lat="39.11264" lon="16.5148017"><ele>1133.0</ele><time>2026-04-18T11:46:12.531Z</time></trkpt><trkpt lat="39.11272" lon="16.5148533"><ele>1134.0</ele><time>2026-04-18T11:46:13.53Z</time></trkpt><trkpt lat="39.11279" lon="16.5149033"><ele>1135.0</ele><time>2026-04-18T11:46:14.532Z</time></trkpt><trkpt lat="39.112855" lon="16.5149483"><ele>1136.0</ele><time>2026-04-18T11:46:15.533Z</time></trkpt><trkpt lat="39.1129333" lon="16.51503"><ele>1137.0</ele><time>2026-04-18T11:46:17.531Z</time></trkpt><trkpt lat="39.1129567" lon="16.5151083"><ele>1138.0</ele><time>2026-04-18T11:46:19.53Z</time></trkpt><trkpt lat="39.1128867" lon="16.5151967"><ele>1138.0</ele><time>2026-04-18T11:46:21.529Z</time></trkpt><trkpt lat="39.112785" lon="16.5152017"><ele>1138.0</ele><time>2026-04-18T11:46:23.531Z</time></trkpt><trkpt lat="39.1127117" lon="16.51519"><ele>1138.0</ele><time>2026-04-18T11:46:24.529Z</time></trkpt><trkpt lat="39.112625" lon="16.5151533"><ele>1138.0</ele><time>2026-04-18T11:46:25.531Z</time></trkpt><trkpt lat="39.112545" lon="16.5151033"><ele>1138.0</ele><time>2026-04-18T11:46:26.529Z</time></trkpt><trkpt lat="39.11247" lon="16.515055"><ele>1138.0</ele><time>2026-04-18T11:46:27.537Z</time></trkpt><trkpt lat="39.1123967" lon="16.5150067"><ele>1139.8333333333333</ele><time>2026-04-18T11:46:28.531Z</time></trkpt><trkpt lat="39.1123317" lon="16.514965"><ele>1141.6666666666665</ele><time>2026-04-18T11:46:29.529Z</time></trkpt><trkpt lat="39.1122633" lon="16.51492"><ele>1143.5</ele><time>2026-04-18T11:46:30.531Z</time></trkpt><trkpt lat="39.1121967" lon="16.51487"><ele>1145.3333333333333</ele><time>2026-04-18T11:46:31.53Z</time></trkpt><trkpt lat="39.1121317" lon="16.5148167"><ele>1147.1666666666667</ele><time>2026-04-18T11:46:32.529Z</time></trkpt><trkpt lat="39.1120767" lon="16.51476"><ele>1149.0</ele><time>2026-04-18T11:46:33.533Z</time></trkpt><trkpt lat="39.112005" lon="16.514715"><ele>1149.0</ele><time>2026-04-18T11:46:34.531Z</time></trkpt><trkpt lat="39.1119183" lon="16.5146883"><ele>1149.0</ele><time>2026-04-18T11:46:35.531Z</time></trkpt><trkpt lat="39.1118283" lon="16.51467"><ele>1149.0</ele><time>2026-04-18T11:46:36.53Z</time></trkpt><trkpt lat="39.1117417" lon="16.514655"><ele>1149.0</ele><time>2026-04-18T11:46:37.53Z</time></trkpt><trkpt lat="39.1116683" lon="16.5146417"><ele>1149.0</ele><time>2026-04-18T11:46:38.531Z</time></trkpt><trkpt lat="39.1115917" lon="16.514635"><ele>1149.0</ele><time>2026-04-18T11:46:39.53Z</time></trkpt><trkpt lat="39.1115167" lon="16.5146317"><ele>1149.1666666666667</ele><time>2026-04-18T11:46:40.531Z</time></trkpt><trkpt lat="39.11145" lon="16.5146183"><ele>1149.3333333333333</ele><time>2026-04-18T11:46:41.531Z</time></trkpt><trkpt lat="39.1113817" lon="16.5146017"><ele>1149.5</ele><time>2026-04-18T11:46:42.53Z</time></trkpt><trkpt lat="39.1113067" lon="16.5145667"><ele>1149.6666666666665</ele><time>2026-04-18T11:46:43.53Z</time></trkpt><trkpt lat="39.1112417" lon="16.5145017"><ele>1149.8333333333333</ele><time>2026-04-18T11:46:44.531Z</time></trkpt><trkpt lat="39.1111433" lon="16.5143833"><ele>1150.0</ele><time>2026-04-18T11:46:46.532Z</time></trkpt><trkpt lat="39.111085" lon="16.5143317"><ele>1145.4</ele><time>2026-04-18T11:46:47.532Z</time></trkpt><trkpt lat="39.1109567" lon="16.514315"><ele>1140.8</ele><time>2026-04-18T11:46:49.535Z</time></trkpt><trkpt lat="39.1108783" lon="16.51433"><ele>1136.2</ele><time>2026-04-18T11:46:50.53Z</time></trkpt><trkpt lat="39.1107983" lon="16.5143567"><ele>1131.6</ele><time>2026-04-18T11:46:51.534Z</time></trkpt><trkpt lat="39.11072" lon="16.5143983"><ele>1127.0</ele><time>2026-04-18T11:46:52.532Z</time></trkpt><trkpt lat="39.1106517" lon="16.5144533"><ele>1126.142857142857</ele><time>2026-04-18T11:46:53.533Z</time></trkpt><trkpt lat="39.1105883" lon="16.5145183"><ele>1125.2857142857142</ele><time>2026-04-18T11:46:54.53Z</time></trkpt><trkpt lat="39.1105283" lon="16.5145867"><ele>1124.4285714285716</ele><time>2026-04-18T11:46:55.534Z</time></trkpt><trkpt lat="39.110475" lon="16.51464"><ele>1123.5714285714284</ele><time>2026-04-18T11:46:56.534Z</time></trkpt><trkpt lat="39.11042" lon="16.5146867"><ele>1122.7142857142858</ele><time>2026-04-18T11:46:57.534Z</time></trkpt><trkpt lat="39.11036" lon="16.51472"><ele>1121.857142857143</ele><time>2026-04-18T11:46:58.53Z</time></trkpt><trkpt lat="39.1102917" lon="16.5147317"><ele>1121.0</ele><time>2026-04-18T11:46:59.53Z</time></trkpt><trkpt lat="39.1102233" lon="16.5147133"><ele>1121.0</ele><time>2026-04-18T11:47:00.532Z</time></trkpt><trkpt lat="39.1101483" lon="16.5146783"><ele>1121.0</ele><time>2026-04-18T11:47:01.532Z</time></trkpt><trkpt lat="39.1100683" lon="16.514625"><ele>1121.0</ele><time>2026-04-18T11:47:02.534Z</time></trkpt><trkpt lat="39.1099933" lon="16.51457"><ele>1121.0</ele><time>2026-04-18T11:47:03.534Z</time></trkpt><trkpt lat="39.109925" lon="16.514525"><ele>1121.0</ele><time>2026-04-18T11:47:04.535Z</time></trkpt><trkpt lat="39.1098583" lon="16.5144983"><ele>1121.0</ele><time>2026-04-18T11:47:05.529Z</time></trkpt><trkpt lat="39.1097917" lon="16.5145033"><ele>1125.0</ele><time>2026-04-18T11:47:06.532Z</time></trkpt><trkpt lat="39.1096767" lon="16.5145717"><ele>1129.0</ele><time>2026-04-18T11:47:08.534Z</time></trkpt><trkpt lat="39.10962" lon="16.5146167"><ele>1133.0</ele><time>2026-04-18T11:47:09.534Z</time></trkpt><trkpt lat="39.1095633" lon="16.51466"><ele>1137.0</ele><time>2026-04-18T11:47:10.532Z</time></trkpt><trkpt lat="39.1095033" lon="16.51469"><ele>1141.0</ele><time>2026-04-18T11:47:11.531Z</time></trkpt><trkpt lat="39.10939" lon="16.5147083"><ele>1145.0</ele><time>2026-04-18T11:47:13.532Z</time></trkpt><trkpt lat="39.1093" lon="16.5146833"><ele>1145.0</ele><time>2026-04-18T11:47:15.537Z</time></trkpt><trkpt lat="39.1092383" lon="16.5146017"><ele>1145.0</ele><time>2026-04-18T11:47:17.533Z</time></trkpt><trkpt lat="39.1091833" lon="16.5144717"><ele>1145.0</ele><time>2026-04-18T11:47:19.532Z</time></trkpt><trkpt lat="39.1090983" lon="16.5143967"><ele>1145.0</ele><time>2026-04-18T11:47:21.534Z</time></trkpt><trkpt lat="39.1090317" lon="16.5143817"><ele>1145.0</ele><time>2026-04-18T11:47:22.532Z</time></trkpt><trkpt lat="39.108965" lon="16.5143617"><ele>1145.0</ele><time>2026-04-18T11:47:23.531Z</time></trkpt><trkpt lat="39.1088967" lon="16.514325"><ele>1143.8333333333335</ele><time>2026-04-18T11:47:24.533Z</time></trkpt><trkpt lat="39.1088267" lon="16.5142783"><ele>1142.6666666666667</ele><time>2026-04-18T11:47:25.533Z</time></trkpt><trkpt lat="39.108755" lon="16.514225"><ele>1141.5</ele><time>2026-04-18T11:47:26.531Z</time></trkpt><trkpt lat="39.10869" lon="16.51417"><ele>1140.3333333333333</ele><time>2026-04-18T11:47:27.533Z</time></trkpt><trkpt lat="39.108625" lon="16.5141217"><ele>1139.1666666666665</ele><time>2026-04-18T11:47:28.532Z</time></trkpt><trkpt lat="39.1085467" lon="16.5140733"><ele>1138.0</ele><time>2026-04-18T11:47:29.533Z</time></trkpt><trkpt lat="39.1084767" lon="16.5140317"><ele>1138.0000000000002</ele><time>2026-04-18T11:47:30.534Z</time></trkpt><trkpt lat="39.10841" lon="16.51399"><ele>1138.0</ele><time>2026-04-18T11:47:31.533Z</time></trkpt><trkpt lat="39.1083467" lon="16.5139517"><ele>1138.0</ele><time>2026-04-18T11:47:32.532Z</time></trkpt><trkpt lat="39.1082767" lon="16.513915"><ele>1138.0</ele><time>2026-04-18T11:47:33.533Z</time></trkpt><trkpt lat="39.1082033" lon="16.5138817"><ele>1138.0</ele><time>2026-04-18T11:47:34.53Z</time></trkpt><trkpt lat="39.108135" lon="16.513865"><ele>1138.0000000000002</ele><time>2026-04-18T11:47:35.535Z</time></trkpt><trkpt lat="39.108065" lon="16.5138667"><ele>1138.0</ele><time>2026-04-18T11:47:36.537Z</time></trkpt><trkpt lat="39.1079967" lon="16.5138767"><ele>1138.6</ele><time>2026-04-18T11:47:37.532Z</time></trkpt><trkpt lat="39.1079283" lon="16.5138967"><ele>1139.1999999999998</ele><time>2026-04-18T11:47:38.529Z</time></trkpt><trkpt lat="39.107855" lon="16.51392"><ele>1139.8</ele><time>2026-04-18T11:47:39.533Z</time></trkpt><trkpt lat="39.1077383" lon="16.51394"><ele>1140.3999999999999</ele><time>2026-04-18T11:47:41.531Z</time></trkpt><trkpt lat="39.107645" lon="16.5139117"><ele>1141.0</ele><time>2026-04-18T11:47:43.531Z</time></trkpt><trkpt lat="39.1075967" lon="16.5137967"><ele>1137.6</ele><time>2026-04-18T11:47:45.531Z</time></trkpt><trkpt lat="39.1075483" lon="16.5136933"><ele>1134.1999999999998</ele><time>2026-04-18T11:47:47.529Z</time></trkpt><trkpt lat="39.1074983" lon="16.5135883"><ele>1130.8000000000002</ele><time>2026-04-18T11:47:49.531Z</time></trkpt><trkpt lat="39.10741" lon="16.5134983"><ele>1127.4</ele><time>2026-04-18T11:47:51.531Z</time></trkpt><trkpt lat="39.1073517" lon="16.5134383"><ele>1124.0</ele><time>2026-04-18T11:47:52.53Z</time></trkpt><trkpt lat="39.1072767" lon="16.5134167"><ele>1124.0</ele><time>2026-04-18T11:47:53.531Z</time></trkpt><trkpt lat="39.1072017" lon="16.5134217"><ele>1124.0</ele><time>2026-04-18T11:47:54.532Z</time></trkpt><trkpt lat="39.1071217" lon="16.51343"><ele>1124.0</ele><time>2026-04-18T11:47:55.532Z</time></trkpt><trkpt lat="39.107045" lon="16.5134517"><ele>1124.0</ele><time>2026-04-18T11:47:56.531Z</time></trkpt><trkpt lat="39.1069667" lon="16.5134817"><ele>1124.0</ele><time>2026-04-18T11:47:57.534Z</time></trkpt><trkpt lat="39.1068983" lon="16.5135333"><ele>1124.0</ele><time>2026-04-18T11:47:58.53Z</time></trkpt><trkpt lat="39.1068383" lon="16.5135967"><ele>1124.0</ele><time>2026-04-18T11:47:59.531Z</time></trkpt><trkpt lat="39.106785" lon="16.513675"><ele>1124.0</ele><time>2026-04-18T11:48:00.531Z</time></trkpt><trkpt lat="39.1067133" lon="16.5137283"><ele>1124.0</ele><time>2026-04-18T11:48:01.532Z</time></trkpt><trkpt lat="39.10665" lon="16.5138"><ele>1124.0</ele><time>2026-04-18T11:48:02.533Z</time></trkpt><trkpt lat="39.1065883" lon="16.51389"><ele>1124.0</ele><time>2026-04-18T11:48:03.534Z</time></trkpt><trkpt lat="39.10653" lon="16.5139733"><ele>1124.0</ele><time>2026-04-18T11:48:04.533Z</time></trkpt><trkpt lat="39.10647" lon="16.5140383"><ele>1124.6666666666667</ele><time>2026-04-18T11:48:05.533Z</time></trkpt><trkpt lat="39.106415" lon="16.5141017"><ele>1125.3333333333335</ele><time>2026-04-18T11:48:06.53Z</time></trkpt><trkpt lat="39.1063567" lon="16.5141433"><ele>1126.0</ele><time>2026-04-18T11:48:07.535Z</time></trkpt><trkpt lat="39.1062617" lon="16.5142267"><ele>1126.6666666666667</ele><time>2026-04-18T11:48:09.533Z</time></trkpt><trkpt lat="39.10615" lon="16.5142867"><ele>1127.3333333333333</ele><time>2026-04-18T11:48:11.532Z</time></trkpt><trkpt lat="39.106085" lon="16.5143217"><ele>1128.0</ele><time>2026-04-18T11:48:12.536Z</time></trkpt><trkpt lat="39.10602" lon="16.514375"><ele>1128.0</ele><time>2026-04-18T11:48:13.536Z</time></trkpt><trkpt lat="39.1059417" lon="16.514415"><ele>1128.0</ele><time>2026-04-18T11:48:14.533Z</time></trkpt><trkpt lat="39.10587" lon="16.5144733"><ele>1128.0</ele><time>2026-04-18T11:48:15.533Z</time></trkpt><trkpt lat="39.1057933" lon="16.5145333"><ele>1128.0</ele><time>2026-04-18T11:48:16.531Z</time></trkpt><trkpt lat="39.1057417" lon="16.5146267"><ele>1128.0</ele><time>2026-04-18T11:48:17.532Z</time></trkpt><trkpt lat="39.1057283" lon="16.5147183"><ele>1128.0</ele><time>2026-04-18T11:48:18.531Z</time></trkpt><trkpt lat="39.1057217" lon="16.51481"><ele>1129.4</ele><time>2026-04-18T11:48:19.531Z</time></trkpt><trkpt lat="39.1057617" lon="16.51489"><ele>1130.8</ele><time>2026-04-18T11:48:20.531Z</time></trkpt><trkpt lat="39.1058317" lon="16.514935"><ele>1132.2</ele><time>2026-04-18T11:48:21.531Z</time></trkpt><trkpt lat="39.1059167" lon="16.5149533"><ele>1133.6</ele><time>2026-04-18T11:48:22.53Z</time></trkpt><trkpt lat="39.106015" lon="16.5149367"><ele>1135.0</ele><time>2026-04-18T11:48:23.53Z</time></trkpt><trkpt lat="39.1061217" lon="16.5148867"><ele>1135.0</ele><time>2026-04-18T11:48:24.531Z</time></trkpt><trkpt lat="39.106225" lon="16.5148283"><ele>1135.0</ele><time>2026-04-18T11:48:25.531Z</time></trkpt><trkpt lat="39.1063283" lon="16.5147867"><ele>1135.0</ele><time>2026-04-18T11:48:26.533Z</time></trkpt><trkpt lat="39.1064383" lon="16.514745"><ele>1135.0</ele><time>2026-04-18T11:48:27.534Z</time></trkpt><trkpt lat="39.106555" lon="16.5146983"><ele>1135.25</ele><time>2026-04-18T11:48:28.531Z</time></trkpt><trkpt lat="39.10667" lon="16.5146517"><ele>1135.5</ele><time>2026-04-18T11:48:29.53Z</time></trkpt><trkpt lat="39.10679" lon="16.51461"><ele>1135.75</ele><time>2026-04-18T11:48:30.532Z</time></trkpt><trkpt lat="39.1069133" lon="16.51455"><ele>1136.0</ele><time>2026-04-18T11:48:31.531Z</time></trkpt><trkpt lat="39.107045" lon="16.514515"><ele>1136.0</ele><time>2026-04-18T11:48:32.534Z</time></trkpt><trkpt lat="39.1071867" lon="16.514505"><ele>1136.0</ele><time>2026-04-18T11:48:33.535Z</time></trkpt><trkpt lat="39.107335" lon="16.5145283"><ele>1136.0</ele><time>2026-04-18T11:48:34.532Z</time></trkpt><trkpt lat="39.1074833" lon="16.514545"><ele>1136.0</ele><time>2026-04-18T11:48:35.532Z</time></trkpt><trkpt lat="39.10763" lon="16.5145467"><ele>1137.25</ele><time>2026-04-18T11:48:36.532Z</time></trkpt><trkpt lat="39.107765" lon="16.5145633"><ele>1138.5</ele><time>2026-04-18T11:48:37.533Z</time></trkpt><trkpt lat="39.1079033" lon="16.5145567"><ele>1139.75</ele><time>2026-04-18T11:48:38.535Z</time></trkpt><trkpt lat="39.1080317" lon="16.5145867"><ele>1141.0</ele><time>2026-04-18T11:48:39.532Z</time></trkpt><trkpt lat="39.10815" lon="16.5146367"><ele>1147.0</ele><time>2026-04-18T11:48:40.533Z</time></trkpt><trkpt lat="39.1082683" lon="16.5147033"><ele>1153.0</ele><time>2026-04-18T11:48:41.532Z</time></trkpt><trkpt lat="39.1083783" lon="16.51481"><ele>1159.0</ele><time>2026-04-18T11:48:42.533Z</time></trkpt><trkpt lat="39.1084583" lon="16.5149533"><ele>1165.0</ele><time>2026-04-18T11:48:43.536Z</time></trkpt><trkpt lat="39.1085233" lon="16.5151067"><ele>1165.0</ele><time>2026-04-18T11:48:44.532Z</time></trkpt><trkpt lat="39.108575" lon="16.515275"><ele>1165.0</ele><time>2026-04-18T11:48:45.532Z</time></trkpt><trkpt lat="39.10859" lon="16.515455"><ele>1165.0</ele><time>2026-04-18T11:48:46.531Z</time></trkpt><trkpt lat="39.1085717" lon="16.5156267"><ele>1165.0</ele><time>2026-04-18T11:48:47.532Z</time></trkpt><trkpt lat="39.1085117" lon="16.5157867"><ele>1167.5</ele><time>2026-04-18T11:48:48.532Z</time></trkpt><trkpt lat="39.1084917" lon="16.5159467"><ele>1170.0</ele><time>2026-04-18T11:48:49.534Z</time></trkpt><trkpt lat="39.1084833" lon="16.5161117"><ele>1172.5</ele><time>2026-04-18T11:48:50.533Z</time></trkpt><trkpt lat="39.108495" lon="16.5162583"><ele>1175.0</ele><time>2026-04-18T11:48:51.531Z</time></trkpt><trkpt lat="39.1085533" lon="16.5163867"><ele>1176.5</ele><time>2026-04-18T11:48:52.532Z</time></trkpt><trkpt lat="39.1086433" lon="16.516495"><ele>1178.0</ele><time>2026-04-18T11:48:53.533Z</time></trkpt><trkpt lat="39.1087083" lon="16.5166183"><ele>1179.5</ele><time>2026-04-18T11:48:54.534Z</time></trkpt><trkpt lat="39.10877" lon="16.5167617"><ele>1181.0</ele><time>2026-04-18T11:48:55.533Z</time></trkpt><trkpt lat="39.1088033" lon="16.516935"><ele>1181.25</ele><time>2026-04-18T11:48:56.534Z</time></trkpt><trkpt lat="39.1088617" lon="16.5170967"><ele>1181.5</ele><time>2026-04-18T11:48:57.531Z</time></trkpt><trkpt lat="39.108955" lon="16.5172433"><ele>1181.75</ele><time>2026-04-18T11:48:58.533Z</time></trkpt><trkpt lat="39.1090683" lon="16.51739"><ele>1182.0</ele><time>2026-04-18T11:48:59.531Z</time></trkpt><trkpt lat="39.1091233" lon="16.517555"><ele>1182.0</ele><time>2026-04-18T11:49:00.533Z</time></trkpt><trkpt lat="39.10917" lon="16.5177517"><ele>1182.0</ele><time>2026-04-18T11:49:01.537Z</time></trkpt><trkpt lat="39.1092383" lon="16.5179183"><ele>1182.0</ele><time>2026-04-18T11:49:02.534Z</time></trkpt><trkpt lat="39.1092967" lon="16.518095"><ele>1183.6666666666667</ele><time>2026-04-18T11:49:03.536Z</time></trkpt><trkpt lat="39.109345" lon="16.5182883"><ele>1185.3333333333335</ele><time>2026-04-18T11:49:04.531Z</time></trkpt><trkpt lat="39.1093833" lon="16.51849"><ele>1187.0</ele><time>2026-04-18T11:49:05.531Z</time></trkpt><trkpt lat="39.109425" lon="16.5186867"><ele>1186.5</ele><time>2026-04-18T11:49:06.53Z</time></trkpt><trkpt lat="39.109465" lon="16.51887"><ele>1186.0</ele><time>2026-04-18T11:49:07.532Z</time></trkpt><trkpt lat="39.1095133" lon="16.5190317"><ele>1185.5</ele><time>2026-04-18T11:49:08.532Z</time></trkpt><trkpt lat="39.1095583" lon="16.5191617"><ele>1185.0</ele><time>2026-04-18T11:49:09.535Z</time></trkpt><trkpt lat="39.1096067" lon="16.519265"><ele>1185.0</ele><time>2026-04-18T11:49:10.53Z</time></trkpt><trkpt lat="39.1096783" lon="16.5193383"><ele>1185.0</ele><time>2026-04-18T11:49:11.531Z</time></trkpt><trkpt lat="39.1097767" lon="16.5193717"><ele>1185.0</ele><time>2026-04-18T11:49:12.531Z</time></trkpt><trkpt lat="39.109885" lon="16.5193583"><ele>1185.0</ele><time>2026-04-18T11:49:13.531Z</time></trkpt><trkpt lat="39.10998" lon="16.51938"><ele>1185.0</ele><time>2026-04-18T11:49:14.532Z</time></trkpt><trkpt lat="39.11006" lon="16.5194283"><ele>1183.8</ele><time>2026-04-18T11:49:15.534Z</time></trkpt><trkpt lat="39.1101167" lon="16.5195017"><ele>1182.6</ele><time>2026-04-18T11:49:16.533Z</time></trkpt><trkpt lat="39.1101417" lon="16.5196167"><ele>1181.4</ele><time>2026-04-18T11:49:17.534Z</time></trkpt><trkpt lat="39.1101617" lon="16.5197417"><ele>1180.2</ele><time>2026-04-18T11:49:18.532Z</time></trkpt><trkpt lat="39.11015" lon="16.51989"><ele>1179.0</ele><time>2026-04-18T11:49:19.532Z</time></trkpt><trkpt lat="39.1101633" lon="16.5200367"><ele>1177.25</ele><time>2026-04-18T11:49:20.533Z</time></trkpt><trkpt lat="39.1101917" lon="16.5201833"><ele>1175.5</ele><time>2026-04-18T11:49:21.533Z</time></trkpt><trkpt lat="39.1102333" lon="16.52033"><ele>1173.75</ele><time>2026-04-18T11:49:22.53Z</time></trkpt><trkpt lat="39.1102933" lon="16.5204733"><ele>1172.0</ele><time>2026-04-18T11:49:23.532Z</time></trkpt><trkpt lat="39.110345" lon="16.520615"><ele>1171.2</ele><time>2026-04-18T11:49:24.534Z</time></trkpt><trkpt lat="39.1103967" lon="16.520745"><ele>1170.4</ele><time>2026-04-18T11:49:25.531Z</time></trkpt><trkpt lat="39.110445" lon="16.52087"><ele>1169.6</ele><time>2026-04-18T11:49:26.533Z</time></trkpt><trkpt lat="39.11047" lon="16.521"><ele>1168.8</ele><time>2026-04-18T11:49:27.537Z</time></trkpt><trkpt lat="39.110445" lon="16.521135"><ele>1168.0</ele><time>2026-04-18T11:49:28.533Z</time></trkpt><trkpt lat="39.1104067" lon="16.5212683"><ele>1167.2</ele><time>2026-04-18T11:49:29.534Z</time></trkpt><trkpt lat="39.1103783" lon="16.52141"><ele>1166.4</ele><time>2026-04-18T11:49:30.534Z</time></trkpt><trkpt lat="39.1103217" lon="16.5215367"><ele>1165.6000000000001</ele><time>2026-04-18T11:49:31.535Z</time></trkpt><trkpt lat="39.1102867" lon="16.52167"><ele>1164.8</ele><time>2026-04-18T11:49:32.534Z</time></trkpt><trkpt lat="39.11028" lon="16.5218083"><ele>1164.0</ele><time>2026-04-18T11:49:33.533Z</time></trkpt><trkpt lat="39.110285" lon="16.5219367"><ele>1164.0</ele><time>2026-04-18T11:49:34.543Z</time></trkpt><trkpt lat="39.110335" lon="16.5220467"><ele>1164.0</ele><time>2026-04-18T11:49:35.535Z</time></trkpt><trkpt lat="39.1104133" lon="16.5221217"><ele>1164.0</ele><time>2026-04-18T11:49:36.534Z</time></trkpt><trkpt lat="39.11051" lon="16.52217"><ele>1164.0</ele><time>2026-04-18T11:49:37.535Z</time></trkpt><trkpt lat="39.1106217" lon="16.5221567"><ele>1164.0</ele><time>2026-04-18T11:49:38.534Z</time></trkpt><trkpt lat="39.1107317" lon="16.5221567"><ele>1165.25</ele><time>2026-04-18T11:49:39.53Z</time></trkpt><trkpt lat="39.11084" lon="16.5221917"><ele>1166.5</ele><time>2026-04-18T11:49:40.533Z</time></trkpt><trkpt lat="39.1109533" lon="16.522235"><ele>1167.75</ele><time>2026-04-18T11:49:41.531Z</time></trkpt><trkpt lat="39.111065" lon="16.52231"><ele>1169.0</ele><time>2026-04-18T11:49:42.531Z</time></trkpt><trkpt lat="39.1111733" lon="16.522405"><ele>1169.0</ele><time>2026-04-18T11:49:43.537Z</time></trkpt><trkpt lat="39.1112817" lon="16.522505"><ele>1169.0</ele><time>2026-04-18T11:49:44.532Z</time></trkpt><trkpt lat="39.1113983" lon="16.5225917"><ele>1169.0</ele><time>2026-04-18T11:49:45.536Z</time></trkpt><trkpt lat="39.1115233" lon="16.5226633"><ele>1169.0</ele><time>2026-04-18T11:49:46.534Z</time></trkpt><trkpt lat="39.1116567" lon="16.5227083"><ele>1170.75</ele><time>2026-04-18T11:49:47.538Z</time></trkpt><trkpt lat="39.11179" lon="16.522755"><ele>1172.5</ele><time>2026-04-18T11:49:48.533Z</time></trkpt><trkpt lat="39.11192" lon="16.522805"><ele>1174.25</ele><time>2026-04-18T11:49:49.533Z</time></trkpt><trkpt lat="39.11204" lon="16.5228417"><ele>1176.0</ele><time>2026-04-18T11:49:50.53Z</time></trkpt><trkpt lat="39.112145" lon="16.5228733"><ele>1174.3999999999999</ele><time>2026-04-18T11:49:51.535Z</time></trkpt><trkpt lat="39.11223" lon="16.5229233"><ele>1172.8</ele><time>2026-04-18T11:49:52.534Z</time></trkpt><trkpt lat="39.1122917" lon="16.5229967"><ele>1171.1999999999998</ele><time>2026-04-18T11:49:53.533Z</time></trkpt><trkpt lat="39.1123217" lon="16.5231"><ele>1169.6</ele><time>2026-04-18T11:49:54.539Z</time></trkpt><trkpt lat="39.11233" lon="16.5232217"><ele>1168.0</ele><time>2026-04-18T11:49:55.533Z</time></trkpt><trkpt lat="39.112315" lon="16.52336"><ele>1168.0</ele><time>2026-04-18T11:49:56.532Z</time></trkpt><trkpt lat="39.1123117" lon="16.52349"><ele>1168.0</ele><time>2026-04-18T11:49:57.537Z</time></trkpt><trkpt lat="39.112315" lon="16.52362"><ele>1168.0</ele><time>2026-04-18T11:49:58.531Z</time></trkpt><trkpt lat="39.1123617" lon="16.523735"><ele>1168.0</ele><time>2026-04-18T11:49:59.535Z</time></trkpt><trkpt lat="39.11244" lon="16.5238317"><ele>1168.0</ele><time>2026-04-18T11:50:00.538Z</time></trkpt><trkpt lat="39.1125333" lon="16.5239217"><ele>1168.5</ele><time>2026-04-18T11:50:01.533Z</time></trkpt><trkpt lat="39.11264" lon="16.524005"><ele>1169.0</ele><time>2026-04-18T11:50:02.531Z</time></trkpt><trkpt lat="39.112745" lon="16.5240917"><ele>1169.5</ele><time>2026-04-18T11:50:03.536Z</time></trkpt><trkpt lat="39.112825" lon="16.5241967"><ele>1170.0</ele><time>2026-04-18T11:50:04.535Z</time></trkpt><trkpt lat="39.112875" lon="16.5243217"><ele>1170.0</ele><time>2026-04-18T11:50:05.53Z</time></trkpt><trkpt lat="39.1128783" lon="16.5244633"><ele>1170.0</ele><time>2026-04-18T11:50:06.532Z</time></trkpt><trkpt lat="39.1128433" lon="16.5246133"><ele>1170.0</ele><time>2026-04-18T11:50:07.536Z</time></trkpt><trkpt lat="39.1128133" lon="16.524765"><ele>1170.0</ele><time>2026-04-18T11:50:08.532Z</time></trkpt><trkpt lat="39.1127767" lon="16.5249017"><ele>1169.4</ele><time>2026-04-18T11:50:09.536Z</time></trkpt><trkpt lat="39.11274" lon="16.5250183"><ele>1168.8</ele><time>2026-04-18T11:50:10.531Z</time></trkpt><trkpt lat="39.1127283" lon="16.5251333"><ele>1168.2</ele><time>2026-04-18T11:50:11.531Z</time></trkpt><trkpt lat="39.1127483" lon="16.5252483"><ele>1167.6</ele><time>2026-04-18T11:50:12.533Z</time></trkpt><trkpt lat="39.1127983" lon="16.525355"><ele>1167.0</ele><time>2026-04-18T11:50:13.538Z</time></trkpt><trkpt lat="39.1128767" lon="16.5254533"><ele>1166.75</ele><time>2026-04-18T11:50:14.532Z</time></trkpt><trkpt lat="39.1129633" lon="16.5255367"><ele>1166.5</ele><time>2026-04-18T11:50:15.532Z</time></trkpt><trkpt lat="39.1130683" lon="16.5256067"><ele>1166.25</ele><time>2026-04-18T11:50:16.532Z</time></trkpt><trkpt lat="39.113185" lon="16.5256767"><ele>1166.0</ele><time>2026-04-18T11:50:17.532Z</time></trkpt><trkpt lat="39.1133017" lon="16.5257533"><ele>1166.0</ele><time>2026-04-18T11:50:18.531Z</time></trkpt><trkpt lat="39.11342" lon="16.525825"><ele>1166.0</ele><time>2026-04-18T11:50:19.534Z</time></trkpt><trkpt lat="39.1135367" lon="16.5258983"><ele>1166.0</ele><time>2026-04-18T11:50:20.531Z</time></trkpt><trkpt lat="39.1136483" lon="16.5259767"><ele>1166.0</ele><time>2026-04-18T11:50:21.532Z</time></trkpt><trkpt lat="39.11376" lon="16.5260433"><ele>1166.0</ele><time>2026-04-18T11:50:22.533Z</time></trkpt><trkpt lat="39.11387" lon="16.5261167"><ele>1166.0</ele><time>2026-04-18T11:50:23.533Z</time></trkpt><trkpt lat="39.1139483" lon="16.52622"><ele>1166.0</ele><time>2026-04-18T11:50:24.531Z</time></trkpt><trkpt lat="39.1140017" lon="16.52634"><ele>1166.0</ele><time>2026-04-18T11:50:25.533Z</time></trkpt><trkpt lat="39.11404" lon="16.52648"><ele>1166.2</ele><time>2026-04-18T11:50:26.539Z</time></trkpt><trkpt lat="39.1140817" lon="16.5266333"><ele>1166.3999999999999</ele><time>2026-04-18T11:50:27.539Z</time></trkpt><trkpt lat="39.1141133" lon="16.5267783"><ele>1166.6</ele><time>2026-04-18T11:50:28.532Z</time></trkpt><trkpt lat="39.11411" lon="16.5269117"><ele>1166.8</ele><time>2026-04-18T11:50:29.532Z</time></trkpt><trkpt lat="39.1140683" lon="16.52702"><ele>1167.0</ele><time>2026-04-18T11:50:30.532Z</time></trkpt><trkpt lat="39.1139817" lon="16.5271067"><ele>1168.25</ele><time>2026-04-18T11:50:31.533Z</time></trkpt><trkpt lat="39.11387" lon="16.5271733"><ele>1169.5</ele><time>2026-04-18T11:50:32.534Z</time></trkpt><trkpt lat="39.113755" lon="16.5272517"><ele>1170.75</ele><time>2026-04-18T11:50:33.533Z</time></trkpt><trkpt lat="39.1136417" lon="16.527335"><ele>1172.0</ele><time>2026-04-18T11:50:34.532Z</time></trkpt><trkpt lat="39.1135283" lon="16.5274183"><ele>1172.0</ele><time>2026-04-18T11:50:35.532Z</time></trkpt><trkpt lat="39.1134067" lon="16.5275033"><ele>1172.0</ele><time>2026-04-18T11:50:36.53Z</time></trkpt><trkpt lat="39.1132783" lon="16.5275833"><ele>1172.0</ele><time>2026-04-18T11:50:37.532Z</time></trkpt><trkpt lat="39.1131383" lon="16.52763"><ele>1172.0</ele><time>2026-04-18T11:50:38.533Z</time></trkpt><trkpt lat="39.1129917" lon="16.527635"><ele>1171.0</ele><time>2026-04-18T11:50:39.532Z</time></trkpt><trkpt lat="39.11284" lon="16.5275933"><ele>1170.0</ele><time>2026-04-18T11:50:40.535Z</time></trkpt><trkpt lat="39.1126983" lon="16.52754"><ele>1169.0</ele><time>2026-04-18T11:50:41.532Z</time></trkpt><trkpt lat="39.1125717" lon="16.5275117"><ele>1168.0</ele><time>2026-04-18T11:50:42.531Z</time></trkpt><trkpt lat="39.1124517" lon="16.5275283"><ele>1166.0</ele><time>2026-04-18T11:50:43.534Z</time></trkpt><trkpt lat="39.11234" lon="16.527605"><ele>1164.0</ele><time>2026-04-18T11:50:44.535Z</time></trkpt><trkpt lat="39.1122367" lon="16.5277133"><ele>1162.0</ele><time>2026-04-18T11:50:45.538Z</time></trkpt><trkpt lat="39.11213" lon="16.527835"><ele>1160.0</ele><time>2026-04-18T11:50:46.532Z</time></trkpt><trkpt lat="39.1120033" lon="16.527905"><ele>1163.0</ele><time>2026-04-18T11:50:47.533Z</time></trkpt><trkpt lat="39.111865" lon="16.5279583"><ele>1166.0</ele><time>2026-04-18T11:50:48.531Z</time></trkpt><trkpt lat="39.1117233" lon="16.528"><ele>1169.0</ele><time>2026-04-18T11:50:49.533Z</time></trkpt><trkpt lat="39.11158" lon="16.5280517"><ele>1172.0</ele><time>2026-04-18T11:50:50.533Z</time></trkpt><trkpt lat="39.11145" lon="16.5281467"><ele>1172.0</ele><time>2026-04-18T11:50:51.537Z</time></trkpt><trkpt lat="39.1113217" lon="16.5282517"><ele>1172.0</ele><time>2026-04-18T11:50:52.534Z</time></trkpt><trkpt lat="39.111205" lon="16.5283733"><ele>1172.0</ele><time>2026-04-18T11:50:53.532Z</time></trkpt><trkpt lat="39.11109" lon="16.5285067"><ele>1172.0</ele><time>2026-04-18T11:50:54.532Z</time></trkpt><trkpt lat="39.1109733" lon="16.5286433"><ele>1172.0</ele><time>2026-04-18T11:50:55.533Z</time></trkpt><trkpt lat="39.11087" lon="16.5288"><ele>1172.0</ele><time>2026-04-18T11:50:56.534Z</time></trkpt><trkpt lat="39.1107517" lon="16.5289417"><ele>1173.75</ele><time>2026-04-18T11:50:57.531Z</time></trkpt><trkpt lat="39.1106417" lon="16.5290783"><ele>1175.5</ele><time>2026-04-18T11:50:58.536Z</time></trkpt><trkpt lat="39.1105333" lon="16.5291983"><ele>1177.25</ele><time>2026-04-18T11:50:59.53Z</time></trkpt><trkpt lat="39.11045" lon="16.5293183"><ele>1179.0</ele><time>2026-04-18T11:51:00.53Z</time></trkpt><trkpt lat="39.1104083" lon="16.5294467"><ele>1178.5</ele><time>2026-04-18T11:51:01.533Z</time></trkpt><trkpt lat="39.1104133" lon="16.5295883"><ele>1178.0</ele><time>2026-04-18T11:51:02.53Z</time></trkpt><trkpt lat="39.1104617" lon="16.5297217"><ele>1177.5</ele><time>2026-04-18T11:51:03.531Z</time></trkpt><trkpt lat="39.1105367" lon="16.5298533"><ele>1177.0</ele><time>2026-04-18T11:51:04.532Z</time></trkpt><trkpt lat="39.1106283" lon="16.529995"><ele>1177.0</ele><time>2026-04-18T11:51:05.531Z</time></trkpt><trkpt lat="39.11073" lon="16.53015"><ele>1177.0</ele><time>2026-04-18T11:51:06.532Z</time></trkpt><trkpt lat="39.1108367" lon="16.5303083"><ele>1177.0</ele><time>2026-04-18T11:51:07.531Z</time></trkpt><trkpt lat="39.11094" lon="16.5304733"><ele>1178.25</ele><time>2026-04-18T11:51:08.53Z</time></trkpt><trkpt lat="39.1110367" lon="16.53062"><ele>1179.5</ele><time>2026-04-18T11:51:09.536Z</time></trkpt><trkpt lat="39.1111483" lon="16.53073"><ele>1180.75</ele><time>2026-04-18T11:51:10.53Z</time></trkpt><trkpt lat="39.11123" lon="16.530845"><ele>1182.0</ele><time>2026-04-18T11:51:11.532Z</time></trkpt><trkpt lat="39.1112817" lon="16.5309617"><ele>1182.0</ele><time>2026-04-18T11:51:12.53Z</time></trkpt><trkpt lat="39.1113033" lon="16.53108"><ele>1182.0</ele><time>2026-04-18T11:51:13.529Z</time></trkpt><trkpt lat="39.1112817" lon="16.53119"><ele>1182.0</ele><time>2026-04-18T11:51:14.532Z</time></trkpt><trkpt lat="39.1112217" lon="16.5312833"><ele>1182.0</ele><time>2026-04-18T11:51:15.531Z</time></trkpt><trkpt lat="39.1111433" lon="16.5313583"><ele>1182.0</ele><time>2026-04-18T11:51:16.534Z</time></trkpt><trkpt lat="39.1110517" lon="16.5313917"><ele>1182.0</ele><time>2026-04-18T11:51:17.531Z</time></trkpt><trkpt lat="39.11095" lon="16.5313617"><ele>1182.0</ele><time>2026-04-18T11:51:18.534Z</time></trkpt><trkpt lat="39.11085" lon="16.5313067"><ele>1182.0</ele><time>2026-04-18T11:51:19.531Z</time></trkpt><trkpt lat="39.1107417" lon="16.531235"><ele>1182.0</ele><time>2026-04-18T11:51:20.532Z</time></trkpt><trkpt lat="39.1106133" lon="16.5311917"><ele>1182.0</ele><time>2026-04-18T11:51:21.531Z</time></trkpt><trkpt lat="39.1104717" lon="16.5311567"><ele>1182.0</ele><time>2026-04-18T11:51:22.531Z</time></trkpt><trkpt lat="39.110325" lon="16.5311683"><ele>1182.0</ele><time>2026-04-18T11:51:23.531Z</time></trkpt><trkpt lat="39.1101817" lon="16.5311583"><ele>1182.0</ele><time>2026-04-18T11:51:24.534Z</time></trkpt><trkpt lat="39.1100367" lon="16.53113"><ele>1181.0</ele><time>2026-04-18T11:51:25.531Z</time></trkpt><trkpt lat="39.1099067" lon="16.5311467"><ele>1180.0</ele><time>2026-04-18T11:51:26.531Z</time></trkpt><trkpt lat="39.1098017" lon="16.5311883"><ele>1179.0</ele><time>2026-04-18T11:51:27.535Z</time></trkpt><trkpt lat="39.1097267" lon="16.5312683"><ele>1178.0</ele><time>2026-04-18T11:51:28.531Z</time></trkpt><trkpt lat="39.109675" lon="16.5313917"><ele>1177.0</ele><time>2026-04-18T11:51:29.53Z</time></trkpt><trkpt lat="39.1096183" lon="16.53148"><ele>1182.2</ele><time>2026-04-18T11:51:30.54Z</time></trkpt><trkpt lat="39.1095567" lon="16.5315783"><ele>1187.4</ele><time>2026-04-18T11:51:31.532Z</time></trkpt><trkpt lat="39.1094867" lon="16.5316533"><ele>1192.6</ele><time>2026-04-18T11:51:32.534Z</time></trkpt><trkpt lat="39.10939" lon="16.53166"><ele>1197.8</ele><time>2026-04-18T11:51:33.535Z</time></trkpt><trkpt lat="39.1092817" lon="16.53163"><ele>1203.0</ele><time>2026-04-18T11:51:34.535Z</time></trkpt><trkpt lat="39.1091683" lon="16.53158"><ele>1203.0</ele><time>2026-04-18T11:51:35.533Z</time></trkpt><trkpt lat="39.10904" lon="16.5315483"><ele>1203.0</ele><time>2026-04-18T11:51:36.531Z</time></trkpt><trkpt lat="39.1089133" lon="16.5314933"><ele>1203.0</ele><time>2026-04-18T11:51:37.532Z</time></trkpt><trkpt lat="39.108785" lon="16.5314733"><ele>1203.0</ele><time>2026-04-18T11:51:38.532Z</time></trkpt><trkpt lat="39.10866" lon="16.5314783"><ele>1203.0</ele><time>2026-04-18T11:51:39.538Z</time></trkpt><trkpt lat="39.108545" lon="16.5315517"><ele>1203.0</ele><time>2026-04-18T11:51:40.531Z</time></trkpt><trkpt lat="39.1084283" lon="16.53167"><ele>1203.0</ele><time>2026-04-18T11:51:41.533Z</time></trkpt><trkpt lat="39.1082967" lon="16.5317283"><ele>1203.0</ele><time>2026-04-18T11:51:42.531Z</time></trkpt><trkpt lat="39.1081633" lon="16.5317783"><ele>1202.0</ele><time>2026-04-18T11:51:43.534Z</time></trkpt><trkpt lat="39.108025" lon="16.53178"><ele>1201.0</ele><time>2026-04-18T11:51:44.533Z</time></trkpt><trkpt lat="39.1078783" lon="16.5317683"><ele>1200.0</ele><time>2026-04-18T11:51:45.534Z</time></trkpt><trkpt lat="39.1077783" lon="16.5318817"><ele>1199.0</ele><time>2026-04-18T11:51:46.53Z</time></trkpt><trkpt lat="39.1076633" lon="16.53191"><ele>1199.0</ele><time>2026-04-18T11:51:47.531Z</time></trkpt><trkpt lat="39.1075667" lon="16.5319883"><ele>1199.0</ele><time>2026-04-18T11:51:48.534Z</time></trkpt><trkpt lat="39.1075" lon="16.5321217"><ele>1199.0</ele><time>2026-04-18T11:51:49.533Z</time></trkpt><trkpt lat="39.1074533" lon="16.5322817"><ele>1199.0</ele><time>2026-04-18T11:51:50.537Z</time></trkpt><trkpt lat="39.107395" lon="16.5324533"><ele>1197.75</ele><time>2026-04-18T11:51:51.536Z</time></trkpt><trkpt lat="39.1073483" lon="16.5326233"><ele>1196.5</ele><time>2026-04-18T11:51:52.538Z</time></trkpt><trkpt lat="39.1073467" lon="16.532785"><ele>1195.25</ele><time>2026-04-18T11:51:53.532Z</time></trkpt><trkpt lat="39.1073883" lon="16.5329283"><ele>1194.0</ele><time>2026-04-18T11:51:54.533Z</time></trkpt><trkpt lat="39.10746" lon="16.533065"><ele>1197.5</ele><time>2026-04-18T11:51:55.533Z</time></trkpt><trkpt lat="39.1075783" lon="16.5331533"><ele>1201.0</ele><time>2026-04-18T11:51:56.531Z</time></trkpt><trkpt lat="39.1076867" lon="16.53324"><ele>1204.5</ele><time>2026-04-18T11:51:57.536Z</time></trkpt><trkpt lat="39.107745" lon="16.5333517"><ele>1208.0</ele><time>2026-04-18T11:51:58.533Z</time></trkpt><trkpt lat="39.1077717" lon="16.5334633"><ele>1208.0</ele><time>2026-04-18T11:51:59.531Z</time></trkpt><trkpt lat="39.1077567" lon="16.5335783"><ele>1208.0</ele><time>2026-04-18T11:52:00.534Z</time></trkpt><trkpt lat="39.1076917" lon="16.5336833"><ele>1208.0</ele><time>2026-04-18T11:52:01.536Z</time></trkpt><trkpt lat="39.1076467" lon="16.5338033"><ele>1208.0</ele><time>2026-04-18T11:52:02.531Z</time></trkpt><trkpt lat="39.1075933" lon="16.5339367"><ele>1208.0</ele><time>2026-04-18T11:52:03.536Z</time></trkpt><trkpt lat="39.107565" lon="16.534095"><ele>1209.5</ele><time>2026-04-18T11:52:04.536Z</time></trkpt><trkpt lat="39.107565" lon="16.53426"><ele>1211.0</ele><time>2026-04-18T11:52:05.533Z</time></trkpt><trkpt lat="39.1076" lon="16.53443"><ele>1212.5</ele><time>2026-04-18T11:52:06.533Z</time></trkpt><trkpt lat="39.1076367" lon="16.53461"><ele>1214.0</ele><time>2026-04-18T11:52:07.534Z</time></trkpt><trkpt lat="39.10768" lon="16.5347933"><ele>1216.4</ele><time>2026-04-18T11:52:08.535Z</time></trkpt><trkpt lat="39.1077567" lon="16.5349417"><ele>1218.8000000000002</ele><time>2026-04-18T11:52:09.535Z</time></trkpt><trkpt lat="39.107765" lon="16.5350733"><ele>1221.1999999999998</ele><time>2026-04-18T11:52:10.533Z</time></trkpt><trkpt lat="39.10778" lon="16.5351767"><ele>1223.6</ele><time>2026-04-18T11:52:11.532Z</time></trkpt><trkpt lat="39.10776" lon="16.535255"><ele>1226.0</ele><time>2026-04-18T11:52:12.532Z</time></trkpt><trkpt lat="39.1077083" lon="16.5353017"><ele>1226.0</ele><time>2026-04-18T11:52:13.536Z</time></trkpt><trkpt lat="39.1076333" lon="16.53532"><ele>1226.0</ele><time>2026-04-18T11:52:14.531Z</time></trkpt><trkpt lat="39.1075483" lon="16.5352933"><ele>1226.0</ele><time>2026-04-18T11:52:15.539Z</time></trkpt><trkpt lat="39.10747" lon="16.535215"><ele>1226.0</ele><time>2026-04-18T11:52:16.532Z</time></trkpt><trkpt lat="39.1073817" lon="16.5351217"><ele>1226.0</ele><time>2026-04-18T11:52:17.53Z</time></trkpt><trkpt lat="39.1072683" lon="16.5350317"><ele>1225.2</ele><time>2026-04-18T11:52:18.53Z</time></trkpt><trkpt lat="39.1071933" lon="16.53491"><ele>1224.3999999999999</ele><time>2026-04-18T11:52:19.533Z</time></trkpt><trkpt lat="39.10709" lon="16.534865"><ele>1223.6</ele><time>2026-04-18T11:52:20.531Z</time></trkpt><trkpt lat="39.106985" lon="16.5348433"><ele>1222.8</ele><time>2026-04-18T11:52:21.533Z</time></trkpt><trkpt lat="39.10689" lon="16.5348683"><ele>1222.0</ele><time>2026-04-18T11:52:22.535Z</time></trkpt><trkpt lat="39.1068167" lon="16.53496"><ele>1222.0</ele><time>2026-04-18T11:52:23.534Z</time></trkpt><trkpt lat="39.106765" lon="16.5350933"><ele>1222.0</ele><time>2026-04-18T11:52:24.537Z</time></trkpt><trkpt lat="39.1067417" lon="16.5352467"><ele>1222.0</ele><time>2026-04-18T11:52:25.531Z</time></trkpt><trkpt lat="39.1067083" lon="16.5353917"><ele>1222.0</ele><time>2026-04-18T11:52:26.531Z</time></trkpt><trkpt lat="39.1066733" lon="16.5355333"><ele>1224.75</ele><time>2026-04-18T11:52:27.531Z</time></trkpt><trkpt lat="39.10664" lon="16.5356783"><ele>1227.5</ele><time>2026-04-18T11:52:28.536Z</time></trkpt><trkpt lat="39.1066" lon="16.5358217"><ele>1230.25</ele><time>2026-04-18T11:52:29.53Z</time></trkpt><trkpt lat="39.1065017" lon="16.5358783"><ele>1233.0</ele><time>2026-04-18T11:52:30.54Z</time></trkpt><trkpt lat="39.10639" lon="16.5359067"><ele>1233.0</ele><time>2026-04-18T11:52:31.534Z</time></trkpt><trkpt lat="39.1062767" lon="16.5359683"><ele>1233.0</ele><time>2026-04-18T11:52:32.539Z</time></trkpt><trkpt lat="39.1061517" lon="16.53604"><ele>1233.0</ele><time>2026-04-18T11:52:33.537Z</time></trkpt><trkpt lat="39.1060217" lon="16.53611"><ele>1233.0</ele><time>2026-04-18T11:52:34.537Z</time></trkpt><trkpt lat="39.1058933" lon="16.53621"><ele>1235.75</ele><time>2026-04-18T11:52:35.532Z</time></trkpt><trkpt lat="39.1057617" lon="16.5363183"><ele>1238.5</ele><time>2026-04-18T11:52:36.534Z</time></trkpt><trkpt lat="39.1056417" lon="16.5364333"><ele>1241.25</ele><time>2026-04-18T11:52:37.533Z</time></trkpt><trkpt lat="39.1055633" lon="16.5365733"><ele>1244.0</ele><time>2026-04-18T11:52:38.535Z</time></trkpt><trkpt lat="39.1055217" lon="16.5367383"><ele>1244.0</ele><time>2026-04-18T11:52:39.543Z</time></trkpt><trkpt lat="39.1054833" lon="16.5368983"><ele>1244.0</ele><time>2026-04-18T11:52:40.54Z</time></trkpt><trkpt lat="39.10543" lon="16.5370367"><ele>1244.0</ele><time>2026-04-18T11:52:41.533Z</time></trkpt><trkpt lat="39.1053667" lon="16.537155"><ele>1244.0</ele><time>2026-04-18T11:52:42.535Z</time></trkpt><trkpt lat="39.1052717" lon="16.5372217"><ele>1246.5</ele><time>2026-04-18T11:52:43.531Z</time></trkpt><trkpt lat="39.10515" lon="16.5372633"><ele>1249.0</ele><time>2026-04-18T11:52:44.533Z</time></trkpt><trkpt lat="39.1050167" lon="16.5372917"><ele>1251.5</ele><time>2026-04-18T11:52:45.532Z</time></trkpt><trkpt lat="39.10488" lon="16.53732"><ele>1254.0</ele><time>2026-04-18T11:52:46.532Z</time></trkpt><trkpt lat="39.1047267" lon="16.5373417"><ele>1255.5</ele><time>2026-04-18T11:52:47.534Z</time></trkpt><trkpt lat="39.10458" lon="16.5374"><ele>1257.0</ele><time>2026-04-18T11:52:48.533Z</time></trkpt><trkpt lat="39.1044433" lon="16.53744"><ele>1258.5</ele><time>2026-04-18T11:52:49.533Z</time></trkpt><trkpt lat="39.104325" lon="16.53748"><ele>1260.0</ele><time>2026-04-18T11:52:50.531Z</time></trkpt><trkpt lat="39.1042083" lon="16.53746"><ele>1260.0</ele><time>2026-04-18T11:52:51.539Z</time></trkpt><trkpt lat="39.1041033" lon="16.537365"><ele>1260.0</ele><time>2026-04-18T11:52:52.531Z</time></trkpt><trkpt lat="39.103995" lon="16.5372483"><ele>1260.0</ele><time>2026-04-18T11:52:53.533Z</time></trkpt><trkpt lat="39.1038833" lon="16.5371567"><ele>1260.0</ele><time>2026-04-18T11:52:54.531Z</time></trkpt><trkpt lat="39.1037867" lon="16.5370333"><ele>1259.75</ele><time>2026-04-18T11:52:55.53Z</time></trkpt><trkpt lat="39.1036933" lon="16.5369483"><ele>1259.5</ele><time>2026-04-18T11:52:56.532Z</time></trkpt><trkpt lat="39.1035833" lon="16.5369517"><ele>1259.25</ele><time>2026-04-18T11:52:57.532Z</time></trkpt><trkpt lat="39.1034717" lon="16.5370183"><ele>1259.0</ele><time>2026-04-18T11:52:58.533Z</time></trkpt><trkpt lat="39.103345" lon="16.5371183"><ele>1262.0</ele><time>2026-04-18T11:52:59.542Z</time></trkpt><trkpt lat="39.1032117" lon="16.5371517"><ele>1265.0</ele><time>2026-04-18T11:53:00.534Z</time></trkpt><trkpt lat="39.1030567" lon="16.537215"><ele>1268.0</ele><time>2026-04-18T11:53:01.53Z</time></trkpt><trkpt lat="39.1029133" lon="16.537315"><ele>1268.0</ele><time>2026-04-18T11:53:02.531Z</time></trkpt><trkpt lat="39.1027517" lon="16.537385"><ele>1268.0</ele><time>2026-04-18T11:53:03.532Z</time></trkpt><trkpt lat="39.1025967" lon="16.5373767"><ele>1268.0</ele><time>2026-04-18T11:53:04.53Z</time></trkpt><trkpt lat="39.1024633" lon="16.5373383"><ele>1268.4</ele><time>2026-04-18T11:53:05.531Z</time></trkpt><trkpt lat="39.1023417" lon="16.5372667"><ele>1268.8</ele><time>2026-04-18T11:53:06.532Z</time></trkpt><trkpt lat="39.1022417" lon="16.5372483"><ele>1269.2</ele><time>2026-04-18T11:53:07.54Z</time></trkpt><trkpt lat="39.1021467" lon="16.5371967"><ele>1269.6</ele><time>2026-04-18T11:53:08.532Z</time></trkpt><trkpt lat="39.1020567" lon="16.5372233"><ele>1270.0</ele><time>2026-04-18T11:53:09.534Z</time></trkpt><trkpt lat="39.1019833" lon="16.537275"><ele>1270.0</ele><time>2026-04-18T11:53:10.532Z</time></trkpt><trkpt lat="39.10192" lon="16.5373383"><ele>1270.0</ele><time>2026-04-18T11:53:11.533Z</time></trkpt><trkpt lat="39.1018283" lon="16.53742"><ele>1270.0</ele><time>2026-04-18T11:53:13.532Z</time></trkpt><trkpt lat="39.101735" lon="16.5374067"><ele>1270.0</ele><time>2026-04-18T11:53:15.531Z</time></trkpt><trkpt lat="39.10164" lon="16.5373567"><ele>1270.0</ele><time>2026-04-18T11:53:17.533Z</time></trkpt><trkpt lat="39.1015217" lon="16.537305"><ele>1269.4</ele><time>2026-04-18T11:53:19.532Z</time></trkpt><trkpt lat="39.1014583" lon="16.537285"><ele>1268.8</ele><time>2026-04-18T11:53:20.531Z</time></trkpt><trkpt lat="39.10136" lon="16.5372583"><ele>1268.2</ele><time>2026-04-18T11:53:22.54Z</time></trkpt><trkpt lat="39.1012933" lon="16.537245"><ele>1267.6</ele><time>2026-04-18T11:53:25.533Z</time></trkpt><trkpt lat="39.1011583" lon="16.5372333"><ele>1267.0</ele><time>2026-04-18T11:57:29.001Z</time></trkpt><trkpt lat="39.1012733" lon="16.5372033"><ele>1267.0</ele><time>2026-04-18T11:57:49.531Z</time></trkpt><trkpt lat="39.1013483" lon="16.537235"><ele>1267.0</ele><time>2026-04-18T11:58:10.533Z</time></trkpt><trkpt lat="39.1014133" lon="16.5372817"><ele>1267.0</ele><time>2026-04-18T11:58:13.531Z</time></trkpt><trkpt lat="39.1015017" lon="16.5373367"><ele>1267.0</ele><time>2026-04-18T11:58:15.535Z</time></trkpt><trkpt lat="39.1015717" lon="16.5373767"><ele>1267.0</ele><time>2026-04-18T11:58:16.535Z</time></trkpt><trkpt lat="39.10166" lon="16.53739"><ele>1267.0</ele><time>2026-04-18T11:58:17.534Z</time></trkpt><trkpt lat="39.1017467" lon="16.5374433"><ele>1267.75</ele><time>2026-04-18T11:58:18.529Z</time></trkpt><trkpt lat="39.1018483" lon="16.5374933"><ele>1268.5</ele><time>2026-04-18T11:58:19.535Z</time></trkpt><trkpt lat="39.101955" lon="16.5375467"><ele>1269.25</ele><time>2026-04-18T11:58:20.532Z</time></trkpt><trkpt lat="39.10207" lon="16.53761"><ele>1270.0</ele><time>2026-04-18T11:58:21.534Z</time></trkpt><trkpt lat="39.1021883" lon="16.5376717"><ele>1270.0</ele><time>2026-04-18T11:58:22.535Z</time></trkpt><trkpt lat="39.1022967" lon="16.5377433"><ele>1270.0</ele><time>2026-04-18T11:58:23.534Z</time></trkpt><trkpt lat="39.1024117" lon="16.5378017"><ele>1270.0</ele><time>2026-04-18T11:58:24.536Z</time></trkpt><trkpt lat="39.1025217" lon="16.537885"><ele>1270.0</ele><time>2026-04-18T11:58:25.537Z</time></trkpt><trkpt lat="39.1026417" lon="16.5379583"><ele>1269.5</ele><time>2026-04-18T11:58:26.532Z</time></trkpt><trkpt lat="39.102775" lon="16.53801"><ele>1269.0</ele><time>2026-04-18T11:58:27.532Z</time></trkpt><trkpt lat="39.1029033" lon="16.5380867"><ele>1268.5</ele><time>2026-04-18T11:58:28.532Z</time></trkpt><trkpt lat="39.1030367" lon="16.5381633"><ele>1268.0</ele><time>2026-04-18T11:58:29.534Z</time></trkpt><trkpt lat="39.1031717" lon="16.5382333"><ele>1268.75</ele><time>2026-04-18T11:58:30.534Z</time></trkpt><trkpt lat="39.1033017" lon="16.538295"><ele>1269.5</ele><time>2026-04-18T11:58:31.533Z</time></trkpt><trkpt lat="39.103425" lon="16.53835"><ele>1270.25</ele><time>2026-04-18T11:58:32.535Z</time></trkpt><trkpt lat="39.1035367" lon="16.5384133"><ele>1271.0</ele><time>2026-04-18T11:58:33.532Z</time></trkpt><trkpt lat="39.1036417" lon="16.5384733"><ele>1271.0</ele><time>2026-04-18T11:58:34.536Z</time></trkpt><trkpt lat="39.1037417" lon="16.5385367"><ele>1271.0</ele><time>2026-04-18T11:58:35.533Z</time></trkpt><trkpt lat="39.1038467" lon="16.5385783"><ele>1271.0</ele><time>2026-04-18T11:58:36.532Z</time></trkpt><trkpt lat="39.10395" lon="16.538625"><ele>1271.0</ele><time>2026-04-18T11:58:37.536Z</time></trkpt><trkpt lat="39.1040567" lon="16.5386717"><ele>1271.0</ele><time>2026-04-18T11:58:38.532Z</time></trkpt><trkpt lat="39.1041633" lon="16.5387233"><ele>1271.8</ele><time>2026-04-18T11:58:39.533Z</time></trkpt><trkpt lat="39.10427" lon="16.53877"><ele>1272.6</ele><time>2026-04-18T11:58:40.532Z</time></trkpt><trkpt lat="39.10437" lon="16.5388167"><ele>1273.4</ele><time>2026-04-18T11:58:41.534Z</time></trkpt><trkpt lat="39.10446" lon="16.5388767"><ele>1274.2</ele><time>2026-04-18T11:58:42.533Z</time></trkpt><trkpt lat="39.1045333" lon="16.5389567"><ele>1275.0</ele><time>2026-04-18T11:58:43.534Z</time></trkpt><trkpt lat="39.1046017" lon="16.53904"><ele>1275.0</ele><time>2026-04-18T11:58:44.533Z</time></trkpt><trkpt lat="39.1046667" lon="16.5391317"><ele>1275.0</ele><time>2026-04-18T11:58:45.536Z</time></trkpt><trkpt lat="39.1047133" lon="16.539235"><ele>1275.0</ele><time>2026-04-18T11:58:46.536Z</time></trkpt><trkpt lat="39.1047367" lon="16.5393517"><ele>1275.0</ele><time>2026-04-18T11:58:47.532Z</time></trkpt><trkpt lat="39.1047383" lon="16.539465"><ele>1275.0</ele><time>2026-04-18T11:58:48.533Z</time></trkpt><trkpt lat="39.1047283" lon="16.5395717"><ele>1275.0</ele><time>2026-04-18T11:58:49.532Z</time></trkpt><trkpt lat="39.1047167" lon="16.5396733"><ele>1275.0</ele><time>2026-04-18T11:58:50.532Z</time></trkpt><trkpt lat="39.104705" lon="16.5397733"><ele>1275.0</ele><time>2026-04-18T11:58:51.531Z</time></trkpt><trkpt lat="39.1046983" lon="16.5398733"><ele>1275.0</ele><time>2026-04-18T11:58:52.531Z</time></trkpt><trkpt lat="39.1046917" lon="16.540075"><ele>1275.0</ele><time>2026-04-18T11:58:54.535Z</time></trkpt></trkseg></trk></gpx>